<?xml version="1.0" encoding="UTF-8" standalone="no" ?>
<gpx xmlns="http://www.topografix.com/GPX/1/1" xmlns:xsi="http://www.w3.org/2001/XMLSchema-instance" xsi:schemaLocation="http://www.topografix.com/GPX/1/1 http://www.topografix.com/GPX/1/1/gpx.xsd" version="1.1" creator="VisuGPX - https://www.visugpx.com">
  <metadata>
    <name>Causse Méjean Florac - Meyrueis</name>
    <desc><![CDATA[Causse Méjean : Florac - Meyrueis par la bordure du causse Méjean]]></desc>
  </metadata>
  <trk>
    <name><![CDATA[Causse Méjean Florac - Meyrueis_1]]></name>
    <trkseg>
      <trkpt lat="44.32797" lon="3.56641">
        <ele>1087</ele>
        <time>2014-06-21T12:03:15.000Z</time>
      </trkpt>
      <trkpt lat="44.32793" lon="3.56652">
        <ele>1088</ele>
        <time>2014-06-21T12:04:04.000Z</time>
      </trkpt>
      <trkpt lat="44.32791" lon="3.56661">
        <ele>1087</ele>
        <time>2014-06-21T12:04:20.000Z</time>
      </trkpt>
      <trkpt lat="44.32789" lon="3.56667">
        <ele>1086</ele>
        <time>2014-06-21T12:04:23.000Z</time>
      </trkpt>
      <trkpt lat="44.32784" lon="3.56669">
        <ele>1085</ele>
        <time>2014-06-21T12:04:27.000Z</time>
      </trkpt>
      <trkpt lat="44.32779" lon="3.56672">
        <ele>1088</ele>
        <time>2014-06-21T12:04:31.000Z</time>
      </trkpt>
      <trkpt lat="44.32779" lon="3.56672">
        <ele>1088</ele>
        <time>2014-06-21T12:04:32.000Z</time>
      </trkpt>
      <trkpt lat="44.32775" lon="3.56676">
        <ele>1087</ele>
        <time>2014-06-21T12:04:34.000Z</time>
      </trkpt>
      <trkpt lat="44.32775" lon="3.56676">
        <ele>1087</ele>
        <time>2014-06-21T12:04:36.000Z</time>
      </trkpt>
      <trkpt lat="44.32775" lon="3.56676">
        <ele>1087</ele>
        <time>2014-06-21T12:04:38.000Z</time>
      </trkpt>
      <trkpt lat="44.32775" lon="3.56676">
        <ele>1087</ele>
        <time>2014-06-21T12:04:40.000Z</time>
      </trkpt>
      <trkpt lat="44.32775" lon="3.56676">
        <ele>1087</ele>
        <time>2014-06-21T12:04:42.000Z</time>
      </trkpt>
      <trkpt lat="44.32771" lon="3.56692">
        <ele>1085</ele>
        <time>2014-06-21T12:04:46.000Z</time>
      </trkpt>
      <trkpt lat="44.32769" lon="3.56702">
        <ele>1085</ele>
        <time>2014-06-21T12:04:48.000Z</time>
      </trkpt>
      <trkpt lat="44.32767" lon="3.56709">
        <ele>1085</ele>
        <time>2014-06-21T12:04:50.000Z</time>
      </trkpt>
      <trkpt lat="44.32767" lon="3.56718">
        <ele>1084</ele>
        <time>2014-06-21T12:04:54.000Z</time>
      </trkpt>
      <trkpt lat="44.32767" lon="3.56718">
        <ele>1084</ele>
        <time>2014-06-21T12:04:56.000Z</time>
      </trkpt>
      <trkpt lat="44.32767" lon="3.56718">
        <ele>1084</ele>
        <time>2014-06-21T12:04:58.000Z</time>
      </trkpt>
      <trkpt lat="44.32765" lon="3.56732">
        <ele>1086</ele>
        <time>2014-06-21T12:05:02.000Z</time>
      </trkpt>
      <trkpt lat="44.32764" lon="3.56741">
        <ele>1086</ele>
        <time>2014-06-21T12:05:04.000Z</time>
      </trkpt>
      <trkpt lat="44.32763" lon="3.56749">
        <ele>1087</ele>
        <time>2014-06-21T12:05:06.000Z</time>
      </trkpt>
      <trkpt lat="44.32763" lon="3.56749">
        <ele>1087</ele>
        <time>2014-06-21T12:05:08.000Z</time>
      </trkpt>
      <trkpt lat="44.32763" lon="3.56749">
        <ele>1087</ele>
        <time>2014-06-21T12:05:10.000Z</time>
      </trkpt>
      <trkpt lat="44.32763" lon="3.56749">
        <ele>1087</ele>
        <time>2014-06-21T12:05:11.000Z</time>
      </trkpt>
      <trkpt lat="44.32759" lon="3.56764">
        <ele>1086</ele>
        <time>2014-06-21T12:05:15.000Z</time>
      </trkpt>
      <trkpt lat="44.32757" lon="3.56774">
        <ele>1086</ele>
        <time>2014-06-21T12:05:17.000Z</time>
      </trkpt>
      <trkpt lat="44.32754" lon="3.56782">
        <ele>1085</ele>
        <time>2014-06-21T12:05:19.000Z</time>
      </trkpt>
      <trkpt lat="44.32752" lon="3.5679">
        <ele>1085</ele>
        <time>2014-06-21T12:05:21.000Z</time>
      </trkpt>
      <trkpt lat="44.3275" lon="3.56796">
        <ele>1085</ele>
        <time>2014-06-21T12:05:23.000Z</time>
      </trkpt>
      <trkpt lat="44.32742" lon="3.56811">
        <ele>1084</ele>
        <time>2014-06-21T12:05:26.000Z</time>
      </trkpt>
      <trkpt lat="44.32732" lon="3.56823">
        <ele>1082</ele>
        <time>2014-06-21T12:05:30.000Z</time>
      </trkpt>
      <trkpt lat="44.32724" lon="3.56832">
        <ele>1082</ele>
        <time>2014-06-21T12:05:32.000Z</time>
      </trkpt>
      <trkpt lat="44.32715" lon="3.56839">
        <ele>1082</ele>
        <time>2014-06-21T12:05:34.000Z</time>
      </trkpt>
      <trkpt lat="44.32708" lon="3.56847">
        <ele>1083</ele>
        <time>2014-06-21T12:05:36.000Z</time>
      </trkpt>
      <trkpt lat="44.327" lon="3.56855">
        <ele>1083</ele>
        <time>2014-06-21T12:05:38.000Z</time>
      </trkpt>
      <trkpt lat="44.32687" lon="3.56868">
        <ele>1081</ele>
        <time>2014-06-21T12:05:42.000Z</time>
      </trkpt>
      <trkpt lat="44.32687" lon="3.56868">
        <ele>1081</ele>
        <time>2014-06-21T12:05:44.000Z</time>
      </trkpt>
      <trkpt lat="44.32687" lon="3.56868">
        <ele>1081</ele>
        <time>2014-06-21T12:05:46.000Z</time>
      </trkpt>
      <trkpt lat="44.32687" lon="3.56868">
        <ele>1081</ele>
        <time>2014-06-21T12:05:48.000Z</time>
      </trkpt>
      <trkpt lat="44.32687" lon="3.56868">
        <ele>1081</ele>
        <time>2014-06-21T12:05:52.000Z</time>
      </trkpt>
      <trkpt lat="44.32687" lon="3.56868">
        <ele>1081</ele>
        <time>2014-06-21T12:05:54.000Z</time>
      </trkpt>
      <trkpt lat="44.32687" lon="3.56868">
        <ele>1081</ele>
        <time>2014-06-21T12:05:56.000Z</time>
      </trkpt>
      <trkpt lat="44.32687" lon="3.56868">
        <ele>1081</ele>
        <time>2014-06-21T12:05:58.000Z</time>
      </trkpt>
      <trkpt lat="44.32628" lon="3.56927">
        <ele>1084</ele>
        <time>2014-06-21T12:06:02.000Z</time>
      </trkpt>
      <trkpt lat="44.32616" lon="3.5694">
        <ele>1085</ele>
        <time>2014-06-21T12:06:06.000Z</time>
      </trkpt>
      <trkpt lat="44.32616" lon="3.5694">
        <ele>1085</ele>
        <time>2014-06-21T12:06:08.000Z</time>
      </trkpt>
      <trkpt lat="44.32604" lon="3.56953">
        <ele>1086</ele>
        <time>2014-06-21T12:06:10.000Z</time>
      </trkpt>
      <trkpt lat="44.32604" lon="3.56953">
        <ele>1086</ele>
        <time>2014-06-21T12:06:12.000Z</time>
      </trkpt>
      <trkpt lat="44.32604" lon="3.56953">
        <ele>1086</ele>
        <time>2014-06-21T12:06:14.000Z</time>
      </trkpt>
      <trkpt lat="44.32604" lon="3.56953">
        <ele>1086</ele>
        <time>2014-06-21T12:06:16.000Z</time>
      </trkpt>
      <trkpt lat="44.32604" lon="3.56953">
        <ele>1086</ele>
        <time>2014-06-21T12:06:18.000Z</time>
      </trkpt>
      <trkpt lat="44.32604" lon="3.56953">
        <ele>1086</ele>
        <time>2014-06-21T12:06:20.000Z</time>
      </trkpt>
      <trkpt lat="44.32604" lon="3.56953">
        <ele>1086</ele>
        <time>2014-06-21T12:06:23.000Z</time>
      </trkpt>
      <trkpt lat="44.32586" lon="3.5697">
        <ele>1087</ele>
        <time>2014-06-21T12:06:30.000Z</time>
      </trkpt>
      <trkpt lat="44.32576" lon="3.5698">
        <ele>1088</ele>
        <time>2014-06-21T12:06:34.000Z</time>
      </trkpt>
      <trkpt lat="44.32566" lon="3.56992">
        <ele>1087</ele>
        <time>2014-06-21T12:06:38.000Z</time>
      </trkpt>
      <trkpt lat="44.32555" lon="3.57004">
        <ele>1087</ele>
        <time>2014-06-21T12:06:42.000Z</time>
      </trkpt>
      <trkpt lat="44.32541" lon="3.57017">
        <ele>1086</ele>
        <time>2014-06-21T12:06:46.000Z</time>
      </trkpt>
      <trkpt lat="44.32529" lon="3.5703">
        <ele>1084</ele>
        <time>2014-06-21T12:06:50.000Z</time>
      </trkpt>
      <trkpt lat="44.32514" lon="3.5704">
        <ele>1083</ele>
        <time>2014-06-21T12:06:54.000Z</time>
      </trkpt>
      <trkpt lat="44.32505" lon="3.57042">
        <ele>1082</ele>
        <time>2014-06-21T12:06:56.000Z</time>
      </trkpt>
      <trkpt lat="44.32495" lon="3.57041">
        <ele>1081</ele>
        <time>2014-06-21T12:06:58.000Z</time>
      </trkpt>
      <trkpt lat="44.32483" lon="3.57036">
        <ele>1079</ele>
        <time>2014-06-21T12:07:00.000Z</time>
      </trkpt>
      <trkpt lat="44.32471" lon="3.57029">
        <ele>1079</ele>
        <time>2014-06-21T12:07:02.000Z</time>
      </trkpt>
      <trkpt lat="44.32461" lon="3.57023">
        <ele>1078</ele>
        <time>2014-06-21T12:07:04.000Z</time>
      </trkpt>
      <trkpt lat="44.32461" lon="3.57023">
        <ele>1078</ele>
        <time>2014-06-21T12:07:06.000Z</time>
      </trkpt>
      <trkpt lat="44.32461" lon="3.57023">
        <ele>1078</ele>
        <time>2014-06-21T12:07:08.000Z</time>
      </trkpt>
      <trkpt lat="44.32461" lon="3.57023">
        <ele>1078</ele>
        <time>2014-06-21T12:07:10.000Z</time>
      </trkpt>
      <trkpt lat="44.32461" lon="3.57023">
        <ele>1078</ele>
        <time>2014-06-21T12:07:12.000Z</time>
      </trkpt>
      <trkpt lat="44.32461" lon="3.57023">
        <ele>1078</ele>
        <time>2014-06-21T12:07:14.000Z</time>
      </trkpt>
      <trkpt lat="44.32461" lon="3.57023">
        <ele>1078</ele>
        <time>2014-06-21T12:07:17.000Z</time>
      </trkpt>
      <trkpt lat="44.32461" lon="3.57023">
        <ele>1078</ele>
        <time>2014-06-21T12:07:25.000Z</time>
      </trkpt>
      <trkpt lat="44.32457" lon="3.57059">
        <ele>1081</ele>
        <time>2014-06-21T12:07:35.000Z</time>
      </trkpt>
      <trkpt lat="44.32455" lon="3.5708">
        <ele>1081</ele>
        <time>2014-06-21T12:07:37.000Z</time>
      </trkpt>
      <trkpt lat="44.32454" lon="3.57094">
        <ele>1082</ele>
        <time>2014-06-21T12:07:39.000Z</time>
      </trkpt>
      <trkpt lat="44.32452" lon="3.57104">
        <ele>1084</ele>
        <time>2014-06-21T12:07:42.000Z</time>
      </trkpt>
      <trkpt lat="44.32449" lon="3.57111">
        <ele>1083</ele>
        <time>2014-06-21T12:07:43.000Z</time>
      </trkpt>
      <trkpt lat="44.32441" lon="3.57121">
        <ele>1083</ele>
        <time>2014-06-21T12:07:45.000Z</time>
      </trkpt>
      <trkpt lat="44.32431" lon="3.57133">
        <ele>1083</ele>
        <time>2014-06-21T12:07:49.000Z</time>
      </trkpt>
      <trkpt lat="44.32431" lon="3.57133">
        <ele>1083</ele>
        <time>2014-06-21T12:07:51.000Z</time>
      </trkpt>
      <trkpt lat="44.32421" lon="3.57143">
        <ele>1085</ele>
        <time>2014-06-21T12:07:53.000Z</time>
      </trkpt>
      <trkpt lat="44.32421" lon="3.57143">
        <ele>1085</ele>
        <time>2014-06-21T12:07:55.000Z</time>
      </trkpt>
      <trkpt lat="44.32421" lon="3.57143">
        <ele>1085</ele>
        <time>2014-06-21T12:07:57.000Z</time>
      </trkpt>
      <trkpt lat="44.32421" lon="3.57143">
        <ele>1085</ele>
        <time>2014-06-21T12:07:59.000Z</time>
      </trkpt>
      <trkpt lat="44.32396" lon="3.57165">
        <ele>1084</ele>
        <time>2014-06-21T12:08:03.000Z</time>
      </trkpt>
      <trkpt lat="44.32385" lon="3.57177">
        <ele>1084</ele>
        <time>2014-06-21T12:08:07.000Z</time>
      </trkpt>
      <trkpt lat="44.32372" lon="3.57187">
        <ele>1085</ele>
        <time>2014-06-21T12:08:11.000Z</time>
      </trkpt>
      <trkpt lat="44.32362" lon="3.57196">
        <ele>1085</ele>
        <time>2014-06-21T12:08:15.000Z</time>
      </trkpt>
      <trkpt lat="44.32362" lon="3.57196">
        <ele>1085</ele>
        <time>2014-06-21T12:08:17.000Z</time>
      </trkpt>
      <trkpt lat="44.3235" lon="3.57205">
        <ele>1086</ele>
        <time>2014-06-21T12:08:19.000Z</time>
      </trkpt>
      <trkpt lat="44.32339" lon="3.57215">
        <ele>1088</ele>
        <time>2014-06-21T12:08:23.000Z</time>
      </trkpt>
      <trkpt lat="44.32327" lon="3.57224">
        <ele>1089</ele>
        <time>2014-06-21T12:08:28.000Z</time>
      </trkpt>
      <trkpt lat="44.32327" lon="3.57224">
        <ele>1089</ele>
        <time>2014-06-21T12:08:29.000Z</time>
      </trkpt>
      <trkpt lat="44.32327" lon="3.57224">
        <ele>1089</ele>
        <time>2014-06-21T12:08:31.000Z</time>
      </trkpt>
      <trkpt lat="44.32327" lon="3.57224">
        <ele>1089</ele>
        <time>2014-06-21T12:08:32.000Z</time>
      </trkpt>
      <trkpt lat="44.32327" lon="3.57224">
        <ele>1089</ele>
        <time>2014-06-21T12:08:34.000Z</time>
      </trkpt>
      <trkpt lat="44.32327" lon="3.57224">
        <ele>1089</ele>
        <time>2014-06-21T12:08:36.000Z</time>
      </trkpt>
      <trkpt lat="44.32327" lon="3.57224">
        <ele>1089</ele>
        <time>2014-06-21T12:08:38.000Z</time>
      </trkpt>
      <trkpt lat="44.32327" lon="3.57224">
        <ele>1089</ele>
        <time>2014-06-21T12:08:40.000Z</time>
      </trkpt>
      <trkpt lat="44.32327" lon="3.57224">
        <ele>1089</ele>
        <time>2014-06-21T12:08:42.000Z</time>
      </trkpt>
      <trkpt lat="44.32327" lon="3.57224">
        <ele>1089</ele>
        <time>2014-06-21T12:08:44.000Z</time>
      </trkpt>
      <trkpt lat="44.32327" lon="3.57224">
        <ele>1089</ele>
        <time>2014-06-21T12:08:46.000Z</time>
      </trkpt>
      <trkpt lat="44.32327" lon="3.57224">
        <ele>1089</ele>
        <time>2014-06-21T12:08:48.000Z</time>
      </trkpt>
      <trkpt lat="44.32327" lon="3.57224">
        <ele>1089</ele>
        <time>2014-06-21T12:08:50.000Z</time>
      </trkpt>
      <trkpt lat="44.32327" lon="3.57224">
        <ele>1089</ele>
        <time>2014-06-21T12:08:53.000Z</time>
      </trkpt>
      <trkpt lat="44.32327" lon="3.57224">
        <ele>1089</ele>
        <time>2014-06-21T12:08:54.000Z</time>
      </trkpt>
      <trkpt lat="44.32271" lon="3.57277">
        <ele>1081</ele>
        <time>2014-06-21T12:08:56.000Z</time>
      </trkpt>
      <trkpt lat="44.32262" lon="3.57283">
        <ele>1081</ele>
        <time>2014-06-21T12:09:00.000Z</time>
      </trkpt>
      <trkpt lat="44.32262" lon="3.57283">
        <ele>1081</ele>
        <time>2014-06-21T12:09:02.000Z</time>
      </trkpt>
      <trkpt lat="44.32262" lon="3.57283">
        <ele>1081</ele>
        <time>2014-06-21T12:09:04.000Z</time>
      </trkpt>
      <trkpt lat="44.32262" lon="3.57283">
        <ele>1081</ele>
        <time>2014-06-21T12:09:06.000Z</time>
      </trkpt>
      <trkpt lat="44.32262" lon="3.57283">
        <ele>1081</ele>
        <time>2014-06-21T12:09:08.000Z</time>
      </trkpt>
      <trkpt lat="44.32262" lon="3.57283">
        <ele>1081</ele>
        <time>2014-06-21T12:09:10.000Z</time>
      </trkpt>
      <trkpt lat="44.32262" lon="3.57283">
        <ele>1081</ele>
        <time>2014-06-21T12:09:12.000Z</time>
      </trkpt>
      <trkpt lat="44.32262" lon="3.57283">
        <ele>1081</ele>
        <time>2014-06-21T12:09:14.000Z</time>
      </trkpt>
      <trkpt lat="44.32255" lon="3.57294">
        <ele>1079</ele>
        <time>2014-06-21T12:09:24.000Z</time>
      </trkpt>
      <trkpt lat="44.3225" lon="3.57302">
        <ele>1080</ele>
        <time>2014-06-21T12:09:26.000Z</time>
      </trkpt>
      <trkpt lat="44.32246" lon="3.57307">
        <ele>1080</ele>
        <time>2014-06-21T12:09:28.000Z</time>
      </trkpt>
      <trkpt lat="44.32242" lon="3.57312">
        <ele>1081</ele>
        <time>2014-06-21T12:09:32.000Z</time>
      </trkpt>
      <trkpt lat="44.32242" lon="3.57312">
        <ele>1081</ele>
        <time>2014-06-21T12:09:34.000Z</time>
      </trkpt>
      <trkpt lat="44.32242" lon="3.57312">
        <ele>1081</ele>
        <time>2014-06-21T12:09:36.000Z</time>
      </trkpt>
      <trkpt lat="44.32242" lon="3.57312">
        <ele>1081</ele>
        <time>2014-06-21T12:09:38.000Z</time>
      </trkpt>
      <trkpt lat="44.32231" lon="3.5732">
        <ele>1080</ele>
        <time>2014-06-21T12:11:36.000Z</time>
      </trkpt>
      <trkpt lat="44.32222" lon="3.57325">
        <ele>1080</ele>
        <time>2014-06-21T12:11:38.000Z</time>
      </trkpt>
      <trkpt lat="44.32215" lon="3.57329">
        <ele>1080</ele>
        <time>2014-06-21T12:11:40.000Z</time>
      </trkpt>
      <trkpt lat="44.3221" lon="3.57332">
        <ele>1079</ele>
        <time>2014-06-21T12:11:42.000Z</time>
      </trkpt>
      <trkpt lat="44.32204" lon="3.57334">
        <ele>1079</ele>
        <time>2014-06-21T12:11:44.000Z</time>
      </trkpt>
      <trkpt lat="44.32192" lon="3.5734">
        <ele>1077</ele>
        <time>2014-06-21T12:11:46.000Z</time>
      </trkpt>
      <trkpt lat="44.32179" lon="3.57347">
        <ele>1077</ele>
        <time>2014-06-21T12:11:50.000Z</time>
      </trkpt>
      <trkpt lat="44.32164" lon="3.57353">
        <ele>1077</ele>
        <time>2014-06-21T12:11:55.000Z</time>
      </trkpt>
      <trkpt lat="44.32154" lon="3.57358">
        <ele>1076</ele>
        <time>2014-06-21T12:11:56.000Z</time>
      </trkpt>
      <trkpt lat="44.32145" lon="3.57361">
        <ele>1076</ele>
        <time>2014-06-21T12:11:58.000Z</time>
      </trkpt>
      <trkpt lat="44.32145" lon="3.57361">
        <ele>1076</ele>
        <time>2014-06-21T12:12:00.000Z</time>
      </trkpt>
      <trkpt lat="44.32145" lon="3.57361">
        <ele>1076</ele>
        <time>2014-06-21T12:12:02.000Z</time>
      </trkpt>
      <trkpt lat="44.32145" lon="3.57361">
        <ele>1076</ele>
        <time>2014-06-21T12:12:04.000Z</time>
      </trkpt>
      <trkpt lat="44.32145" lon="3.57361">
        <ele>1076</ele>
        <time>2014-06-21T12:12:06.000Z</time>
      </trkpt>
      <trkpt lat="44.32145" lon="3.57361">
        <ele>1076</ele>
        <time>2014-06-21T12:12:08.000Z</time>
      </trkpt>
      <trkpt lat="44.32145" lon="3.57361">
        <ele>1076</ele>
        <time>2014-06-21T12:12:10.000Z</time>
      </trkpt>
      <trkpt lat="44.32145" lon="3.57361">
        <ele>1076</ele>
        <time>2014-06-21T12:12:12.000Z</time>
      </trkpt>
      <trkpt lat="44.32145" lon="3.57361">
        <ele>1076</ele>
        <time>2014-06-21T12:12:14.000Z</time>
      </trkpt>
      <trkpt lat="44.32109" lon="3.5741">
        <ele>1082</ele>
        <time>2014-06-21T12:12:23.000Z</time>
      </trkpt>
      <trkpt lat="44.32109" lon="3.5741">
        <ele>1082</ele>
        <time>2014-06-21T12:12:24.000Z</time>
      </trkpt>
      <trkpt lat="44.32103" lon="3.57429">
        <ele>1083</ele>
        <time>2014-06-21T12:12:30.000Z</time>
      </trkpt>
      <trkpt lat="44.32096" lon="3.5744">
        <ele>1084</ele>
        <time>2014-06-21T12:12:36.000Z</time>
      </trkpt>
      <trkpt lat="44.32096" lon="3.5744">
        <ele>1084</ele>
        <time>2014-06-21T12:12:38.000Z</time>
      </trkpt>
      <trkpt lat="44.32096" lon="3.5744">
        <ele>1084</ele>
        <time>2014-06-21T12:12:40.000Z</time>
      </trkpt>
      <trkpt lat="44.32096" lon="3.5744">
        <ele>1084</ele>
        <time>2014-06-21T12:12:42.000Z</time>
      </trkpt>
      <trkpt lat="44.32084" lon="3.57459">
        <ele>1087</ele>
        <time>2014-06-21T12:12:46.000Z</time>
      </trkpt>
      <trkpt lat="44.32074" lon="3.57468">
        <ele>1085</ele>
        <time>2014-06-21T12:12:52.000Z</time>
      </trkpt>
      <trkpt lat="44.32074" lon="3.57468">
        <ele>1085</ele>
        <time>2014-06-21T12:12:54.000Z</time>
      </trkpt>
      <trkpt lat="44.32074" lon="3.57468">
        <ele>1085</ele>
        <time>2014-06-21T12:12:56.000Z</time>
      </trkpt>
      <trkpt lat="44.32063" lon="3.57473">
        <ele>1087</ele>
        <time>2014-06-21T12:12:58.000Z</time>
      </trkpt>
      <trkpt lat="44.32054" lon="3.57476">
        <ele>1088</ele>
        <time>2014-06-21T12:13:02.000Z</time>
      </trkpt>
      <trkpt lat="44.32042" lon="3.57479">
        <ele>1088</ele>
        <time>2014-06-21T12:13:08.000Z</time>
      </trkpt>
      <trkpt lat="44.32033" lon="3.57481">
        <ele>1088</ele>
        <time>2014-06-21T12:13:12.000Z</time>
      </trkpt>
      <trkpt lat="44.32022" lon="3.57482">
        <ele>1088</ele>
        <time>2014-06-21T12:13:16.000Z</time>
      </trkpt>
      <trkpt lat="44.32017" lon="3.57485">
        <ele>1089</ele>
        <time>2014-06-21T12:13:20.000Z</time>
      </trkpt>
      <trkpt lat="44.32013" lon="3.57488">
        <ele>1090</ele>
        <time>2014-06-21T12:13:23.000Z</time>
      </trkpt>
      <trkpt lat="44.32008" lon="3.57491">
        <ele>1090</ele>
        <time>2014-06-21T12:13:24.000Z</time>
      </trkpt>
      <trkpt lat="44.32003" lon="3.57494">
        <ele>1091</ele>
        <time>2014-06-21T12:13:26.000Z</time>
      </trkpt>
      <trkpt lat="44.32003" lon="3.57494">
        <ele>1091</ele>
        <time>2014-06-21T12:13:28.000Z</time>
      </trkpt>
      <trkpt lat="44.31994" lon="3.57501">
        <ele>1091</ele>
        <time>2014-06-21T12:13:32.000Z</time>
      </trkpt>
      <trkpt lat="44.31987" lon="3.57508">
        <ele>1090</ele>
        <time>2014-06-21T12:13:34.000Z</time>
      </trkpt>
      <trkpt lat="44.31981" lon="3.57514">
        <ele>1090</ele>
        <time>2014-06-21T12:13:36.000Z</time>
      </trkpt>
      <trkpt lat="44.31975" lon="3.57519">
        <ele>1090</ele>
        <time>2014-06-21T12:13:38.000Z</time>
      </trkpt>
      <trkpt lat="44.3197" lon="3.57525">
        <ele>1090</ele>
        <time>2014-06-21T12:13:40.000Z</time>
      </trkpt>
      <trkpt lat="44.31961" lon="3.57537">
        <ele>1090</ele>
        <time>2014-06-21T12:13:42.000Z</time>
      </trkpt>
      <trkpt lat="44.31952" lon="3.57548">
        <ele>1091</ele>
        <time>2014-06-21T12:13:46.000Z</time>
      </trkpt>
      <trkpt lat="44.31952" lon="3.57548">
        <ele>1091</ele>
        <time>2014-06-21T12:13:48.000Z</time>
      </trkpt>
      <trkpt lat="44.31952" lon="3.57548">
        <ele>1091</ele>
        <time>2014-06-21T12:13:50.000Z</time>
      </trkpt>
      <trkpt lat="44.31952" lon="3.57548">
        <ele>1091</ele>
        <time>2014-06-21T12:13:52.000Z</time>
      </trkpt>
      <trkpt lat="44.31952" lon="3.57548">
        <ele>1091</ele>
        <time>2014-06-21T12:13:54.000Z</time>
      </trkpt>
      <trkpt lat="44.31952" lon="3.57548">
        <ele>1091</ele>
        <time>2014-06-21T12:13:56.000Z</time>
      </trkpt>
      <trkpt lat="44.31952" lon="3.57548">
        <ele>1091</ele>
        <time>2014-06-21T12:13:58.000Z</time>
      </trkpt>
      <trkpt lat="44.31952" lon="3.57548">
        <ele>1091</ele>
        <time>2014-06-21T12:14:00.000Z</time>
      </trkpt>
      <trkpt lat="44.31952" lon="3.57548">
        <ele>1091</ele>
        <time>2014-06-21T12:14:02.000Z</time>
      </trkpt>
      <trkpt lat="44.31919" lon="3.57589">
        <ele>1094</ele>
        <time>2014-06-21T12:14:06.000Z</time>
      </trkpt>
      <trkpt lat="44.31913" lon="3.57599">
        <ele>1093</ele>
        <time>2014-06-21T12:14:10.000Z</time>
      </trkpt>
      <trkpt lat="44.31913" lon="3.57599">
        <ele>1093</ele>
        <time>2014-06-21T12:14:12.000Z</time>
      </trkpt>
      <trkpt lat="44.31913" lon="3.57599">
        <ele>1093</ele>
        <time>2014-06-21T12:14:14.000Z</time>
      </trkpt>
      <trkpt lat="44.31913" lon="3.57599">
        <ele>1093</ele>
        <time>2014-06-21T12:14:16.000Z</time>
      </trkpt>
      <trkpt lat="44.31913" lon="3.57599">
        <ele>1093</ele>
        <time>2014-06-21T12:14:18.000Z</time>
      </trkpt>
      <trkpt lat="44.31913" lon="3.57599">
        <ele>1093</ele>
        <time>2014-06-21T12:14:20.000Z</time>
      </trkpt>
      <trkpt lat="44.31913" lon="3.57599">
        <ele>1093</ele>
        <time>2014-06-21T12:14:23.000Z</time>
      </trkpt>
      <trkpt lat="44.31913" lon="3.57599">
        <ele>1093</ele>
        <time>2014-06-21T12:14:24.000Z</time>
      </trkpt>
      <trkpt lat="44.31913" lon="3.57599">
        <ele>1093</ele>
        <time>2014-06-21T12:14:27.000Z</time>
      </trkpt>
      <trkpt lat="44.31913" lon="3.57599">
        <ele>1093</ele>
        <time>2014-06-21T12:14:28.000Z</time>
      </trkpt>
      <trkpt lat="44.31913" lon="3.57599">
        <ele>1093</ele>
        <time>2014-06-21T12:14:30.000Z</time>
      </trkpt>
      <trkpt lat="44.3188" lon="3.5764">
        <ele>1096</ele>
        <time>2014-06-21T12:14:36.000Z</time>
      </trkpt>
      <trkpt lat="44.31873" lon="3.57649">
        <ele>1097</ele>
        <time>2014-06-21T12:14:42.000Z</time>
      </trkpt>
      <trkpt lat="44.31873" lon="3.57649">
        <ele>1097</ele>
        <time>2014-06-21T12:14:46.000Z</time>
      </trkpt>
      <trkpt lat="44.31873" lon="3.57649">
        <ele>1097</ele>
        <time>2014-06-21T12:14:48.000Z</time>
      </trkpt>
      <trkpt lat="44.31873" lon="3.57649">
        <ele>1097</ele>
        <time>2014-06-21T12:14:50.000Z</time>
      </trkpt>
      <trkpt lat="44.31866" lon="3.57659">
        <ele>1100</ele>
        <time>2014-06-21T12:14:54.000Z</time>
      </trkpt>
      <trkpt lat="44.31862" lon="3.57665">
        <ele>1100</ele>
        <time>2014-06-21T12:14:56.000Z</time>
      </trkpt>
      <trkpt lat="44.3186" lon="3.57671">
        <ele>1101</ele>
        <time>2014-06-21T12:14:58.000Z</time>
      </trkpt>
      <trkpt lat="44.31857" lon="3.57676">
        <ele>1101</ele>
        <time>2014-06-21T12:15:00.000Z</time>
      </trkpt>
      <trkpt lat="44.31853" lon="3.57683">
        <ele>1100</ele>
        <time>2014-06-21T12:15:04.000Z</time>
      </trkpt>
      <trkpt lat="44.31851" lon="3.57688">
        <ele>1101</ele>
        <time>2014-06-21T12:15:06.000Z</time>
      </trkpt>
      <trkpt lat="44.31847" lon="3.57695">
        <ele>1100</ele>
        <time>2014-06-21T12:15:10.000Z</time>
      </trkpt>
      <trkpt lat="44.31844" lon="3.57701">
        <ele>1100</ele>
        <time>2014-06-21T12:15:12.000Z</time>
      </trkpt>
      <trkpt lat="44.31844" lon="3.57701">
        <ele>1100</ele>
        <time>2014-06-21T12:15:13.000Z</time>
      </trkpt>
      <trkpt lat="44.31841" lon="3.57707">
        <ele>1101</ele>
        <time>2014-06-21T12:15:15.000Z</time>
      </trkpt>
      <trkpt lat="44.31837" lon="3.57713">
        <ele>1101</ele>
        <time>2014-06-21T12:15:17.000Z</time>
      </trkpt>
      <trkpt lat="44.31835" lon="3.57718">
        <ele>1101</ele>
        <time>2014-06-21T12:15:19.000Z</time>
      </trkpt>
      <trkpt lat="44.31833" lon="3.57723">
        <ele>1101</ele>
        <time>2014-06-21T12:15:21.000Z</time>
      </trkpt>
      <trkpt lat="44.31833" lon="3.57723">
        <ele>1101</ele>
        <time>2014-06-21T12:15:23.000Z</time>
      </trkpt>
      <trkpt lat="44.31828" lon="3.5773">
        <ele>1101</ele>
        <time>2014-06-21T12:15:25.000Z</time>
      </trkpt>
      <trkpt lat="44.31824" lon="3.57737">
        <ele>1099</ele>
        <time>2014-06-21T12:15:27.000Z</time>
      </trkpt>
      <trkpt lat="44.31821" lon="3.57743">
        <ele>1099</ele>
        <time>2014-06-21T12:15:29.000Z</time>
      </trkpt>
      <trkpt lat="44.31816" lon="3.57749">
        <ele>1100</ele>
        <time>2014-06-21T12:15:31.000Z</time>
      </trkpt>
      <trkpt lat="44.31812" lon="3.57754">
        <ele>1100</ele>
        <time>2014-06-21T12:15:33.000Z</time>
      </trkpt>
      <trkpt lat="44.31805" lon="3.57764">
        <ele>1099</ele>
        <time>2014-06-21T12:15:35.000Z</time>
      </trkpt>
      <trkpt lat="44.31805" lon="3.57764">
        <ele>1099</ele>
        <time>2014-06-21T12:15:37.000Z</time>
      </trkpt>
      <trkpt lat="44.31797" lon="3.57777">
        <ele>1099</ele>
        <time>2014-06-21T12:15:39.000Z</time>
      </trkpt>
      <trkpt lat="44.31791" lon="3.57792">
        <ele>1100</ele>
        <time>2014-06-21T12:15:43.000Z</time>
      </trkpt>
      <trkpt lat="44.31786" lon="3.57807">
        <ele>1100</ele>
        <time>2014-06-21T12:15:47.000Z</time>
      </trkpt>
      <trkpt lat="44.3178" lon="3.57822">
        <ele>1100</ele>
        <time>2014-06-21T12:15:51.000Z</time>
      </trkpt>
      <trkpt lat="44.3178" lon="3.57822">
        <ele>1100</ele>
        <time>2014-06-21T12:15:53.000Z</time>
      </trkpt>
      <trkpt lat="44.3178" lon="3.57822">
        <ele>1100</ele>
        <time>2014-06-21T12:15:55.000Z</time>
      </trkpt>
      <trkpt lat="44.3178" lon="3.57822">
        <ele>1100</ele>
        <time>2014-06-21T12:15:57.000Z</time>
      </trkpt>
      <trkpt lat="44.31765" lon="3.57847">
        <ele>1103</ele>
        <time>2014-06-21T12:15:59.000Z</time>
      </trkpt>
      <trkpt lat="44.31755" lon="3.5786">
        <ele>1105</ele>
        <time>2014-06-21T12:16:03.000Z</time>
      </trkpt>
      <trkpt lat="44.31742" lon="3.57872">
        <ele>1104</ele>
        <time>2014-06-21T12:16:07.000Z</time>
      </trkpt>
      <trkpt lat="44.31727" lon="3.5788">
        <ele>1102</ele>
        <time>2014-06-21T12:16:11.000Z</time>
      </trkpt>
      <trkpt lat="44.31713" lon="3.57887">
        <ele>1101</ele>
        <time>2014-06-21T12:16:15.000Z</time>
      </trkpt>
      <trkpt lat="44.31704" lon="3.57891">
        <ele>1101</ele>
        <time>2014-06-21T12:16:17.000Z</time>
      </trkpt>
      <trkpt lat="44.31695" lon="3.57896">
        <ele>1100</ele>
        <time>2014-06-21T12:16:19.000Z</time>
      </trkpt>
      <trkpt lat="44.31686" lon="3.57899">
        <ele>1100</ele>
        <time>2014-06-21T12:16:21.000Z</time>
      </trkpt>
      <trkpt lat="44.31677" lon="3.57904">
        <ele>1100</ele>
        <time>2014-06-21T12:16:23.000Z</time>
      </trkpt>
      <trkpt lat="44.31668" lon="3.57908">
        <ele>1099</ele>
        <time>2014-06-21T12:16:25.000Z</time>
      </trkpt>
      <trkpt lat="44.31655" lon="3.57913">
        <ele>1097</ele>
        <time>2014-06-21T12:16:28.000Z</time>
      </trkpt>
      <trkpt lat="44.31655" lon="3.57913">
        <ele>1097</ele>
        <time>2014-06-21T12:16:30.000Z</time>
      </trkpt>
      <trkpt lat="44.31638" lon="3.57913">
        <ele>1096</ele>
        <time>2014-06-21T12:16:32.000Z</time>
      </trkpt>
      <trkpt lat="44.31627" lon="3.57912">
        <ele>1096</ele>
        <time>2014-06-21T12:16:34.000Z</time>
      </trkpt>
      <trkpt lat="44.31617" lon="3.57908">
        <ele>1096</ele>
        <time>2014-06-21T12:16:36.000Z</time>
      </trkpt>
      <trkpt lat="44.31607" lon="3.57905">
        <ele>1095</ele>
        <time>2014-06-21T12:16:38.000Z</time>
      </trkpt>
      <trkpt lat="44.31598" lon="3.57903">
        <ele>1095</ele>
        <time>2014-06-21T12:16:40.000Z</time>
      </trkpt>
      <trkpt lat="44.31586" lon="3.57901">
        <ele>1094</ele>
        <time>2014-06-21T12:16:42.000Z</time>
      </trkpt>
      <trkpt lat="44.31577" lon="3.57898">
        <ele>1095</ele>
        <time>2014-06-21T12:16:44.000Z</time>
      </trkpt>
      <trkpt lat="44.31577" lon="3.57898">
        <ele>1095</ele>
        <time>2014-06-21T12:16:46.000Z</time>
      </trkpt>
      <trkpt lat="44.31577" lon="3.57898">
        <ele>1095</ele>
        <time>2014-06-21T12:16:48.000Z</time>
      </trkpt>
      <trkpt lat="44.31577" lon="3.57898">
        <ele>1095</ele>
        <time>2014-06-21T12:16:50.000Z</time>
      </trkpt>
      <trkpt lat="44.31525" lon="3.5792">
        <ele>1091</ele>
        <time>2014-06-21T12:16:56.000Z</time>
      </trkpt>
      <trkpt lat="44.31517" lon="3.57928">
        <ele>1092</ele>
        <time>2014-06-21T12:16:58.000Z</time>
      </trkpt>
      <trkpt lat="44.31509" lon="3.57937">
        <ele>1091</ele>
        <time>2014-06-21T12:17:00.000Z</time>
      </trkpt>
      <trkpt lat="44.31502" lon="3.57946">
        <ele>1091</ele>
        <time>2014-06-21T12:17:02.000Z</time>
      </trkpt>
      <trkpt lat="44.31502" lon="3.57946">
        <ele>1091</ele>
        <time>2014-06-21T12:17:04.000Z</time>
      </trkpt>
      <trkpt lat="44.31502" lon="3.57946">
        <ele>1091</ele>
        <time>2014-06-21T12:17:06.000Z</time>
      </trkpt>
      <trkpt lat="44.31502" lon="3.57946">
        <ele>1091</ele>
        <time>2014-06-21T12:17:08.000Z</time>
      </trkpt>
      <trkpt lat="44.31502" lon="3.57946">
        <ele>1091</ele>
        <time>2014-06-21T12:17:10.000Z</time>
      </trkpt>
      <trkpt lat="44.31502" lon="3.57946">
        <ele>1091</ele>
        <time>2014-06-21T12:17:12.000Z</time>
      </trkpt>
      <trkpt lat="44.31502" lon="3.57946">
        <ele>1091</ele>
        <time>2014-06-21T12:17:14.000Z</time>
      </trkpt>
      <trkpt lat="44.31502" lon="3.57946">
        <ele>1091</ele>
        <time>2014-06-21T12:17:16.000Z</time>
      </trkpt>
      <trkpt lat="44.31441" lon="3.5802">
        <ele>1096</ele>
        <time>2014-06-21T12:17:34.000Z</time>
      </trkpt>
      <trkpt lat="44.31435" lon="3.58024">
        <ele>1103</ele>
        <time>2014-06-21T12:17:46.000Z</time>
      </trkpt>
      <trkpt lat="44.3143" lon="3.58029">
        <ele>1099</ele>
        <time>2014-06-21T12:17:48.000Z</time>
      </trkpt>
      <trkpt lat="44.3143" lon="3.58029">
        <ele>1099</ele>
        <time>2014-06-21T12:17:50.000Z</time>
      </trkpt>
      <trkpt lat="44.31425" lon="3.58032">
        <ele>1100</ele>
        <time>2014-06-21T12:17:52.000Z</time>
      </trkpt>
      <trkpt lat="44.31421" lon="3.58035">
        <ele>1101</ele>
        <time>2014-06-21T12:17:54.000Z</time>
      </trkpt>
      <trkpt lat="44.31416" lon="3.58039">
        <ele>1103</ele>
        <time>2014-06-21T12:17:58.000Z</time>
      </trkpt>
      <trkpt lat="44.31416" lon="3.58039">
        <ele>1103</ele>
        <time>2014-06-21T12:18:00.000Z</time>
      </trkpt>
      <trkpt lat="44.31416" lon="3.58039">
        <ele>1103</ele>
        <time>2014-06-21T12:18:02.000Z</time>
      </trkpt>
      <trkpt lat="44.31411" lon="3.58045">
        <ele>1105</ele>
        <time>2014-06-21T12:18:04.000Z</time>
      </trkpt>
      <trkpt lat="44.31408" lon="3.58051">
        <ele>1105</ele>
        <time>2014-06-21T12:18:06.000Z</time>
      </trkpt>
      <trkpt lat="44.31408" lon="3.58051">
        <ele>1105</ele>
        <time>2014-06-21T12:18:08.000Z</time>
      </trkpt>
      <trkpt lat="44.31408" lon="3.58051">
        <ele>1105</ele>
        <time>2014-06-21T12:18:10.000Z</time>
      </trkpt>
      <trkpt lat="44.314" lon="3.58065">
        <ele>1106</ele>
        <time>2014-06-21T12:18:18.000Z</time>
      </trkpt>
      <trkpt lat="44.31395" lon="3.58073">
        <ele>1105</ele>
        <time>2014-06-21T12:18:20.000Z</time>
      </trkpt>
      <trkpt lat="44.31392" lon="3.58079">
        <ele>1104</ele>
        <time>2014-06-21T12:18:22.000Z</time>
      </trkpt>
      <trkpt lat="44.31387" lon="3.58084">
        <ele>1105</ele>
        <time>2014-06-21T12:18:26.000Z</time>
      </trkpt>
      <trkpt lat="44.31387" lon="3.58084">
        <ele>1105</ele>
        <time>2014-06-21T12:18:28.000Z</time>
      </trkpt>
      <trkpt lat="44.31381" lon="3.58089">
        <ele>1103</ele>
        <time>2014-06-21T12:18:32.000Z</time>
      </trkpt>
      <trkpt lat="44.31376" lon="3.58093">
        <ele>1104</ele>
        <time>2014-06-21T12:18:34.000Z</time>
      </trkpt>
      <trkpt lat="44.31376" lon="3.58093">
        <ele>1104</ele>
        <time>2014-06-21T12:18:36.000Z</time>
      </trkpt>
      <trkpt lat="44.31376" lon="3.58093">
        <ele>1104</ele>
        <time>2014-06-21T12:18:38.000Z</time>
      </trkpt>
      <trkpt lat="44.31367" lon="3.581">
        <ele>1104</ele>
        <time>2014-06-21T12:18:42.000Z</time>
      </trkpt>
      <trkpt lat="44.31362" lon="3.58104">
        <ele>1105</ele>
        <time>2014-06-21T12:18:44.000Z</time>
      </trkpt>
      <trkpt lat="44.31357" lon="3.58107">
        <ele>1105</ele>
        <time>2014-06-21T12:18:46.000Z</time>
      </trkpt>
      <trkpt lat="44.31351" lon="3.58109">
        <ele>1106</ele>
        <time>2014-06-21T12:18:50.000Z</time>
      </trkpt>
      <trkpt lat="44.31347" lon="3.58111">
        <ele>1105</ele>
        <time>2014-06-21T12:18:52.000Z</time>
      </trkpt>
      <trkpt lat="44.31341" lon="3.58113">
        <ele>1105</ele>
        <time>2014-06-21T12:18:56.000Z</time>
      </trkpt>
      <trkpt lat="44.31335" lon="3.58115">
        <ele>1106</ele>
        <time>2014-06-21T12:18:58.000Z</time>
      </trkpt>
      <trkpt lat="44.31331" lon="3.58116">
        <ele>1106</ele>
        <time>2014-06-21T12:19:00.000Z</time>
      </trkpt>
      <trkpt lat="44.31331" lon="3.58116">
        <ele>1106</ele>
        <time>2014-06-21T12:19:02.000Z</time>
      </trkpt>
      <trkpt lat="44.31325" lon="3.58119">
        <ele>1106</ele>
        <time>2014-06-21T12:19:04.000Z</time>
      </trkpt>
      <trkpt lat="44.31319" lon="3.58121">
        <ele>1106</ele>
        <time>2014-06-21T12:19:06.000Z</time>
      </trkpt>
      <trkpt lat="44.31315" lon="3.58123">
        <ele>1106</ele>
        <time>2014-06-21T12:19:08.000Z</time>
      </trkpt>
      <trkpt lat="44.31309" lon="3.58125">
        <ele>1107</ele>
        <time>2014-06-21T12:19:12.000Z</time>
      </trkpt>
      <trkpt lat="44.31303" lon="3.58127">
        <ele>1107</ele>
        <time>2014-06-21T12:19:14.000Z</time>
      </trkpt>
      <trkpt lat="44.31298" lon="3.58129">
        <ele>1107</ele>
        <time>2014-06-21T12:19:16.000Z</time>
      </trkpt>
      <trkpt lat="44.31294" lon="3.58131">
        <ele>1107</ele>
        <time>2014-06-21T12:19:18.000Z</time>
      </trkpt>
      <trkpt lat="44.31294" lon="3.58131">
        <ele>1107</ele>
        <time>2014-06-21T12:19:20.000Z</time>
      </trkpt>
      <trkpt lat="44.31287" lon="3.58133">
        <ele>1107</ele>
        <time>2014-06-21T12:19:22.000Z</time>
      </trkpt>
      <trkpt lat="44.31282" lon="3.58135">
        <ele>1107</ele>
        <time>2014-06-21T12:19:24.000Z</time>
      </trkpt>
      <trkpt lat="44.31276" lon="3.58137">
        <ele>1108</ele>
        <time>2014-06-21T12:19:26.000Z</time>
      </trkpt>
      <trkpt lat="44.31276" lon="3.58137">
        <ele>1108</ele>
        <time>2014-06-21T12:19:28.000Z</time>
      </trkpt>
      <trkpt lat="44.31276" lon="3.58137">
        <ele>1108</ele>
        <time>2014-06-21T12:19:30.000Z</time>
      </trkpt>
      <trkpt lat="44.31276" lon="3.58137">
        <ele>1108</ele>
        <time>2014-06-21T12:19:32.000Z</time>
      </trkpt>
      <trkpt lat="44.31263" lon="3.58145">
        <ele>1107</ele>
        <time>2014-06-21T12:19:38.000Z</time>
      </trkpt>
      <trkpt lat="44.31255" lon="3.58151">
        <ele>1107</ele>
        <time>2014-06-21T12:19:40.000Z</time>
      </trkpt>
      <trkpt lat="44.31248" lon="3.58156">
        <ele>1107</ele>
        <time>2014-06-21T12:19:42.000Z</time>
      </trkpt>
      <trkpt lat="44.31243" lon="3.5816">
        <ele>1107</ele>
        <time>2014-06-21T12:19:44.000Z</time>
      </trkpt>
      <trkpt lat="44.31238" lon="3.58163">
        <ele>1108</ele>
        <time>2014-06-21T12:19:46.000Z</time>
      </trkpt>
      <trkpt lat="44.3123" lon="3.5817">
        <ele>1107</ele>
        <time>2014-06-21T12:19:48.000Z</time>
      </trkpt>
      <trkpt lat="44.31218" lon="3.58177">
        <ele>1109</ele>
        <time>2014-06-21T12:19:54.000Z</time>
      </trkpt>
      <trkpt lat="44.31218" lon="3.58177">
        <ele>1109</ele>
        <time>2014-06-21T12:20:00.000Z</time>
      </trkpt>
      <trkpt lat="44.31218" lon="3.58177">
        <ele>1109</ele>
        <time>2014-06-21T12:20:03.000Z</time>
      </trkpt>
      <trkpt lat="44.31218" lon="3.58177">
        <ele>1109</ele>
        <time>2014-06-21T12:20:04.000Z</time>
      </trkpt>
      <trkpt lat="44.31187" lon="3.58186">
        <ele>1110</ele>
        <time>2014-06-21T12:20:08.000Z</time>
      </trkpt>
      <trkpt lat="44.31173" lon="3.58185">
        <ele>1110</ele>
        <time>2014-06-21T12:20:14.000Z</time>
      </trkpt>
      <trkpt lat="44.31164" lon="3.58182">
        <ele>1110</ele>
        <time>2014-06-21T12:20:18.000Z</time>
      </trkpt>
      <trkpt lat="44.31154" lon="3.58179">
        <ele>1112</ele>
        <time>2014-06-21T12:20:22.000Z</time>
      </trkpt>
      <trkpt lat="44.31154" lon="3.58179">
        <ele>1112</ele>
        <time>2014-06-21T12:20:24.000Z</time>
      </trkpt>
      <trkpt lat="44.31154" lon="3.58179">
        <ele>1112</ele>
        <time>2014-06-21T12:20:26.000Z</time>
      </trkpt>
      <trkpt lat="44.31136" lon="3.58171">
        <ele>1112</ele>
        <time>2014-06-21T12:20:30.000Z</time>
      </trkpt>
      <trkpt lat="44.31136" lon="3.58171">
        <ele>1112</ele>
        <time>2014-06-21T12:20:32.000Z</time>
      </trkpt>
      <trkpt lat="44.31136" lon="3.58171">
        <ele>1112</ele>
        <time>2014-06-21T12:20:34.000Z</time>
      </trkpt>
      <trkpt lat="44.31136" lon="3.58171">
        <ele>1112</ele>
        <time>2014-06-21T12:20:36.000Z</time>
      </trkpt>
      <trkpt lat="44.31136" lon="3.58171">
        <ele>1112</ele>
        <time>2014-06-21T12:20:38.000Z</time>
      </trkpt>
      <trkpt lat="44.31136" lon="3.58171">
        <ele>1112</ele>
        <time>2014-06-21T12:20:40.000Z</time>
      </trkpt>
      <trkpt lat="44.31136" lon="3.58171">
        <ele>1112</ele>
        <time>2014-06-21T12:20:42.000Z</time>
      </trkpt>
      <trkpt lat="44.31136" lon="3.58171">
        <ele>1112</ele>
        <time>2014-06-21T12:20:44.000Z</time>
      </trkpt>
      <trkpt lat="44.31136" lon="3.58171">
        <ele>1112</ele>
        <time>2014-06-21T12:20:46.000Z</time>
      </trkpt>
      <trkpt lat="44.31136" lon="3.58171">
        <ele>1112</ele>
        <time>2014-06-21T12:20:48.000Z</time>
      </trkpt>
      <trkpt lat="44.31136" lon="3.58171">
        <ele>1112</ele>
        <time>2014-06-21T12:20:50.000Z</time>
      </trkpt>
      <trkpt lat="44.31136" lon="3.58171">
        <ele>1112</ele>
        <time>2014-06-21T12:20:52.000Z</time>
      </trkpt>
      <trkpt lat="44.31136" lon="3.58171">
        <ele>1112</ele>
        <time>2014-06-21T12:20:54.000Z</time>
      </trkpt>
      <trkpt lat="44.31136" lon="3.58171">
        <ele>1112</ele>
        <time>2014-06-21T12:20:56.000Z</time>
      </trkpt>
      <trkpt lat="44.31136" lon="3.58171">
        <ele>1112</ele>
        <time>2014-06-21T12:20:58.000Z</time>
      </trkpt>
      <trkpt lat="44.31136" lon="3.58171">
        <ele>1112</ele>
        <time>2014-06-21T12:21:00.000Z</time>
      </trkpt>
      <trkpt lat="44.31136" lon="3.58171">
        <ele>1112</ele>
        <time>2014-06-21T12:21:04.000Z</time>
      </trkpt>
      <trkpt lat="44.31136" lon="3.58171">
        <ele>1112</ele>
        <time>2014-06-21T12:21:08.000Z</time>
      </trkpt>
      <trkpt lat="44.31136" lon="3.58171">
        <ele>1112</ele>
        <time>2014-06-21T12:21:10.000Z</time>
      </trkpt>
      <trkpt lat="44.31136" lon="3.58171">
        <ele>1112</ele>
        <time>2014-06-21T12:21:12.000Z</time>
      </trkpt>
      <trkpt lat="44.311" lon="3.58166">
        <ele>1121</ele>
        <time>2014-06-21T12:21:14.000Z</time>
      </trkpt>
      <trkpt lat="44.31081" lon="3.58163">
        <ele>1121</ele>
        <time>2014-06-21T12:21:16.000Z</time>
      </trkpt>
      <trkpt lat="44.3107" lon="3.58162">
        <ele>1122</ele>
        <time>2014-06-21T12:21:18.000Z</time>
      </trkpt>
      <trkpt lat="44.3107" lon="3.58162">
        <ele>1122</ele>
        <time>2014-06-21T12:21:20.000Z</time>
      </trkpt>
      <trkpt lat="44.3107" lon="3.58162">
        <ele>1122</ele>
        <time>2014-06-21T12:21:22.000Z</time>
      </trkpt>
      <trkpt lat="44.3107" lon="3.58162">
        <ele>1122</ele>
        <time>2014-06-21T12:21:24.000Z</time>
      </trkpt>
      <trkpt lat="44.3107" lon="3.58162">
        <ele>1122</ele>
        <time>2014-06-21T12:21:26.000Z</time>
      </trkpt>
      <trkpt lat="44.3107" lon="3.58162">
        <ele>1122</ele>
        <time>2014-06-21T12:21:28.000Z</time>
      </trkpt>
      <trkpt lat="44.31053" lon="3.58162">
        <ele>1123</ele>
        <time>2014-06-21T12:21:34.000Z</time>
      </trkpt>
      <trkpt lat="44.31043" lon="3.58162">
        <ele>1123</ele>
        <time>2014-06-21T12:21:36.000Z</time>
      </trkpt>
      <trkpt lat="44.31037" lon="3.58162">
        <ele>1124</ele>
        <time>2014-06-21T12:21:38.000Z</time>
      </trkpt>
      <trkpt lat="44.31032" lon="3.58163">
        <ele>1123</ele>
        <time>2014-06-21T12:21:40.000Z</time>
      </trkpt>
      <trkpt lat="44.31032" lon="3.58163">
        <ele>1123</ele>
        <time>2014-06-21T12:21:42.000Z</time>
      </trkpt>
      <trkpt lat="44.31032" lon="3.58163">
        <ele>1123</ele>
        <time>2014-06-21T12:21:44.000Z</time>
      </trkpt>
      <trkpt lat="44.31032" lon="3.58163">
        <ele>1123</ele>
        <time>2014-06-21T12:21:46.000Z</time>
      </trkpt>
      <trkpt lat="44.31032" lon="3.58163">
        <ele>1123</ele>
        <time>2014-06-21T12:21:56.000Z</time>
      </trkpt>
      <trkpt lat="44.31032" lon="3.58163">
        <ele>1123</ele>
        <time>2014-06-21T12:21:58.000Z</time>
      </trkpt>
      <trkpt lat="44.31032" lon="3.58163">
        <ele>1123</ele>
        <time>2014-06-21T12:22:00.000Z</time>
      </trkpt>
      <trkpt lat="44.31032" lon="3.58163">
        <ele>1123</ele>
        <time>2014-06-21T12:22:02.000Z</time>
      </trkpt>
      <trkpt lat="44.31014" lon="3.58168">
        <ele>1129</ele>
        <time>2014-06-21T12:22:06.000Z</time>
      </trkpt>
      <trkpt lat="44.31003" lon="3.5817">
        <ele>1129</ele>
        <time>2014-06-21T12:22:08.000Z</time>
      </trkpt>
      <trkpt lat="44.30996" lon="3.58173">
        <ele>1130</ele>
        <time>2014-06-21T12:22:10.000Z</time>
      </trkpt>
      <trkpt lat="44.30991" lon="3.58174">
        <ele>1130</ele>
        <time>2014-06-21T12:22:12.000Z</time>
      </trkpt>
      <trkpt lat="44.30986" lon="3.58176">
        <ele>1131</ele>
        <time>2014-06-21T12:22:16.000Z</time>
      </trkpt>
      <trkpt lat="44.30986" lon="3.58176">
        <ele>1131</ele>
        <time>2014-06-21T12:22:18.000Z</time>
      </trkpt>
      <trkpt lat="44.3098" lon="3.58179">
        <ele>1131</ele>
        <time>2014-06-21T12:22:20.000Z</time>
      </trkpt>
      <trkpt lat="44.30974" lon="3.58182">
        <ele>1131</ele>
        <time>2014-06-21T12:22:24.000Z</time>
      </trkpt>
      <trkpt lat="44.3097" lon="3.58184">
        <ele>1131</ele>
        <time>2014-06-21T12:22:26.000Z</time>
      </trkpt>
      <trkpt lat="44.30964" lon="3.58187">
        <ele>1131</ele>
        <time>2014-06-21T12:22:30.000Z</time>
      </trkpt>
      <trkpt lat="44.3096" lon="3.58189">
        <ele>1130</ele>
        <time>2014-06-21T12:22:32.000Z</time>
      </trkpt>
      <trkpt lat="44.30954" lon="3.58191">
        <ele>1131</ele>
        <time>2014-06-21T12:22:36.000Z</time>
      </trkpt>
      <trkpt lat="44.3095" lon="3.58192">
        <ele>1131</ele>
        <time>2014-06-21T12:22:38.000Z</time>
      </trkpt>
      <trkpt lat="44.30943" lon="3.58194">
        <ele>1130</ele>
        <time>2014-06-21T12:22:42.000Z</time>
      </trkpt>
      <trkpt lat="44.30937" lon="3.58196">
        <ele>1130</ele>
        <time>2014-06-21T12:22:44.000Z</time>
      </trkpt>
      <trkpt lat="44.30931" lon="3.58196">
        <ele>1130</ele>
        <time>2014-06-21T12:22:46.000Z</time>
      </trkpt>
      <trkpt lat="44.30925" lon="3.58196">
        <ele>1131</ele>
        <time>2014-06-21T12:22:48.000Z</time>
      </trkpt>
      <trkpt lat="44.3092" lon="3.58192">
        <ele>1131</ele>
        <time>2014-06-21T12:22:50.000Z</time>
      </trkpt>
      <trkpt lat="44.3091" lon="3.5818">
        <ele>1130</ele>
        <time>2014-06-21T12:22:52.000Z</time>
      </trkpt>
      <trkpt lat="44.30903" lon="3.58165">
        <ele>1131</ele>
        <time>2014-06-21T12:22:56.000Z</time>
      </trkpt>
      <trkpt lat="44.30903" lon="3.58165">
        <ele>1131</ele>
        <time>2014-06-21T12:22:58.000Z</time>
      </trkpt>
      <trkpt lat="44.30903" lon="3.58165">
        <ele>1131</ele>
        <time>2014-06-21T12:23:00.000Z</time>
      </trkpt>
      <trkpt lat="44.30903" lon="3.58165">
        <ele>1131</ele>
        <time>2014-06-21T12:23:02.000Z</time>
      </trkpt>
      <trkpt lat="44.30903" lon="3.58165">
        <ele>1131</ele>
        <time>2014-06-21T12:23:04.000Z</time>
      </trkpt>
      <trkpt lat="44.30903" lon="3.58165">
        <ele>1131</ele>
        <time>2014-06-21T12:23:06.000Z</time>
      </trkpt>
      <trkpt lat="44.30903" lon="3.58165">
        <ele>1131</ele>
        <time>2014-06-21T12:23:08.000Z</time>
      </trkpt>
      <trkpt lat="44.30873" lon="3.58129">
        <ele>1132</ele>
        <time>2014-06-21T12:23:14.000Z</time>
      </trkpt>
      <trkpt lat="44.30862" lon="3.58129">
        <ele>1132</ele>
        <time>2014-06-21T12:23:18.000Z</time>
      </trkpt>
      <trkpt lat="44.30851" lon="3.58127">
        <ele>1133</ele>
        <time>2014-06-21T12:23:22.000Z</time>
      </trkpt>
      <trkpt lat="44.30841" lon="3.58123">
        <ele>1133</ele>
        <time>2014-06-21T12:23:26.000Z</time>
      </trkpt>
      <trkpt lat="44.30841" lon="3.58123">
        <ele>1133</ele>
        <time>2014-06-21T12:23:28.000Z</time>
      </trkpt>
      <trkpt lat="44.30841" lon="3.58123">
        <ele>1133</ele>
        <time>2014-06-21T12:23:30.000Z</time>
      </trkpt>
      <trkpt lat="44.30841" lon="3.58123">
        <ele>1133</ele>
        <time>2014-06-21T12:23:32.000Z</time>
      </trkpt>
      <trkpt lat="44.30841" lon="3.58123">
        <ele>1133</ele>
        <time>2014-06-21T12:23:34.000Z</time>
      </trkpt>
      <trkpt lat="44.30841" lon="3.58123">
        <ele>1133</ele>
        <time>2014-06-21T12:23:36.000Z</time>
      </trkpt>
      <trkpt lat="44.30841" lon="3.58123">
        <ele>1133</ele>
        <time>2014-06-21T12:23:38.000Z</time>
      </trkpt>
      <trkpt lat="44.30809" lon="3.58107">
        <ele>1134</ele>
        <time>2014-06-21T12:23:42.000Z</time>
      </trkpt>
      <trkpt lat="44.30798" lon="3.58097">
        <ele>1136</ele>
        <time>2014-06-21T12:23:48.000Z</time>
      </trkpt>
      <trkpt lat="44.3079" lon="3.5809">
        <ele>1136</ele>
        <time>2014-06-21T12:23:52.000Z</time>
      </trkpt>
      <trkpt lat="44.30782" lon="3.58083">
        <ele>1136</ele>
        <time>2014-06-21T12:23:56.000Z</time>
      </trkpt>
      <trkpt lat="44.30774" lon="3.58074">
        <ele>1136</ele>
        <time>2014-06-21T12:24:00.000Z</time>
      </trkpt>
      <trkpt lat="44.30764" lon="3.5807">
        <ele>1136</ele>
        <time>2014-06-21T12:24:04.000Z</time>
      </trkpt>
      <trkpt lat="44.30764" lon="3.5807">
        <ele>1136</ele>
        <time>2014-06-21T12:24:06.000Z</time>
      </trkpt>
      <trkpt lat="44.30764" lon="3.5807">
        <ele>1136</ele>
        <time>2014-06-21T12:24:08.000Z</time>
      </trkpt>
      <trkpt lat="44.30764" lon="3.5807">
        <ele>1136</ele>
        <time>2014-06-21T12:24:10.000Z</time>
      </trkpt>
      <trkpt lat="44.30764" lon="3.5807">
        <ele>1136</ele>
        <time>2014-06-21T12:24:12.000Z</time>
      </trkpt>
      <trkpt lat="44.30764" lon="3.5807">
        <ele>1136</ele>
        <time>2014-06-21T12:24:14.000Z</time>
      </trkpt>
      <trkpt lat="44.30764" lon="3.5807">
        <ele>1136</ele>
        <time>2014-06-21T12:24:16.000Z</time>
      </trkpt>
      <trkpt lat="44.30764" lon="3.5807">
        <ele>1136</ele>
        <time>2014-06-21T12:24:19.000Z</time>
      </trkpt>
      <trkpt lat="44.30764" lon="3.5807">
        <ele>1136</ele>
        <time>2014-06-21T12:24:20.000Z</time>
      </trkpt>
      <trkpt lat="44.30764" lon="3.5807">
        <ele>1136</ele>
        <time>2014-06-21T12:24:22.000Z</time>
      </trkpt>
      <trkpt lat="44.30764" lon="3.5807">
        <ele>1136</ele>
        <time>2014-06-21T12:24:24.000Z</time>
      </trkpt>
      <trkpt lat="44.30764" lon="3.5807">
        <ele>1136</ele>
        <time>2014-06-21T12:24:26.000Z</time>
      </trkpt>
      <trkpt lat="44.30764" lon="3.5807">
        <ele>1136</ele>
        <time>2014-06-21T12:24:34.000Z</time>
      </trkpt>
      <trkpt lat="44.30764" lon="3.5807">
        <ele>1136</ele>
        <time>2014-06-21T12:24:36.000Z</time>
      </trkpt>
      <trkpt lat="44.30764" lon="3.5807">
        <ele>1136</ele>
        <time>2014-06-21T12:24:38.000Z</time>
      </trkpt>
      <trkpt lat="44.30764" lon="3.5807">
        <ele>1136</ele>
        <time>2014-06-21T12:24:40.000Z</time>
      </trkpt>
      <trkpt lat="44.30764" lon="3.5807">
        <ele>1136</ele>
        <time>2014-06-21T12:24:42.000Z</time>
      </trkpt>
      <trkpt lat="44.30764" lon="3.5807">
        <ele>1136</ele>
        <time>2014-06-21T12:24:44.000Z</time>
      </trkpt>
      <trkpt lat="44.30764" lon="3.5807">
        <ele>1136</ele>
        <time>2014-06-21T12:24:46.000Z</time>
      </trkpt>
      <trkpt lat="44.30727" lon="3.58059">
        <ele>1145</ele>
        <time>2014-06-21T12:24:50.000Z</time>
      </trkpt>
      <trkpt lat="44.30708" lon="3.58053">
        <ele>1145</ele>
        <time>2014-06-21T12:24:52.000Z</time>
      </trkpt>
      <trkpt lat="44.30697" lon="3.5805">
        <ele>1145</ele>
        <time>2014-06-21T12:24:54.000Z</time>
      </trkpt>
      <trkpt lat="44.3069" lon="3.58048">
        <ele>1145</ele>
        <time>2014-06-21T12:24:56.000Z</time>
      </trkpt>
      <trkpt lat="44.30685" lon="3.58047">
        <ele>1146</ele>
        <time>2014-06-21T12:24:58.000Z</time>
      </trkpt>
      <trkpt lat="44.30674" lon="3.58045">
        <ele>1147</ele>
        <time>2014-06-21T12:25:02.000Z</time>
      </trkpt>
      <trkpt lat="44.30674" lon="3.58045">
        <ele>1147</ele>
        <time>2014-06-21T12:25:08.000Z</time>
      </trkpt>
      <trkpt lat="44.30674" lon="3.58045">
        <ele>1147</ele>
        <time>2014-06-21T12:25:10.000Z</time>
      </trkpt>
      <trkpt lat="44.30674" lon="3.58045">
        <ele>1147</ele>
        <time>2014-06-21T12:25:12.000Z</time>
      </trkpt>
      <trkpt lat="44.30674" lon="3.58045">
        <ele>1147</ele>
        <time>2014-06-21T12:25:14.000Z</time>
      </trkpt>
      <trkpt lat="44.30674" lon="3.58045">
        <ele>1147</ele>
        <time>2014-06-21T12:25:16.000Z</time>
      </trkpt>
      <trkpt lat="44.30648" lon="3.58047">
        <ele>1149</ele>
        <time>2014-06-21T12:25:20.000Z</time>
      </trkpt>
      <trkpt lat="44.30638" lon="3.58048">
        <ele>1148</ele>
        <time>2014-06-21T12:25:26.000Z</time>
      </trkpt>
      <trkpt lat="44.30628" lon="3.58048">
        <ele>1148</ele>
        <time>2014-06-21T12:25:32.000Z</time>
      </trkpt>
      <trkpt lat="44.30618" lon="3.58047">
        <ele>1149</ele>
        <time>2014-06-21T12:25:38.000Z</time>
      </trkpt>
      <trkpt lat="44.30606" lon="3.58046">
        <ele>1149</ele>
        <time>2014-06-21T12:25:44.000Z</time>
      </trkpt>
      <trkpt lat="44.30595" lon="3.58045">
        <ele>1150</ele>
        <time>2014-06-21T12:25:50.000Z</time>
      </trkpt>
      <trkpt lat="44.30582" lon="3.58044">
        <ele>1149</ele>
        <time>2014-06-21T12:25:56.000Z</time>
      </trkpt>
      <trkpt lat="44.3057" lon="3.58041">
        <ele>1149</ele>
        <time>2014-06-21T12:26:02.000Z</time>
      </trkpt>
      <trkpt lat="44.3057" lon="3.58041">
        <ele>1149</ele>
        <time>2014-06-21T12:26:04.000Z</time>
      </trkpt>
      <trkpt lat="44.30561" lon="3.5804">
        <ele>1150</ele>
        <time>2014-06-21T12:26:06.000Z</time>
      </trkpt>
      <trkpt lat="44.30548" lon="3.58041">
        <ele>1150</ele>
        <time>2014-06-21T12:26:12.000Z</time>
      </trkpt>
      <trkpt lat="44.30548" lon="3.58041">
        <ele>1150</ele>
        <time>2014-06-21T12:26:14.000Z</time>
      </trkpt>
      <trkpt lat="44.30548" lon="3.58041">
        <ele>1150</ele>
        <time>2014-06-21T12:26:16.000Z</time>
      </trkpt>
      <trkpt lat="44.30535" lon="3.58042">
        <ele>1151</ele>
        <time>2014-06-21T12:26:18.000Z</time>
      </trkpt>
      <trkpt lat="44.30535" lon="3.58042">
        <ele>1151</ele>
        <time>2014-06-21T12:26:20.000Z</time>
      </trkpt>
      <trkpt lat="44.30535" lon="3.58042">
        <ele>1151</ele>
        <time>2014-06-21T12:26:22.000Z</time>
      </trkpt>
      <trkpt lat="44.30535" lon="3.58042">
        <ele>1151</ele>
        <time>2014-06-21T12:26:24.000Z</time>
      </trkpt>
      <trkpt lat="44.30535" lon="3.58042">
        <ele>1151</ele>
        <time>2014-06-21T12:26:26.000Z</time>
      </trkpt>
      <trkpt lat="44.30535" lon="3.58042">
        <ele>1151</ele>
        <time>2014-06-21T12:26:28.000Z</time>
      </trkpt>
      <trkpt lat="44.30535" lon="3.58042">
        <ele>1151</ele>
        <time>2014-06-21T12:26:30.000Z</time>
      </trkpt>
      <trkpt lat="44.30518" lon="3.58046">
        <ele>1153</ele>
        <time>2014-06-21T12:26:34.000Z</time>
      </trkpt>
      <trkpt lat="44.30507" lon="3.58047">
        <ele>1153</ele>
        <time>2014-06-21T12:26:36.000Z</time>
      </trkpt>
      <trkpt lat="44.30499" lon="3.58049">
        <ele>1153</ele>
        <time>2014-06-21T12:26:38.000Z</time>
      </trkpt>
      <trkpt lat="44.30493" lon="3.58049">
        <ele>1153</ele>
        <time>2014-06-21T12:26:40.000Z</time>
      </trkpt>
      <trkpt lat="44.30488" lon="3.5805">
        <ele>1153</ele>
        <time>2014-06-21T12:26:42.000Z</time>
      </trkpt>
      <trkpt lat="44.30478" lon="3.5805">
        <ele>1153</ele>
        <time>2014-06-21T12:26:44.000Z</time>
      </trkpt>
      <trkpt lat="44.30468" lon="3.58048">
        <ele>1152</ele>
        <time>2014-06-21T12:26:48.000Z</time>
      </trkpt>
      <trkpt lat="44.30458" lon="3.58049">
        <ele>1153</ele>
        <time>2014-06-21T12:26:52.000Z</time>
      </trkpt>
      <trkpt lat="44.30447" lon="3.58051">
        <ele>1152</ele>
        <time>2014-06-21T12:26:56.000Z</time>
      </trkpt>
      <trkpt lat="44.30436" lon="3.58053">
        <ele>1153</ele>
        <time>2014-06-21T12:27:00.000Z</time>
      </trkpt>
      <trkpt lat="44.30424" lon="3.58055">
        <ele>1153</ele>
        <time>2014-06-21T12:27:05.000Z</time>
      </trkpt>
      <trkpt lat="44.30424" lon="3.58055">
        <ele>1153</ele>
        <time>2014-06-21T12:27:06.000Z</time>
      </trkpt>
      <trkpt lat="44.30424" lon="3.58055">
        <ele>1153</ele>
        <time>2014-06-21T12:27:08.000Z</time>
      </trkpt>
      <trkpt lat="44.30424" lon="3.58055">
        <ele>1153</ele>
        <time>2014-06-21T12:27:10.000Z</time>
      </trkpt>
      <trkpt lat="44.30424" lon="3.58055">
        <ele>1153</ele>
        <time>2014-06-21T12:27:12.000Z</time>
      </trkpt>
      <trkpt lat="44.30424" lon="3.58055">
        <ele>1153</ele>
        <time>2014-06-21T12:27:14.000Z</time>
      </trkpt>
      <trkpt lat="44.30424" lon="3.58055">
        <ele>1153</ele>
        <time>2014-06-21T12:27:16.000Z</time>
      </trkpt>
      <trkpt lat="44.30424" lon="3.58055">
        <ele>1153</ele>
        <time>2014-06-21T12:27:18.000Z</time>
      </trkpt>
      <trkpt lat="44.30424" lon="3.58055">
        <ele>1153</ele>
        <time>2014-06-21T12:27:20.000Z</time>
      </trkpt>
      <trkpt lat="44.30424" lon="3.58055">
        <ele>1153</ele>
        <time>2014-06-21T12:27:22.000Z</time>
      </trkpt>
      <trkpt lat="44.30424" lon="3.58055">
        <ele>1153</ele>
        <time>2014-06-21T12:27:24.000Z</time>
      </trkpt>
      <trkpt lat="44.30424" lon="3.58055">
        <ele>1153</ele>
        <time>2014-06-21T12:27:26.000Z</time>
      </trkpt>
      <trkpt lat="44.30424" lon="3.58055">
        <ele>1153</ele>
        <time>2014-06-21T12:27:28.000Z</time>
      </trkpt>
      <trkpt lat="44.30368" lon="3.58044">
        <ele>1156</ele>
        <time>2014-06-21T12:27:32.000Z</time>
      </trkpt>
      <trkpt lat="44.30357" lon="3.5804">
        <ele>1157</ele>
        <time>2014-06-21T12:27:38.000Z</time>
      </trkpt>
      <trkpt lat="44.30357" lon="3.5804">
        <ele>1157</ele>
        <time>2014-06-21T12:27:42.000Z</time>
      </trkpt>
      <trkpt lat="44.30345" lon="3.58033">
        <ele>1157</ele>
        <time>2014-06-21T12:27:44.000Z</time>
      </trkpt>
      <trkpt lat="44.30345" lon="3.58033">
        <ele>1157</ele>
        <time>2014-06-21T12:27:50.000Z</time>
      </trkpt>
      <trkpt lat="44.3033" lon="3.58026">
        <ele>1157</ele>
        <time>2014-06-21T12:27:52.000Z</time>
      </trkpt>
      <trkpt lat="44.30317" lon="3.58021">
        <ele>1158</ele>
        <time>2014-06-21T12:27:58.000Z</time>
      </trkpt>
      <trkpt lat="44.30304" lon="3.58017">
        <ele>1158</ele>
        <time>2014-06-21T12:28:04.000Z</time>
      </trkpt>
      <trkpt lat="44.30304" lon="3.58017">
        <ele>1158</ele>
        <time>2014-06-21T12:28:06.000Z</time>
      </trkpt>
      <trkpt lat="44.30304" lon="3.58017">
        <ele>1158</ele>
        <time>2014-06-21T12:28:08.000Z</time>
      </trkpt>
      <trkpt lat="44.30296" lon="3.58016">
        <ele>1158</ele>
        <time>2014-06-21T12:28:12.000Z</time>
      </trkpt>
      <trkpt lat="44.30289" lon="3.58015">
        <ele>1158</ele>
        <time>2014-06-21T12:28:14.000Z</time>
      </trkpt>
      <trkpt lat="44.30283" lon="3.58014">
        <ele>1159</ele>
        <time>2014-06-21T12:28:16.000Z</time>
      </trkpt>
      <trkpt lat="44.30278" lon="3.58013">
        <ele>1159</ele>
        <time>2014-06-21T12:28:18.000Z</time>
      </trkpt>
      <trkpt lat="44.30273" lon="3.58013">
        <ele>1158</ele>
        <time>2014-06-21T12:28:20.000Z</time>
      </trkpt>
      <trkpt lat="44.30264" lon="3.58013">
        <ele>1159</ele>
        <time>2014-06-21T12:28:22.000Z</time>
      </trkpt>
      <trkpt lat="44.30255" lon="3.58013">
        <ele>1160</ele>
        <time>2014-06-21T12:28:26.000Z</time>
      </trkpt>
      <trkpt lat="44.30255" lon="3.58013">
        <ele>1160</ele>
        <time>2014-06-21T12:28:28.000Z</time>
      </trkpt>
      <trkpt lat="44.30255" lon="3.58013">
        <ele>1160</ele>
        <time>2014-06-21T12:28:30.000Z</time>
      </trkpt>
      <trkpt lat="44.30236" lon="3.58013">
        <ele>1159</ele>
        <time>2014-06-21T12:28:34.000Z</time>
      </trkpt>
      <trkpt lat="44.30225" lon="3.58017">
        <ele>1159</ele>
        <time>2014-06-21T12:28:38.000Z</time>
      </trkpt>
      <trkpt lat="44.30217" lon="3.58023">
        <ele>1160</ele>
        <time>2014-06-21T12:28:42.000Z</time>
      </trkpt>
      <trkpt lat="44.30217" lon="3.58023">
        <ele>1160</ele>
        <time>2014-06-21T12:28:44.000Z</time>
      </trkpt>
      <trkpt lat="44.30217" lon="3.58023">
        <ele>1160</ele>
        <time>2014-06-21T12:28:46.000Z</time>
      </trkpt>
      <trkpt lat="44.30217" lon="3.58023">
        <ele>1160</ele>
        <time>2014-06-21T12:28:48.000Z</time>
      </trkpt>
      <trkpt lat="44.30217" lon="3.58023">
        <ele>1160</ele>
        <time>2014-06-21T12:28:50.000Z</time>
      </trkpt>
      <trkpt lat="44.30217" lon="3.58023">
        <ele>1160</ele>
        <time>2014-06-21T12:28:52.000Z</time>
      </trkpt>
      <trkpt lat="44.30217" lon="3.58023">
        <ele>1160</ele>
        <time>2014-06-21T12:28:54.000Z</time>
      </trkpt>
      <trkpt lat="44.30217" lon="3.58023">
        <ele>1160</ele>
        <time>2014-06-21T12:28:56.000Z</time>
      </trkpt>
      <trkpt lat="44.30217" lon="3.58023">
        <ele>1160</ele>
        <time>2014-06-21T12:28:58.000Z</time>
      </trkpt>
      <trkpt lat="44.30217" lon="3.58023">
        <ele>1160</ele>
        <time>2014-06-21T12:29:00.000Z</time>
      </trkpt>
      <trkpt lat="44.30217" lon="3.58023">
        <ele>1160</ele>
        <time>2014-06-21T12:29:02.000Z</time>
      </trkpt>
      <trkpt lat="44.30217" lon="3.58023">
        <ele>1160</ele>
        <time>2014-06-21T12:29:04.000Z</time>
      </trkpt>
      <trkpt lat="44.30217" lon="3.58023">
        <ele>1160</ele>
        <time>2014-06-21T12:29:06.000Z</time>
      </trkpt>
      <trkpt lat="44.30217" lon="3.58023">
        <ele>1160</ele>
        <time>2014-06-21T12:29:08.000Z</time>
      </trkpt>
      <trkpt lat="44.30217" lon="3.58023">
        <ele>1160</ele>
        <time>2014-06-21T12:29:10.000Z</time>
      </trkpt>
      <trkpt lat="44.30217" lon="3.58023">
        <ele>1160</ele>
        <time>2014-06-21T12:29:12.000Z</time>
      </trkpt>
      <trkpt lat="44.30193" lon="3.5805">
        <ele>1162</ele>
        <time>2014-06-21T12:30:04.000Z</time>
      </trkpt>
      <trkpt lat="44.30179" lon="3.58067">
        <ele>1161</ele>
        <time>2014-06-21T12:30:06.000Z</time>
      </trkpt>
      <trkpt lat="44.3017" lon="3.58079">
        <ele>1161</ele>
        <time>2014-06-21T12:30:08.000Z</time>
      </trkpt>
      <trkpt lat="44.30163" lon="3.58091">
        <ele>1161</ele>
        <time>2014-06-21T12:30:10.000Z</time>
      </trkpt>
      <trkpt lat="44.30156" lon="3.58102">
        <ele>1160</ele>
        <time>2014-06-21T12:30:12.000Z</time>
      </trkpt>
      <trkpt lat="44.30144" lon="3.58124">
        <ele>1160</ele>
        <time>2014-06-21T12:30:14.000Z</time>
      </trkpt>
      <trkpt lat="44.30139" lon="3.58135">
        <ele>1160</ele>
        <time>2014-06-21T12:30:16.000Z</time>
      </trkpt>
      <trkpt lat="44.30139" lon="3.58135">
        <ele>1160</ele>
        <time>2014-06-21T12:30:18.000Z</time>
      </trkpt>
      <trkpt lat="44.30128" lon="3.58154">
        <ele>1159</ele>
        <time>2014-06-21T12:30:20.000Z</time>
      </trkpt>
      <trkpt lat="44.30121" lon="3.58164">
        <ele>1159</ele>
        <time>2014-06-21T12:30:22.000Z</time>
      </trkpt>
      <trkpt lat="44.30115" lon="3.58174">
        <ele>1158</ele>
        <time>2014-06-21T12:30:24.000Z</time>
      </trkpt>
      <trkpt lat="44.30108" lon="3.58185">
        <ele>1157</ele>
        <time>2014-06-21T12:30:26.000Z</time>
      </trkpt>
      <trkpt lat="44.301" lon="3.58195">
        <ele>1155</ele>
        <time>2014-06-21T12:30:28.000Z</time>
      </trkpt>
      <trkpt lat="44.30092" lon="3.58204">
        <ele>1154</ele>
        <time>2014-06-21T12:30:30.000Z</time>
      </trkpt>
      <trkpt lat="44.30085" lon="3.58212">
        <ele>1154</ele>
        <time>2014-06-21T12:30:32.000Z</time>
      </trkpt>
      <trkpt lat="44.30085" lon="3.58212">
        <ele>1154</ele>
        <time>2014-06-21T12:30:34.000Z</time>
      </trkpt>
      <trkpt lat="44.30085" lon="3.58212">
        <ele>1154</ele>
        <time>2014-06-21T12:30:36.000Z</time>
      </trkpt>
      <trkpt lat="44.30085" lon="3.58212">
        <ele>1154</ele>
        <time>2014-06-21T12:30:38.000Z</time>
      </trkpt>
      <trkpt lat="44.30085" lon="3.58212">
        <ele>1154</ele>
        <time>2014-06-21T12:30:40.000Z</time>
      </trkpt>
      <trkpt lat="44.30036" lon="3.58229">
        <ele>1149</ele>
        <time>2014-06-21T12:30:46.000Z</time>
      </trkpt>
      <trkpt lat="44.30027" lon="3.58233">
        <ele>1149</ele>
        <time>2014-06-21T12:30:48.000Z</time>
      </trkpt>
      <trkpt lat="44.30018" lon="3.58237">
        <ele>1147</ele>
        <time>2014-06-21T12:30:50.000Z</time>
      </trkpt>
      <trkpt lat="44.30009" lon="3.5824">
        <ele>1145</ele>
        <time>2014-06-21T12:30:52.000Z</time>
      </trkpt>
      <trkpt lat="44.29999" lon="3.58244">
        <ele>1144</ele>
        <time>2014-06-21T12:30:54.000Z</time>
      </trkpt>
      <trkpt lat="44.2999" lon="3.58252">
        <ele>1143</ele>
        <time>2014-06-21T12:30:56.000Z</time>
      </trkpt>
      <trkpt lat="44.29981" lon="3.58258">
        <ele>1142</ele>
        <time>2014-06-21T12:30:58.000Z</time>
      </trkpt>
      <trkpt lat="44.29973" lon="3.58265">
        <ele>1141</ele>
        <time>2014-06-21T12:31:00.000Z</time>
      </trkpt>
      <trkpt lat="44.29973" lon="3.58265">
        <ele>1141</ele>
        <time>2014-06-21T12:31:02.000Z</time>
      </trkpt>
      <trkpt lat="44.29973" lon="3.58265">
        <ele>1141</ele>
        <time>2014-06-21T12:31:04.000Z</time>
      </trkpt>
      <trkpt lat="44.29973" lon="3.58265">
        <ele>1141</ele>
        <time>2014-06-21T12:31:06.000Z</time>
      </trkpt>
      <trkpt lat="44.29973" lon="3.58265">
        <ele>1141</ele>
        <time>2014-06-21T12:31:08.000Z</time>
      </trkpt>
      <trkpt lat="44.29927" lon="3.58251">
        <ele>1135</ele>
        <time>2014-06-21T12:31:14.000Z</time>
      </trkpt>
      <trkpt lat="44.29914" lon="3.58236">
        <ele>1134</ele>
        <time>2014-06-21T12:31:18.000Z</time>
      </trkpt>
      <trkpt lat="44.29914" lon="3.58236">
        <ele>1134</ele>
        <time>2014-06-21T12:31:20.000Z</time>
      </trkpt>
      <trkpt lat="44.29914" lon="3.58236">
        <ele>1134</ele>
        <time>2014-06-21T12:31:22.000Z</time>
      </trkpt>
      <trkpt lat="44.29914" lon="3.58236">
        <ele>1134</ele>
        <time>2014-06-21T12:31:24.000Z</time>
      </trkpt>
      <trkpt lat="44.29914" lon="3.58236">
        <ele>1134</ele>
        <time>2014-06-21T12:31:26.000Z</time>
      </trkpt>
      <trkpt lat="44.29881" lon="3.58203">
        <ele>1135</ele>
        <time>2014-06-21T12:31:32.000Z</time>
      </trkpt>
      <trkpt lat="44.29868" lon="3.58201">
        <ele>1134</ele>
        <time>2014-06-21T12:31:36.000Z</time>
      </trkpt>
      <trkpt lat="44.29868" lon="3.58201">
        <ele>1134</ele>
        <time>2014-06-21T12:31:38.000Z</time>
      </trkpt>
      <trkpt lat="44.29868" lon="3.58201">
        <ele>1134</ele>
        <time>2014-06-21T12:31:40.000Z</time>
      </trkpt>
      <trkpt lat="44.29868" lon="3.58201">
        <ele>1134</ele>
        <time>2014-06-21T12:31:42.000Z</time>
      </trkpt>
      <trkpt lat="44.29868" lon="3.58201">
        <ele>1134</ele>
        <time>2014-06-21T12:31:44.000Z</time>
      </trkpt>
      <trkpt lat="44.29868" lon="3.58201">
        <ele>1134</ele>
        <time>2014-06-21T12:31:46.000Z</time>
      </trkpt>
      <trkpt lat="44.29828" lon="3.58203">
        <ele>1135</ele>
        <time>2014-06-21T12:31:50.000Z</time>
      </trkpt>
      <trkpt lat="44.29814" lon="3.58203">
        <ele>1134</ele>
        <time>2014-06-21T12:31:54.000Z</time>
      </trkpt>
      <trkpt lat="44.298" lon="3.58203">
        <ele>1133</ele>
        <time>2014-06-21T12:31:58.000Z</time>
      </trkpt>
      <trkpt lat="44.298" lon="3.58203">
        <ele>1133</ele>
        <time>2014-06-21T12:32:00.000Z</time>
      </trkpt>
      <trkpt lat="44.29793" lon="3.58204">
        <ele>1132</ele>
        <time>2014-06-21T12:32:02.000Z</time>
      </trkpt>
      <trkpt lat="44.29793" lon="3.58204">
        <ele>1132</ele>
        <time>2014-06-21T12:32:04.000Z</time>
      </trkpt>
      <trkpt lat="44.29779" lon="3.58206">
        <ele>1132</ele>
        <time>2014-06-21T12:32:08.000Z</time>
      </trkpt>
      <trkpt lat="44.2977" lon="3.58209">
        <ele>1132</ele>
        <time>2014-06-21T12:32:10.000Z</time>
      </trkpt>
      <trkpt lat="44.2977" lon="3.58209">
        <ele>1132</ele>
        <time>2014-06-21T12:32:12.000Z</time>
      </trkpt>
      <trkpt lat="44.2977" lon="3.58209">
        <ele>1132</ele>
        <time>2014-06-21T12:32:14.000Z</time>
      </trkpt>
      <trkpt lat="44.2977" lon="3.58209">
        <ele>1132</ele>
        <time>2014-06-21T12:32:16.000Z</time>
      </trkpt>
      <trkpt lat="44.2977" lon="3.58209">
        <ele>1132</ele>
        <time>2014-06-21T12:32:18.000Z</time>
      </trkpt>
      <trkpt lat="44.2977" lon="3.58209">
        <ele>1132</ele>
        <time>2014-06-21T12:32:20.000Z</time>
      </trkpt>
      <trkpt lat="44.2977" lon="3.58209">
        <ele>1132</ele>
        <time>2014-06-21T12:32:22.000Z</time>
      </trkpt>
      <trkpt lat="44.2977" lon="3.58209">
        <ele>1132</ele>
        <time>2014-06-21T12:32:24.000Z</time>
      </trkpt>
      <trkpt lat="44.2977" lon="3.58209">
        <ele>1132</ele>
        <time>2014-06-21T12:32:26.000Z</time>
      </trkpt>
      <trkpt lat="44.2977" lon="3.58209">
        <ele>1132</ele>
        <time>2014-06-21T12:32:28.000Z</time>
      </trkpt>
      <trkpt lat="44.2977" lon="3.58209">
        <ele>1132</ele>
        <time>2014-06-21T12:32:30.000Z</time>
      </trkpt>
      <trkpt lat="44.2977" lon="3.58209">
        <ele>1132</ele>
        <time>2014-06-21T12:32:32.000Z</time>
      </trkpt>
      <trkpt lat="44.2977" lon="3.58209">
        <ele>1132</ele>
        <time>2014-06-21T12:32:34.000Z</time>
      </trkpt>
      <trkpt lat="44.29743" lon="3.58211">
        <ele>1139</ele>
        <time>2014-06-21T12:32:38.000Z</time>
      </trkpt>
      <trkpt lat="44.29728" lon="3.58212">
        <ele>1140</ele>
        <time>2014-06-21T12:32:40.000Z</time>
      </trkpt>
      <trkpt lat="44.29719" lon="3.58213">
        <ele>1141</ele>
        <time>2014-06-21T12:32:42.000Z</time>
      </trkpt>
      <trkpt lat="44.29713" lon="3.58213">
        <ele>1141</ele>
        <time>2014-06-21T12:32:44.000Z</time>
      </trkpt>
      <trkpt lat="44.29713" lon="3.58213">
        <ele>1141</ele>
        <time>2014-06-21T12:32:46.000Z</time>
      </trkpt>
      <trkpt lat="44.29713" lon="3.58213">
        <ele>1141</ele>
        <time>2014-06-21T12:32:48.000Z</time>
      </trkpt>
      <trkpt lat="44.29713" lon="3.58213">
        <ele>1141</ele>
        <time>2014-06-21T12:32:52.000Z</time>
      </trkpt>
      <trkpt lat="44.29704" lon="3.5822">
        <ele>1142</ele>
        <time>2014-06-21T12:32:54.000Z</time>
      </trkpt>
      <trkpt lat="44.29697" lon="3.58225">
        <ele>1141</ele>
        <time>2014-06-21T12:32:56.000Z</time>
      </trkpt>
      <trkpt lat="44.29692" lon="3.58229">
        <ele>1142</ele>
        <time>2014-06-21T12:32:58.000Z</time>
      </trkpt>
      <trkpt lat="44.29689" lon="3.58233">
        <ele>1142</ele>
        <time>2014-06-21T12:33:00.000Z</time>
      </trkpt>
      <trkpt lat="44.29689" lon="3.58233">
        <ele>1142</ele>
        <time>2014-06-21T12:33:02.000Z</time>
      </trkpt>
      <trkpt lat="44.29684" lon="3.58236">
        <ele>1142</ele>
        <time>2014-06-21T12:33:04.000Z</time>
      </trkpt>
      <trkpt lat="44.29684" lon="3.58236">
        <ele>1142</ele>
        <time>2014-06-21T12:33:06.000Z</time>
      </trkpt>
      <trkpt lat="44.29678" lon="3.58238">
        <ele>1141</ele>
        <time>2014-06-21T12:33:08.000Z</time>
      </trkpt>
      <trkpt lat="44.29673" lon="3.58236">
        <ele>1142</ele>
        <time>2014-06-21T12:33:12.000Z</time>
      </trkpt>
      <trkpt lat="44.29673" lon="3.58236">
        <ele>1142</ele>
        <time>2014-06-21T12:33:14.000Z</time>
      </trkpt>
      <trkpt lat="44.29668" lon="3.58231">
        <ele>1143</ele>
        <time>2014-06-21T12:33:16.000Z</time>
      </trkpt>
      <trkpt lat="44.29668" lon="3.58231">
        <ele>1143</ele>
        <time>2014-06-21T12:33:18.000Z</time>
      </trkpt>
      <trkpt lat="44.29668" lon="3.58231">
        <ele>1143</ele>
        <time>2014-06-21T12:33:20.000Z</time>
      </trkpt>
      <trkpt lat="44.29668" lon="3.58231">
        <ele>1143</ele>
        <time>2014-06-21T12:33:22.000Z</time>
      </trkpt>
      <trkpt lat="44.29662" lon="3.58219">
        <ele>1145</ele>
        <time>2014-06-21T12:33:26.000Z</time>
      </trkpt>
      <trkpt lat="44.29658" lon="3.58211">
        <ele>1145</ele>
        <time>2014-06-21T12:33:28.000Z</time>
      </trkpt>
      <trkpt lat="44.29655" lon="3.58205">
        <ele>1145</ele>
        <time>2014-06-21T12:33:30.000Z</time>
      </trkpt>
      <trkpt lat="44.29655" lon="3.58205">
        <ele>1145</ele>
        <time>2014-06-21T12:33:34.000Z</time>
      </trkpt>
      <trkpt lat="44.29655" lon="3.58205">
        <ele>1145</ele>
        <time>2014-06-21T12:33:36.000Z</time>
      </trkpt>
      <trkpt lat="44.29655" lon="3.58205">
        <ele>1145</ele>
        <time>2014-06-21T12:33:38.000Z</time>
      </trkpt>
      <trkpt lat="44.29655" lon="3.58205">
        <ele>1145</ele>
        <time>2014-06-21T12:33:40.000Z</time>
      </trkpt>
      <trkpt lat="44.29655" lon="3.58205">
        <ele>1145</ele>
        <time>2014-06-21T12:33:42.000Z</time>
      </trkpt>
      <trkpt lat="44.29655" lon="3.58205">
        <ele>1145</ele>
        <time>2014-06-21T12:33:44.000Z</time>
      </trkpt>
      <trkpt lat="44.29655" lon="3.58205">
        <ele>1145</ele>
        <time>2014-06-21T12:33:46.000Z</time>
      </trkpt>
      <trkpt lat="44.29643" lon="3.58188">
        <ele>1144</ele>
        <time>2014-06-21T12:34:46.000Z</time>
      </trkpt>
      <trkpt lat="44.29635" lon="3.58178">
        <ele>1145</ele>
        <time>2014-06-21T12:34:48.000Z</time>
      </trkpt>
      <trkpt lat="44.29629" lon="3.58171">
        <ele>1145</ele>
        <time>2014-06-21T12:34:50.000Z</time>
      </trkpt>
      <trkpt lat="44.29622" lon="3.58165">
        <ele>1144</ele>
        <time>2014-06-21T12:34:52.000Z</time>
      </trkpt>
      <trkpt lat="44.29615" lon="3.58159">
        <ele>1144</ele>
        <time>2014-06-21T12:34:54.000Z</time>
      </trkpt>
      <trkpt lat="44.29601" lon="3.58147">
        <ele>1142</ele>
        <time>2014-06-21T12:34:56.000Z</time>
      </trkpt>
      <trkpt lat="44.29587" lon="3.58136">
        <ele>1142</ele>
        <time>2014-06-21T12:35:01.000Z</time>
      </trkpt>
      <trkpt lat="44.29587" lon="3.58136">
        <ele>1142</ele>
        <time>2014-06-21T12:35:02.000Z</time>
      </trkpt>
      <trkpt lat="44.29575" lon="3.58125">
        <ele>1142</ele>
        <time>2014-06-21T12:35:04.000Z</time>
      </trkpt>
      <trkpt lat="44.29575" lon="3.58125">
        <ele>1142</ele>
        <time>2014-06-21T12:35:06.000Z</time>
      </trkpt>
      <trkpt lat="44.29575" lon="3.58125">
        <ele>1142</ele>
        <time>2014-06-21T12:35:08.000Z</time>
      </trkpt>
      <trkpt lat="44.29548" lon="3.58102">
        <ele>1142</ele>
        <time>2014-06-21T12:35:12.000Z</time>
      </trkpt>
      <trkpt lat="44.29537" lon="3.5809">
        <ele>1141</ele>
        <time>2014-06-21T12:35:16.000Z</time>
      </trkpt>
      <trkpt lat="44.29537" lon="3.5809">
        <ele>1141</ele>
        <time>2014-06-21T12:35:18.000Z</time>
      </trkpt>
      <trkpt lat="44.29537" lon="3.5809">
        <ele>1141</ele>
        <time>2014-06-21T12:35:20.000Z</time>
      </trkpt>
      <trkpt lat="44.29537" lon="3.5809">
        <ele>1141</ele>
        <time>2014-06-21T12:35:22.000Z</time>
      </trkpt>
      <trkpt lat="44.29537" lon="3.5809">
        <ele>1141</ele>
        <time>2014-06-21T12:35:25.000Z</time>
      </trkpt>
      <trkpt lat="44.29499" lon="3.58075">
        <ele>1139</ele>
        <time>2014-06-21T12:35:28.000Z</time>
      </trkpt>
      <trkpt lat="44.29483" lon="3.58072">
        <ele>1139</ele>
        <time>2014-06-21T12:35:32.000Z</time>
      </trkpt>
      <trkpt lat="44.29468" lon="3.5807">
        <ele>1139</ele>
        <time>2014-06-21T12:35:36.000Z</time>
      </trkpt>
      <trkpt lat="44.29468" lon="3.5807">
        <ele>1139</ele>
        <time>2014-06-21T12:35:38.000Z</time>
      </trkpt>
      <trkpt lat="44.29468" lon="3.5807">
        <ele>1139</ele>
        <time>2014-06-21T12:35:40.000Z</time>
      </trkpt>
      <trkpt lat="44.29468" lon="3.5807">
        <ele>1139</ele>
        <time>2014-06-21T12:35:42.000Z</time>
      </trkpt>
      <trkpt lat="44.29468" lon="3.5807">
        <ele>1139</ele>
        <time>2014-06-21T12:35:44.000Z</time>
      </trkpt>
      <trkpt lat="44.29426" lon="3.58075">
        <ele>1140</ele>
        <time>2014-06-21T12:35:48.000Z</time>
      </trkpt>
      <trkpt lat="44.29412" lon="3.58075">
        <ele>1141</ele>
        <time>2014-06-21T12:35:52.000Z</time>
      </trkpt>
      <trkpt lat="44.29412" lon="3.58075">
        <ele>1141</ele>
        <time>2014-06-21T12:35:54.000Z</time>
      </trkpt>
      <trkpt lat="44.29412" lon="3.58075">
        <ele>1141</ele>
        <time>2014-06-21T12:35:56.000Z</time>
      </trkpt>
      <trkpt lat="44.29412" lon="3.58075">
        <ele>1141</ele>
        <time>2014-06-21T12:35:58.000Z</time>
      </trkpt>
      <trkpt lat="44.29412" lon="3.58075">
        <ele>1141</ele>
        <time>2014-06-21T12:36:00.000Z</time>
      </trkpt>
      <trkpt lat="44.29412" lon="3.58075">
        <ele>1141</ele>
        <time>2014-06-21T12:36:02.000Z</time>
      </trkpt>
      <trkpt lat="44.29412" lon="3.58075">
        <ele>1141</ele>
        <time>2014-06-21T12:36:04.000Z</time>
      </trkpt>
      <trkpt lat="44.29412" lon="3.58075">
        <ele>1141</ele>
        <time>2014-06-21T12:36:06.000Z</time>
      </trkpt>
      <trkpt lat="44.29412" lon="3.58075">
        <ele>1141</ele>
        <time>2014-06-21T12:36:08.000Z</time>
      </trkpt>
      <trkpt lat="44.29412" lon="3.58075">
        <ele>1141</ele>
        <time>2014-06-21T12:36:10.000Z</time>
      </trkpt>
      <trkpt lat="44.29381" lon="3.58053">
        <ele>1143</ele>
        <time>2014-06-21T12:36:16.000Z</time>
      </trkpt>
      <trkpt lat="44.29364" lon="3.58039">
        <ele>1144</ele>
        <time>2014-06-21T12:36:18.000Z</time>
      </trkpt>
      <trkpt lat="44.29353" lon="3.58029">
        <ele>1144</ele>
        <time>2014-06-21T12:36:20.000Z</time>
      </trkpt>
      <trkpt lat="44.29353" lon="3.58029">
        <ele>1144</ele>
        <time>2014-06-21T12:36:22.000Z</time>
      </trkpt>
      <trkpt lat="44.29353" lon="3.58029">
        <ele>1144</ele>
        <time>2014-06-21T12:36:24.000Z</time>
      </trkpt>
      <trkpt lat="44.29353" lon="3.58029">
        <ele>1144</ele>
        <time>2014-06-21T12:36:28.000Z</time>
      </trkpt>
      <trkpt lat="44.29353" lon="3.58029">
        <ele>1144</ele>
        <time>2014-06-21T12:36:30.000Z</time>
      </trkpt>
      <trkpt lat="44.29353" lon="3.58029">
        <ele>1144</ele>
        <time>2014-06-21T12:36:32.000Z</time>
      </trkpt>
      <trkpt lat="44.29335" lon="3.58002">
        <ele>1147</ele>
        <time>2014-06-21T12:36:34.000Z</time>
      </trkpt>
      <trkpt lat="44.29324" lon="3.57984">
        <ele>1147</ele>
        <time>2014-06-21T12:36:36.000Z</time>
      </trkpt>
      <trkpt lat="44.29316" lon="3.57972">
        <ele>1147</ele>
        <time>2014-06-21T12:36:38.000Z</time>
      </trkpt>
      <trkpt lat="44.2931" lon="3.57962">
        <ele>1147</ele>
        <time>2014-06-21T12:36:40.000Z</time>
      </trkpt>
      <trkpt lat="44.29304" lon="3.57954">
        <ele>1146</ele>
        <time>2014-06-21T12:36:42.000Z</time>
      </trkpt>
      <trkpt lat="44.29292" lon="3.57939">
        <ele>1146</ele>
        <time>2014-06-21T12:36:44.000Z</time>
      </trkpt>
      <trkpt lat="44.29292" lon="3.57939">
        <ele>1146</ele>
        <time>2014-06-21T12:36:46.000Z</time>
      </trkpt>
      <trkpt lat="44.29292" lon="3.57939">
        <ele>1146</ele>
        <time>2014-06-21T12:36:48.000Z</time>
      </trkpt>
      <trkpt lat="44.29292" lon="3.57939">
        <ele>1146</ele>
        <time>2014-06-21T12:36:50.000Z</time>
      </trkpt>
      <trkpt lat="44.29292" lon="3.57939">
        <ele>1146</ele>
        <time>2014-06-21T12:36:52.000Z</time>
      </trkpt>
      <trkpt lat="44.29292" lon="3.57939">
        <ele>1146</ele>
        <time>2014-06-21T12:36:54.000Z</time>
      </trkpt>
      <trkpt lat="44.29282" lon="3.57926">
        <ele>1141</ele>
        <time>2014-06-21T12:37:51.000Z</time>
      </trkpt>
      <trkpt lat="44.29274" lon="3.57915">
        <ele>1141</ele>
        <time>2014-06-21T12:37:53.000Z</time>
      </trkpt>
      <trkpt lat="44.29266" lon="3.57905">
        <ele>1140</ele>
        <time>2014-06-21T12:37:55.000Z</time>
      </trkpt>
      <trkpt lat="44.29259" lon="3.57895">
        <ele>1139</ele>
        <time>2014-06-21T12:37:57.000Z</time>
      </trkpt>
      <trkpt lat="44.29251" lon="3.57885">
        <ele>1138</ele>
        <time>2014-06-21T12:37:59.000Z</time>
      </trkpt>
      <trkpt lat="44.29237" lon="3.57864">
        <ele>1136</ele>
        <time>2014-06-21T12:38:01.000Z</time>
      </trkpt>
      <trkpt lat="44.29232" lon="3.57852">
        <ele>1136</ele>
        <time>2014-06-21T12:38:03.000Z</time>
      </trkpt>
      <trkpt lat="44.29226" lon="3.57837">
        <ele>1134</ele>
        <time>2014-06-21T12:38:05.000Z</time>
      </trkpt>
      <trkpt lat="44.29218" lon="3.57822">
        <ele>1134</ele>
        <time>2014-06-21T12:38:07.000Z</time>
      </trkpt>
      <trkpt lat="44.29209" lon="3.5781">
        <ele>1133</ele>
        <time>2014-06-21T12:38:09.000Z</time>
      </trkpt>
      <trkpt lat="44.292" lon="3.57798">
        <ele>1132</ele>
        <time>2014-06-21T12:38:11.000Z</time>
      </trkpt>
      <trkpt lat="44.29193" lon="3.57788">
        <ele>1133</ele>
        <time>2014-06-21T12:38:13.000Z</time>
      </trkpt>
      <trkpt lat="44.29187" lon="3.57776">
        <ele>1134</ele>
        <time>2014-06-21T12:38:15.000Z</time>
      </trkpt>
      <trkpt lat="44.29187" lon="3.57776">
        <ele>1134</ele>
        <time>2014-06-21T12:38:17.000Z</time>
      </trkpt>
      <trkpt lat="44.29187" lon="3.57776">
        <ele>1134</ele>
        <time>2014-06-21T12:38:19.000Z</time>
      </trkpt>
      <trkpt lat="44.29187" lon="3.57776">
        <ele>1134</ele>
        <time>2014-06-21T12:38:21.000Z</time>
      </trkpt>
      <trkpt lat="44.29187" lon="3.57776">
        <ele>1134</ele>
        <time>2014-06-21T12:38:23.000Z</time>
      </trkpt>
      <trkpt lat="44.29187" lon="3.57776">
        <ele>1134</ele>
        <time>2014-06-21T12:38:25.000Z</time>
      </trkpt>
      <trkpt lat="44.29187" lon="3.57776">
        <ele>1134</ele>
        <time>2014-06-21T12:38:27.000Z</time>
      </trkpt>
      <trkpt lat="44.29187" lon="3.57776">
        <ele>1134</ele>
        <time>2014-06-21T12:38:29.000Z</time>
      </trkpt>
      <trkpt lat="44.29187" lon="3.57776">
        <ele>1134</ele>
        <time>2014-06-21T12:38:31.000Z</time>
      </trkpt>
      <trkpt lat="44.29187" lon="3.57776">
        <ele>1134</ele>
        <time>2014-06-21T12:38:39.000Z</time>
      </trkpt>
      <trkpt lat="44.29187" lon="3.57776">
        <ele>1134</ele>
        <time>2014-06-21T12:38:41.000Z</time>
      </trkpt>
      <trkpt lat="44.29187" lon="3.57776">
        <ele>1134</ele>
        <time>2014-06-21T12:38:43.000Z</time>
      </trkpt>
      <trkpt lat="44.29187" lon="3.57776">
        <ele>1134</ele>
        <time>2014-06-21T12:38:45.000Z</time>
      </trkpt>
      <trkpt lat="44.29187" lon="3.57776">
        <ele>1134</ele>
        <time>2014-06-21T12:38:47.000Z</time>
      </trkpt>
      <trkpt lat="44.29187" lon="3.57776">
        <ele>1134</ele>
        <time>2014-06-21T12:38:55.000Z</time>
      </trkpt>
      <trkpt lat="44.29114" lon="3.57701">
        <ele>1141</ele>
        <time>2014-06-21T12:38:57.000Z</time>
      </trkpt>
      <trkpt lat="44.29104" lon="3.57692">
        <ele>1142</ele>
        <time>2014-06-21T12:39:03.000Z</time>
      </trkpt>
      <trkpt lat="44.29104" lon="3.57692">
        <ele>1142</ele>
        <time>2014-06-21T12:39:05.000Z</time>
      </trkpt>
      <trkpt lat="44.29094" lon="3.57684">
        <ele>1142</ele>
        <time>2014-06-21T12:39:09.000Z</time>
      </trkpt>
      <trkpt lat="44.29094" lon="3.57684">
        <ele>1142</ele>
        <time>2014-06-21T12:39:13.000Z</time>
      </trkpt>
      <trkpt lat="44.29094" lon="3.57684">
        <ele>1142</ele>
        <time>2014-06-21T12:39:15.000Z</time>
      </trkpt>
      <trkpt lat="44.29094" lon="3.57684">
        <ele>1142</ele>
        <time>2014-06-21T12:39:17.000Z</time>
      </trkpt>
      <trkpt lat="44.29078" lon="3.57669">
        <ele>1143</ele>
        <time>2014-06-21T12:39:19.000Z</time>
      </trkpt>
      <trkpt lat="44.29072" lon="3.57665">
        <ele>1144</ele>
        <time>2014-06-21T12:39:25.000Z</time>
      </trkpt>
      <trkpt lat="44.29068" lon="3.57662">
        <ele>1144</ele>
        <time>2014-06-21T12:39:27.000Z</time>
      </trkpt>
      <trkpt lat="44.29063" lon="3.57659">
        <ele>1145</ele>
        <time>2014-06-21T12:39:29.000Z</time>
      </trkpt>
      <trkpt lat="44.29058" lon="3.57655">
        <ele>1144</ele>
        <time>2014-06-21T12:39:33.000Z</time>
      </trkpt>
      <trkpt lat="44.29052" lon="3.57651">
        <ele>1145</ele>
        <time>2014-06-21T12:39:35.000Z</time>
      </trkpt>
      <trkpt lat="44.29048" lon="3.57648">
        <ele>1145</ele>
        <time>2014-06-21T12:39:37.000Z</time>
      </trkpt>
      <trkpt lat="44.29044" lon="3.57645">
        <ele>1145</ele>
        <time>2014-06-21T12:39:39.000Z</time>
      </trkpt>
      <trkpt lat="44.29039" lon="3.57641">
        <ele>1145</ele>
        <time>2014-06-21T12:39:41.000Z</time>
      </trkpt>
      <trkpt lat="44.29031" lon="3.57634">
        <ele>1145</ele>
        <time>2014-06-21T12:39:43.000Z</time>
      </trkpt>
      <trkpt lat="44.29022" lon="3.57624">
        <ele>1145</ele>
        <time>2014-06-21T12:39:47.000Z</time>
      </trkpt>
      <trkpt lat="44.29013" lon="3.57612">
        <ele>1145</ele>
        <time>2014-06-21T12:39:51.000Z</time>
      </trkpt>
      <trkpt lat="44.29002" lon="3.57598">
        <ele>1145</ele>
        <time>2014-06-21T12:39:55.000Z</time>
      </trkpt>
      <trkpt lat="44.28993" lon="3.57583">
        <ele>1145</ele>
        <time>2014-06-21T12:39:59.000Z</time>
      </trkpt>
      <trkpt lat="44.28984" lon="3.57567">
        <ele>1145</ele>
        <time>2014-06-21T12:40:03.000Z</time>
      </trkpt>
      <trkpt lat="44.28973" lon="3.57548">
        <ele>1144</ele>
        <time>2014-06-21T12:40:07.000Z</time>
      </trkpt>
      <trkpt lat="44.28959" lon="3.5753">
        <ele>1145</ele>
        <time>2014-06-21T12:40:11.000Z</time>
      </trkpt>
      <trkpt lat="44.28952" lon="3.57521">
        <ele>1144</ele>
        <time>2014-06-21T12:40:13.000Z</time>
      </trkpt>
      <trkpt lat="44.28946" lon="3.57512">
        <ele>1145</ele>
        <time>2014-06-21T12:40:15.000Z</time>
      </trkpt>
      <trkpt lat="44.28946" lon="3.57512">
        <ele>1145</ele>
        <time>2014-06-21T12:40:17.000Z</time>
      </trkpt>
      <trkpt lat="44.28946" lon="3.57512">
        <ele>1145</ele>
        <time>2014-06-21T12:40:19.000Z</time>
      </trkpt>
      <trkpt lat="44.28946" lon="3.57512">
        <ele>1145</ele>
        <time>2014-06-21T12:40:21.000Z</time>
      </trkpt>
      <trkpt lat="44.28946" lon="3.57512">
        <ele>1145</ele>
        <time>2014-06-21T12:40:23.000Z</time>
      </trkpt>
      <trkpt lat="44.28946" lon="3.57512">
        <ele>1145</ele>
        <time>2014-06-21T12:40:25.000Z</time>
      </trkpt>
      <trkpt lat="44.28946" lon="3.57512">
        <ele>1145</ele>
        <time>2014-06-21T12:40:27.000Z</time>
      </trkpt>
      <trkpt lat="44.28946" lon="3.57512">
        <ele>1145</ele>
        <time>2014-06-21T12:40:29.000Z</time>
      </trkpt>
      <trkpt lat="44.28946" lon="3.57512">
        <ele>1145</ele>
        <time>2014-06-21T12:40:31.000Z</time>
      </trkpt>
      <trkpt lat="44.28946" lon="3.57512">
        <ele>1145</ele>
        <time>2014-06-21T12:40:33.000Z</time>
      </trkpt>
      <trkpt lat="44.28913" lon="3.57483">
        <ele>1146</ele>
        <time>2014-06-21T12:40:37.000Z</time>
      </trkpt>
      <trkpt lat="44.28904" lon="3.57479">
        <ele>1145</ele>
        <time>2014-06-21T12:40:43.000Z</time>
      </trkpt>
      <trkpt lat="44.28904" lon="3.57479">
        <ele>1145</ele>
        <time>2014-06-21T12:40:45.000Z</time>
      </trkpt>
      <trkpt lat="44.28892" lon="3.57484">
        <ele>1147</ele>
        <time>2014-06-21T12:40:49.000Z</time>
      </trkpt>
      <trkpt lat="44.28881" lon="3.57485">
        <ele>1147</ele>
        <time>2014-06-21T12:40:53.000Z</time>
      </trkpt>
      <trkpt lat="44.28871" lon="3.57483">
        <ele>1147</ele>
        <time>2014-06-21T12:40:57.000Z</time>
      </trkpt>
      <trkpt lat="44.28859" lon="3.57481">
        <ele>1145</ele>
        <time>2014-06-21T12:41:01.000Z</time>
      </trkpt>
      <trkpt lat="44.28845" lon="3.57479">
        <ele>1146</ele>
        <time>2014-06-21T12:41:05.000Z</time>
      </trkpt>
      <trkpt lat="44.28845" lon="3.57479">
        <ele>1146</ele>
        <time>2014-06-21T12:41:07.000Z</time>
      </trkpt>
      <trkpt lat="44.28833" lon="3.57475">
        <ele>1146</ele>
        <time>2014-06-21T12:41:09.000Z</time>
      </trkpt>
      <trkpt lat="44.28833" lon="3.57475">
        <ele>1146</ele>
        <time>2014-06-21T12:41:11.000Z</time>
      </trkpt>
      <trkpt lat="44.28809" lon="3.57467">
        <ele>1145</ele>
        <time>2014-06-21T12:41:17.000Z</time>
      </trkpt>
      <trkpt lat="44.28802" lon="3.57466">
        <ele>1146</ele>
        <time>2014-06-21T12:41:21.000Z</time>
      </trkpt>
      <trkpt lat="44.28795" lon="3.57465">
        <ele>1145</ele>
        <time>2014-06-21T12:41:23.000Z</time>
      </trkpt>
      <trkpt lat="44.28788" lon="3.57463">
        <ele>1145</ele>
        <time>2014-06-21T12:41:25.000Z</time>
      </trkpt>
      <trkpt lat="44.28788" lon="3.57463">
        <ele>1145</ele>
        <time>2014-06-21T12:41:26.000Z</time>
      </trkpt>
      <trkpt lat="44.28788" lon="3.57463">
        <ele>1145</ele>
        <time>2014-06-21T12:41:28.000Z</time>
      </trkpt>
      <trkpt lat="44.28788" lon="3.57463">
        <ele>1145</ele>
        <time>2014-06-21T12:41:30.000Z</time>
      </trkpt>
      <trkpt lat="44.28788" lon="3.57463">
        <ele>1145</ele>
        <time>2014-06-21T12:41:32.000Z</time>
      </trkpt>
      <trkpt lat="44.28788" lon="3.57463">
        <ele>1145</ele>
        <time>2014-06-21T12:41:34.000Z</time>
      </trkpt>
      <trkpt lat="44.28788" lon="3.57463">
        <ele>1145</ele>
        <time>2014-06-21T12:41:38.000Z</time>
      </trkpt>
      <trkpt lat="44.28788" lon="3.57463">
        <ele>1145</ele>
        <time>2014-06-21T12:41:40.000Z</time>
      </trkpt>
      <trkpt lat="44.2877" lon="3.5746">
        <ele>1144</ele>
        <time>2014-06-21T12:42:20.000Z</time>
      </trkpt>
      <trkpt lat="44.28759" lon="3.57458">
        <ele>1143</ele>
        <time>2014-06-21T12:42:22.000Z</time>
      </trkpt>
      <trkpt lat="44.28751" lon="3.57456">
        <ele>1143</ele>
        <time>2014-06-21T12:42:24.000Z</time>
      </trkpt>
      <trkpt lat="44.28744" lon="3.57455">
        <ele>1144</ele>
        <time>2014-06-21T12:42:26.000Z</time>
      </trkpt>
      <trkpt lat="44.28738" lon="3.57455">
        <ele>1143</ele>
        <time>2014-06-21T12:42:28.000Z</time>
      </trkpt>
      <trkpt lat="44.28725" lon="3.57455">
        <ele>1142</ele>
        <time>2014-06-21T12:42:30.000Z</time>
      </trkpt>
      <trkpt lat="44.28712" lon="3.57452">
        <ele>1142</ele>
        <time>2014-06-21T12:42:34.000Z</time>
      </trkpt>
      <trkpt lat="44.28712" lon="3.57452">
        <ele>1142</ele>
        <time>2014-06-21T12:42:36.000Z</time>
      </trkpt>
      <trkpt lat="44.28701" lon="3.57447">
        <ele>1142</ele>
        <time>2014-06-21T12:42:38.000Z</time>
      </trkpt>
      <trkpt lat="44.28688" lon="3.57444">
        <ele>1143</ele>
        <time>2014-06-21T12:42:42.000Z</time>
      </trkpt>
      <trkpt lat="44.28674" lon="3.57441">
        <ele>1142</ele>
        <time>2014-06-21T12:42:46.000Z</time>
      </trkpt>
      <trkpt lat="44.28674" lon="3.57441">
        <ele>1142</ele>
        <time>2014-06-21T12:42:48.000Z</time>
      </trkpt>
      <trkpt lat="44.28674" lon="3.57441">
        <ele>1142</ele>
        <time>2014-06-21T12:42:50.000Z</time>
      </trkpt>
      <trkpt lat="44.28674" lon="3.57441">
        <ele>1142</ele>
        <time>2014-06-21T12:42:52.000Z</time>
      </trkpt>
      <trkpt lat="44.28674" lon="3.57441">
        <ele>1142</ele>
        <time>2014-06-21T12:42:54.000Z</time>
      </trkpt>
      <trkpt lat="44.28674" lon="3.57441">
        <ele>1142</ele>
        <time>2014-06-21T12:42:56.000Z</time>
      </trkpt>
      <trkpt lat="44.28674" lon="3.57441">
        <ele>1142</ele>
        <time>2014-06-21T12:42:58.000Z</time>
      </trkpt>
      <trkpt lat="44.28627" lon="3.57427">
        <ele>1142</ele>
        <time>2014-06-21T12:43:02.000Z</time>
      </trkpt>
      <trkpt lat="44.28612" lon="3.57421">
        <ele>1142</ele>
        <time>2014-06-21T12:43:06.000Z</time>
      </trkpt>
      <trkpt lat="44.286" lon="3.5741">
        <ele>1142</ele>
        <time>2014-06-21T12:43:10.000Z</time>
      </trkpt>
      <trkpt lat="44.286" lon="3.5741">
        <ele>1142</ele>
        <time>2014-06-21T12:43:12.000Z</time>
      </trkpt>
      <trkpt lat="44.28588" lon="3.574">
        <ele>1141</ele>
        <time>2014-06-21T12:43:14.000Z</time>
      </trkpt>
      <trkpt lat="44.28588" lon="3.574">
        <ele>1141</ele>
        <time>2014-06-21T12:43:16.000Z</time>
      </trkpt>
      <trkpt lat="44.28588" lon="3.574">
        <ele>1141</ele>
        <time>2014-06-21T12:43:18.000Z</time>
      </trkpt>
      <trkpt lat="44.28588" lon="3.574">
        <ele>1141</ele>
        <time>2014-06-21T12:43:20.000Z</time>
      </trkpt>
      <trkpt lat="44.28588" lon="3.574">
        <ele>1141</ele>
        <time>2014-06-21T12:43:22.000Z</time>
      </trkpt>
      <trkpt lat="44.28588" lon="3.574">
        <ele>1141</ele>
        <time>2014-06-21T12:43:24.000Z</time>
      </trkpt>
      <trkpt lat="44.28557" lon="3.57352">
        <ele>1140</ele>
        <time>2014-06-21T12:43:28.000Z</time>
      </trkpt>
      <trkpt lat="44.28547" lon="3.57331">
        <ele>1139</ele>
        <time>2014-06-21T12:43:32.000Z</time>
      </trkpt>
      <trkpt lat="44.2854" lon="3.57318">
        <ele>1138</ele>
        <time>2014-06-21T12:43:34.000Z</time>
      </trkpt>
      <trkpt lat="44.28534" lon="3.57305">
        <ele>1137</ele>
        <time>2014-06-21T12:43:36.000Z</time>
      </trkpt>
      <trkpt lat="44.28527" lon="3.57293">
        <ele>1136</ele>
        <time>2014-06-21T12:43:38.000Z</time>
      </trkpt>
      <trkpt lat="44.28521" lon="3.5728">
        <ele>1136</ele>
        <time>2014-06-21T12:43:40.000Z</time>
      </trkpt>
      <trkpt lat="44.28514" lon="3.57266">
        <ele>1135</ele>
        <time>2014-06-21T12:43:42.000Z</time>
      </trkpt>
      <trkpt lat="44.28506" lon="3.57251">
        <ele>1134</ele>
        <time>2014-06-21T12:43:44.000Z</time>
      </trkpt>
      <trkpt lat="44.28497" lon="3.57236">
        <ele>1133</ele>
        <time>2014-06-21T12:43:46.000Z</time>
      </trkpt>
      <trkpt lat="44.28485" lon="3.57222">
        <ele>1132</ele>
        <time>2014-06-21T12:43:48.000Z</time>
      </trkpt>
      <trkpt lat="44.28474" lon="3.57208">
        <ele>1131</ele>
        <time>2014-06-21T12:43:50.000Z</time>
      </trkpt>
      <trkpt lat="44.2846" lon="3.57196">
        <ele>1130</ele>
        <time>2014-06-21T12:43:52.000Z</time>
      </trkpt>
      <trkpt lat="44.28448" lon="3.57181">
        <ele>1129</ele>
        <time>2014-06-21T12:43:54.000Z</time>
      </trkpt>
      <trkpt lat="44.28435" lon="3.57168">
        <ele>1127</ele>
        <time>2014-06-21T12:43:56.000Z</time>
      </trkpt>
      <trkpt lat="44.28422" lon="3.57154">
        <ele>1126</ele>
        <time>2014-06-21T12:43:58.000Z</time>
      </trkpt>
      <trkpt lat="44.2841" lon="3.57144">
        <ele>1125</ele>
        <time>2014-06-21T12:44:00.000Z</time>
      </trkpt>
      <trkpt lat="44.28397" lon="3.57134">
        <ele>1124</ele>
        <time>2014-06-21T12:44:02.000Z</time>
      </trkpt>
      <trkpt lat="44.28383" lon="3.57125">
        <ele>1122</ele>
        <time>2014-06-21T12:44:04.000Z</time>
      </trkpt>
      <trkpt lat="44.28368" lon="3.57112">
        <ele>1120</ele>
        <time>2014-06-21T12:44:06.000Z</time>
      </trkpt>
      <trkpt lat="44.28354" lon="3.571">
        <ele>1119</ele>
        <time>2014-06-21T12:44:08.000Z</time>
      </trkpt>
      <trkpt lat="44.28341" lon="3.57092">
        <ele>1117</ele>
        <time>2014-06-21T12:44:10.000Z</time>
      </trkpt>
      <trkpt lat="44.28327" lon="3.57083">
        <ele>1116</ele>
        <time>2014-06-21T12:44:12.000Z</time>
      </trkpt>
      <trkpt lat="44.28311" lon="3.57076">
        <ele>1115</ele>
        <time>2014-06-21T12:44:14.000Z</time>
      </trkpt>
      <trkpt lat="44.28295" lon="3.57072">
        <ele>1114</ele>
        <time>2014-06-21T12:44:16.000Z</time>
      </trkpt>
      <trkpt lat="44.28283" lon="3.57069">
        <ele>1113</ele>
        <time>2014-06-21T12:44:18.000Z</time>
      </trkpt>
      <trkpt lat="44.28272" lon="3.57067">
        <ele>1112</ele>
        <time>2014-06-21T12:44:20.000Z</time>
      </trkpt>
      <trkpt lat="44.28272" lon="3.57067">
        <ele>1112</ele>
        <time>2014-06-21T12:44:23.000Z</time>
      </trkpt>
      <trkpt lat="44.28272" lon="3.57067">
        <ele>1112</ele>
        <time>2014-06-21T12:44:25.000Z</time>
      </trkpt>
      <trkpt lat="44.28272" lon="3.57067">
        <ele>1112</ele>
        <time>2014-06-21T12:44:27.000Z</time>
      </trkpt>
      <trkpt lat="44.28272" lon="3.57067">
        <ele>1112</ele>
        <time>2014-06-21T12:44:29.000Z</time>
      </trkpt>
      <trkpt lat="44.28272" lon="3.57067">
        <ele>1112</ele>
        <time>2014-06-21T12:44:31.000Z</time>
      </trkpt>
      <trkpt lat="44.28263" lon="3.57068">
        <ele>1109</ele>
        <time>2014-06-21T12:44:35.000Z</time>
      </trkpt>
      <trkpt lat="44.28263" lon="3.57068">
        <ele>1109</ele>
        <time>2014-06-21T12:44:39.000Z</time>
      </trkpt>
      <trkpt lat="44.28263" lon="3.57068">
        <ele>1109</ele>
        <time>2014-06-21T12:44:41.000Z</time>
      </trkpt>
      <trkpt lat="44.28257" lon="3.57069">
        <ele>1109</ele>
        <time>2014-06-21T12:44:49.000Z</time>
      </trkpt>
      <trkpt lat="44.28251" lon="3.57071">
        <ele>1110</ele>
        <time>2014-06-21T12:44:53.000Z</time>
      </trkpt>
      <trkpt lat="44.28251" lon="3.57071">
        <ele>1110</ele>
        <time>2014-06-21T12:44:55.000Z</time>
      </trkpt>
      <trkpt lat="44.28251" lon="3.57071">
        <ele>1110</ele>
        <time>2014-06-21T12:44:57.000Z</time>
      </trkpt>
      <trkpt lat="44.28251" lon="3.57071">
        <ele>1110</ele>
        <time>2014-06-21T12:44:59.000Z</time>
      </trkpt>
      <trkpt lat="44.28251" lon="3.57071">
        <ele>1110</ele>
        <time>2014-06-21T12:45:01.000Z</time>
      </trkpt>
      <trkpt lat="44.28242" lon="3.57073">
        <ele>1110</ele>
        <time>2014-06-21T12:45:09.000Z</time>
      </trkpt>
      <trkpt lat="44.28236" lon="3.57074">
        <ele>1111</ele>
        <time>2014-06-21T12:45:11.000Z</time>
      </trkpt>
      <trkpt lat="44.28231" lon="3.57075">
        <ele>1111</ele>
        <time>2014-06-21T12:45:13.000Z</time>
      </trkpt>
      <trkpt lat="44.28226" lon="3.57076">
        <ele>1112</ele>
        <time>2014-06-21T12:45:15.000Z</time>
      </trkpt>
      <trkpt lat="44.2822" lon="3.57076">
        <ele>1111</ele>
        <time>2014-06-21T12:45:17.000Z</time>
      </trkpt>
      <trkpt lat="44.28209" lon="3.57078">
        <ele>1111</ele>
        <time>2014-06-21T12:45:19.000Z</time>
      </trkpt>
      <trkpt lat="44.282" lon="3.57077">
        <ele>1109</ele>
        <time>2014-06-21T12:45:23.000Z</time>
      </trkpt>
      <trkpt lat="44.282" lon="3.57077">
        <ele>1109</ele>
        <time>2014-06-21T12:45:25.000Z</time>
      </trkpt>
      <trkpt lat="44.282" lon="3.57077">
        <ele>1109</ele>
        <time>2014-06-21T12:45:27.000Z</time>
      </trkpt>
      <trkpt lat="44.2818" lon="3.5708">
        <ele>1108</ele>
        <time>2014-06-21T12:45:31.000Z</time>
      </trkpt>
      <trkpt lat="44.2817" lon="3.57083">
        <ele>1107</ele>
        <time>2014-06-21T12:45:35.000Z</time>
      </trkpt>
      <trkpt lat="44.2817" lon="3.57083">
        <ele>1107</ele>
        <time>2014-06-21T12:45:37.000Z</time>
      </trkpt>
      <trkpt lat="44.2817" lon="3.57083">
        <ele>1107</ele>
        <time>2014-06-21T12:45:45.000Z</time>
      </trkpt>
      <trkpt lat="44.2817" lon="3.57083">
        <ele>1107</ele>
        <time>2014-06-21T12:45:47.000Z</time>
      </trkpt>
      <trkpt lat="44.2817" lon="3.57083">
        <ele>1107</ele>
        <time>2014-06-21T12:45:49.000Z</time>
      </trkpt>
      <trkpt lat="44.2817" lon="3.57083">
        <ele>1107</ele>
        <time>2014-06-21T12:45:51.000Z</time>
      </trkpt>
      <trkpt lat="44.28142" lon="3.57129">
        <ele>1100</ele>
        <time>2014-06-21T12:45:55.000Z</time>
      </trkpt>
      <trkpt lat="44.28136" lon="3.57142">
        <ele>1099</ele>
        <time>2014-06-21T12:45:59.000Z</time>
      </trkpt>
      <trkpt lat="44.28134" lon="3.57157">
        <ele>1098</ele>
        <time>2014-06-21T12:46:03.000Z</time>
      </trkpt>
      <trkpt lat="44.28134" lon="3.57157">
        <ele>1098</ele>
        <time>2014-06-21T12:46:05.000Z</time>
      </trkpt>
      <trkpt lat="44.28134" lon="3.57157">
        <ele>1098</ele>
        <time>2014-06-21T12:46:07.000Z</time>
      </trkpt>
      <trkpt lat="44.28129" lon="3.57187">
        <ele>1096</ele>
        <time>2014-06-21T12:46:11.000Z</time>
      </trkpt>
      <trkpt lat="44.28124" lon="3.57205">
        <ele>1095</ele>
        <time>2014-06-21T12:46:15.000Z</time>
      </trkpt>
      <trkpt lat="44.28119" lon="3.57218">
        <ele>1094</ele>
        <time>2014-06-21T12:46:19.000Z</time>
      </trkpt>
      <trkpt lat="44.28119" lon="3.57218">
        <ele>1094</ele>
        <time>2014-06-21T12:46:21.000Z</time>
      </trkpt>
      <trkpt lat="44.28119" lon="3.57218">
        <ele>1094</ele>
        <time>2014-06-21T12:46:23.000Z</time>
      </trkpt>
      <trkpt lat="44.28115" lon="3.57252">
        <ele>1092</ele>
        <time>2014-06-21T12:46:27.000Z</time>
      </trkpt>
      <trkpt lat="44.28115" lon="3.57271">
        <ele>1092</ele>
        <time>2014-06-21T12:46:31.000Z</time>
      </trkpt>
      <trkpt lat="44.28115" lon="3.57271">
        <ele>1092</ele>
        <time>2014-06-21T12:46:33.000Z</time>
      </trkpt>
      <trkpt lat="44.28116" lon="3.5729">
        <ele>1092</ele>
        <time>2014-06-21T12:46:35.000Z</time>
      </trkpt>
      <trkpt lat="44.28116" lon="3.5729">
        <ele>1092</ele>
        <time>2014-06-21T12:46:37.000Z</time>
      </trkpt>
      <trkpt lat="44.28116" lon="3.5729">
        <ele>1092</ele>
        <time>2014-06-21T12:46:39.000Z</time>
      </trkpt>
      <trkpt lat="44.28116" lon="3.5729">
        <ele>1092</ele>
        <time>2014-06-21T12:46:41.000Z</time>
      </trkpt>
      <trkpt lat="44.28116" lon="3.5729">
        <ele>1092</ele>
        <time>2014-06-21T12:46:43.000Z</time>
      </trkpt>
      <trkpt lat="44.28116" lon="3.5729">
        <ele>1092</ele>
        <time>2014-06-21T12:46:45.000Z</time>
      </trkpt>
      <trkpt lat="44.28116" lon="3.5729">
        <ele>1092</ele>
        <time>2014-06-21T12:46:47.000Z</time>
      </trkpt>
      <trkpt lat="44.28111" lon="3.5732">
        <ele>1089</ele>
        <time>2014-06-21T12:46:51.000Z</time>
      </trkpt>
      <trkpt lat="44.28108" lon="3.57339">
        <ele>1088</ele>
        <time>2014-06-21T12:46:53.000Z</time>
      </trkpt>
      <trkpt lat="44.28108" lon="3.57339">
        <ele>1088</ele>
        <time>2014-06-21T12:46:55.000Z</time>
      </trkpt>
      <trkpt lat="44.28108" lon="3.57339">
        <ele>1088</ele>
        <time>2014-06-21T12:46:57.000Z</time>
      </trkpt>
      <trkpt lat="44.28108" lon="3.57339">
        <ele>1088</ele>
        <time>2014-06-21T12:46:59.000Z</time>
      </trkpt>
      <trkpt lat="44.28108" lon="3.57339">
        <ele>1088</ele>
        <time>2014-06-21T12:47:01.000Z</time>
      </trkpt>
      <trkpt lat="44.28102" lon="3.57355">
        <ele>1090</ele>
        <time>2014-06-21T12:47:03.000Z</time>
      </trkpt>
      <trkpt lat="44.28098" lon="3.57363">
        <ele>1089</ele>
        <time>2014-06-21T12:47:05.000Z</time>
      </trkpt>
      <trkpt lat="44.28095" lon="3.57369">
        <ele>1090</ele>
        <time>2014-06-21T12:47:07.000Z</time>
      </trkpt>
      <trkpt lat="44.28095" lon="3.57369">
        <ele>1090</ele>
        <time>2014-06-21T12:47:09.000Z</time>
      </trkpt>
      <trkpt lat="44.28095" lon="3.57369">
        <ele>1090</ele>
        <time>2014-06-21T12:47:11.000Z</time>
      </trkpt>
      <trkpt lat="44.28095" lon="3.57369">
        <ele>1090</ele>
        <time>2014-06-21T12:47:13.000Z</time>
      </trkpt>
      <trkpt lat="44.28095" lon="3.57369">
        <ele>1090</ele>
        <time>2014-06-21T12:47:15.000Z</time>
      </trkpt>
      <trkpt lat="44.28095" lon="3.57369">
        <ele>1090</ele>
        <time>2014-06-21T12:47:17.000Z</time>
      </trkpt>
      <trkpt lat="44.28086" lon="3.5738">
        <ele>1088</ele>
        <time>2014-06-21T12:48:15.000Z</time>
      </trkpt>
      <trkpt lat="44.28078" lon="3.57386">
        <ele>1088</ele>
        <time>2014-06-21T12:48:17.000Z</time>
      </trkpt>
      <trkpt lat="44.28072" lon="3.57389">
        <ele>1089</ele>
        <time>2014-06-21T12:48:19.000Z</time>
      </trkpt>
      <trkpt lat="44.28066" lon="3.5739">
        <ele>1088</ele>
        <time>2014-06-21T12:48:21.000Z</time>
      </trkpt>
      <trkpt lat="44.28061" lon="3.57392">
        <ele>1088</ele>
        <time>2014-06-21T12:48:23.000Z</time>
      </trkpt>
      <trkpt lat="44.28048" lon="3.57396">
        <ele>1088</ele>
        <time>2014-06-21T12:48:25.000Z</time>
      </trkpt>
      <trkpt lat="44.28036" lon="3.57399">
        <ele>1088</ele>
        <time>2014-06-21T12:48:29.000Z</time>
      </trkpt>
      <trkpt lat="44.28036" lon="3.57399">
        <ele>1088</ele>
        <time>2014-06-21T12:48:31.000Z</time>
      </trkpt>
      <trkpt lat="44.28027" lon="3.57405">
        <ele>1089</ele>
        <time>2014-06-21T12:48:33.000Z</time>
      </trkpt>
      <trkpt lat="44.28016" lon="3.57413">
        <ele>1089</ele>
        <time>2014-06-21T12:48:37.000Z</time>
      </trkpt>
      <trkpt lat="44.28006" lon="3.57424">
        <ele>1089</ele>
        <time>2014-06-21T12:48:41.000Z</time>
      </trkpt>
      <trkpt lat="44.28006" lon="3.57424">
        <ele>1089</ele>
        <time>2014-06-21T12:48:43.000Z</time>
      </trkpt>
      <trkpt lat="44.28006" lon="3.57424">
        <ele>1089</ele>
        <time>2014-06-21T12:48:45.000Z</time>
      </trkpt>
      <trkpt lat="44.28006" lon="3.57424">
        <ele>1089</ele>
        <time>2014-06-21T12:48:47.000Z</time>
      </trkpt>
      <trkpt lat="44.27974" lon="3.57461">
        <ele>1088</ele>
        <time>2014-06-21T12:48:55.000Z</time>
      </trkpt>
      <trkpt lat="44.27963" lon="3.57471">
        <ele>1088</ele>
        <time>2014-06-21T12:48:59.000Z</time>
      </trkpt>
      <trkpt lat="44.27963" lon="3.57471">
        <ele>1088</ele>
        <time>2014-06-21T12:49:01.000Z</time>
      </trkpt>
      <trkpt lat="44.27963" lon="3.57471">
        <ele>1088</ele>
        <time>2014-06-21T12:49:03.000Z</time>
      </trkpt>
      <trkpt lat="44.27963" lon="3.57471">
        <ele>1088</ele>
        <time>2014-06-21T12:49:05.000Z</time>
      </trkpt>
      <trkpt lat="44.27937" lon="3.57489">
        <ele>1089</ele>
        <time>2014-06-21T12:49:09.000Z</time>
      </trkpt>
      <trkpt lat="44.27937" lon="3.57489">
        <ele>1089</ele>
        <time>2014-06-21T12:49:11.000Z</time>
      </trkpt>
      <trkpt lat="44.27937" lon="3.57489">
        <ele>1089</ele>
        <time>2014-06-21T12:49:13.000Z</time>
      </trkpt>
      <trkpt lat="44.27937" lon="3.57489">
        <ele>1089</ele>
        <time>2014-06-21T12:49:15.000Z</time>
      </trkpt>
      <trkpt lat="44.27937" lon="3.57489">
        <ele>1089</ele>
        <time>2014-06-21T12:49:17.000Z</time>
      </trkpt>
      <trkpt lat="44.27906" lon="3.57509">
        <ele>1089</ele>
        <time>2014-06-21T12:49:23.000Z</time>
      </trkpt>
      <trkpt lat="44.27906" lon="3.57509">
        <ele>1089</ele>
        <time>2014-06-21T12:49:26.000Z</time>
      </trkpt>
      <trkpt lat="44.27906" lon="3.57509">
        <ele>1089</ele>
        <time>2014-06-21T12:49:27.000Z</time>
      </trkpt>
      <trkpt lat="44.27906" lon="3.57509">
        <ele>1089</ele>
        <time>2014-06-21T12:49:29.000Z</time>
      </trkpt>
      <trkpt lat="44.27906" lon="3.57509">
        <ele>1089</ele>
        <time>2014-06-21T12:49:31.000Z</time>
      </trkpt>
      <trkpt lat="44.27906" lon="3.57509">
        <ele>1089</ele>
        <time>2014-06-21T12:49:33.000Z</time>
      </trkpt>
      <trkpt lat="44.27876" lon="3.57505">
        <ele>1089</ele>
        <time>2014-06-21T12:49:37.000Z</time>
      </trkpt>
      <trkpt lat="44.27864" lon="3.57503">
        <ele>1090</ele>
        <time>2014-06-21T12:49:41.000Z</time>
      </trkpt>
      <trkpt lat="44.27851" lon="3.57498">
        <ele>1090</ele>
        <time>2014-06-21T12:49:45.000Z</time>
      </trkpt>
      <trkpt lat="44.27844" lon="3.57496">
        <ele>1091</ele>
        <time>2014-06-21T12:49:49.000Z</time>
      </trkpt>
      <trkpt lat="44.27838" lon="3.57495">
        <ele>1091</ele>
        <time>2014-06-21T12:49:51.000Z</time>
      </trkpt>
      <trkpt lat="44.27831" lon="3.57495">
        <ele>1092</ele>
        <time>2014-06-21T12:49:53.000Z</time>
      </trkpt>
      <trkpt lat="44.27831" lon="3.57495">
        <ele>1092</ele>
        <time>2014-06-21T12:49:55.000Z</time>
      </trkpt>
      <trkpt lat="44.27831" lon="3.57495">
        <ele>1092</ele>
        <time>2014-06-21T12:49:57.000Z</time>
      </trkpt>
      <trkpt lat="44.27831" lon="3.57495">
        <ele>1092</ele>
        <time>2014-06-21T12:49:59.000Z</time>
      </trkpt>
      <trkpt lat="44.2781" lon="3.57491">
        <ele>1092</ele>
        <time>2014-06-21T12:50:05.000Z</time>
      </trkpt>
      <trkpt lat="44.27796" lon="3.57485">
        <ele>1091</ele>
        <time>2014-06-21T12:50:07.000Z</time>
      </trkpt>
      <trkpt lat="44.27796" lon="3.57485">
        <ele>1091</ele>
        <time>2014-06-21T12:50:09.000Z</time>
      </trkpt>
      <trkpt lat="44.27796" lon="3.57485">
        <ele>1091</ele>
        <time>2014-06-21T12:50:11.000Z</time>
      </trkpt>
      <trkpt lat="44.27796" lon="3.57485">
        <ele>1091</ele>
        <time>2014-06-21T12:50:13.000Z</time>
      </trkpt>
      <trkpt lat="44.27796" lon="3.57485">
        <ele>1091</ele>
        <time>2014-06-21T12:50:15.000Z</time>
      </trkpt>
      <trkpt lat="44.27796" lon="3.57485">
        <ele>1091</ele>
        <time>2014-06-21T12:50:17.000Z</time>
      </trkpt>
      <trkpt lat="44.27778" lon="3.57473">
        <ele>1091</ele>
        <time>2014-06-21T12:50:19.000Z</time>
      </trkpt>
      <trkpt lat="44.27765" lon="3.57465">
        <ele>1091</ele>
        <time>2014-06-21T12:50:21.000Z</time>
      </trkpt>
      <trkpt lat="44.27756" lon="3.57458">
        <ele>1091</ele>
        <time>2014-06-21T12:50:23.000Z</time>
      </trkpt>
      <trkpt lat="44.27748" lon="3.57453">
        <ele>1091</ele>
        <time>2014-06-21T12:50:25.000Z</time>
      </trkpt>
      <trkpt lat="44.27741" lon="3.57449">
        <ele>1091</ele>
        <time>2014-06-21T12:50:27.000Z</time>
      </trkpt>
      <trkpt lat="44.27741" lon="3.57449">
        <ele>1091</ele>
        <time>2014-06-21T12:50:29.000Z</time>
      </trkpt>
      <trkpt lat="44.27741" lon="3.57449">
        <ele>1091</ele>
        <time>2014-06-21T12:50:31.000Z</time>
      </trkpt>
      <trkpt lat="44.27741" lon="3.57449">
        <ele>1091</ele>
        <time>2014-06-21T12:50:33.000Z</time>
      </trkpt>
      <trkpt lat="44.27741" lon="3.57449">
        <ele>1091</ele>
        <time>2014-06-21T12:50:35.000Z</time>
      </trkpt>
      <trkpt lat="44.27741" lon="3.57449">
        <ele>1091</ele>
        <time>2014-06-21T12:50:37.000Z</time>
      </trkpt>
      <trkpt lat="44.27741" lon="3.57449">
        <ele>1091</ele>
        <time>2014-06-21T12:50:39.000Z</time>
      </trkpt>
      <trkpt lat="44.27741" lon="3.57449">
        <ele>1091</ele>
        <time>2014-06-21T12:50:41.000Z</time>
      </trkpt>
      <trkpt lat="44.27741" lon="3.57449">
        <ele>1091</ele>
        <time>2014-06-21T12:50:43.000Z</time>
      </trkpt>
      <trkpt lat="44.27741" lon="3.57449">
        <ele>1091</ele>
        <time>2014-06-21T12:50:45.000Z</time>
      </trkpt>
      <trkpt lat="44.27741" lon="3.57449">
        <ele>1091</ele>
        <time>2014-06-21T12:50:51.000Z</time>
      </trkpt>
      <trkpt lat="44.27741" lon="3.57449">
        <ele>1091</ele>
        <time>2014-06-21T12:50:53.000Z</time>
      </trkpt>
      <trkpt lat="44.27696" lon="3.57419">
        <ele>1095</ele>
        <time>2014-06-21T12:51:07.000Z</time>
      </trkpt>
      <trkpt lat="44.27686" lon="3.5741">
        <ele>1095</ele>
        <time>2014-06-21T12:51:13.000Z</time>
      </trkpt>
      <trkpt lat="44.27678" lon="3.57403">
        <ele>1095</ele>
        <time>2014-06-21T12:51:17.000Z</time>
      </trkpt>
      <trkpt lat="44.27669" lon="3.57395">
        <ele>1094</ele>
        <time>2014-06-21T12:51:21.000Z</time>
      </trkpt>
      <trkpt lat="44.27662" lon="3.57386">
        <ele>1095</ele>
        <time>2014-06-21T12:51:25.000Z</time>
      </trkpt>
      <trkpt lat="44.27654" lon="3.57376">
        <ele>1096</ele>
        <time>2014-06-21T12:51:29.000Z</time>
      </trkpt>
      <trkpt lat="44.27654" lon="3.57376">
        <ele>1096</ele>
        <time>2014-06-21T12:51:31.000Z</time>
      </trkpt>
      <trkpt lat="44.27654" lon="3.57376">
        <ele>1096</ele>
        <time>2014-06-21T12:51:33.000Z</time>
      </trkpt>
      <trkpt lat="44.27654" lon="3.57376">
        <ele>1096</ele>
        <time>2014-06-21T12:51:35.000Z</time>
      </trkpt>
      <trkpt lat="44.27654" lon="3.57376">
        <ele>1096</ele>
        <time>2014-06-21T12:51:37.000Z</time>
      </trkpt>
      <trkpt lat="44.27654" lon="3.57376">
        <ele>1096</ele>
        <time>2014-06-21T12:51:39.000Z</time>
      </trkpt>
      <trkpt lat="44.27654" lon="3.57376">
        <ele>1096</ele>
        <time>2014-06-21T12:51:41.000Z</time>
      </trkpt>
      <trkpt lat="44.27654" lon="3.57376">
        <ele>1096</ele>
        <time>2014-06-21T12:51:43.000Z</time>
      </trkpt>
      <trkpt lat="44.27654" lon="3.57376">
        <ele>1096</ele>
        <time>2014-06-21T12:51:45.000Z</time>
      </trkpt>
      <trkpt lat="44.27642" lon="3.5736">
        <ele>1096</ele>
        <time>2014-06-21T12:51:49.000Z</time>
      </trkpt>
      <trkpt lat="44.27636" lon="3.5735">
        <ele>1097</ele>
        <time>2014-06-21T12:51:51.000Z</time>
      </trkpt>
      <trkpt lat="44.27631" lon="3.57343">
        <ele>1097</ele>
        <time>2014-06-21T12:51:53.000Z</time>
      </trkpt>
      <trkpt lat="44.27628" lon="3.57336">
        <ele>1097</ele>
        <time>2014-06-21T12:51:55.000Z</time>
      </trkpt>
      <trkpt lat="44.27626" lon="3.57331">
        <ele>1097</ele>
        <time>2014-06-21T12:51:57.000Z</time>
      </trkpt>
      <trkpt lat="44.2762" lon="3.57315">
        <ele>1098</ele>
        <time>2014-06-21T12:52:01.000Z</time>
      </trkpt>
      <trkpt lat="44.27611" lon="3.57301">
        <ele>1098</ele>
        <time>2014-06-21T12:52:07.000Z</time>
      </trkpt>
      <trkpt lat="44.27605" lon="3.5729">
        <ele>1098</ele>
        <time>2014-06-21T12:52:11.000Z</time>
      </trkpt>
      <trkpt lat="44.27597" lon="3.57277">
        <ele>1098</ele>
        <time>2014-06-21T12:52:15.000Z</time>
      </trkpt>
      <trkpt lat="44.2759" lon="3.57265">
        <ele>1099</ele>
        <time>2014-06-21T12:52:19.000Z</time>
      </trkpt>
      <trkpt lat="44.2759" lon="3.57265">
        <ele>1099</ele>
        <time>2014-06-21T12:52:21.000Z</time>
      </trkpt>
      <trkpt lat="44.2759" lon="3.57265">
        <ele>1099</ele>
        <time>2014-06-21T12:52:23.000Z</time>
      </trkpt>
      <trkpt lat="44.2759" lon="3.57265">
        <ele>1099</ele>
        <time>2014-06-21T12:52:25.000Z</time>
      </trkpt>
      <trkpt lat="44.2759" lon="3.57265">
        <ele>1099</ele>
        <time>2014-06-21T12:52:27.000Z</time>
      </trkpt>
      <trkpt lat="44.2759" lon="3.57265">
        <ele>1099</ele>
        <time>2014-06-21T12:52:29.000Z</time>
      </trkpt>
      <trkpt lat="44.2759" lon="3.57265">
        <ele>1099</ele>
        <time>2014-06-21T12:52:31.000Z</time>
      </trkpt>
      <trkpt lat="44.2759" lon="3.57265">
        <ele>1099</ele>
        <time>2014-06-21T12:52:33.000Z</time>
      </trkpt>
      <trkpt lat="44.27567" lon="3.57223">
        <ele>1099</ele>
        <time>2014-06-21T12:52:39.000Z</time>
      </trkpt>
      <trkpt lat="44.27557" lon="3.5721">
        <ele>1099</ele>
        <time>2014-06-21T12:52:45.000Z</time>
      </trkpt>
      <trkpt lat="44.27557" lon="3.5721">
        <ele>1099</ele>
        <time>2014-06-21T12:52:47.000Z</time>
      </trkpt>
      <trkpt lat="44.27557" lon="3.5721">
        <ele>1099</ele>
        <time>2014-06-21T12:52:49.000Z</time>
      </trkpt>
      <trkpt lat="44.27557" lon="3.5721">
        <ele>1099</ele>
        <time>2014-06-21T12:52:51.000Z</time>
      </trkpt>
      <trkpt lat="44.27544" lon="3.57189">
        <ele>1102</ele>
        <time>2014-06-21T12:52:57.000Z</time>
      </trkpt>
      <trkpt lat="44.27544" lon="3.57189">
        <ele>1102</ele>
        <time>2014-06-21T12:52:59.000Z</time>
      </trkpt>
      <trkpt lat="44.27539" lon="3.57175">
        <ele>1102</ele>
        <time>2014-06-21T12:53:03.000Z</time>
      </trkpt>
      <trkpt lat="44.27536" lon="3.5716">
        <ele>1102</ele>
        <time>2014-06-21T12:53:09.000Z</time>
      </trkpt>
      <trkpt lat="44.27536" lon="3.5716">
        <ele>1102</ele>
        <time>2014-06-21T12:53:11.000Z</time>
      </trkpt>
      <trkpt lat="44.2753" lon="3.57146">
        <ele>1103</ele>
        <time>2014-06-21T12:53:15.000Z</time>
      </trkpt>
      <trkpt lat="44.27526" lon="3.57139">
        <ele>1103</ele>
        <time>2014-06-21T12:53:21.000Z</time>
      </trkpt>
      <trkpt lat="44.27522" lon="3.57133">
        <ele>1102</ele>
        <time>2014-06-21T12:53:23.000Z</time>
      </trkpt>
      <trkpt lat="44.27519" lon="3.57127">
        <ele>1103</ele>
        <time>2014-06-21T12:53:25.000Z</time>
      </trkpt>
      <trkpt lat="44.27516" lon="3.57122">
        <ele>1103</ele>
        <time>2014-06-21T12:53:27.000Z</time>
      </trkpt>
      <trkpt lat="44.27516" lon="3.57122">
        <ele>1103</ele>
        <time>2014-06-21T12:53:29.000Z</time>
      </trkpt>
      <trkpt lat="44.27516" lon="3.57122">
        <ele>1103</ele>
        <time>2014-06-21T12:53:31.000Z</time>
      </trkpt>
      <trkpt lat="44.27511" lon="3.57109">
        <ele>1103</ele>
        <time>2014-06-21T12:53:35.000Z</time>
      </trkpt>
      <trkpt lat="44.27508" lon="3.57099">
        <ele>1104</ele>
        <time>2014-06-21T12:53:37.000Z</time>
      </trkpt>
      <trkpt lat="44.27505" lon="3.57092">
        <ele>1104</ele>
        <time>2014-06-21T12:53:39.000Z</time>
      </trkpt>
      <trkpt lat="44.27502" lon="3.57085">
        <ele>1103</ele>
        <time>2014-06-21T12:53:41.000Z</time>
      </trkpt>
      <trkpt lat="44.27502" lon="3.57085">
        <ele>1103</ele>
        <time>2014-06-21T12:53:43.000Z</time>
      </trkpt>
      <trkpt lat="44.27502" lon="3.57085">
        <ele>1103</ele>
        <time>2014-06-21T12:53:45.000Z</time>
      </trkpt>
      <trkpt lat="44.27502" lon="3.57085">
        <ele>1103</ele>
        <time>2014-06-21T12:53:47.000Z</time>
      </trkpt>
      <trkpt lat="44.27502" lon="3.57085">
        <ele>1103</ele>
        <time>2014-06-21T12:53:49.000Z</time>
      </trkpt>
      <trkpt lat="44.27502" lon="3.57085">
        <ele>1103</ele>
        <time>2014-06-21T12:53:51.000Z</time>
      </trkpt>
      <trkpt lat="44.27502" lon="3.57085">
        <ele>1103</ele>
        <time>2014-06-21T12:53:53.000Z</time>
      </trkpt>
      <trkpt lat="44.27502" lon="3.57085">
        <ele>1103</ele>
        <time>2014-06-21T12:53:55.000Z</time>
      </trkpt>
      <trkpt lat="44.27502" lon="3.57085">
        <ele>1103</ele>
        <time>2014-06-21T12:53:57.000Z</time>
      </trkpt>
      <trkpt lat="44.27502" lon="3.57085">
        <ele>1103</ele>
        <time>2014-06-21T12:53:59.000Z</time>
      </trkpt>
      <trkpt lat="44.27502" lon="3.57085">
        <ele>1103</ele>
        <time>2014-06-21T12:54:03.000Z</time>
      </trkpt>
      <trkpt lat="44.27494" lon="3.57054">
        <ele>1109</ele>
        <time>2014-06-21T12:54:05.000Z</time>
      </trkpt>
      <trkpt lat="44.27489" lon="3.57036">
        <ele>1110</ele>
        <time>2014-06-21T12:54:07.000Z</time>
      </trkpt>
      <trkpt lat="44.27487" lon="3.57024">
        <ele>1109</ele>
        <time>2014-06-21T12:54:09.000Z</time>
      </trkpt>
      <trkpt lat="44.27485" lon="3.57016">
        <ele>1110</ele>
        <time>2014-06-21T12:54:11.000Z</time>
      </trkpt>
      <trkpt lat="44.27485" lon="3.57016">
        <ele>1110</ele>
        <time>2014-06-21T12:54:13.000Z</time>
      </trkpt>
      <trkpt lat="44.27483" lon="3.57003">
        <ele>1110</ele>
        <time>2014-06-21T12:54:17.000Z</time>
      </trkpt>
      <trkpt lat="44.27481" lon="3.56995">
        <ele>1111</ele>
        <time>2014-06-21T12:54:19.000Z</time>
      </trkpt>
      <trkpt lat="44.2748" lon="3.56988">
        <ele>1111</ele>
        <time>2014-06-21T12:54:21.000Z</time>
      </trkpt>
      <trkpt lat="44.2748" lon="3.56988">
        <ele>1111</ele>
        <time>2014-06-21T12:54:23.000Z</time>
      </trkpt>
      <trkpt lat="44.2748" lon="3.56979">
        <ele>1111</ele>
        <time>2014-06-21T12:54:25.000Z</time>
      </trkpt>
      <trkpt lat="44.27481" lon="3.56972">
        <ele>1111</ele>
        <time>2014-06-21T12:54:27.000Z</time>
      </trkpt>
      <trkpt lat="44.27481" lon="3.56972">
        <ele>1111</ele>
        <time>2014-06-21T12:54:29.000Z</time>
      </trkpt>
      <trkpt lat="44.27481" lon="3.56972">
        <ele>1111</ele>
        <time>2014-06-21T12:54:31.000Z</time>
      </trkpt>
      <trkpt lat="44.27481" lon="3.56972">
        <ele>1111</ele>
        <time>2014-06-21T12:54:33.000Z</time>
      </trkpt>
      <trkpt lat="44.27481" lon="3.56972">
        <ele>1111</ele>
        <time>2014-06-21T12:54:35.000Z</time>
      </trkpt>
      <trkpt lat="44.27481" lon="3.56972">
        <ele>1111</ele>
        <time>2014-06-21T12:54:37.000Z</time>
      </trkpt>
      <trkpt lat="44.27483" lon="3.56952">
        <ele>1112</ele>
        <time>2014-06-21T12:54:43.000Z</time>
      </trkpt>
      <trkpt lat="44.27485" lon="3.56939">
        <ele>1112</ele>
        <time>2014-06-21T12:54:45.000Z</time>
      </trkpt>
      <trkpt lat="44.27486" lon="3.5693">
        <ele>1112</ele>
        <time>2014-06-21T12:54:47.000Z</time>
      </trkpt>
      <trkpt lat="44.27486" lon="3.56923">
        <ele>1112</ele>
        <time>2014-06-21T12:54:49.000Z</time>
      </trkpt>
      <trkpt lat="44.27487" lon="3.56917">
        <ele>1112</ele>
        <time>2014-06-21T12:54:51.000Z</time>
      </trkpt>
      <trkpt lat="44.27487" lon="3.56917">
        <ele>1112</ele>
        <time>2014-06-21T12:54:53.000Z</time>
      </trkpt>
      <trkpt lat="44.2749" lon="3.56899">
        <ele>1113</ele>
        <time>2014-06-21T12:54:55.000Z</time>
      </trkpt>
      <trkpt lat="44.2749" lon="3.56899">
        <ele>1113</ele>
        <time>2014-06-21T12:54:59.000Z</time>
      </trkpt>
      <trkpt lat="44.2749" lon="3.56899">
        <ele>1113</ele>
        <time>2014-06-21T12:55:01.000Z</time>
      </trkpt>
      <trkpt lat="44.2749" lon="3.56899">
        <ele>1113</ele>
        <time>2014-06-21T12:55:03.000Z</time>
      </trkpt>
      <trkpt lat="44.2749" lon="3.56899">
        <ele>1113</ele>
        <time>2014-06-21T12:55:09.000Z</time>
      </trkpt>
      <trkpt lat="44.2749" lon="3.56899">
        <ele>1113</ele>
        <time>2014-06-21T12:55:11.000Z</time>
      </trkpt>
      <trkpt lat="44.2749" lon="3.56899">
        <ele>1113</ele>
        <time>2014-06-21T12:55:13.000Z</time>
      </trkpt>
      <trkpt lat="44.2749" lon="3.56899">
        <ele>1113</ele>
        <time>2014-06-21T12:55:15.000Z</time>
      </trkpt>
      <trkpt lat="44.2749" lon="3.56899">
        <ele>1113</ele>
        <time>2014-06-21T12:55:17.000Z</time>
      </trkpt>
      <trkpt lat="44.2749" lon="3.56899">
        <ele>1113</ele>
        <time>2014-06-21T12:55:19.000Z</time>
      </trkpt>
      <trkpt lat="44.2749" lon="3.56899">
        <ele>1113</ele>
        <time>2014-06-21T12:55:21.000Z</time>
      </trkpt>
      <trkpt lat="44.27496" lon="3.5683">
        <ele>1116</ele>
        <time>2014-06-21T12:55:29.000Z</time>
      </trkpt>
      <trkpt lat="44.27496" lon="3.5683">
        <ele>1116</ele>
        <time>2014-06-21T12:55:33.000Z</time>
      </trkpt>
      <trkpt lat="44.27496" lon="3.5683">
        <ele>1116</ele>
        <time>2014-06-21T12:55:35.000Z</time>
      </trkpt>
      <trkpt lat="44.27496" lon="3.5683">
        <ele>1116</ele>
        <time>2014-06-21T12:55:37.000Z</time>
      </trkpt>
      <trkpt lat="44.27493" lon="3.56805">
        <ele>1120</ele>
        <time>2014-06-21T12:55:55.000Z</time>
      </trkpt>
      <trkpt lat="44.27492" lon="3.56798">
        <ele>1121</ele>
        <time>2014-06-21T12:56:05.000Z</time>
      </trkpt>
      <trkpt lat="44.2749" lon="3.56792">
        <ele>1123</ele>
        <time>2014-06-21T12:56:09.000Z</time>
      </trkpt>
      <trkpt lat="44.2749" lon="3.56792">
        <ele>1123</ele>
        <time>2014-06-21T12:56:15.000Z</time>
      </trkpt>
      <trkpt lat="44.2749" lon="3.56792">
        <ele>1123</ele>
        <time>2014-06-21T12:56:23.000Z</time>
      </trkpt>
      <trkpt lat="44.2749" lon="3.56792">
        <ele>1123</ele>
        <time>2014-06-21T12:56:25.000Z</time>
      </trkpt>
      <trkpt lat="44.2749" lon="3.56792">
        <ele>1123</ele>
        <time>2014-06-21T12:56:28.000Z</time>
      </trkpt>
      <trkpt lat="44.2749" lon="3.56792">
        <ele>1123</ele>
        <time>2014-06-21T12:56:29.000Z</time>
      </trkpt>
      <trkpt lat="44.27483" lon="3.56776">
        <ele>1128</ele>
        <time>2014-06-21T12:56:33.000Z</time>
      </trkpt>
      <trkpt lat="44.2748" lon="3.56766">
        <ele>1128</ele>
        <time>2014-06-21T12:56:35.000Z</time>
      </trkpt>
      <trkpt lat="44.27477" lon="3.5676">
        <ele>1129</ele>
        <time>2014-06-21T12:56:37.000Z</time>
      </trkpt>
      <trkpt lat="44.27477" lon="3.5676">
        <ele>1129</ele>
        <time>2014-06-21T12:56:39.000Z</time>
      </trkpt>
      <trkpt lat="44.27477" lon="3.5676">
        <ele>1129</ele>
        <time>2014-06-21T12:56:41.000Z</time>
      </trkpt>
      <trkpt lat="44.27477" lon="3.5676">
        <ele>1129</ele>
        <time>2014-06-21T12:56:43.000Z</time>
      </trkpt>
      <trkpt lat="44.27477" lon="3.5676">
        <ele>1129</ele>
        <time>2014-06-21T12:56:45.000Z</time>
      </trkpt>
      <trkpt lat="44.27474" lon="3.56749">
        <ele>1131</ele>
        <time>2014-06-21T12:56:49.000Z</time>
      </trkpt>
      <trkpt lat="44.27472" lon="3.56742">
        <ele>1132</ele>
        <time>2014-06-21T12:56:51.000Z</time>
      </trkpt>
      <trkpt lat="44.27472" lon="3.56742">
        <ele>1132</ele>
        <time>2014-06-21T12:56:53.000Z</time>
      </trkpt>
      <trkpt lat="44.27472" lon="3.56742">
        <ele>1132</ele>
        <time>2014-06-21T12:56:55.000Z</time>
      </trkpt>
      <trkpt lat="44.27472" lon="3.56742">
        <ele>1132</ele>
        <time>2014-06-21T12:56:57.000Z</time>
      </trkpt>
      <trkpt lat="44.27469" lon="3.56734">
        <ele>1133</ele>
        <time>2014-06-21T12:57:01.000Z</time>
      </trkpt>
      <trkpt lat="44.27467" lon="3.56727">
        <ele>1133</ele>
        <time>2014-06-21T12:57:05.000Z</time>
      </trkpt>
      <trkpt lat="44.27467" lon="3.56727">
        <ele>1133</ele>
        <time>2014-06-21T12:57:07.000Z</time>
      </trkpt>
      <trkpt lat="44.27467" lon="3.56727">
        <ele>1133</ele>
        <time>2014-06-21T12:57:09.000Z</time>
      </trkpt>
      <trkpt lat="44.27462" lon="3.56717">
        <ele>1134</ele>
        <time>2014-06-21T12:57:15.000Z</time>
      </trkpt>
      <trkpt lat="44.27462" lon="3.56717">
        <ele>1134</ele>
        <time>2014-06-21T12:57:17.000Z</time>
      </trkpt>
      <trkpt lat="44.2746" lon="3.56709">
        <ele>1135</ele>
        <time>2014-06-21T12:57:19.000Z</time>
      </trkpt>
      <trkpt lat="44.2746" lon="3.56709">
        <ele>1135</ele>
        <time>2014-06-21T12:57:21.000Z</time>
      </trkpt>
      <trkpt lat="44.27456" lon="3.56702">
        <ele>1136</ele>
        <time>2014-06-21T12:57:25.000Z</time>
      </trkpt>
      <trkpt lat="44.27454" lon="3.56695">
        <ele>1137</ele>
        <time>2014-06-21T12:57:29.000Z</time>
      </trkpt>
      <trkpt lat="44.27451" lon="3.56688">
        <ele>1137</ele>
        <time>2014-06-21T12:57:33.000Z</time>
      </trkpt>
      <trkpt lat="44.2745" lon="3.56681">
        <ele>1137</ele>
        <time>2014-06-21T12:57:37.000Z</time>
      </trkpt>
      <trkpt lat="44.2745" lon="3.56681">
        <ele>1137</ele>
        <time>2014-06-21T12:57:41.000Z</time>
      </trkpt>
      <trkpt lat="44.2745" lon="3.56681">
        <ele>1137</ele>
        <time>2014-06-21T12:57:43.000Z</time>
      </trkpt>
      <trkpt lat="44.2745" lon="3.56681">
        <ele>1137</ele>
        <time>2014-06-21T12:57:45.000Z</time>
      </trkpt>
      <trkpt lat="44.27448" lon="3.56668">
        <ele>1138</ele>
        <time>2014-06-21T12:57:51.000Z</time>
      </trkpt>
      <trkpt lat="44.27446" lon="3.56659">
        <ele>1139</ele>
        <time>2014-06-21T12:57:53.000Z</time>
      </trkpt>
      <trkpt lat="44.27446" lon="3.56659">
        <ele>1139</ele>
        <time>2014-06-21T12:57:55.000Z</time>
      </trkpt>
      <trkpt lat="44.27445" lon="3.56652">
        <ele>1138</ele>
        <time>2014-06-21T12:57:57.000Z</time>
      </trkpt>
      <trkpt lat="44.27445" lon="3.56652">
        <ele>1138</ele>
        <time>2014-06-21T12:57:59.000Z</time>
      </trkpt>
      <trkpt lat="44.27445" lon="3.56652">
        <ele>1138</ele>
        <time>2014-06-21T12:58:01.000Z</time>
      </trkpt>
      <trkpt lat="44.27443" lon="3.56641">
        <ele>1138</ele>
        <time>2014-06-21T12:58:05.000Z</time>
      </trkpt>
      <trkpt lat="44.27441" lon="3.56634">
        <ele>1137</ele>
        <time>2014-06-21T12:58:07.000Z</time>
      </trkpt>
      <trkpt lat="44.27441" lon="3.56634">
        <ele>1137</ele>
        <time>2014-06-21T12:58:09.000Z</time>
      </trkpt>
      <trkpt lat="44.27441" lon="3.56634">
        <ele>1137</ele>
        <time>2014-06-21T12:58:11.000Z</time>
      </trkpt>
      <trkpt lat="44.27441" lon="3.56634">
        <ele>1137</ele>
        <time>2014-06-21T12:58:15.000Z</time>
      </trkpt>
      <trkpt lat="44.27441" lon="3.56619">
        <ele>1138</ele>
        <time>2014-06-21T12:58:21.000Z</time>
      </trkpt>
      <trkpt lat="44.27441" lon="3.56619">
        <ele>1138</ele>
        <time>2014-06-21T12:58:23.000Z</time>
      </trkpt>
      <trkpt lat="44.27441" lon="3.56619">
        <ele>1138</ele>
        <time>2014-06-21T12:58:25.000Z</time>
      </trkpt>
      <trkpt lat="44.27441" lon="3.56607">
        <ele>1137</ele>
        <time>2014-06-21T12:58:27.000Z</time>
      </trkpt>
      <trkpt lat="44.27442" lon="3.56599">
        <ele>1136</ele>
        <time>2014-06-21T12:58:29.000Z</time>
      </trkpt>
      <trkpt lat="44.27442" lon="3.56599">
        <ele>1136</ele>
        <time>2014-06-21T12:58:33.000Z</time>
      </trkpt>
      <trkpt lat="44.27442" lon="3.56599">
        <ele>1136</ele>
        <time>2014-06-21T12:58:35.000Z</time>
      </trkpt>
      <trkpt lat="44.27442" lon="3.56599">
        <ele>1136</ele>
        <time>2014-06-21T12:58:37.000Z</time>
      </trkpt>
      <trkpt lat="44.27442" lon="3.56599">
        <ele>1136</ele>
        <time>2014-06-21T12:58:39.000Z</time>
      </trkpt>
      <trkpt lat="44.27442" lon="3.56599">
        <ele>1136</ele>
        <time>2014-06-21T12:58:41.000Z</time>
      </trkpt>
      <trkpt lat="44.27442" lon="3.56599">
        <ele>1136</ele>
        <time>2014-06-21T12:58:43.000Z</time>
      </trkpt>
      <trkpt lat="44.27442" lon="3.56599">
        <ele>1136</ele>
        <time>2014-06-21T12:58:45.000Z</time>
      </trkpt>
      <trkpt lat="44.27442" lon="3.56599">
        <ele>1136</ele>
        <time>2014-06-21T12:58:47.000Z</time>
      </trkpt>
      <trkpt lat="44.27442" lon="3.56599">
        <ele>1136</ele>
        <time>2014-06-21T12:58:49.000Z</time>
      </trkpt>
      <trkpt lat="44.27442" lon="3.56599">
        <ele>1136</ele>
        <time>2014-06-21T12:58:51.000Z</time>
      </trkpt>
      <trkpt lat="44.27442" lon="3.56599">
        <ele>1136</ele>
        <time>2014-06-21T12:58:53.000Z</time>
      </trkpt>
      <trkpt lat="44.27445" lon="3.56579">
        <ele>1141</ele>
        <time>2014-06-21T12:58:57.000Z</time>
      </trkpt>
      <trkpt lat="44.27445" lon="3.56567">
        <ele>1141</ele>
        <time>2014-06-21T12:58:59.000Z</time>
      </trkpt>
      <trkpt lat="44.27443" lon="3.5656">
        <ele>1140</ele>
        <time>2014-06-21T12:59:01.000Z</time>
      </trkpt>
      <trkpt lat="44.27439" lon="3.56557">
        <ele>1141</ele>
        <time>2014-06-21T12:59:05.000Z</time>
      </trkpt>
      <trkpt lat="44.27439" lon="3.56557">
        <ele>1141</ele>
        <time>2014-06-21T12:59:07.000Z</time>
      </trkpt>
      <trkpt lat="44.27439" lon="3.56557">
        <ele>1141</ele>
        <time>2014-06-21T12:59:09.000Z</time>
      </trkpt>
      <trkpt lat="44.27439" lon="3.56557">
        <ele>1141</ele>
        <time>2014-06-21T12:59:11.000Z</time>
      </trkpt>
      <trkpt lat="44.27439" lon="3.56557">
        <ele>1141</ele>
        <time>2014-06-21T12:59:13.000Z</time>
      </trkpt>
      <trkpt lat="44.27439" lon="3.56557">
        <ele>1141</ele>
        <time>2014-06-21T12:59:17.000Z</time>
      </trkpt>
      <trkpt lat="44.27439" lon="3.56557">
        <ele>1141</ele>
        <time>2014-06-21T12:59:19.000Z</time>
      </trkpt>
      <trkpt lat="44.27439" lon="3.56557">
        <ele>1141</ele>
        <time>2014-06-21T12:59:21.000Z</time>
      </trkpt>
      <trkpt lat="44.27439" lon="3.56557">
        <ele>1141</ele>
        <time>2014-06-21T12:59:23.000Z</time>
      </trkpt>
      <trkpt lat="44.27439" lon="3.56557">
        <ele>1141</ele>
        <time>2014-06-21T12:59:25.000Z</time>
      </trkpt>
      <trkpt lat="44.2742" lon="3.56559">
        <ele>1146</ele>
        <time>2014-06-21T12:59:29.000Z</time>
      </trkpt>
      <trkpt lat="44.2741" lon="3.5656">
        <ele>1146</ele>
        <time>2014-06-21T12:59:31.000Z</time>
      </trkpt>
      <trkpt lat="44.27403" lon="3.56562">
        <ele>1146</ele>
        <time>2014-06-21T12:59:33.000Z</time>
      </trkpt>
      <trkpt lat="44.27398" lon="3.56563">
        <ele>1146</ele>
        <time>2014-06-21T12:59:35.000Z</time>
      </trkpt>
      <trkpt lat="44.27393" lon="3.56564">
        <ele>1147</ele>
        <time>2014-06-21T12:59:39.000Z</time>
      </trkpt>
      <trkpt lat="44.27393" lon="3.56564">
        <ele>1147</ele>
        <time>2014-06-21T12:59:41.000Z</time>
      </trkpt>
      <trkpt lat="44.27393" lon="3.56564">
        <ele>1147</ele>
        <time>2014-06-21T12:59:43.000Z</time>
      </trkpt>
      <trkpt lat="44.27393" lon="3.56564">
        <ele>1147</ele>
        <time>2014-06-21T12:59:45.000Z</time>
      </trkpt>
      <trkpt lat="44.27393" lon="3.56564">
        <ele>1147</ele>
        <time>2014-06-21T12:59:55.000Z</time>
      </trkpt>
      <trkpt lat="44.27393" lon="3.56564">
        <ele>1147</ele>
        <time>2014-06-21T12:59:57.000Z</time>
      </trkpt>
      <trkpt lat="44.27393" lon="3.56564">
        <ele>1147</ele>
        <time>2014-06-21T12:59:59.000Z</time>
      </trkpt>
      <trkpt lat="44.27393" lon="3.56564">
        <ele>1147</ele>
        <time>2014-06-21T13:00:01.000Z</time>
      </trkpt>
      <trkpt lat="44.27374" lon="3.56558">
        <ele>1150</ele>
        <time>2014-06-21T13:00:03.000Z</time>
      </trkpt>
      <trkpt lat="44.27363" lon="3.56555">
        <ele>1150</ele>
        <time>2014-06-21T13:00:05.000Z</time>
      </trkpt>
      <trkpt lat="44.27356" lon="3.56553">
        <ele>1150</ele>
        <time>2014-06-21T13:00:07.000Z</time>
      </trkpt>
      <trkpt lat="44.27351" lon="3.56551">
        <ele>1150</ele>
        <time>2014-06-21T13:00:09.000Z</time>
      </trkpt>
      <trkpt lat="44.27346" lon="3.56548">
        <ele>1151</ele>
        <time>2014-06-21T13:00:13.000Z</time>
      </trkpt>
      <trkpt lat="44.27346" lon="3.56548">
        <ele>1151</ele>
        <time>2014-06-21T13:00:15.000Z</time>
      </trkpt>
      <trkpt lat="44.27346" lon="3.56548">
        <ele>1151</ele>
        <time>2014-06-21T13:00:17.000Z</time>
      </trkpt>
      <trkpt lat="44.27346" lon="3.56548">
        <ele>1151</ele>
        <time>2014-06-21T13:00:19.000Z</time>
      </trkpt>
      <trkpt lat="44.27335" lon="3.56541">
        <ele>1151</ele>
        <time>2014-06-21T13:00:25.000Z</time>
      </trkpt>
      <trkpt lat="44.27328" lon="3.56537">
        <ele>1151</ele>
        <time>2014-06-21T13:00:27.000Z</time>
      </trkpt>
      <trkpt lat="44.27323" lon="3.56533">
        <ele>1152</ele>
        <time>2014-06-21T13:00:29.000Z</time>
      </trkpt>
      <trkpt lat="44.27317" lon="3.5653">
        <ele>1152</ele>
        <time>2014-06-21T13:00:33.000Z</time>
      </trkpt>
      <trkpt lat="44.27313" lon="3.56527">
        <ele>1152</ele>
        <time>2014-06-21T13:00:35.000Z</time>
      </trkpt>
      <trkpt lat="44.27313" lon="3.56527">
        <ele>1152</ele>
        <time>2014-06-21T13:00:37.000Z</time>
      </trkpt>
      <trkpt lat="44.27306" lon="3.56523">
        <ele>1151</ele>
        <time>2014-06-21T13:00:41.000Z</time>
      </trkpt>
      <trkpt lat="44.273" lon="3.5652">
        <ele>1151</ele>
        <time>2014-06-21T13:00:43.000Z</time>
      </trkpt>
      <trkpt lat="44.27296" lon="3.56517">
        <ele>1151</ele>
        <time>2014-06-21T13:00:45.000Z</time>
      </trkpt>
      <trkpt lat="44.27289" lon="3.56514">
        <ele>1151</ele>
        <time>2014-06-21T13:00:49.000Z</time>
      </trkpt>
      <trkpt lat="44.27284" lon="3.56512">
        <ele>1150</ele>
        <time>2014-06-21T13:00:51.000Z</time>
      </trkpt>
      <trkpt lat="44.27279" lon="3.5651">
        <ele>1150</ele>
        <time>2014-06-21T13:00:53.000Z</time>
      </trkpt>
      <trkpt lat="44.27275" lon="3.56508">
        <ele>1151</ele>
        <time>2014-06-21T13:00:55.000Z</time>
      </trkpt>
      <trkpt lat="44.27275" lon="3.56508">
        <ele>1151</ele>
        <time>2014-06-21T13:00:57.000Z</time>
      </trkpt>
      <trkpt lat="44.27275" lon="3.56508">
        <ele>1151</ele>
        <time>2014-06-21T13:00:59.000Z</time>
      </trkpt>
      <trkpt lat="44.27275" lon="3.56508">
        <ele>1151</ele>
        <time>2014-06-21T13:01:00.000Z</time>
      </trkpt>
      <trkpt lat="44.27275" lon="3.56508">
        <ele>1151</ele>
        <time>2014-06-21T13:01:02.000Z</time>
      </trkpt>
      <trkpt lat="44.27275" lon="3.56508">
        <ele>1151</ele>
        <time>2014-06-21T13:01:06.000Z</time>
      </trkpt>
      <trkpt lat="44.27275" lon="3.56508">
        <ele>1151</ele>
        <time>2014-06-21T13:01:08.000Z</time>
      </trkpt>
      <trkpt lat="44.27275" lon="3.56508">
        <ele>1151</ele>
        <time>2014-06-21T13:01:10.000Z</time>
      </trkpt>
      <trkpt lat="44.27275" lon="3.56508">
        <ele>1151</ele>
        <time>2014-06-21T13:01:16.000Z</time>
      </trkpt>
      <trkpt lat="44.27275" lon="3.56508">
        <ele>1151</ele>
        <time>2014-06-21T13:01:18.000Z</time>
      </trkpt>
      <trkpt lat="44.27275" lon="3.56508">
        <ele>1151</ele>
        <time>2014-06-21T13:01:20.000Z</time>
      </trkpt>
      <trkpt lat="44.27275" lon="3.56508">
        <ele>1151</ele>
        <time>2014-06-21T13:01:22.000Z</time>
      </trkpt>
      <trkpt lat="44.27265" lon="3.56487">
        <ele>1155</ele>
        <time>2014-06-21T13:01:26.000Z</time>
      </trkpt>
      <trkpt lat="44.27259" lon="3.56475">
        <ele>1155</ele>
        <time>2014-06-21T13:01:28.000Z</time>
      </trkpt>
      <trkpt lat="44.27256" lon="3.56468">
        <ele>1156</ele>
        <time>2014-06-21T13:01:30.000Z</time>
      </trkpt>
      <trkpt lat="44.27256" lon="3.56468">
        <ele>1156</ele>
        <time>2014-06-21T13:01:32.000Z</time>
      </trkpt>
      <trkpt lat="44.27256" lon="3.56468">
        <ele>1156</ele>
        <time>2014-06-21T13:01:33.000Z</time>
      </trkpt>
      <trkpt lat="44.27256" lon="3.56468">
        <ele>1156</ele>
        <time>2014-06-21T13:01:35.000Z</time>
      </trkpt>
      <trkpt lat="44.27256" lon="3.56468">
        <ele>1156</ele>
        <time>2014-06-21T13:01:47.000Z</time>
      </trkpt>
      <trkpt lat="44.27251" lon="3.56452">
        <ele>1160</ele>
        <time>2014-06-21T13:01:49.000Z</time>
      </trkpt>
      <trkpt lat="44.27248" lon="3.56444">
        <ele>1161</ele>
        <time>2014-06-21T13:01:51.000Z</time>
      </trkpt>
      <trkpt lat="44.27248" lon="3.56444">
        <ele>1161</ele>
        <time>2014-06-21T13:01:53.000Z</time>
      </trkpt>
      <trkpt lat="44.27246" lon="3.56437">
        <ele>1161</ele>
        <time>2014-06-21T13:01:55.000Z</time>
      </trkpt>
      <trkpt lat="44.27246" lon="3.56437">
        <ele>1161</ele>
        <time>2014-06-21T13:01:57.000Z</time>
      </trkpt>
      <trkpt lat="44.27246" lon="3.56437">
        <ele>1161</ele>
        <time>2014-06-21T13:01:59.000Z</time>
      </trkpt>
      <trkpt lat="44.27246" lon="3.56437">
        <ele>1161</ele>
        <time>2014-06-21T13:02:01.000Z</time>
      </trkpt>
      <trkpt lat="44.27246" lon="3.56437">
        <ele>1161</ele>
        <time>2014-06-21T13:02:03.000Z</time>
      </trkpt>
      <trkpt lat="44.27246" lon="3.56437">
        <ele>1161</ele>
        <time>2014-06-21T13:02:05.000Z</time>
      </trkpt>
      <trkpt lat="44.27245" lon="3.56422">
        <ele>1163</ele>
        <time>2014-06-21T13:02:17.000Z</time>
      </trkpt>
      <trkpt lat="44.27243" lon="3.56414">
        <ele>1163</ele>
        <time>2014-06-21T13:02:19.000Z</time>
      </trkpt>
      <trkpt lat="44.27243" lon="3.56414">
        <ele>1163</ele>
        <time>2014-06-21T13:02:21.000Z</time>
      </trkpt>
      <trkpt lat="44.27243" lon="3.56414">
        <ele>1163</ele>
        <time>2014-06-21T13:02:23.000Z</time>
      </trkpt>
      <trkpt lat="44.27243" lon="3.56414">
        <ele>1163</ele>
        <time>2014-06-21T13:02:25.000Z</time>
      </trkpt>
      <trkpt lat="44.27243" lon="3.56414">
        <ele>1163</ele>
        <time>2014-06-21T13:02:27.000Z</time>
      </trkpt>
      <trkpt lat="44.27244" lon="3.564">
        <ele>1164</ele>
        <time>2014-06-21T13:02:33.000Z</time>
      </trkpt>
      <trkpt lat="44.27243" lon="3.56392">
        <ele>1164</ele>
        <time>2014-06-21T13:02:35.000Z</time>
      </trkpt>
      <trkpt lat="44.27243" lon="3.56385">
        <ele>1164</ele>
        <time>2014-06-21T13:02:39.000Z</time>
      </trkpt>
      <trkpt lat="44.27243" lon="3.56378">
        <ele>1165</ele>
        <time>2014-06-21T13:02:45.000Z</time>
      </trkpt>
      <trkpt lat="44.27243" lon="3.56378">
        <ele>1165</ele>
        <time>2014-06-21T13:02:47.000Z</time>
      </trkpt>
      <trkpt lat="44.27243" lon="3.56378">
        <ele>1165</ele>
        <time>2014-06-21T13:02:49.000Z</time>
      </trkpt>
      <trkpt lat="44.27243" lon="3.56378">
        <ele>1165</ele>
        <time>2014-06-21T13:02:51.000Z</time>
      </trkpt>
      <trkpt lat="44.27243" lon="3.56378">
        <ele>1165</ele>
        <time>2014-06-21T13:02:53.000Z</time>
      </trkpt>
      <trkpt lat="44.27243" lon="3.56378">
        <ele>1165</ele>
        <time>2014-06-21T13:02:55.000Z</time>
      </trkpt>
      <trkpt lat="44.27243" lon="3.56378">
        <ele>1165</ele>
        <time>2014-06-21T13:02:57.000Z</time>
      </trkpt>
      <trkpt lat="44.27243" lon="3.56378">
        <ele>1165</ele>
        <time>2014-06-21T13:03:01.000Z</time>
      </trkpt>
      <trkpt lat="44.27243" lon="3.56378">
        <ele>1165</ele>
        <time>2014-06-21T13:03:03.000Z</time>
      </trkpt>
      <trkpt lat="44.27237" lon="3.56364">
        <ele>1167</ele>
        <time>2014-06-21T13:05:18.000Z</time>
      </trkpt>
      <trkpt lat="44.27232" lon="3.56358">
        <ele>1166</ele>
        <time>2014-06-21T13:05:20.000Z</time>
      </trkpt>
      <trkpt lat="44.27228" lon="3.56354">
        <ele>1166</ele>
        <time>2014-06-21T13:05:22.000Z</time>
      </trkpt>
      <trkpt lat="44.27228" lon="3.56354">
        <ele>1166</ele>
        <time>2014-06-21T13:05:24.000Z</time>
      </trkpt>
      <trkpt lat="44.27224" lon="3.56351">
        <ele>1168</ele>
        <time>2014-06-21T13:05:26.000Z</time>
      </trkpt>
      <trkpt lat="44.27224" lon="3.56351">
        <ele>1168</ele>
        <time>2014-06-21T13:05:28.000Z</time>
      </trkpt>
      <trkpt lat="44.27218" lon="3.56349">
        <ele>1169</ele>
        <time>2014-06-21T13:05:30.000Z</time>
      </trkpt>
      <trkpt lat="44.27213" lon="3.56348">
        <ele>1168</ele>
        <time>2014-06-21T13:05:34.000Z</time>
      </trkpt>
      <trkpt lat="44.27208" lon="3.56347">
        <ele>1168</ele>
        <time>2014-06-21T13:05:36.000Z</time>
      </trkpt>
      <trkpt lat="44.27203" lon="3.56345">
        <ele>1168</ele>
        <time>2014-06-21T13:05:40.000Z</time>
      </trkpt>
      <trkpt lat="44.27198" lon="3.56344">
        <ele>1168</ele>
        <time>2014-06-21T13:05:42.000Z</time>
      </trkpt>
      <trkpt lat="44.27198" lon="3.56344">
        <ele>1168</ele>
        <time>2014-06-21T13:05:44.000Z</time>
      </trkpt>
      <trkpt lat="44.27192" lon="3.56342">
        <ele>1168</ele>
        <time>2014-06-21T13:05:46.000Z</time>
      </trkpt>
      <trkpt lat="44.27188" lon="3.56341">
        <ele>1168</ele>
        <time>2014-06-21T13:05:48.000Z</time>
      </trkpt>
      <trkpt lat="44.27188" lon="3.56341">
        <ele>1168</ele>
        <time>2014-06-21T13:05:52.000Z</time>
      </trkpt>
      <trkpt lat="44.27188" lon="3.56341">
        <ele>1168</ele>
        <time>2014-06-21T13:05:54.000Z</time>
      </trkpt>
      <trkpt lat="44.27188" lon="3.56341">
        <ele>1168</ele>
        <time>2014-06-21T13:05:56.000Z</time>
      </trkpt>
      <trkpt lat="44.27188" lon="3.56341">
        <ele>1168</ele>
        <time>2014-06-21T13:05:58.000Z</time>
      </trkpt>
      <trkpt lat="44.2718" lon="3.56339">
        <ele>1168</ele>
        <time>2014-06-21T13:06:02.000Z</time>
      </trkpt>
      <trkpt lat="44.27175" lon="3.56337">
        <ele>1168</ele>
        <time>2014-06-21T13:06:04.000Z</time>
      </trkpt>
      <trkpt lat="44.27169" lon="3.56335">
        <ele>1169</ele>
        <time>2014-06-21T13:06:08.000Z</time>
      </trkpt>
      <trkpt lat="44.27164" lon="3.56333">
        <ele>1169</ele>
        <time>2014-06-21T13:06:12.000Z</time>
      </trkpt>
      <trkpt lat="44.27164" lon="3.56333">
        <ele>1169</ele>
        <time>2014-06-21T13:06:14.000Z</time>
      </trkpt>
      <trkpt lat="44.27158" lon="3.56331">
        <ele>1169</ele>
        <time>2014-06-21T13:06:18.000Z</time>
      </trkpt>
      <trkpt lat="44.27152" lon="3.56331">
        <ele>1170</ele>
        <time>2014-06-21T13:06:22.000Z</time>
      </trkpt>
      <trkpt lat="44.27152" lon="3.56331">
        <ele>1170</ele>
        <time>2014-06-21T13:06:28.000Z</time>
      </trkpt>
      <trkpt lat="44.27152" lon="3.56331">
        <ele>1170</ele>
        <time>2014-06-21T13:06:30.000Z</time>
      </trkpt>
      <trkpt lat="44.27152" lon="3.56331">
        <ele>1170</ele>
        <time>2014-06-21T13:06:36.000Z</time>
      </trkpt>
      <trkpt lat="44.27152" lon="3.56331">
        <ele>1170</ele>
        <time>2014-06-21T13:06:38.000Z</time>
      </trkpt>
      <trkpt lat="44.27138" lon="3.56331">
        <ele>1172</ele>
        <time>2014-06-21T13:06:50.000Z</time>
      </trkpt>
      <trkpt lat="44.27129" lon="3.56331">
        <ele>1172</ele>
        <time>2014-06-21T13:06:52.000Z</time>
      </trkpt>
      <trkpt lat="44.27124" lon="3.56331">
        <ele>1172</ele>
        <time>2014-06-21T13:06:54.000Z</time>
      </trkpt>
      <trkpt lat="44.27118" lon="3.56333">
        <ele>1171</ele>
        <time>2014-06-21T13:06:58.000Z</time>
      </trkpt>
      <trkpt lat="44.27112" lon="3.56333">
        <ele>1171</ele>
        <time>2014-06-21T13:07:00.000Z</time>
      </trkpt>
      <trkpt lat="44.27107" lon="3.56334">
        <ele>1171</ele>
        <time>2014-06-21T13:07:02.000Z</time>
      </trkpt>
      <trkpt lat="44.27103" lon="3.56336">
        <ele>1171</ele>
        <time>2014-06-21T13:07:04.000Z</time>
      </trkpt>
      <trkpt lat="44.27097" lon="3.56338">
        <ele>1170</ele>
        <time>2014-06-21T13:07:08.000Z</time>
      </trkpt>
      <trkpt lat="44.27097" lon="3.56338">
        <ele>1170</ele>
        <time>2014-06-21T13:07:10.000Z</time>
      </trkpt>
      <trkpt lat="44.27097" lon="3.56338">
        <ele>1170</ele>
        <time>2014-06-21T13:07:12.000Z</time>
      </trkpt>
      <trkpt lat="44.27097" lon="3.56338">
        <ele>1170</ele>
        <time>2014-06-21T13:07:14.000Z</time>
      </trkpt>
      <trkpt lat="44.27097" lon="3.56338">
        <ele>1170</ele>
        <time>2014-06-21T13:07:16.000Z</time>
      </trkpt>
      <trkpt lat="44.2708" lon="3.56342">
        <ele>1173</ele>
        <time>2014-06-21T13:07:24.000Z</time>
      </trkpt>
      <trkpt lat="44.2707" lon="3.56343">
        <ele>1173</ele>
        <time>2014-06-21T13:07:26.000Z</time>
      </trkpt>
      <trkpt lat="44.27063" lon="3.56343">
        <ele>1173</ele>
        <time>2014-06-21T13:07:28.000Z</time>
      </trkpt>
      <trkpt lat="44.27058" lon="3.56343">
        <ele>1174</ele>
        <time>2014-06-21T13:07:30.000Z</time>
      </trkpt>
      <trkpt lat="44.27058" lon="3.56343">
        <ele>1174</ele>
        <time>2014-06-21T13:07:32.000Z</time>
      </trkpt>
      <trkpt lat="44.27052" lon="3.56341">
        <ele>1174</ele>
        <time>2014-06-21T13:07:34.000Z</time>
      </trkpt>
      <trkpt lat="44.27047" lon="3.5634">
        <ele>1175</ele>
        <time>2014-06-21T13:07:36.000Z</time>
      </trkpt>
      <trkpt lat="44.2704" lon="3.56338">
        <ele>1175</ele>
        <time>2014-06-21T13:07:40.000Z</time>
      </trkpt>
      <trkpt lat="44.27036" lon="3.56337">
        <ele>1175</ele>
        <time>2014-06-21T13:07:42.000Z</time>
      </trkpt>
      <trkpt lat="44.27031" lon="3.56336">
        <ele>1174</ele>
        <time>2014-06-21T13:07:44.000Z</time>
      </trkpt>
      <trkpt lat="44.27026" lon="3.56334">
        <ele>1174</ele>
        <time>2014-06-21T13:07:46.000Z</time>
      </trkpt>
      <trkpt lat="44.2702" lon="3.5633">
        <ele>1174</ele>
        <time>2014-06-21T13:07:48.000Z</time>
      </trkpt>
      <trkpt lat="44.27011" lon="3.56323">
        <ele>1174</ele>
        <time>2014-06-21T13:07:50.000Z</time>
      </trkpt>
      <trkpt lat="44.27011" lon="3.56323">
        <ele>1174</ele>
        <time>2014-06-21T13:07:52.000Z</time>
      </trkpt>
      <trkpt lat="44.27011" lon="3.56323">
        <ele>1174</ele>
        <time>2014-06-21T13:07:54.000Z</time>
      </trkpt>
      <trkpt lat="44.27011" lon="3.56323">
        <ele>1174</ele>
        <time>2014-06-21T13:07:56.000Z</time>
      </trkpt>
      <trkpt lat="44.27011" lon="3.56323">
        <ele>1174</ele>
        <time>2014-06-21T13:07:58.000Z</time>
      </trkpt>
      <trkpt lat="44.26982" lon="3.56314">
        <ele>1170</ele>
        <time>2014-06-21T13:08:00.000Z</time>
      </trkpt>
      <trkpt lat="44.26973" lon="3.56311">
        <ele>1170</ele>
        <time>2014-06-21T13:08:02.000Z</time>
      </trkpt>
      <trkpt lat="44.26973" lon="3.56311">
        <ele>1170</ele>
        <time>2014-06-21T13:08:04.000Z</time>
      </trkpt>
      <trkpt lat="44.26956" lon="3.56312">
        <ele>1170</ele>
        <time>2014-06-21T13:08:06.000Z</time>
      </trkpt>
      <trkpt lat="44.26956" lon="3.56312">
        <ele>1170</ele>
        <time>2014-06-21T13:08:08.000Z</time>
      </trkpt>
      <trkpt lat="44.26956" lon="3.56312">
        <ele>1170</ele>
        <time>2014-06-21T13:08:10.000Z</time>
      </trkpt>
      <trkpt lat="44.26956" lon="3.56312">
        <ele>1170</ele>
        <time>2014-06-21T13:08:12.000Z</time>
      </trkpt>
      <trkpt lat="44.26956" lon="3.56312">
        <ele>1170</ele>
        <time>2014-06-21T13:08:14.000Z</time>
      </trkpt>
      <trkpt lat="44.26956" lon="3.56312">
        <ele>1170</ele>
        <time>2014-06-21T13:08:16.000Z</time>
      </trkpt>
      <trkpt lat="44.26956" lon="3.56312">
        <ele>1170</ele>
        <time>2014-06-21T13:08:18.000Z</time>
      </trkpt>
      <trkpt lat="44.26956" lon="3.56312">
        <ele>1170</ele>
        <time>2014-06-21T13:08:20.000Z</time>
      </trkpt>
      <trkpt lat="44.26956" lon="3.56312">
        <ele>1170</ele>
        <time>2014-06-21T13:08:22.000Z</time>
      </trkpt>
      <trkpt lat="44.26913" lon="3.56297">
        <ele>1172</ele>
        <time>2014-06-21T13:08:28.000Z</time>
      </trkpt>
      <trkpt lat="44.26905" lon="3.56291">
        <ele>1172</ele>
        <time>2014-06-21T13:08:32.000Z</time>
      </trkpt>
      <trkpt lat="44.26905" lon="3.56291">
        <ele>1172</ele>
        <time>2014-06-21T13:08:34.000Z</time>
      </trkpt>
      <trkpt lat="44.26905" lon="3.56291">
        <ele>1172</ele>
        <time>2014-06-21T13:08:36.000Z</time>
      </trkpt>
      <trkpt lat="44.26905" lon="3.56291">
        <ele>1172</ele>
        <time>2014-06-21T13:08:38.000Z</time>
      </trkpt>
      <trkpt lat="44.26886" lon="3.56278">
        <ele>1172</ele>
        <time>2014-06-21T13:08:42.000Z</time>
      </trkpt>
      <trkpt lat="44.26886" lon="3.56278">
        <ele>1172</ele>
        <time>2014-06-21T13:08:44.000Z</time>
      </trkpt>
      <trkpt lat="44.26886" lon="3.56278">
        <ele>1172</ele>
        <time>2014-06-21T13:08:46.000Z</time>
      </trkpt>
      <trkpt lat="44.26886" lon="3.56278">
        <ele>1172</ele>
        <time>2014-06-21T13:08:48.000Z</time>
      </trkpt>
      <trkpt lat="44.26886" lon="3.56278">
        <ele>1172</ele>
        <time>2014-06-21T13:08:50.000Z</time>
      </trkpt>
      <trkpt lat="44.26886" lon="3.56278">
        <ele>1172</ele>
        <time>2014-06-21T13:08:52.000Z</time>
      </trkpt>
      <trkpt lat="44.26886" lon="3.56278">
        <ele>1172</ele>
        <time>2014-06-21T13:08:54.000Z</time>
      </trkpt>
      <trkpt lat="44.26886" lon="3.56278">
        <ele>1172</ele>
        <time>2014-06-21T13:08:56.000Z</time>
      </trkpt>
      <trkpt lat="44.26886" lon="3.56278">
        <ele>1172</ele>
        <time>2014-06-21T13:08:58.000Z</time>
      </trkpt>
      <trkpt lat="44.26857" lon="3.56283">
        <ele>1171</ele>
        <time>2014-06-21T13:09:00.000Z</time>
      </trkpt>
      <trkpt lat="44.26847" lon="3.56287">
        <ele>1170</ele>
        <time>2014-06-21T13:09:04.000Z</time>
      </trkpt>
      <trkpt lat="44.26843" lon="3.56289">
        <ele>1170</ele>
        <time>2014-06-21T13:09:08.000Z</time>
      </trkpt>
      <trkpt lat="44.26843" lon="3.56289">
        <ele>1170</ele>
        <time>2014-06-21T13:09:10.000Z</time>
      </trkpt>
      <trkpt lat="44.26843" lon="3.56289">
        <ele>1170</ele>
        <time>2014-06-21T13:09:12.000Z</time>
      </trkpt>
      <trkpt lat="44.26843" lon="3.56289">
        <ele>1170</ele>
        <time>2014-06-21T13:09:15.000Z</time>
      </trkpt>
      <trkpt lat="44.2683" lon="3.56294">
        <ele>1169</ele>
        <time>2014-06-21T13:09:20.000Z</time>
      </trkpt>
      <trkpt lat="44.26821" lon="3.56297">
        <ele>1169</ele>
        <time>2014-06-21T13:09:22.000Z</time>
      </trkpt>
      <trkpt lat="44.26821" lon="3.56297">
        <ele>1169</ele>
        <time>2014-06-21T13:09:24.000Z</time>
      </trkpt>
      <trkpt lat="44.26821" lon="3.56297">
        <ele>1169</ele>
        <time>2014-06-21T13:09:26.000Z</time>
      </trkpt>
      <trkpt lat="44.26821" lon="3.56297">
        <ele>1169</ele>
        <time>2014-06-21T13:09:28.000Z</time>
      </trkpt>
      <trkpt lat="44.26821" lon="3.56297">
        <ele>1169</ele>
        <time>2014-06-21T13:09:30.000Z</time>
      </trkpt>
      <trkpt lat="44.26821" lon="3.56297">
        <ele>1169</ele>
        <time>2014-06-21T13:09:32.000Z</time>
      </trkpt>
      <trkpt lat="44.26821" lon="3.56297">
        <ele>1169</ele>
        <time>2014-06-21T13:09:34.000Z</time>
      </trkpt>
      <trkpt lat="44.26808" lon="3.56306">
        <ele>1172</ele>
        <time>2014-06-21T13:09:46.000Z</time>
      </trkpt>
      <trkpt lat="44.26801" lon="3.56311">
        <ele>1172</ele>
        <time>2014-06-21T13:09:48.000Z</time>
      </trkpt>
      <trkpt lat="44.26801" lon="3.56311">
        <ele>1172</ele>
        <time>2014-06-21T13:09:50.000Z</time>
      </trkpt>
      <trkpt lat="44.26801" lon="3.56311">
        <ele>1172</ele>
        <time>2014-06-21T13:09:52.000Z</time>
      </trkpt>
      <trkpt lat="44.26801" lon="3.56311">
        <ele>1172</ele>
        <time>2014-06-21T13:09:54.000Z</time>
      </trkpt>
      <trkpt lat="44.26801" lon="3.56311">
        <ele>1172</ele>
        <time>2014-06-21T13:10:00.000Z</time>
      </trkpt>
      <trkpt lat="44.26801" lon="3.56311">
        <ele>1172</ele>
        <time>2014-06-21T13:10:02.000Z</time>
      </trkpt>
      <trkpt lat="44.26789" lon="3.56308">
        <ele>1178</ele>
        <time>2014-06-21T13:10:40.000Z</time>
      </trkpt>
      <trkpt lat="44.26783" lon="3.56305">
        <ele>1178</ele>
        <time>2014-06-21T13:10:42.000Z</time>
      </trkpt>
      <trkpt lat="44.26783" lon="3.56305">
        <ele>1178</ele>
        <time>2014-06-21T13:10:44.000Z</time>
      </trkpt>
      <trkpt lat="44.26783" lon="3.56305">
        <ele>1178</ele>
        <time>2014-06-21T13:10:46.000Z</time>
      </trkpt>
      <trkpt lat="44.26776" lon="3.56299">
        <ele>1179</ele>
        <time>2014-06-21T13:10:50.000Z</time>
      </trkpt>
      <trkpt lat="44.26771" lon="3.56295">
        <ele>1178</ele>
        <time>2014-06-21T13:10:52.000Z</time>
      </trkpt>
      <trkpt lat="44.26767" lon="3.5629">
        <ele>1179</ele>
        <time>2014-06-21T13:10:56.000Z</time>
      </trkpt>
      <trkpt lat="44.26767" lon="3.5629">
        <ele>1179</ele>
        <time>2014-06-21T13:10:58.000Z</time>
      </trkpt>
      <trkpt lat="44.26763" lon="3.56285">
        <ele>1180</ele>
        <time>2014-06-21T13:11:00.000Z</time>
      </trkpt>
      <trkpt lat="44.26763" lon="3.56285">
        <ele>1180</ele>
        <time>2014-06-21T13:11:02.000Z</time>
      </trkpt>
      <trkpt lat="44.26763" lon="3.56285">
        <ele>1180</ele>
        <time>2014-06-21T13:11:04.000Z</time>
      </trkpt>
      <trkpt lat="44.26763" lon="3.56285">
        <ele>1180</ele>
        <time>2014-06-21T13:11:06.000Z</time>
      </trkpt>
      <trkpt lat="44.26763" lon="3.56285">
        <ele>1180</ele>
        <time>2014-06-21T13:11:08.000Z</time>
      </trkpt>
      <trkpt lat="44.26763" lon="3.56285">
        <ele>1180</ele>
        <time>2014-06-21T13:11:10.000Z</time>
      </trkpt>
      <trkpt lat="44.26763" lon="3.56285">
        <ele>1180</ele>
        <time>2014-06-21T13:11:12.000Z</time>
      </trkpt>
      <trkpt lat="44.26763" lon="3.56285">
        <ele>1180</ele>
        <time>2014-06-21T13:11:14.000Z</time>
      </trkpt>
      <trkpt lat="44.26763" lon="3.56285">
        <ele>1180</ele>
        <time>2014-06-21T13:11:16.000Z</time>
      </trkpt>
      <trkpt lat="44.26763" lon="3.56285">
        <ele>1180</ele>
        <time>2014-06-21T13:11:18.000Z</time>
      </trkpt>
      <trkpt lat="44.26763" lon="3.56285">
        <ele>1180</ele>
        <time>2014-06-21T13:11:20.000Z</time>
      </trkpt>
      <trkpt lat="44.26754" lon="3.56267">
        <ele>1181</ele>
        <time>2014-06-21T13:11:24.000Z</time>
      </trkpt>
      <trkpt lat="44.26749" lon="3.56257">
        <ele>1181</ele>
        <time>2014-06-21T13:11:26.000Z</time>
      </trkpt>
      <trkpt lat="44.26746" lon="3.5625">
        <ele>1181</ele>
        <time>2014-06-21T13:11:28.000Z</time>
      </trkpt>
      <trkpt lat="44.26743" lon="3.56243">
        <ele>1180</ele>
        <time>2014-06-21T13:11:32.000Z</time>
      </trkpt>
      <trkpt lat="44.26741" lon="3.56237">
        <ele>1179</ele>
        <time>2014-06-21T13:11:36.000Z</time>
      </trkpt>
      <trkpt lat="44.26739" lon="3.5623">
        <ele>1177</ele>
        <time>2014-06-21T13:11:40.000Z</time>
      </trkpt>
      <trkpt lat="44.26739" lon="3.5623">
        <ele>1177</ele>
        <time>2014-06-21T13:11:42.000Z</time>
      </trkpt>
      <trkpt lat="44.26739" lon="3.5623">
        <ele>1177</ele>
        <time>2014-06-21T13:11:44.000Z</time>
      </trkpt>
      <trkpt lat="44.26739" lon="3.5623">
        <ele>1177</ele>
        <time>2014-06-21T13:11:46.000Z</time>
      </trkpt>
      <trkpt lat="44.26735" lon="3.56221">
        <ele>1177</ele>
        <time>2014-06-21T13:11:50.000Z</time>
      </trkpt>
      <trkpt lat="44.26732" lon="3.56214">
        <ele>1177</ele>
        <time>2014-06-21T13:11:52.000Z</time>
      </trkpt>
      <trkpt lat="44.26732" lon="3.56214">
        <ele>1177</ele>
        <time>2014-06-21T13:11:54.000Z</time>
      </trkpt>
      <trkpt lat="44.26732" lon="3.56214">
        <ele>1177</ele>
        <time>2014-06-21T13:11:56.000Z</time>
      </trkpt>
      <trkpt lat="44.26725" lon="3.5621">
        <ele>1180</ele>
        <time>2014-06-21T13:12:04.000Z</time>
      </trkpt>
      <trkpt lat="44.26719" lon="3.56208">
        <ele>1180</ele>
        <time>2014-06-21T13:12:06.000Z</time>
      </trkpt>
      <trkpt lat="44.26714" lon="3.56207">
        <ele>1180</ele>
        <time>2014-06-21T13:12:10.000Z</time>
      </trkpt>
      <trkpt lat="44.26709" lon="3.56206">
        <ele>1181</ele>
        <time>2014-06-21T13:12:14.000Z</time>
      </trkpt>
      <trkpt lat="44.26709" lon="3.56206">
        <ele>1181</ele>
        <time>2014-06-21T13:12:16.000Z</time>
      </trkpt>
      <trkpt lat="44.26709" lon="3.56206">
        <ele>1181</ele>
        <time>2014-06-21T13:12:18.000Z</time>
      </trkpt>
      <trkpt lat="44.26709" lon="3.56206">
        <ele>1181</ele>
        <time>2014-06-21T13:12:20.000Z</time>
      </trkpt>
      <trkpt lat="44.26701" lon="3.56203">
        <ele>1180</ele>
        <time>2014-06-21T13:12:24.000Z</time>
      </trkpt>
      <trkpt lat="44.26695" lon="3.56201">
        <ele>1180</ele>
        <time>2014-06-21T13:12:26.000Z</time>
      </trkpt>
      <trkpt lat="44.26695" lon="3.56201">
        <ele>1180</ele>
        <time>2014-06-21T13:12:28.000Z</time>
      </trkpt>
      <trkpt lat="44.26695" lon="3.56201">
        <ele>1180</ele>
        <time>2014-06-21T13:12:30.000Z</time>
      </trkpt>
      <trkpt lat="44.26695" lon="3.56201">
        <ele>1180</ele>
        <time>2014-06-21T13:12:32.000Z</time>
      </trkpt>
      <trkpt lat="44.26695" lon="3.56201">
        <ele>1180</ele>
        <time>2014-06-21T13:12:34.000Z</time>
      </trkpt>
      <trkpt lat="44.26695" lon="3.56201">
        <ele>1180</ele>
        <time>2014-06-21T13:12:36.000Z</time>
      </trkpt>
      <trkpt lat="44.26695" lon="3.56201">
        <ele>1180</ele>
        <time>2014-06-21T13:12:38.000Z</time>
      </trkpt>
      <trkpt lat="44.26683" lon="3.56199">
        <ele>1179</ele>
        <time>2014-06-21T13:12:42.000Z</time>
      </trkpt>
      <trkpt lat="44.26683" lon="3.56199">
        <ele>1179</ele>
        <time>2014-06-21T13:12:44.000Z</time>
      </trkpt>
      <trkpt lat="44.26683" lon="3.56199">
        <ele>1179</ele>
        <time>2014-06-21T13:12:46.000Z</time>
      </trkpt>
      <trkpt lat="44.26683" lon="3.56199">
        <ele>1179</ele>
        <time>2014-06-21T13:12:48.000Z</time>
      </trkpt>
      <trkpt lat="44.26683" lon="3.56199">
        <ele>1179</ele>
        <time>2014-06-21T13:12:50.000Z</time>
      </trkpt>
      <trkpt lat="44.26683" lon="3.56199">
        <ele>1179</ele>
        <time>2014-06-21T13:12:58.000Z</time>
      </trkpt>
      <trkpt lat="44.26683" lon="3.56199">
        <ele>1179</ele>
        <time>2014-06-21T13:12:59.000Z</time>
      </trkpt>
      <trkpt lat="44.2667" lon="3.56196">
        <ele>1183</ele>
        <time>2014-06-21T13:15:39.000Z</time>
      </trkpt>
      <trkpt lat="44.26662" lon="3.56194">
        <ele>1183</ele>
        <time>2014-06-21T13:15:41.000Z</time>
      </trkpt>
      <trkpt lat="44.26657" lon="3.56192">
        <ele>1183</ele>
        <time>2014-06-21T13:15:43.000Z</time>
      </trkpt>
      <trkpt lat="44.26652" lon="3.56191">
        <ele>1183</ele>
        <time>2014-06-21T13:15:47.000Z</time>
      </trkpt>
      <trkpt lat="44.26652" lon="3.56191">
        <ele>1183</ele>
        <time>2014-06-21T13:15:49.000Z</time>
      </trkpt>
      <trkpt lat="44.26652" lon="3.56191">
        <ele>1183</ele>
        <time>2014-06-21T13:15:51.000Z</time>
      </trkpt>
      <trkpt lat="44.26641" lon="3.56193">
        <ele>1184</ele>
        <time>2014-06-21T13:16:01.000Z</time>
      </trkpt>
      <trkpt lat="44.26635" lon="3.56193">
        <ele>1184</ele>
        <time>2014-06-21T13:16:03.000Z</time>
      </trkpt>
      <trkpt lat="44.26635" lon="3.56193">
        <ele>1184</ele>
        <time>2014-06-21T13:16:07.000Z</time>
      </trkpt>
      <trkpt lat="44.26635" lon="3.56193">
        <ele>1184</ele>
        <time>2014-06-21T13:16:10.000Z</time>
      </trkpt>
      <trkpt lat="44.26635" lon="3.56193">
        <ele>1184</ele>
        <time>2014-06-21T13:16:11.000Z</time>
      </trkpt>
      <trkpt lat="44.26635" lon="3.56193">
        <ele>1184</ele>
        <time>2014-06-21T13:16:13.000Z</time>
      </trkpt>
      <trkpt lat="44.26624" lon="3.56189">
        <ele>1185</ele>
        <time>2014-06-21T13:16:24.000Z</time>
      </trkpt>
      <trkpt lat="44.26616" lon="3.56186">
        <ele>1185</ele>
        <time>2014-06-21T13:16:26.000Z</time>
      </trkpt>
      <trkpt lat="44.26609" lon="3.56182">
        <ele>1185</ele>
        <time>2014-06-21T13:16:28.000Z</time>
      </trkpt>
      <trkpt lat="44.26604" lon="3.56178">
        <ele>1185</ele>
        <time>2014-06-21T13:16:30.000Z</time>
      </trkpt>
      <trkpt lat="44.266" lon="3.56174">
        <ele>1185</ele>
        <time>2014-06-21T13:16:32.000Z</time>
      </trkpt>
      <trkpt lat="44.26591" lon="3.56167">
        <ele>1185</ele>
        <time>2014-06-21T13:16:34.000Z</time>
      </trkpt>
      <trkpt lat="44.26591" lon="3.56167">
        <ele>1185</ele>
        <time>2014-06-21T13:16:36.000Z</time>
      </trkpt>
      <trkpt lat="44.26581" lon="3.56151">
        <ele>1182</ele>
        <time>2014-06-21T13:16:41.000Z</time>
      </trkpt>
      <trkpt lat="44.26575" lon="3.56139">
        <ele>1182</ele>
        <time>2014-06-21T13:16:44.000Z</time>
      </trkpt>
      <trkpt lat="44.26565" lon="3.56124">
        <ele>1182</ele>
        <time>2014-06-21T13:16:49.000Z</time>
      </trkpt>
      <trkpt lat="44.26557" lon="3.56114">
        <ele>1182</ele>
        <time>2014-06-21T13:16:53.000Z</time>
      </trkpt>
      <trkpt lat="44.26557" lon="3.56114">
        <ele>1182</ele>
        <time>2014-06-21T13:16:56.000Z</time>
      </trkpt>
      <trkpt lat="44.26557" lon="3.56114">
        <ele>1182</ele>
        <time>2014-06-21T13:16:57.000Z</time>
      </trkpt>
      <trkpt lat="44.26557" lon="3.56114">
        <ele>1182</ele>
        <time>2014-06-21T13:17:01.000Z</time>
      </trkpt>
      <trkpt lat="44.26557" lon="3.56114">
        <ele>1182</ele>
        <time>2014-06-21T13:17:02.000Z</time>
      </trkpt>
      <trkpt lat="44.26557" lon="3.56114">
        <ele>1182</ele>
        <time>2014-06-21T13:17:04.000Z</time>
      </trkpt>
      <trkpt lat="44.26557" lon="3.56114">
        <ele>1182</ele>
        <time>2014-06-21T13:17:10.000Z</time>
      </trkpt>
      <trkpt lat="44.26557" lon="3.56114">
        <ele>1182</ele>
        <time>2014-06-21T13:17:12.000Z</time>
      </trkpt>
      <trkpt lat="44.26557" lon="3.56114">
        <ele>1182</ele>
        <time>2014-06-21T13:17:14.000Z</time>
      </trkpt>
      <trkpt lat="44.26501" lon="3.561">
        <ele>1182</ele>
        <time>2014-06-21T13:17:18.000Z</time>
      </trkpt>
      <trkpt lat="44.2649" lon="3.56093">
        <ele>1182</ele>
        <time>2014-06-21T13:17:22.000Z</time>
      </trkpt>
      <trkpt lat="44.26482" lon="3.56084">
        <ele>1183</ele>
        <time>2014-06-21T13:17:26.000Z</time>
      </trkpt>
      <trkpt lat="44.26482" lon="3.56084">
        <ele>1183</ele>
        <time>2014-06-21T13:17:28.000Z</time>
      </trkpt>
      <trkpt lat="44.26482" lon="3.56084">
        <ele>1183</ele>
        <time>2014-06-21T13:17:30.000Z</time>
      </trkpt>
      <trkpt lat="44.26482" lon="3.56084">
        <ele>1183</ele>
        <time>2014-06-21T13:17:32.000Z</time>
      </trkpt>
      <trkpt lat="44.26482" lon="3.56084">
        <ele>1183</ele>
        <time>2014-06-21T13:17:34.000Z</time>
      </trkpt>
      <trkpt lat="44.26482" lon="3.56084">
        <ele>1183</ele>
        <time>2014-06-21T13:17:36.000Z</time>
      </trkpt>
      <trkpt lat="44.26482" lon="3.56084">
        <ele>1183</ele>
        <time>2014-06-21T13:17:38.000Z</time>
      </trkpt>
      <trkpt lat="44.26445" lon="3.56049">
        <ele>1182</ele>
        <time>2014-06-21T13:17:44.000Z</time>
      </trkpt>
      <trkpt lat="44.26434" lon="3.56043">
        <ele>1181</ele>
        <time>2014-06-21T13:17:48.000Z</time>
      </trkpt>
      <trkpt lat="44.26434" lon="3.56043">
        <ele>1181</ele>
        <time>2014-06-21T13:17:50.000Z</time>
      </trkpt>
      <trkpt lat="44.26434" lon="3.56043">
        <ele>1181</ele>
        <time>2014-06-21T13:17:52.000Z</time>
      </trkpt>
      <trkpt lat="44.26434" lon="3.56043">
        <ele>1181</ele>
        <time>2014-06-21T13:17:54.000Z</time>
      </trkpt>
      <trkpt lat="44.26434" lon="3.56043">
        <ele>1181</ele>
        <time>2014-06-21T13:17:56.000Z</time>
      </trkpt>
      <trkpt lat="44.26434" lon="3.56043">
        <ele>1181</ele>
        <time>2014-06-21T13:17:58.000Z</time>
      </trkpt>
      <trkpt lat="44.26434" lon="3.56043">
        <ele>1181</ele>
        <time>2014-06-21T13:18:00.000Z</time>
      </trkpt>
      <trkpt lat="44.26434" lon="3.56043">
        <ele>1181</ele>
        <time>2014-06-21T13:18:02.000Z</time>
      </trkpt>
      <trkpt lat="44.26434" lon="3.56043">
        <ele>1181</ele>
        <time>2014-06-21T13:18:04.000Z</time>
      </trkpt>
      <trkpt lat="44.26434" lon="3.56043">
        <ele>1181</ele>
        <time>2014-06-21T13:18:08.000Z</time>
      </trkpt>
      <trkpt lat="44.26434" lon="3.56043">
        <ele>1181</ele>
        <time>2014-06-21T13:18:10.000Z</time>
      </trkpt>
      <trkpt lat="44.26419" lon="3.56044">
        <ele>1184</ele>
        <time>2014-06-21T13:19:00.000Z</time>
      </trkpt>
      <trkpt lat="44.26411" lon="3.56047">
        <ele>1184</ele>
        <time>2014-06-21T13:19:02.000Z</time>
      </trkpt>
      <trkpt lat="44.26407" lon="3.5605">
        <ele>1184</ele>
        <time>2014-06-21T13:19:04.000Z</time>
      </trkpt>
      <trkpt lat="44.26404" lon="3.56055">
        <ele>1185</ele>
        <time>2014-06-21T13:19:08.000Z</time>
      </trkpt>
      <trkpt lat="44.26401" lon="3.56061">
        <ele>1185</ele>
        <time>2014-06-21T13:19:12.000Z</time>
      </trkpt>
      <trkpt lat="44.26398" lon="3.56068">
        <ele>1185</ele>
        <time>2014-06-21T13:19:16.000Z</time>
      </trkpt>
      <trkpt lat="44.26396" lon="3.56073">
        <ele>1185</ele>
        <time>2014-06-21T13:19:18.000Z</time>
      </trkpt>
      <trkpt lat="44.26394" lon="3.56081">
        <ele>1185</ele>
        <time>2014-06-21T13:19:22.000Z</time>
      </trkpt>
      <trkpt lat="44.26392" lon="3.56087">
        <ele>1185</ele>
        <time>2014-06-21T13:19:24.000Z</time>
      </trkpt>
      <trkpt lat="44.2639" lon="3.56094">
        <ele>1186</ele>
        <time>2014-06-21T13:19:28.000Z</time>
      </trkpt>
      <trkpt lat="44.26388" lon="3.56101">
        <ele>1186</ele>
        <time>2014-06-21T13:19:30.000Z</time>
      </trkpt>
      <trkpt lat="44.26386" lon="3.56108">
        <ele>1187</ele>
        <time>2014-06-21T13:19:34.000Z</time>
      </trkpt>
      <trkpt lat="44.26384" lon="3.56114">
        <ele>1187</ele>
        <time>2014-06-21T13:19:36.000Z</time>
      </trkpt>
      <trkpt lat="44.26384" lon="3.56114">
        <ele>1187</ele>
        <time>2014-06-21T13:19:38.000Z</time>
      </trkpt>
      <trkpt lat="44.26384" lon="3.56114">
        <ele>1187</ele>
        <time>2014-06-21T13:19:40.000Z</time>
      </trkpt>
      <trkpt lat="44.26384" lon="3.56114">
        <ele>1187</ele>
        <time>2014-06-21T13:19:42.000Z</time>
      </trkpt>
      <trkpt lat="44.26379" lon="3.56131">
        <ele>1189</ele>
        <time>2014-06-21T13:19:48.000Z</time>
      </trkpt>
      <trkpt lat="44.26376" lon="3.56141">
        <ele>1189</ele>
        <time>2014-06-21T13:19:50.000Z</time>
      </trkpt>
      <trkpt lat="44.26376" lon="3.56141">
        <ele>1189</ele>
        <time>2014-06-21T13:19:52.000Z</time>
      </trkpt>
      <trkpt lat="44.26376" lon="3.56141">
        <ele>1189</ele>
        <time>2014-06-21T13:19:54.000Z</time>
      </trkpt>
      <trkpt lat="44.2637" lon="3.5616">
        <ele>1191</ele>
        <time>2014-06-21T13:20:04.000Z</time>
      </trkpt>
      <trkpt lat="44.26366" lon="3.56172">
        <ele>1191</ele>
        <time>2014-06-21T13:20:06.000Z</time>
      </trkpt>
      <trkpt lat="44.26366" lon="3.56172">
        <ele>1191</ele>
        <time>2014-06-21T13:20:08.000Z</time>
      </trkpt>
      <trkpt lat="44.26366" lon="3.56172">
        <ele>1191</ele>
        <time>2014-06-21T13:20:10.000Z</time>
      </trkpt>
      <trkpt lat="44.26366" lon="3.56172">
        <ele>1191</ele>
        <time>2014-06-21T13:20:12.000Z</time>
      </trkpt>
      <trkpt lat="44.26366" lon="3.56172">
        <ele>1191</ele>
        <time>2014-06-21T13:20:14.000Z</time>
      </trkpt>
      <trkpt lat="44.2636" lon="3.56188">
        <ele>1192</ele>
        <time>2014-06-21T13:20:18.000Z</time>
      </trkpt>
      <trkpt lat="44.26357" lon="3.56199">
        <ele>1193</ele>
        <time>2014-06-21T13:20:20.000Z</time>
      </trkpt>
      <trkpt lat="44.26354" lon="3.56207">
        <ele>1193</ele>
        <time>2014-06-21T13:20:22.000Z</time>
      </trkpt>
      <trkpt lat="44.26354" lon="3.56207">
        <ele>1193</ele>
        <time>2014-06-21T13:20:24.000Z</time>
      </trkpt>
      <trkpt lat="44.26354" lon="3.56207">
        <ele>1193</ele>
        <time>2014-06-21T13:20:26.000Z</time>
      </trkpt>
      <trkpt lat="44.26354" lon="3.56207">
        <ele>1193</ele>
        <time>2014-06-21T13:20:32.000Z</time>
      </trkpt>
      <trkpt lat="44.26354" lon="3.56207">
        <ele>1193</ele>
        <time>2014-06-21T13:20:34.000Z</time>
      </trkpt>
      <trkpt lat="44.26348" lon="3.56227">
        <ele>1195</ele>
        <time>2014-06-21T13:20:38.000Z</time>
      </trkpt>
      <trkpt lat="44.26345" lon="3.5624">
        <ele>1196</ele>
        <time>2014-06-21T13:20:40.000Z</time>
      </trkpt>
      <trkpt lat="44.26342" lon="3.56248">
        <ele>1196</ele>
        <time>2014-06-21T13:20:42.000Z</time>
      </trkpt>
      <trkpt lat="44.2634" lon="3.56254">
        <ele>1197</ele>
        <time>2014-06-21T13:20:44.000Z</time>
      </trkpt>
      <trkpt lat="44.26338" lon="3.56261">
        <ele>1197</ele>
        <time>2014-06-21T13:20:48.000Z</time>
      </trkpt>
      <trkpt lat="44.26336" lon="3.56266">
        <ele>1198</ele>
        <time>2014-06-21T13:20:50.000Z</time>
      </trkpt>
      <trkpt lat="44.26333" lon="3.56273">
        <ele>1198</ele>
        <time>2014-06-21T13:20:54.000Z</time>
      </trkpt>
      <trkpt lat="44.26331" lon="3.56279">
        <ele>1199</ele>
        <time>2014-06-21T13:20:58.000Z</time>
      </trkpt>
      <trkpt lat="44.26331" lon="3.56279">
        <ele>1199</ele>
        <time>2014-06-21T13:21:00.000Z</time>
      </trkpt>
      <trkpt lat="44.26331" lon="3.56279">
        <ele>1199</ele>
        <time>2014-06-21T13:21:02.000Z</time>
      </trkpt>
      <trkpt lat="44.26331" lon="3.56279">
        <ele>1199</ele>
        <time>2014-06-21T13:21:04.000Z</time>
      </trkpt>
      <trkpt lat="44.26326" lon="3.5629">
        <ele>1201</ele>
        <time>2014-06-21T13:21:06.000Z</time>
      </trkpt>
      <trkpt lat="44.26323" lon="3.56297">
        <ele>1201</ele>
        <time>2014-06-21T13:21:08.000Z</time>
      </trkpt>
      <trkpt lat="44.26321" lon="3.56303">
        <ele>1201</ele>
        <time>2014-06-21T13:21:10.000Z</time>
      </trkpt>
      <trkpt lat="44.26318" lon="3.56309">
        <ele>1201</ele>
        <time>2014-06-21T13:21:12.000Z</time>
      </trkpt>
      <trkpt lat="44.26318" lon="3.56309">
        <ele>1201</ele>
        <time>2014-06-21T13:21:14.000Z</time>
      </trkpt>
      <trkpt lat="44.26316" lon="3.56315">
        <ele>1201</ele>
        <time>2014-06-21T13:21:16.000Z</time>
      </trkpt>
      <trkpt lat="44.26313" lon="3.56321">
        <ele>1201</ele>
        <time>2014-06-21T13:21:18.000Z</time>
      </trkpt>
      <trkpt lat="44.2631" lon="3.56327">
        <ele>1201</ele>
        <time>2014-06-21T13:21:22.000Z</time>
      </trkpt>
      <trkpt lat="44.26307" lon="3.56333">
        <ele>1201</ele>
        <time>2014-06-21T13:21:24.000Z</time>
      </trkpt>
      <trkpt lat="44.26303" lon="3.56339">
        <ele>1201</ele>
        <time>2014-06-21T13:21:28.000Z</time>
      </trkpt>
      <trkpt lat="44.26301" lon="3.56344">
        <ele>1201</ele>
        <time>2014-06-21T13:21:30.000Z</time>
      </trkpt>
      <trkpt lat="44.26301" lon="3.56344">
        <ele>1201</ele>
        <time>2014-06-21T13:21:32.000Z</time>
      </trkpt>
      <trkpt lat="44.26301" lon="3.56344">
        <ele>1201</ele>
        <time>2014-06-21T13:21:34.000Z</time>
      </trkpt>
      <trkpt lat="44.26301" lon="3.56344">
        <ele>1201</ele>
        <time>2014-06-21T13:21:36.000Z</time>
      </trkpt>
      <trkpt lat="44.26293" lon="3.5635">
        <ele>1200</ele>
        <time>2014-06-21T13:21:44.000Z</time>
      </trkpt>
      <trkpt lat="44.26288" lon="3.56351">
        <ele>1200</ele>
        <time>2014-06-21T13:21:46.000Z</time>
      </trkpt>
      <trkpt lat="44.26283" lon="3.56349">
        <ele>1201</ele>
        <time>2014-06-21T13:21:51.000Z</time>
      </trkpt>
      <trkpt lat="44.26278" lon="3.56347">
        <ele>1201</ele>
        <time>2014-06-21T13:21:53.000Z</time>
      </trkpt>
      <trkpt lat="44.26273" lon="3.56344">
        <ele>1202</ele>
        <time>2014-06-21T13:21:57.000Z</time>
      </trkpt>
      <trkpt lat="44.26269" lon="3.56341">
        <ele>1203</ele>
        <time>2014-06-21T13:21:59.000Z</time>
      </trkpt>
      <trkpt lat="44.26263" lon="3.56338">
        <ele>1204</ele>
        <time>2014-06-21T13:22:03.000Z</time>
      </trkpt>
      <trkpt lat="44.26258" lon="3.56336">
        <ele>1203</ele>
        <time>2014-06-21T13:22:05.000Z</time>
      </trkpt>
      <trkpt lat="44.26254" lon="3.56334">
        <ele>1203</ele>
        <time>2014-06-21T13:22:07.000Z</time>
      </trkpt>
      <trkpt lat="44.26249" lon="3.56332">
        <ele>1204</ele>
        <time>2014-06-21T13:22:09.000Z</time>
      </trkpt>
      <trkpt lat="44.26243" lon="3.5633">
        <ele>1205</ele>
        <time>2014-06-21T13:22:13.000Z</time>
      </trkpt>
      <trkpt lat="44.26243" lon="3.5633">
        <ele>1205</ele>
        <time>2014-06-21T13:22:15.000Z</time>
      </trkpt>
      <trkpt lat="44.26243" lon="3.5633">
        <ele>1205</ele>
        <time>2014-06-21T13:22:17.000Z</time>
      </trkpt>
      <trkpt lat="44.26243" lon="3.5633">
        <ele>1205</ele>
        <time>2014-06-21T13:22:19.000Z</time>
      </trkpt>
      <trkpt lat="44.26229" lon="3.56324">
        <ele>1206</ele>
        <time>2014-06-21T13:22:25.000Z</time>
      </trkpt>
      <trkpt lat="44.26229" lon="3.56324">
        <ele>1206</ele>
        <time>2014-06-21T13:22:27.000Z</time>
      </trkpt>
      <trkpt lat="44.26229" lon="3.56324">
        <ele>1206</ele>
        <time>2014-06-21T13:22:29.000Z</time>
      </trkpt>
      <trkpt lat="44.26229" lon="3.56324">
        <ele>1206</ele>
        <time>2014-06-21T13:22:31.000Z</time>
      </trkpt>
      <trkpt lat="44.26217" lon="3.56309">
        <ele>1207</ele>
        <time>2014-06-21T13:22:39.000Z</time>
      </trkpt>
      <trkpt lat="44.2621" lon="3.56299">
        <ele>1208</ele>
        <time>2014-06-21T13:22:41.000Z</time>
      </trkpt>
      <trkpt lat="44.26204" lon="3.56293">
        <ele>1207</ele>
        <time>2014-06-21T13:22:43.000Z</time>
      </trkpt>
      <trkpt lat="44.262" lon="3.56288">
        <ele>1207</ele>
        <time>2014-06-21T13:22:45.000Z</time>
      </trkpt>
      <trkpt lat="44.262" lon="3.56288">
        <ele>1207</ele>
        <time>2014-06-21T13:22:47.000Z</time>
      </trkpt>
      <trkpt lat="44.26195" lon="3.56284">
        <ele>1207</ele>
        <time>2014-06-21T13:22:49.000Z</time>
      </trkpt>
      <trkpt lat="44.26195" lon="3.56284">
        <ele>1207</ele>
        <time>2014-06-21T13:22:51.000Z</time>
      </trkpt>
      <trkpt lat="44.26195" lon="3.56284">
        <ele>1207</ele>
        <time>2014-06-21T13:22:53.000Z</time>
      </trkpt>
      <trkpt lat="44.26195" lon="3.56284">
        <ele>1207</ele>
        <time>2014-06-21T13:22:55.000Z</time>
      </trkpt>
      <trkpt lat="44.26195" lon="3.56284">
        <ele>1207</ele>
        <time>2014-06-21T13:22:57.000Z</time>
      </trkpt>
      <trkpt lat="44.26195" lon="3.56284">
        <ele>1207</ele>
        <time>2014-06-21T13:23:03.000Z</time>
      </trkpt>
      <trkpt lat="44.26195" lon="3.56284">
        <ele>1207</ele>
        <time>2014-06-21T13:23:05.000Z</time>
      </trkpt>
      <trkpt lat="44.26195" lon="3.56284">
        <ele>1207</ele>
        <time>2014-06-21T13:23:07.000Z</time>
      </trkpt>
      <trkpt lat="44.26195" lon="3.56284">
        <ele>1207</ele>
        <time>2014-06-21T13:23:09.000Z</time>
      </trkpt>
      <trkpt lat="44.26195" lon="3.56284">
        <ele>1207</ele>
        <time>2014-06-21T13:23:11.000Z</time>
      </trkpt>
      <trkpt lat="44.26177" lon="3.56264">
        <ele>1204</ele>
        <time>2014-06-21T13:23:17.000Z</time>
      </trkpt>
      <trkpt lat="44.26168" lon="3.56253">
        <ele>1204</ele>
        <time>2014-06-21T13:23:19.000Z</time>
      </trkpt>
      <trkpt lat="44.26163" lon="3.56247">
        <ele>1204</ele>
        <time>2014-06-21T13:23:21.000Z</time>
      </trkpt>
      <trkpt lat="44.2616" lon="3.56241">
        <ele>1204</ele>
        <time>2014-06-21T13:23:23.000Z</time>
      </trkpt>
      <trkpt lat="44.2616" lon="3.56241">
        <ele>1204</ele>
        <time>2014-06-21T13:23:25.000Z</time>
      </trkpt>
      <trkpt lat="44.26157" lon="3.56236">
        <ele>1204</ele>
        <time>2014-06-21T13:23:27.000Z</time>
      </trkpt>
      <trkpt lat="44.26157" lon="3.56236">
        <ele>1204</ele>
        <time>2014-06-21T13:23:29.000Z</time>
      </trkpt>
      <trkpt lat="44.26153" lon="3.56229">
        <ele>1204</ele>
        <time>2014-06-21T13:23:31.000Z</time>
      </trkpt>
      <trkpt lat="44.26151" lon="3.56224">
        <ele>1204</ele>
        <time>2014-06-21T13:23:33.000Z</time>
      </trkpt>
      <trkpt lat="44.26147" lon="3.56216">
        <ele>1205</ele>
        <time>2014-06-21T13:23:37.000Z</time>
      </trkpt>
      <trkpt lat="44.26144" lon="3.56211">
        <ele>1205</ele>
        <time>2014-06-21T13:23:39.000Z</time>
      </trkpt>
      <trkpt lat="44.2614" lon="3.56204">
        <ele>1206</ele>
        <time>2014-06-21T13:23:43.000Z</time>
      </trkpt>
      <trkpt lat="44.26136" lon="3.56198">
        <ele>1206</ele>
        <time>2014-06-21T13:23:45.000Z</time>
      </trkpt>
      <trkpt lat="44.26136" lon="3.56198">
        <ele>1206</ele>
        <time>2014-06-21T13:23:47.000Z</time>
      </trkpt>
      <trkpt lat="44.26136" lon="3.56198">
        <ele>1206</ele>
        <time>2014-06-21T13:23:49.000Z</time>
      </trkpt>
      <trkpt lat="44.26136" lon="3.56198">
        <ele>1206</ele>
        <time>2014-06-21T13:23:51.000Z</time>
      </trkpt>
      <trkpt lat="44.26129" lon="3.56188">
        <ele>1207</ele>
        <time>2014-06-21T13:23:53.000Z</time>
      </trkpt>
      <trkpt lat="44.26124" lon="3.56181">
        <ele>1206</ele>
        <time>2014-06-21T13:23:55.000Z</time>
      </trkpt>
      <trkpt lat="44.2612" lon="3.56175">
        <ele>1206</ele>
        <time>2014-06-21T13:23:57.000Z</time>
      </trkpt>
      <trkpt lat="44.26117" lon="3.56168">
        <ele>1206</ele>
        <time>2014-06-21T13:23:59.000Z</time>
      </trkpt>
      <trkpt lat="44.26114" lon="3.56163">
        <ele>1206</ele>
        <time>2014-06-21T13:24:01.000Z</time>
      </trkpt>
      <trkpt lat="44.26114" lon="3.56163">
        <ele>1206</ele>
        <time>2014-06-21T13:24:03.000Z</time>
      </trkpt>
      <trkpt lat="44.26105" lon="3.56149">
        <ele>1206</ele>
        <time>2014-06-21T13:24:05.000Z</time>
      </trkpt>
      <trkpt lat="44.26099" lon="3.56139">
        <ele>1207</ele>
        <time>2014-06-21T13:24:09.000Z</time>
      </trkpt>
      <trkpt lat="44.26093" lon="3.56128">
        <ele>1206</ele>
        <time>2014-06-21T13:24:13.000Z</time>
      </trkpt>
      <trkpt lat="44.26093" lon="3.56128">
        <ele>1206</ele>
        <time>2014-06-21T13:24:15.000Z</time>
      </trkpt>
      <trkpt lat="44.26093" lon="3.56128">
        <ele>1206</ele>
        <time>2014-06-21T13:24:17.000Z</time>
      </trkpt>
      <trkpt lat="44.26093" lon="3.56128">
        <ele>1206</ele>
        <time>2014-06-21T13:24:19.000Z</time>
      </trkpt>
      <trkpt lat="44.26093" lon="3.56128">
        <ele>1206</ele>
        <time>2014-06-21T13:24:21.000Z</time>
      </trkpt>
      <trkpt lat="44.26093" lon="3.56128">
        <ele>1206</ele>
        <time>2014-06-21T13:24:23.000Z</time>
      </trkpt>
      <trkpt lat="44.26093" lon="3.56128">
        <ele>1206</ele>
        <time>2014-06-21T13:24:25.000Z</time>
      </trkpt>
      <trkpt lat="44.26093" lon="3.56128">
        <ele>1206</ele>
        <time>2014-06-21T13:24:27.000Z</time>
      </trkpt>
      <trkpt lat="44.26093" lon="3.56128">
        <ele>1206</ele>
        <time>2014-06-21T13:24:29.000Z</time>
      </trkpt>
      <trkpt lat="44.26093" lon="3.56128">
        <ele>1206</ele>
        <time>2014-06-21T13:24:31.000Z</time>
      </trkpt>
      <trkpt lat="44.26093" lon="3.56128">
        <ele>1206</ele>
        <time>2014-06-21T13:24:33.000Z</time>
      </trkpt>
      <trkpt lat="44.26093" lon="3.56128">
        <ele>1206</ele>
        <time>2014-06-21T13:24:35.000Z</time>
      </trkpt>
      <trkpt lat="44.26093" lon="3.56128">
        <ele>1206</ele>
        <time>2014-06-21T13:24:37.000Z</time>
      </trkpt>
      <trkpt lat="44.26093" lon="3.56128">
        <ele>1206</ele>
        <time>2014-06-21T13:24:39.000Z</time>
      </trkpt>
      <trkpt lat="44.26093" lon="3.56128">
        <ele>1206</ele>
        <time>2014-06-21T13:24:41.000Z</time>
      </trkpt>
      <trkpt lat="44.26093" lon="3.56128">
        <ele>1206</ele>
        <time>2014-06-21T13:24:43.000Z</time>
      </trkpt>
      <trkpt lat="44.26093" lon="3.56128">
        <ele>1206</ele>
        <time>2014-06-21T13:24:45.000Z</time>
      </trkpt>
      <trkpt lat="44.26093" lon="3.56128">
        <ele>1206</ele>
        <time>2014-06-21T13:24:47.000Z</time>
      </trkpt>
      <trkpt lat="44.26093" lon="3.56128">
        <ele>1206</ele>
        <time>2014-06-21T13:24:49.000Z</time>
      </trkpt>
      <trkpt lat="44.26093" lon="3.56128">
        <ele>1206</ele>
        <time>2014-06-21T13:24:51.000Z</time>
      </trkpt>
      <trkpt lat="44.26093" lon="3.56128">
        <ele>1206</ele>
        <time>2014-06-21T13:24:53.000Z</time>
      </trkpt>
      <trkpt lat="44.26025" lon="3.56055">
        <ele>1208</ele>
        <time>2014-06-21T13:24:59.000Z</time>
      </trkpt>
      <trkpt lat="44.26015" lon="3.56049">
        <ele>1208</ele>
        <time>2014-06-21T13:25:05.000Z</time>
      </trkpt>
      <trkpt lat="44.26015" lon="3.56049">
        <ele>1208</ele>
        <time>2014-06-21T13:25:07.000Z</time>
      </trkpt>
      <trkpt lat="44.26015" lon="3.56049">
        <ele>1208</ele>
        <time>2014-06-21T13:25:13.000Z</time>
      </trkpt>
      <trkpt lat="44.26015" lon="3.56049">
        <ele>1208</ele>
        <time>2014-06-21T13:25:21.000Z</time>
      </trkpt>
      <trkpt lat="44.26015" lon="3.56049">
        <ele>1208</ele>
        <time>2014-06-21T13:25:29.000Z</time>
      </trkpt>
      <trkpt lat="44.26015" lon="3.56049">
        <ele>1208</ele>
        <time>2014-06-21T13:25:31.000Z</time>
      </trkpt>
      <trkpt lat="44.26015" lon="3.56049">
        <ele>1208</ele>
        <time>2014-06-21T13:25:33.000Z</time>
      </trkpt>
      <trkpt lat="44.26015" lon="3.56049">
        <ele>1208</ele>
        <time>2014-06-21T13:25:35.000Z</time>
      </trkpt>
      <trkpt lat="44.26015" lon="3.56049">
        <ele>1208</ele>
        <time>2014-06-21T13:25:37.000Z</time>
      </trkpt>
      <trkpt lat="44.26015" lon="3.56049">
        <ele>1208</ele>
        <time>2014-06-21T13:25:43.000Z</time>
      </trkpt>
      <trkpt lat="44.26015" lon="3.56049">
        <ele>1208</ele>
        <time>2014-06-21T13:25:45.000Z</time>
      </trkpt>
      <trkpt lat="44.26015" lon="3.56049">
        <ele>1208</ele>
        <time>2014-06-21T13:25:47.000Z</time>
      </trkpt>
      <trkpt lat="44.25988" lon="3.56023">
        <ele>1212</ele>
        <time>2014-06-21T13:25:49.000Z</time>
      </trkpt>
      <trkpt lat="44.25988" lon="3.56023">
        <ele>1212</ele>
        <time>2014-06-21T13:25:51.000Z</time>
      </trkpt>
      <trkpt lat="44.25988" lon="3.56023">
        <ele>1212</ele>
        <time>2014-06-21T13:25:53.000Z</time>
      </trkpt>
      <trkpt lat="44.25988" lon="3.56023">
        <ele>1212</ele>
        <time>2014-06-21T13:25:55.000Z</time>
      </trkpt>
      <trkpt lat="44.25988" lon="3.56023">
        <ele>1212</ele>
        <time>2014-06-21T13:25:57.000Z</time>
      </trkpt>
      <trkpt lat="44.25988" lon="3.56023">
        <ele>1212</ele>
        <time>2014-06-21T13:25:59.000Z</time>
      </trkpt>
      <trkpt lat="44.25988" lon="3.56023">
        <ele>1212</ele>
        <time>2014-06-21T13:26:01.000Z</time>
      </trkpt>
      <trkpt lat="44.25988" lon="3.56023">
        <ele>1212</ele>
        <time>2014-06-21T13:26:03.000Z</time>
      </trkpt>
      <trkpt lat="44.25988" lon="3.56023">
        <ele>1212</ele>
        <time>2014-06-21T13:26:05.000Z</time>
      </trkpt>
      <trkpt lat="44.25964" lon="3.56001">
        <ele>1217</ele>
        <time>2014-06-21T13:26:09.000Z</time>
      </trkpt>
      <trkpt lat="44.25951" lon="3.5599">
        <ele>1218</ele>
        <time>2014-06-21T13:26:11.000Z</time>
      </trkpt>
      <trkpt lat="44.25944" lon="3.55983">
        <ele>1218</ele>
        <time>2014-06-21T13:26:13.000Z</time>
      </trkpt>
      <trkpt lat="44.25939" lon="3.55979">
        <ele>1218</ele>
        <time>2014-06-21T13:26:15.000Z</time>
      </trkpt>
      <trkpt lat="44.25939" lon="3.55979">
        <ele>1218</ele>
        <time>2014-06-21T13:26:17.000Z</time>
      </trkpt>
      <trkpt lat="44.25939" lon="3.55979">
        <ele>1218</ele>
        <time>2014-06-21T13:26:19.000Z</time>
      </trkpt>
      <trkpt lat="44.25939" lon="3.55979">
        <ele>1218</ele>
        <time>2014-06-21T13:26:21.000Z</time>
      </trkpt>
      <trkpt lat="44.25939" lon="3.55979">
        <ele>1218</ele>
        <time>2014-06-21T13:26:23.000Z</time>
      </trkpt>
      <trkpt lat="44.25939" lon="3.55979">
        <ele>1218</ele>
        <time>2014-06-21T13:26:25.000Z</time>
      </trkpt>
      <trkpt lat="44.25939" lon="3.55979">
        <ele>1218</ele>
        <time>2014-06-21T13:26:27.000Z</time>
      </trkpt>
      <trkpt lat="44.25928" lon="3.55974">
        <ele>1219</ele>
        <time>2014-06-21T13:26:31.000Z</time>
      </trkpt>
      <trkpt lat="44.25922" lon="3.55971">
        <ele>1220</ele>
        <time>2014-06-21T13:26:33.000Z</time>
      </trkpt>
      <trkpt lat="44.25922" lon="3.55971">
        <ele>1220</ele>
        <time>2014-06-21T13:26:35.000Z</time>
      </trkpt>
      <trkpt lat="44.25922" lon="3.55971">
        <ele>1220</ele>
        <time>2014-06-21T13:26:37.000Z</time>
      </trkpt>
      <trkpt lat="44.25922" lon="3.55971">
        <ele>1220</ele>
        <time>2014-06-21T13:26:39.000Z</time>
      </trkpt>
      <trkpt lat="44.25913" lon="3.55965">
        <ele>1222</ele>
        <time>2014-06-21T13:26:47.000Z</time>
      </trkpt>
      <trkpt lat="44.25908" lon="3.55962">
        <ele>1221</ele>
        <time>2014-06-21T13:26:49.000Z</time>
      </trkpt>
      <trkpt lat="44.25908" lon="3.55962">
        <ele>1221</ele>
        <time>2014-06-21T13:26:51.000Z</time>
      </trkpt>
      <trkpt lat="44.25908" lon="3.55962">
        <ele>1221</ele>
        <time>2014-06-21T13:26:53.000Z</time>
      </trkpt>
      <trkpt lat="44.25908" lon="3.55962">
        <ele>1221</ele>
        <time>2014-06-21T13:26:55.000Z</time>
      </trkpt>
      <trkpt lat="44.25908" lon="3.55962">
        <ele>1221</ele>
        <time>2014-06-21T13:26:57.000Z</time>
      </trkpt>
      <trkpt lat="44.259" lon="3.55959">
        <ele>1224</ele>
        <time>2014-06-21T13:27:01.000Z</time>
      </trkpt>
      <trkpt lat="44.25895" lon="3.55957">
        <ele>1224</ele>
        <time>2014-06-21T13:27:03.000Z</time>
      </trkpt>
      <trkpt lat="44.2589" lon="3.55955">
        <ele>1225</ele>
        <time>2014-06-21T13:27:07.000Z</time>
      </trkpt>
      <trkpt lat="44.2589" lon="3.55955">
        <ele>1225</ele>
        <time>2014-06-21T13:27:11.000Z</time>
      </trkpt>
      <trkpt lat="44.2589" lon="3.55955">
        <ele>1225</ele>
        <time>2014-06-21T13:27:13.000Z</time>
      </trkpt>
      <trkpt lat="44.2589" lon="3.55955">
        <ele>1225</ele>
        <time>2014-06-21T13:27:15.000Z</time>
      </trkpt>
      <trkpt lat="44.2589" lon="3.55955">
        <ele>1225</ele>
        <time>2014-06-21T13:27:17.000Z</time>
      </trkpt>
      <trkpt lat="44.2589" lon="3.55955">
        <ele>1225</ele>
        <time>2014-06-21T13:27:19.000Z</time>
      </trkpt>
      <trkpt lat="44.2589" lon="3.55955">
        <ele>1225</ele>
        <time>2014-06-21T13:27:21.000Z</time>
      </trkpt>
      <trkpt lat="44.25877" lon="3.55949">
        <ele>1229</ele>
        <time>2014-06-21T13:27:33.000Z</time>
      </trkpt>
      <trkpt lat="44.25869" lon="3.55947">
        <ele>1230</ele>
        <time>2014-06-21T13:27:35.000Z</time>
      </trkpt>
      <trkpt lat="44.25864" lon="3.55945">
        <ele>1231</ele>
        <time>2014-06-21T13:27:37.000Z</time>
      </trkpt>
      <trkpt lat="44.25864" lon="3.55945">
        <ele>1231</ele>
        <time>2014-06-21T13:27:39.000Z</time>
      </trkpt>
      <trkpt lat="44.25864" lon="3.55945">
        <ele>1231</ele>
        <time>2014-06-21T13:27:41.000Z</time>
      </trkpt>
      <trkpt lat="44.25858" lon="3.55942">
        <ele>1231</ele>
        <time>2014-06-21T13:27:45.000Z</time>
      </trkpt>
      <trkpt lat="44.25854" lon="3.5594">
        <ele>1231</ele>
        <time>2014-06-21T13:27:49.000Z</time>
      </trkpt>
      <trkpt lat="44.25854" lon="3.5594">
        <ele>1231</ele>
        <time>2014-06-21T13:27:51.000Z</time>
      </trkpt>
      <trkpt lat="44.2585" lon="3.55939">
        <ele>1233</ele>
        <time>2014-06-21T13:27:55.000Z</time>
      </trkpt>
      <trkpt lat="44.2585" lon="3.55939">
        <ele>1233</ele>
        <time>2014-06-21T13:27:57.000Z</time>
      </trkpt>
      <trkpt lat="44.25844" lon="3.55937">
        <ele>1235</ele>
        <time>2014-06-21T13:28:01.000Z</time>
      </trkpt>
      <trkpt lat="44.2584" lon="3.55936">
        <ele>1235</ele>
        <time>2014-06-21T13:28:05.000Z</time>
      </trkpt>
      <trkpt lat="44.2584" lon="3.55936">
        <ele>1235</ele>
        <time>2014-06-21T13:28:11.000Z</time>
      </trkpt>
      <trkpt lat="44.2584" lon="3.55936">
        <ele>1235</ele>
        <time>2014-06-21T13:28:13.000Z</time>
      </trkpt>
      <trkpt lat="44.2584" lon="3.55936">
        <ele>1235</ele>
        <time>2014-06-21T13:28:15.000Z</time>
      </trkpt>
      <trkpt lat="44.2584" lon="3.55936">
        <ele>1235</ele>
        <time>2014-06-21T13:28:17.000Z</time>
      </trkpt>
      <trkpt lat="44.2583" lon="3.5593">
        <ele>1238</ele>
        <time>2014-06-21T13:28:21.000Z</time>
      </trkpt>
      <trkpt lat="44.25825" lon="3.55926">
        <ele>1238</ele>
        <time>2014-06-21T13:28:23.000Z</time>
      </trkpt>
      <trkpt lat="44.25825" lon="3.55926">
        <ele>1238</ele>
        <time>2014-06-21T13:28:25.000Z</time>
      </trkpt>
      <trkpt lat="44.25825" lon="3.55926">
        <ele>1238</ele>
        <time>2014-06-21T13:28:27.000Z</time>
      </trkpt>
      <trkpt lat="44.25825" lon="3.55926">
        <ele>1238</ele>
        <time>2014-06-21T13:28:31.000Z</time>
      </trkpt>
      <trkpt lat="44.25825" lon="3.55926">
        <ele>1238</ele>
        <time>2014-06-21T13:28:33.000Z</time>
      </trkpt>
      <trkpt lat="44.25815" lon="3.55923">
        <ele>1238</ele>
        <time>2014-06-21T13:28:37.000Z</time>
      </trkpt>
      <trkpt lat="44.25809" lon="3.5592">
        <ele>1239</ele>
        <time>2014-06-21T13:28:39.000Z</time>
      </trkpt>
      <trkpt lat="44.25809" lon="3.5592">
        <ele>1239</ele>
        <time>2014-06-21T13:28:41.000Z</time>
      </trkpt>
      <trkpt lat="44.25809" lon="3.5592">
        <ele>1239</ele>
        <time>2014-06-21T13:28:43.000Z</time>
      </trkpt>
      <trkpt lat="44.25809" lon="3.5592">
        <ele>1239</ele>
        <time>2014-06-21T13:28:45.000Z</time>
      </trkpt>
      <trkpt lat="44.25801" lon="3.55918">
        <ele>1239</ele>
        <time>2014-06-21T13:28:49.000Z</time>
      </trkpt>
      <trkpt lat="44.25795" lon="3.55917">
        <ele>1239</ele>
        <time>2014-06-21T13:28:51.000Z</time>
      </trkpt>
      <trkpt lat="44.2579" lon="3.55915">
        <ele>1240</ele>
        <time>2014-06-21T13:28:55.000Z</time>
      </trkpt>
      <trkpt lat="44.2579" lon="3.55915">
        <ele>1240</ele>
        <time>2014-06-21T13:28:57.000Z</time>
      </trkpt>
      <trkpt lat="44.2579" lon="3.55915">
        <ele>1240</ele>
        <time>2014-06-21T13:28:59.000Z</time>
      </trkpt>
      <trkpt lat="44.2579" lon="3.55915">
        <ele>1240</ele>
        <time>2014-06-21T13:29:01.000Z</time>
      </trkpt>
      <trkpt lat="44.2579" lon="3.55915">
        <ele>1240</ele>
        <time>2014-06-21T13:29:03.000Z</time>
      </trkpt>
      <trkpt lat="44.25785" lon="3.55908">
        <ele>1242</ele>
        <time>2014-06-21T13:29:07.000Z</time>
      </trkpt>
      <trkpt lat="44.25785" lon="3.55908">
        <ele>1242</ele>
        <time>2014-06-21T13:29:11.000Z</time>
      </trkpt>
      <trkpt lat="44.25785" lon="3.55908">
        <ele>1242</ele>
        <time>2014-06-21T13:29:13.000Z</time>
      </trkpt>
      <trkpt lat="44.25785" lon="3.55908">
        <ele>1242</ele>
        <time>2014-06-21T13:29:15.000Z</time>
      </trkpt>
      <trkpt lat="44.25777" lon="3.55903">
        <ele>1244</ele>
        <time>2014-06-21T13:29:17.000Z</time>
      </trkpt>
      <trkpt lat="44.25772" lon="3.559">
        <ele>1244</ele>
        <time>2014-06-21T13:29:19.000Z</time>
      </trkpt>
      <trkpt lat="44.25772" lon="3.559">
        <ele>1244</ele>
        <time>2014-06-21T13:29:23.000Z</time>
      </trkpt>
      <trkpt lat="44.25772" lon="3.559">
        <ele>1244</ele>
        <time>2014-06-21T13:29:25.000Z</time>
      </trkpt>
      <trkpt lat="44.25772" lon="3.559">
        <ele>1244</ele>
        <time>2014-06-21T13:29:27.000Z</time>
      </trkpt>
      <trkpt lat="44.25766" lon="3.55894">
        <ele>1245</ele>
        <time>2014-06-21T13:29:31.000Z</time>
      </trkpt>
      <trkpt lat="44.25761" lon="3.55891">
        <ele>1246</ele>
        <time>2014-06-21T13:29:33.000Z</time>
      </trkpt>
      <trkpt lat="44.25761" lon="3.55891">
        <ele>1246</ele>
        <time>2014-06-21T13:29:35.000Z</time>
      </trkpt>
      <trkpt lat="44.25761" lon="3.55891">
        <ele>1246</ele>
        <time>2014-06-21T13:29:37.000Z</time>
      </trkpt>
      <trkpt lat="44.25761" lon="3.55891">
        <ele>1246</ele>
        <time>2014-06-21T13:29:39.000Z</time>
      </trkpt>
      <trkpt lat="44.25761" lon="3.55891">
        <ele>1246</ele>
        <time>2014-06-21T13:29:41.000Z</time>
      </trkpt>
      <trkpt lat="44.25761" lon="3.55891">
        <ele>1246</ele>
        <time>2014-06-21T13:29:43.000Z</time>
      </trkpt>
      <trkpt lat="44.25755" lon="3.55887">
        <ele>1246</ele>
        <time>2014-06-21T13:29:47.000Z</time>
      </trkpt>
      <trkpt lat="44.25755" lon="3.55887">
        <ele>1246</ele>
        <time>2014-06-21T13:29:49.000Z</time>
      </trkpt>
      <trkpt lat="44.2575" lon="3.55884">
        <ele>1246</ele>
        <time>2014-06-21T13:29:51.000Z</time>
      </trkpt>
      <trkpt lat="44.2575" lon="3.55884">
        <ele>1246</ele>
        <time>2014-06-21T13:29:53.000Z</time>
      </trkpt>
      <trkpt lat="44.25746" lon="3.55881">
        <ele>1247</ele>
        <time>2014-06-21T13:29:57.000Z</time>
      </trkpt>
      <trkpt lat="44.25742" lon="3.55877">
        <ele>1249</ele>
        <time>2014-06-21T13:30:03.000Z</time>
      </trkpt>
      <trkpt lat="44.25738" lon="3.55874">
        <ele>1251</ele>
        <time>2014-06-21T13:30:09.000Z</time>
      </trkpt>
      <trkpt lat="44.25738" lon="3.55874">
        <ele>1251</ele>
        <time>2014-06-21T13:30:11.000Z</time>
      </trkpt>
      <trkpt lat="44.25738" lon="3.55874">
        <ele>1251</ele>
        <time>2014-06-21T13:30:13.000Z</time>
      </trkpt>
      <trkpt lat="44.25738" lon="3.55874">
        <ele>1251</ele>
        <time>2014-06-21T13:30:17.000Z</time>
      </trkpt>
      <trkpt lat="44.25738" lon="3.55874">
        <ele>1251</ele>
        <time>2014-06-21T13:30:19.000Z</time>
      </trkpt>
      <trkpt lat="44.25727" lon="3.55867">
        <ele>1253</ele>
        <time>2014-06-21T13:32:19.000Z</time>
      </trkpt>
      <trkpt lat="44.25721" lon="3.55863">
        <ele>1253</ele>
        <time>2014-06-21T13:32:21.000Z</time>
      </trkpt>
      <trkpt lat="44.25721" lon="3.55863">
        <ele>1253</ele>
        <time>2014-06-21T13:32:23.000Z</time>
      </trkpt>
      <trkpt lat="44.25721" lon="3.55863">
        <ele>1253</ele>
        <time>2014-06-21T13:32:25.000Z</time>
      </trkpt>
      <trkpt lat="44.25721" lon="3.55863">
        <ele>1253</ele>
        <time>2014-06-21T13:32:27.000Z</time>
      </trkpt>
      <trkpt lat="44.25721" lon="3.55863">
        <ele>1253</ele>
        <time>2014-06-21T13:32:29.000Z</time>
      </trkpt>
      <trkpt lat="44.25721" lon="3.55863">
        <ele>1253</ele>
        <time>2014-06-21T13:32:31.000Z</time>
      </trkpt>
      <trkpt lat="44.25713" lon="3.55854">
        <ele>1253</ele>
        <time>2014-06-21T13:32:35.000Z</time>
      </trkpt>
      <trkpt lat="44.25708" lon="3.55849">
        <ele>1254</ele>
        <time>2014-06-21T13:32:37.000Z</time>
      </trkpt>
      <trkpt lat="44.25704" lon="3.55845">
        <ele>1254</ele>
        <time>2014-06-21T13:32:41.000Z</time>
      </trkpt>
      <trkpt lat="44.25704" lon="3.55845">
        <ele>1254</ele>
        <time>2014-06-21T13:32:43.000Z</time>
      </trkpt>
      <trkpt lat="44.25704" lon="3.55845">
        <ele>1254</ele>
        <time>2014-06-21T13:32:45.000Z</time>
      </trkpt>
      <trkpt lat="44.25704" lon="3.55845">
        <ele>1254</ele>
        <time>2014-06-21T13:32:47.000Z</time>
      </trkpt>
      <trkpt lat="44.25704" lon="3.55845">
        <ele>1254</ele>
        <time>2014-06-21T13:32:49.000Z</time>
      </trkpt>
      <trkpt lat="44.25704" lon="3.55845">
        <ele>1254</ele>
        <time>2014-06-21T13:32:51.000Z</time>
      </trkpt>
      <trkpt lat="44.25696" lon="3.55838">
        <ele>1255</ele>
        <time>2014-06-21T13:32:55.000Z</time>
      </trkpt>
      <trkpt lat="44.25691" lon="3.55833">
        <ele>1256</ele>
        <time>2014-06-21T13:32:57.000Z</time>
      </trkpt>
      <trkpt lat="44.25688" lon="3.55829">
        <ele>1258</ele>
        <time>2014-06-21T13:33:01.000Z</time>
      </trkpt>
      <trkpt lat="44.25688" lon="3.55829">
        <ele>1258</ele>
        <time>2014-06-21T13:33:03.000Z</time>
      </trkpt>
      <trkpt lat="44.25688" lon="3.55829">
        <ele>1258</ele>
        <time>2014-06-21T13:33:05.000Z</time>
      </trkpt>
      <trkpt lat="44.25688" lon="3.55829">
        <ele>1258</ele>
        <time>2014-06-21T13:33:07.000Z</time>
      </trkpt>
      <trkpt lat="44.25688" lon="3.55829">
        <ele>1258</ele>
        <time>2014-06-21T13:33:09.000Z</time>
      </trkpt>
      <trkpt lat="44.25688" lon="3.55829">
        <ele>1258</ele>
        <time>2014-06-21T13:33:11.000Z</time>
      </trkpt>
      <trkpt lat="44.25681" lon="3.55821">
        <ele>1258</ele>
        <time>2014-06-21T13:33:15.000Z</time>
      </trkpt>
      <trkpt lat="44.25677" lon="3.55816">
        <ele>1258</ele>
        <time>2014-06-21T13:33:17.000Z</time>
      </trkpt>
      <trkpt lat="44.25677" lon="3.55816">
        <ele>1258</ele>
        <time>2014-06-21T13:33:19.000Z</time>
      </trkpt>
      <trkpt lat="44.25673" lon="3.55812">
        <ele>1259</ele>
        <time>2014-06-21T13:33:21.000Z</time>
      </trkpt>
      <trkpt lat="44.25673" lon="3.55812">
        <ele>1259</ele>
        <time>2014-06-21T13:33:23.000Z</time>
      </trkpt>
      <trkpt lat="44.25669" lon="3.55807">
        <ele>1260</ele>
        <time>2014-06-21T13:33:27.000Z</time>
      </trkpt>
      <trkpt lat="44.25665" lon="3.55802">
        <ele>1261</ele>
        <time>2014-06-21T13:33:32.000Z</time>
      </trkpt>
      <trkpt lat="44.25665" lon="3.55802">
        <ele>1261</ele>
        <time>2014-06-21T13:33:34.000Z</time>
      </trkpt>
      <trkpt lat="44.25665" lon="3.55802">
        <ele>1261</ele>
        <time>2014-06-21T13:33:36.000Z</time>
      </trkpt>
      <trkpt lat="44.25665" lon="3.55802">
        <ele>1261</ele>
        <time>2014-06-21T13:33:38.000Z</time>
      </trkpt>
      <trkpt lat="44.25665" lon="3.55802">
        <ele>1261</ele>
        <time>2014-06-21T13:33:40.000Z</time>
      </trkpt>
      <trkpt lat="44.25665" lon="3.55802">
        <ele>1261</ele>
        <time>2014-06-21T13:33:44.000Z</time>
      </trkpt>
      <trkpt lat="44.25665" lon="3.55802">
        <ele>1261</ele>
        <time>2014-06-21T13:33:46.000Z</time>
      </trkpt>
      <trkpt lat="44.25665" lon="3.55802">
        <ele>1261</ele>
        <time>2014-06-21T13:33:48.000Z</time>
      </trkpt>
      <trkpt lat="44.25654" lon="3.55791">
        <ele>1262</ele>
        <time>2014-06-21T13:33:54.000Z</time>
      </trkpt>
      <trkpt lat="44.25648" lon="3.55786">
        <ele>1262</ele>
        <time>2014-06-21T13:33:56.000Z</time>
      </trkpt>
      <trkpt lat="44.25644" lon="3.55782">
        <ele>1261</ele>
        <time>2014-06-21T13:33:58.000Z</time>
      </trkpt>
      <trkpt lat="44.25644" lon="3.55782">
        <ele>1261</ele>
        <time>2014-06-21T13:34:00.000Z</time>
      </trkpt>
      <trkpt lat="44.25644" lon="3.55782">
        <ele>1261</ele>
        <time>2014-06-21T13:34:02.000Z</time>
      </trkpt>
      <trkpt lat="44.25639" lon="3.55774">
        <ele>1262</ele>
        <time>2014-06-21T13:34:50.000Z</time>
      </trkpt>
      <trkpt lat="44.25636" lon="3.55768">
        <ele>1262</ele>
        <time>2014-06-21T13:34:52.000Z</time>
      </trkpt>
      <trkpt lat="44.25633" lon="3.55762">
        <ele>1262</ele>
        <time>2014-06-21T13:34:54.000Z</time>
      </trkpt>
      <trkpt lat="44.2563" lon="3.55755">
        <ele>1262</ele>
        <time>2014-06-21T13:34:58.000Z</time>
      </trkpt>
      <trkpt lat="44.25628" lon="3.55749">
        <ele>1262</ele>
        <time>2014-06-21T13:35:00.000Z</time>
      </trkpt>
      <trkpt lat="44.25625" lon="3.55742">
        <ele>1261</ele>
        <time>2014-06-21T13:35:04.000Z</time>
      </trkpt>
      <trkpt lat="44.25625" lon="3.55742">
        <ele>1261</ele>
        <time>2014-06-21T13:35:06.000Z</time>
      </trkpt>
      <trkpt lat="44.25625" lon="3.55742">
        <ele>1261</ele>
        <time>2014-06-21T13:35:08.000Z</time>
      </trkpt>
      <trkpt lat="44.25621" lon="3.55732">
        <ele>1261</ele>
        <time>2014-06-21T13:35:10.000Z</time>
      </trkpt>
      <trkpt lat="44.25618" lon="3.55725">
        <ele>1261</ele>
        <time>2014-06-21T13:35:12.000Z</time>
      </trkpt>
      <trkpt lat="44.25615" lon="3.5572">
        <ele>1261</ele>
        <time>2014-06-21T13:35:14.000Z</time>
      </trkpt>
      <trkpt lat="44.25611" lon="3.55713">
        <ele>1260</ele>
        <time>2014-06-21T13:35:18.000Z</time>
      </trkpt>
      <trkpt lat="44.25608" lon="3.55708">
        <ele>1260</ele>
        <time>2014-06-21T13:35:20.000Z</time>
      </trkpt>
      <trkpt lat="44.25605" lon="3.55702">
        <ele>1259</ele>
        <time>2014-06-21T13:35:22.000Z</time>
      </trkpt>
      <trkpt lat="44.25602" lon="3.55696">
        <ele>1259</ele>
        <time>2014-06-21T13:35:24.000Z</time>
      </trkpt>
      <trkpt lat="44.25599" lon="3.5569">
        <ele>1259</ele>
        <time>2014-06-21T13:35:26.000Z</time>
      </trkpt>
      <trkpt lat="44.25594" lon="3.55679">
        <ele>1259</ele>
        <time>2014-06-21T13:35:28.000Z</time>
      </trkpt>
      <trkpt lat="44.25587" lon="3.55665">
        <ele>1258</ele>
        <time>2014-06-21T13:35:32.000Z</time>
      </trkpt>
      <trkpt lat="44.25579" lon="3.55646">
        <ele>1255</ele>
        <time>2014-06-21T13:35:36.000Z</time>
      </trkpt>
      <trkpt lat="44.25569" lon="3.55627">
        <ele>1254</ele>
        <time>2014-06-21T13:35:40.000Z</time>
      </trkpt>
      <trkpt lat="44.2556" lon="3.55608">
        <ele>1254</ele>
        <time>2014-06-21T13:35:44.000Z</time>
      </trkpt>
      <trkpt lat="44.2556" lon="3.55608">
        <ele>1254</ele>
        <time>2014-06-21T13:35:46.000Z</time>
      </trkpt>
      <trkpt lat="44.2556" lon="3.55608">
        <ele>1254</ele>
        <time>2014-06-21T13:35:48.000Z</time>
      </trkpt>
      <trkpt lat="44.2556" lon="3.55608">
        <ele>1254</ele>
        <time>2014-06-21T13:35:50.000Z</time>
      </trkpt>
      <trkpt lat="44.2556" lon="3.55608">
        <ele>1254</ele>
        <time>2014-06-21T13:35:53.000Z</time>
      </trkpt>
      <trkpt lat="44.2556" lon="3.55608">
        <ele>1254</ele>
        <time>2014-06-21T13:35:54.000Z</time>
      </trkpt>
      <trkpt lat="44.2556" lon="3.55608">
        <ele>1254</ele>
        <time>2014-06-21T13:35:56.000Z</time>
      </trkpt>
      <trkpt lat="44.25529" lon="3.55548">
        <ele>1252</ele>
        <time>2014-06-21T13:36:06.000Z</time>
      </trkpt>
      <trkpt lat="44.25529" lon="3.55548">
        <ele>1252</ele>
        <time>2014-06-21T13:36:10.000Z</time>
      </trkpt>
      <trkpt lat="44.25529" lon="3.55548">
        <ele>1252</ele>
        <time>2014-06-21T13:36:12.000Z</time>
      </trkpt>
      <trkpt lat="44.25529" lon="3.55548">
        <ele>1252</ele>
        <time>2014-06-21T13:36:14.000Z</time>
      </trkpt>
      <trkpt lat="44.25514" lon="3.55516">
        <ele>1252</ele>
        <time>2014-06-21T13:36:18.000Z</time>
      </trkpt>
      <trkpt lat="44.25508" lon="3.55504">
        <ele>1252</ele>
        <time>2014-06-21T13:36:22.000Z</time>
      </trkpt>
      <trkpt lat="44.25502" lon="3.55492">
        <ele>1251</ele>
        <time>2014-06-21T13:36:26.000Z</time>
      </trkpt>
      <trkpt lat="44.25502" lon="3.55492">
        <ele>1251</ele>
        <time>2014-06-21T13:36:28.000Z</time>
      </trkpt>
      <trkpt lat="44.25502" lon="3.55492">
        <ele>1251</ele>
        <time>2014-06-21T13:36:30.000Z</time>
      </trkpt>
      <trkpt lat="44.25502" lon="3.55492">
        <ele>1251</ele>
        <time>2014-06-21T13:36:32.000Z</time>
      </trkpt>
      <trkpt lat="44.25502" lon="3.55492">
        <ele>1251</ele>
        <time>2014-06-21T13:36:34.000Z</time>
      </trkpt>
      <trkpt lat="44.25502" lon="3.55492">
        <ele>1251</ele>
        <time>2014-06-21T13:36:36.000Z</time>
      </trkpt>
      <trkpt lat="44.25502" lon="3.55492">
        <ele>1251</ele>
        <time>2014-06-21T13:36:38.000Z</time>
      </trkpt>
      <trkpt lat="44.25502" lon="3.55492">
        <ele>1251</ele>
        <time>2014-06-21T13:36:40.000Z</time>
      </trkpt>
      <trkpt lat="44.25495" lon="3.55479">
        <ele>1250</ele>
        <time>2014-06-21T13:37:16.000Z</time>
      </trkpt>
      <trkpt lat="44.2549" lon="3.55469">
        <ele>1250</ele>
        <time>2014-06-21T13:37:18.000Z</time>
      </trkpt>
      <trkpt lat="44.25486" lon="3.55463">
        <ele>1250</ele>
        <time>2014-06-21T13:37:20.000Z</time>
      </trkpt>
      <trkpt lat="44.25484" lon="3.55457">
        <ele>1250</ele>
        <time>2014-06-21T13:37:22.000Z</time>
      </trkpt>
      <trkpt lat="44.25484" lon="3.55457">
        <ele>1250</ele>
        <time>2014-06-21T13:37:24.000Z</time>
      </trkpt>
      <trkpt lat="44.25484" lon="3.55457">
        <ele>1250</ele>
        <time>2014-06-21T13:37:26.000Z</time>
      </trkpt>
      <trkpt lat="44.25484" lon="3.55457">
        <ele>1250</ele>
        <time>2014-06-21T13:37:28.000Z</time>
      </trkpt>
      <trkpt lat="44.25484" lon="3.55457">
        <ele>1250</ele>
        <time>2014-06-21T13:37:30.000Z</time>
      </trkpt>
      <trkpt lat="44.25484" lon="3.55457">
        <ele>1250</ele>
        <time>2014-06-21T13:37:38.000Z</time>
      </trkpt>
      <trkpt lat="44.25484" lon="3.55457">
        <ele>1250</ele>
        <time>2014-06-21T13:37:42.000Z</time>
      </trkpt>
      <trkpt lat="44.25484" lon="3.55457">
        <ele>1250</ele>
        <time>2014-06-21T13:37:48.000Z</time>
      </trkpt>
      <trkpt lat="44.25484" lon="3.55457">
        <ele>1250</ele>
        <time>2014-06-21T13:37:50.000Z</time>
      </trkpt>
      <trkpt lat="44.25484" lon="3.55457">
        <ele>1250</ele>
        <time>2014-06-21T13:37:52.000Z</time>
      </trkpt>
      <trkpt lat="44.25484" lon="3.55457">
        <ele>1250</ele>
        <time>2014-06-21T13:37:58.000Z</time>
      </trkpt>
      <trkpt lat="44.25484" lon="3.55457">
        <ele>1250</ele>
        <time>2014-06-21T13:38:00.000Z</time>
      </trkpt>
      <trkpt lat="44.25484" lon="3.55457">
        <ele>1250</ele>
        <time>2014-06-21T13:38:02.000Z</time>
      </trkpt>
      <trkpt lat="44.25484" lon="3.55457">
        <ele>1250</ele>
        <time>2014-06-21T13:38:10.000Z</time>
      </trkpt>
      <trkpt lat="44.25484" lon="3.55457">
        <ele>1250</ele>
        <time>2014-06-21T13:38:12.000Z</time>
      </trkpt>
      <trkpt lat="44.25466" lon="3.55419">
        <ele>1258</ele>
        <time>2014-06-21T13:38:16.000Z</time>
      </trkpt>
      <trkpt lat="44.25457" lon="3.55399">
        <ele>1258</ele>
        <time>2014-06-21T13:38:18.000Z</time>
      </trkpt>
      <trkpt lat="44.25452" lon="3.55388">
        <ele>1259</ele>
        <time>2014-06-21T13:38:20.000Z</time>
      </trkpt>
      <trkpt lat="44.25448" lon="3.55382">
        <ele>1259</ele>
        <time>2014-06-21T13:38:22.000Z</time>
      </trkpt>
      <trkpt lat="44.25448" lon="3.55382">
        <ele>1259</ele>
        <time>2014-06-21T13:38:24.000Z</time>
      </trkpt>
      <trkpt lat="44.25448" lon="3.55382">
        <ele>1259</ele>
        <time>2014-06-21T13:38:26.000Z</time>
      </trkpt>
      <trkpt lat="44.25444" lon="3.55376">
        <ele>1260</ele>
        <time>2014-06-21T13:38:28.000Z</time>
      </trkpt>
      <trkpt lat="44.25441" lon="3.55371">
        <ele>1261</ele>
        <time>2014-06-21T13:38:32.000Z</time>
      </trkpt>
      <trkpt lat="44.25441" lon="3.55371">
        <ele>1261</ele>
        <time>2014-06-21T13:38:36.000Z</time>
      </trkpt>
      <trkpt lat="44.25441" lon="3.55371">
        <ele>1261</ele>
        <time>2014-06-21T13:38:38.000Z</time>
      </trkpt>
      <trkpt lat="44.25441" lon="3.55371">
        <ele>1261</ele>
        <time>2014-06-21T13:38:40.000Z</time>
      </trkpt>
      <trkpt lat="44.25441" lon="3.55371">
        <ele>1261</ele>
        <time>2014-06-21T13:38:42.000Z</time>
      </trkpt>
      <trkpt lat="44.25441" lon="3.55371">
        <ele>1261</ele>
        <time>2014-06-21T13:38:44.000Z</time>
      </trkpt>
      <trkpt lat="44.25441" lon="3.55371">
        <ele>1261</ele>
        <time>2014-06-21T13:38:46.000Z</time>
      </trkpt>
      <trkpt lat="44.25441" lon="3.55371">
        <ele>1261</ele>
        <time>2014-06-21T13:38:48.000Z</time>
      </trkpt>
      <trkpt lat="44.25441" lon="3.55371">
        <ele>1261</ele>
        <time>2014-06-21T13:38:50.000Z</time>
      </trkpt>
      <trkpt lat="44.25441" lon="3.55371">
        <ele>1261</ele>
        <time>2014-06-21T13:38:52.000Z</time>
      </trkpt>
      <trkpt lat="44.25441" lon="3.55371">
        <ele>1261</ele>
        <time>2014-06-21T13:38:54.000Z</time>
      </trkpt>
      <trkpt lat="44.25433" lon="3.55354">
        <ele>1264</ele>
        <time>2014-06-21T13:38:58.000Z</time>
      </trkpt>
      <trkpt lat="44.25429" lon="3.55345">
        <ele>1265</ele>
        <time>2014-06-21T13:39:00.000Z</time>
      </trkpt>
      <trkpt lat="44.25426" lon="3.55339">
        <ele>1265</ele>
        <time>2014-06-21T13:39:02.000Z</time>
      </trkpt>
      <trkpt lat="44.25422" lon="3.55334">
        <ele>1266</ele>
        <time>2014-06-21T13:39:06.000Z</time>
      </trkpt>
      <trkpt lat="44.25418" lon="3.5533">
        <ele>1265</ele>
        <time>2014-06-21T13:39:10.000Z</time>
      </trkpt>
      <trkpt lat="44.25414" lon="3.55325">
        <ele>1265</ele>
        <time>2014-06-21T13:39:16.000Z</time>
      </trkpt>
      <trkpt lat="44.25414" lon="3.55325">
        <ele>1265</ele>
        <time>2014-06-21T13:39:18.000Z</time>
      </trkpt>
      <trkpt lat="44.25414" lon="3.55325">
        <ele>1265</ele>
        <time>2014-06-21T13:39:20.000Z</time>
      </trkpt>
      <trkpt lat="44.25414" lon="3.55325">
        <ele>1265</ele>
        <time>2014-06-21T13:39:22.000Z</time>
      </trkpt>
      <trkpt lat="44.25414" lon="3.55325">
        <ele>1265</ele>
        <time>2014-06-21T13:39:24.000Z</time>
      </trkpt>
      <trkpt lat="44.2541" lon="3.5531">
        <ele>1265</ele>
        <time>2014-06-21T13:39:32.000Z</time>
      </trkpt>
      <trkpt lat="44.25408" lon="3.55302">
        <ele>1265</ele>
        <time>2014-06-21T13:39:34.000Z</time>
      </trkpt>
      <trkpt lat="44.25408" lon="3.55302">
        <ele>1265</ele>
        <time>2014-06-21T13:39:36.000Z</time>
      </trkpt>
      <trkpt lat="44.25408" lon="3.55302">
        <ele>1265</ele>
        <time>2014-06-21T13:39:38.000Z</time>
      </trkpt>
      <trkpt lat="44.25405" lon="3.55294">
        <ele>1266</ele>
        <time>2014-06-21T13:39:42.000Z</time>
      </trkpt>
      <trkpt lat="44.25402" lon="3.55287">
        <ele>1266</ele>
        <time>2014-06-21T13:39:46.000Z</time>
      </trkpt>
      <trkpt lat="44.25398" lon="3.5528">
        <ele>1266</ele>
        <time>2014-06-21T13:39:50.000Z</time>
      </trkpt>
      <trkpt lat="44.25396" lon="3.55275">
        <ele>1267</ele>
        <time>2014-06-21T13:39:52.000Z</time>
      </trkpt>
      <trkpt lat="44.25393" lon="3.55267">
        <ele>1267</ele>
        <time>2014-06-21T13:39:56.000Z</time>
      </trkpt>
      <trkpt lat="44.2539" lon="3.55262">
        <ele>1267</ele>
        <time>2014-06-21T13:39:58.000Z</time>
      </trkpt>
      <trkpt lat="44.2539" lon="3.55262">
        <ele>1267</ele>
        <time>2014-06-21T13:40:00.000Z</time>
      </trkpt>
      <trkpt lat="44.25387" lon="3.55255">
        <ele>1266</ele>
        <time>2014-06-21T13:40:02.000Z</time>
      </trkpt>
      <trkpt lat="44.25387" lon="3.55255">
        <ele>1266</ele>
        <time>2014-06-21T13:40:06.000Z</time>
      </trkpt>
      <trkpt lat="44.25387" lon="3.55255">
        <ele>1266</ele>
        <time>2014-06-21T13:40:08.000Z</time>
      </trkpt>
      <trkpt lat="44.25387" lon="3.55255">
        <ele>1266</ele>
        <time>2014-06-21T13:40:10.000Z</time>
      </trkpt>
      <trkpt lat="44.25387" lon="3.55255">
        <ele>1266</ele>
        <time>2014-06-21T13:40:12.000Z</time>
      </trkpt>
      <trkpt lat="44.2538" lon="3.55241">
        <ele>1268</ele>
        <time>2014-06-21T13:40:14.000Z</time>
      </trkpt>
      <trkpt lat="44.25376" lon="3.55231">
        <ele>1268</ele>
        <time>2014-06-21T13:40:16.000Z</time>
      </trkpt>
      <trkpt lat="44.25373" lon="3.55224">
        <ele>1269</ele>
        <time>2014-06-21T13:40:18.000Z</time>
      </trkpt>
      <trkpt lat="44.2537" lon="3.55217">
        <ele>1268</ele>
        <time>2014-06-21T13:40:22.000Z</time>
      </trkpt>
      <trkpt lat="44.25368" lon="3.5521">
        <ele>1269</ele>
        <time>2014-06-21T13:40:24.000Z</time>
      </trkpt>
      <trkpt lat="44.25368" lon="3.5521">
        <ele>1269</ele>
        <time>2014-06-21T13:40:26.000Z</time>
      </trkpt>
      <trkpt lat="44.25365" lon="3.55203">
        <ele>1268</ele>
        <time>2014-06-21T13:40:28.000Z</time>
      </trkpt>
      <trkpt lat="44.25365" lon="3.55203">
        <ele>1268</ele>
        <time>2014-06-21T13:40:30.000Z</time>
      </trkpt>
      <trkpt lat="44.25365" lon="3.55203">
        <ele>1268</ele>
        <time>2014-06-21T13:40:32.000Z</time>
      </trkpt>
      <trkpt lat="44.25365" lon="3.55203">
        <ele>1268</ele>
        <time>2014-06-21T13:40:34.000Z</time>
      </trkpt>
      <trkpt lat="44.25365" lon="3.55203">
        <ele>1268</ele>
        <time>2014-06-21T13:40:36.000Z</time>
      </trkpt>
      <trkpt lat="44.25365" lon="3.55203">
        <ele>1268</ele>
        <time>2014-06-21T13:40:37.000Z</time>
      </trkpt>
      <trkpt lat="44.25365" lon="3.55203">
        <ele>1268</ele>
        <time>2014-06-21T13:40:39.000Z</time>
      </trkpt>
      <trkpt lat="44.25365" lon="3.55203">
        <ele>1268</ele>
        <time>2014-06-21T13:40:43.000Z</time>
      </trkpt>
      <trkpt lat="44.2536" lon="3.55191">
        <ele>1266</ele>
        <time>2014-06-21T13:41:56.000Z</time>
      </trkpt>
      <trkpt lat="44.25357" lon="3.55182">
        <ele>1266</ele>
        <time>2014-06-21T13:41:58.000Z</time>
      </trkpt>
      <trkpt lat="44.25355" lon="3.55174">
        <ele>1267</ele>
        <time>2014-06-21T13:42:00.000Z</time>
      </trkpt>
      <trkpt lat="44.25352" lon="3.55167">
        <ele>1266</ele>
        <time>2014-06-21T13:42:02.000Z</time>
      </trkpt>
      <trkpt lat="44.25349" lon="3.5516">
        <ele>1265</ele>
        <time>2014-06-21T13:42:04.000Z</time>
      </trkpt>
      <trkpt lat="44.25343" lon="3.55145">
        <ele>1265</ele>
        <time>2014-06-21T13:42:06.000Z</time>
      </trkpt>
      <trkpt lat="44.25335" lon="3.55125">
        <ele>1264</ele>
        <time>2014-06-21T13:42:10.000Z</time>
      </trkpt>
      <trkpt lat="44.2533" lon="3.55114">
        <ele>1265</ele>
        <time>2014-06-21T13:42:12.000Z</time>
      </trkpt>
      <trkpt lat="44.25326" lon="3.55102">
        <ele>1265</ele>
        <time>2014-06-21T13:42:14.000Z</time>
      </trkpt>
      <trkpt lat="44.25321" lon="3.5509">
        <ele>1264</ele>
        <time>2014-06-21T13:42:16.000Z</time>
      </trkpt>
      <trkpt lat="44.25316" lon="3.55079">
        <ele>1263</ele>
        <time>2014-06-21T13:42:18.000Z</time>
      </trkpt>
      <trkpt lat="44.25311" lon="3.55067">
        <ele>1263</ele>
        <time>2014-06-21T13:42:20.000Z</time>
      </trkpt>
      <trkpt lat="44.25306" lon="3.55053">
        <ele>1263</ele>
        <time>2014-06-21T13:42:22.000Z</time>
      </trkpt>
      <trkpt lat="44.25301" lon="3.5504">
        <ele>1262</ele>
        <time>2014-06-21T13:42:25.000Z</time>
      </trkpt>
      <trkpt lat="44.25295" lon="3.55027">
        <ele>1262</ele>
        <time>2014-06-21T13:42:26.000Z</time>
      </trkpt>
      <trkpt lat="44.25289" lon="3.55012">
        <ele>1261</ele>
        <time>2014-06-21T13:42:28.000Z</time>
      </trkpt>
      <trkpt lat="44.25283" lon="3.54999">
        <ele>1260</ele>
        <time>2014-06-21T13:42:30.000Z</time>
      </trkpt>
      <trkpt lat="44.25279" lon="3.54985">
        <ele>1259</ele>
        <time>2014-06-21T13:42:32.000Z</time>
      </trkpt>
      <trkpt lat="44.25279" lon="3.54985">
        <ele>1259</ele>
        <time>2014-06-21T13:42:34.000Z</time>
      </trkpt>
      <trkpt lat="44.25279" lon="3.54985">
        <ele>1259</ele>
        <time>2014-06-21T13:42:36.000Z</time>
      </trkpt>
      <trkpt lat="44.25279" lon="3.54985">
        <ele>1259</ele>
        <time>2014-06-21T13:42:38.000Z</time>
      </trkpt>
      <trkpt lat="44.25279" lon="3.54985">
        <ele>1259</ele>
        <time>2014-06-21T13:42:40.000Z</time>
      </trkpt>
      <trkpt lat="44.25279" lon="3.54985">
        <ele>1259</ele>
        <time>2014-06-21T13:42:42.000Z</time>
      </trkpt>
      <trkpt lat="44.25279" lon="3.54985">
        <ele>1259</ele>
        <time>2014-06-21T13:42:44.000Z</time>
      </trkpt>
      <trkpt lat="44.25279" lon="3.54985">
        <ele>1259</ele>
        <time>2014-06-21T13:42:46.000Z</time>
      </trkpt>
      <trkpt lat="44.25279" lon="3.54985">
        <ele>1259</ele>
        <time>2014-06-21T13:42:48.000Z</time>
      </trkpt>
      <trkpt lat="44.25279" lon="3.54985">
        <ele>1259</ele>
        <time>2014-06-21T13:42:50.000Z</time>
      </trkpt>
      <trkpt lat="44.25279" lon="3.54985">
        <ele>1259</ele>
        <time>2014-06-21T13:42:52.000Z</time>
      </trkpt>
      <trkpt lat="44.25279" lon="3.54985">
        <ele>1259</ele>
        <time>2014-06-21T13:42:54.000Z</time>
      </trkpt>
      <trkpt lat="44.25279" lon="3.54985">
        <ele>1259</ele>
        <time>2014-06-21T13:42:58.000Z</time>
      </trkpt>
      <trkpt lat="44.25279" lon="3.54985">
        <ele>1259</ele>
        <time>2014-06-21T13:43:00.000Z</time>
      </trkpt>
      <trkpt lat="44.25279" lon="3.54985">
        <ele>1259</ele>
        <time>2014-06-21T13:43:02.000Z</time>
      </trkpt>
      <trkpt lat="44.25279" lon="3.54985">
        <ele>1259</ele>
        <time>2014-06-21T13:43:04.000Z</time>
      </trkpt>
      <trkpt lat="44.25236" lon="3.54885">
        <ele>1261</ele>
        <time>2014-06-21T13:43:10.000Z</time>
      </trkpt>
      <trkpt lat="44.25229" lon="3.54869">
        <ele>1261</ele>
        <time>2014-06-21T13:43:16.000Z</time>
      </trkpt>
      <trkpt lat="44.25224" lon="3.54858">
        <ele>1260</ele>
        <time>2014-06-21T13:43:20.000Z</time>
      </trkpt>
      <trkpt lat="44.25217" lon="3.54841">
        <ele>1261</ele>
        <time>2014-06-21T13:43:26.000Z</time>
      </trkpt>
      <trkpt lat="44.25217" lon="3.54841">
        <ele>1261</ele>
        <time>2014-06-21T13:43:28.000Z</time>
      </trkpt>
      <trkpt lat="44.25217" lon="3.54841">
        <ele>1261</ele>
        <time>2014-06-21T13:43:30.000Z</time>
      </trkpt>
      <trkpt lat="44.25217" lon="3.54841">
        <ele>1261</ele>
        <time>2014-06-21T13:43:32.000Z</time>
      </trkpt>
      <trkpt lat="44.25217" lon="3.54841">
        <ele>1261</ele>
        <time>2014-06-21T13:43:34.000Z</time>
      </trkpt>
      <trkpt lat="44.25217" lon="3.54841">
        <ele>1261</ele>
        <time>2014-06-21T13:43:36.000Z</time>
      </trkpt>
      <trkpt lat="44.25217" lon="3.54841">
        <ele>1261</ele>
        <time>2014-06-21T13:43:38.000Z</time>
      </trkpt>
      <trkpt lat="44.25217" lon="3.54841">
        <ele>1261</ele>
        <time>2014-06-21T13:43:40.000Z</time>
      </trkpt>
      <trkpt lat="44.25217" lon="3.54841">
        <ele>1261</ele>
        <time>2014-06-21T13:43:42.000Z</time>
      </trkpt>
      <trkpt lat="44.25207" lon="3.54826">
        <ele>1259</ele>
        <time>2014-06-21T13:43:44.000Z</time>
      </trkpt>
      <trkpt lat="44.252" lon="3.54818">
        <ele>1259</ele>
        <time>2014-06-21T13:43:46.000Z</time>
      </trkpt>
      <trkpt lat="44.25194" lon="3.54813">
        <ele>1259</ele>
        <time>2014-06-21T13:43:48.000Z</time>
      </trkpt>
      <trkpt lat="44.25189" lon="3.54809">
        <ele>1259</ele>
        <time>2014-06-21T13:43:50.000Z</time>
      </trkpt>
      <trkpt lat="44.25185" lon="3.54807">
        <ele>1258</ele>
        <time>2014-06-21T13:43:52.000Z</time>
      </trkpt>
      <trkpt lat="44.25185" lon="3.54807">
        <ele>1258</ele>
        <time>2014-06-21T13:43:54.000Z</time>
      </trkpt>
      <trkpt lat="44.25185" lon="3.54807">
        <ele>1258</ele>
        <time>2014-06-21T13:43:56.000Z</time>
      </trkpt>
      <trkpt lat="44.25185" lon="3.54807">
        <ele>1258</ele>
        <time>2014-06-21T13:43:58.000Z</time>
      </trkpt>
      <trkpt lat="44.25185" lon="3.54807">
        <ele>1258</ele>
        <time>2014-06-21T13:44:00.000Z</time>
      </trkpt>
      <trkpt lat="44.25185" lon="3.54807">
        <ele>1258</ele>
        <time>2014-06-21T13:44:02.000Z</time>
      </trkpt>
      <trkpt lat="44.25185" lon="3.54807">
        <ele>1258</ele>
        <time>2014-06-21T13:44:04.000Z</time>
      </trkpt>
      <trkpt lat="44.25185" lon="3.54807">
        <ele>1258</ele>
        <time>2014-06-21T13:44:06.000Z</time>
      </trkpt>
      <trkpt lat="44.25172" lon="3.54801">
        <ele>1257</ele>
        <time>2014-06-21T13:45:08.000Z</time>
      </trkpt>
      <trkpt lat="44.25164" lon="3.54796">
        <ele>1258</ele>
        <time>2014-06-21T13:45:10.000Z</time>
      </trkpt>
      <trkpt lat="44.25158" lon="3.54793">
        <ele>1258</ele>
        <time>2014-06-21T13:45:12.000Z</time>
      </trkpt>
      <trkpt lat="44.25153" lon="3.54791">
        <ele>1257</ele>
        <time>2014-06-21T13:45:14.000Z</time>
      </trkpt>
      <trkpt lat="44.25148" lon="3.54788">
        <ele>1258</ele>
        <time>2014-06-21T13:45:18.000Z</time>
      </trkpt>
      <trkpt lat="44.25143" lon="3.54786">
        <ele>1257</ele>
        <time>2014-06-21T13:45:20.000Z</time>
      </trkpt>
      <trkpt lat="44.25143" lon="3.54786">
        <ele>1257</ele>
        <time>2014-06-21T13:45:24.000Z</time>
      </trkpt>
      <trkpt lat="44.25143" lon="3.54786">
        <ele>1257</ele>
        <time>2014-06-21T13:45:26.000Z</time>
      </trkpt>
      <trkpt lat="44.25143" lon="3.54786">
        <ele>1257</ele>
        <time>2014-06-21T13:45:28.000Z</time>
      </trkpt>
      <trkpt lat="44.25143" lon="3.54786">
        <ele>1257</ele>
        <time>2014-06-21T13:45:30.000Z</time>
      </trkpt>
      <trkpt lat="44.25131" lon="3.54781">
        <ele>1257</ele>
        <time>2014-06-21T13:45:44.000Z</time>
      </trkpt>
      <trkpt lat="44.25123" lon="3.54777">
        <ele>1257</ele>
        <time>2014-06-21T13:45:46.000Z</time>
      </trkpt>
      <trkpt lat="44.25116" lon="3.54774">
        <ele>1256</ele>
        <time>2014-06-21T13:45:48.000Z</time>
      </trkpt>
      <trkpt lat="44.2511" lon="3.54772">
        <ele>1255</ele>
        <time>2014-06-21T13:45:50.000Z</time>
      </trkpt>
      <trkpt lat="44.25105" lon="3.54769">
        <ele>1255</ele>
        <time>2014-06-21T13:45:52.000Z</time>
      </trkpt>
      <trkpt lat="44.25095" lon="3.54765">
        <ele>1255</ele>
        <time>2014-06-21T13:45:54.000Z</time>
      </trkpt>
      <trkpt lat="44.25095" lon="3.54765">
        <ele>1255</ele>
        <time>2014-06-21T13:45:56.000Z</time>
      </trkpt>
      <trkpt lat="44.25095" lon="3.54765">
        <ele>1255</ele>
        <time>2014-06-21T13:45:58.000Z</time>
      </trkpt>
      <trkpt lat="44.25095" lon="3.54765">
        <ele>1255</ele>
        <time>2014-06-21T13:46:00.000Z</time>
      </trkpt>
      <trkpt lat="44.25095" lon="3.54765">
        <ele>1255</ele>
        <time>2014-06-21T13:46:02.000Z</time>
      </trkpt>
      <trkpt lat="44.25095" lon="3.54765">
        <ele>1255</ele>
        <time>2014-06-21T13:46:04.000Z</time>
      </trkpt>
      <trkpt lat="44.25095" lon="3.54765">
        <ele>1255</ele>
        <time>2014-06-21T13:46:06.000Z</time>
      </trkpt>
      <trkpt lat="44.25064" lon="3.54753">
        <ele>1251</ele>
        <time>2014-06-21T13:46:10.000Z</time>
      </trkpt>
      <trkpt lat="44.25064" lon="3.54753">
        <ele>1251</ele>
        <time>2014-06-21T13:46:16.000Z</time>
      </trkpt>
      <trkpt lat="44.25064" lon="3.54753">
        <ele>1251</ele>
        <time>2014-06-21T13:46:18.000Z</time>
      </trkpt>
      <trkpt lat="44.25064" lon="3.54753">
        <ele>1251</ele>
        <time>2014-06-21T13:46:20.000Z</time>
      </trkpt>
      <trkpt lat="44.25064" lon="3.54753">
        <ele>1251</ele>
        <time>2014-06-21T13:46:22.000Z</time>
      </trkpt>
      <trkpt lat="44.25064" lon="3.54753">
        <ele>1251</ele>
        <time>2014-06-21T13:46:24.000Z</time>
      </trkpt>
      <trkpt lat="44.25064" lon="3.54753">
        <ele>1251</ele>
        <time>2014-06-21T13:46:26.000Z</time>
      </trkpt>
      <trkpt lat="44.25028" lon="3.54741">
        <ele>1245</ele>
        <time>2014-06-21T13:46:30.000Z</time>
      </trkpt>
      <trkpt lat="44.25014" lon="3.54737">
        <ele>1242</ele>
        <time>2014-06-21T13:46:36.000Z</time>
      </trkpt>
      <trkpt lat="44.25005" lon="3.54734">
        <ele>1241</ele>
        <time>2014-06-21T13:46:40.000Z</time>
      </trkpt>
      <trkpt lat="44.24995" lon="3.5473">
        <ele>1239</ele>
        <time>2014-06-21T13:46:44.000Z</time>
      </trkpt>
      <trkpt lat="44.24984" lon="3.54729">
        <ele>1237</ele>
        <time>2014-06-21T13:46:48.000Z</time>
      </trkpt>
      <trkpt lat="44.24984" lon="3.54729">
        <ele>1237</ele>
        <time>2014-06-21T13:46:50.000Z</time>
      </trkpt>
      <trkpt lat="44.24973" lon="3.54726">
        <ele>1235</ele>
        <time>2014-06-21T13:46:52.000Z</time>
      </trkpt>
      <trkpt lat="44.24962" lon="3.54722">
        <ele>1234</ele>
        <time>2014-06-21T13:46:56.000Z</time>
      </trkpt>
      <trkpt lat="44.2495" lon="3.54716">
        <ele>1233</ele>
        <time>2014-06-21T13:47:00.000Z</time>
      </trkpt>
      <trkpt lat="44.24936" lon="3.54709">
        <ele>1231</ele>
        <time>2014-06-21T13:47:04.000Z</time>
      </trkpt>
      <trkpt lat="44.2492" lon="3.54705">
        <ele>1230</ele>
        <time>2014-06-21T13:47:08.000Z</time>
      </trkpt>
      <trkpt lat="44.24912" lon="3.54696">
        <ele>1228</ele>
        <time>2014-06-21T13:47:10.000Z</time>
      </trkpt>
      <trkpt lat="44.24901" lon="3.54678">
        <ele>1227</ele>
        <time>2014-06-21T13:47:14.000Z</time>
      </trkpt>
      <trkpt lat="44.24901" lon="3.54678">
        <ele>1227</ele>
        <time>2014-06-21T13:47:16.000Z</time>
      </trkpt>
      <trkpt lat="44.24901" lon="3.54678">
        <ele>1227</ele>
        <time>2014-06-21T13:47:18.000Z</time>
      </trkpt>
      <trkpt lat="44.24901" lon="3.54678">
        <ele>1227</ele>
        <time>2014-06-21T13:47:20.000Z</time>
      </trkpt>
      <trkpt lat="44.24901" lon="3.54678">
        <ele>1227</ele>
        <time>2014-06-21T13:47:22.000Z</time>
      </trkpt>
      <trkpt lat="44.24901" lon="3.54678">
        <ele>1227</ele>
        <time>2014-06-21T13:47:24.000Z</time>
      </trkpt>
      <trkpt lat="44.24901" lon="3.54678">
        <ele>1227</ele>
        <time>2014-06-21T13:47:26.000Z</time>
      </trkpt>
      <trkpt lat="44.24901" lon="3.54678">
        <ele>1227</ele>
        <time>2014-06-21T13:47:28.000Z</time>
      </trkpt>
      <trkpt lat="44.24901" lon="3.54678">
        <ele>1227</ele>
        <time>2014-06-21T13:47:30.000Z</time>
      </trkpt>
      <trkpt lat="44.24901" lon="3.54678">
        <ele>1227</ele>
        <time>2014-06-21T13:47:32.000Z</time>
      </trkpt>
      <trkpt lat="44.24901" lon="3.54678">
        <ele>1227</ele>
        <time>2014-06-21T13:47:36.000Z</time>
      </trkpt>
      <trkpt lat="44.24901" lon="3.54678">
        <ele>1227</ele>
        <time>2014-06-21T13:47:38.000Z</time>
      </trkpt>
      <trkpt lat="44.24901" lon="3.54678">
        <ele>1227</ele>
        <time>2014-06-21T13:47:40.000Z</time>
      </trkpt>
      <trkpt lat="44.24901" lon="3.54678">
        <ele>1227</ele>
        <time>2014-06-21T13:47:44.000Z</time>
      </trkpt>
      <trkpt lat="44.24901" lon="3.54678">
        <ele>1227</ele>
        <time>2014-06-21T13:47:46.000Z</time>
      </trkpt>
      <trkpt lat="44.24901" lon="3.54678">
        <ele>1227</ele>
        <time>2014-06-21T13:47:48.000Z</time>
      </trkpt>
      <trkpt lat="44.24901" lon="3.54678">
        <ele>1227</ele>
        <time>2014-06-21T13:47:50.000Z</time>
      </trkpt>
      <trkpt lat="44.24901" lon="3.54678">
        <ele>1227</ele>
        <time>2014-06-21T13:47:52.000Z</time>
      </trkpt>
      <trkpt lat="44.24901" lon="3.54678">
        <ele>1227</ele>
        <time>2014-06-21T13:47:54.000Z</time>
      </trkpt>
      <trkpt lat="44.24901" lon="3.54678">
        <ele>1227</ele>
        <time>2014-06-21T13:47:56.000Z</time>
      </trkpt>
      <trkpt lat="44.24878" lon="3.54637">
        <ele>1238</ele>
        <time>2014-06-21T13:48:02.000Z</time>
      </trkpt>
      <trkpt lat="44.24866" lon="3.54616">
        <ele>1238</ele>
        <time>2014-06-21T13:48:04.000Z</time>
      </trkpt>
      <trkpt lat="44.2486" lon="3.54603">
        <ele>1239</ele>
        <time>2014-06-21T13:48:06.000Z</time>
      </trkpt>
      <trkpt lat="44.24856" lon="3.54596">
        <ele>1239</ele>
        <time>2014-06-21T13:48:08.000Z</time>
      </trkpt>
      <trkpt lat="44.24853" lon="3.5459">
        <ele>1240</ele>
        <time>2014-06-21T13:48:12.000Z</time>
      </trkpt>
      <trkpt lat="44.24853" lon="3.5459">
        <ele>1240</ele>
        <time>2014-06-21T13:48:14.000Z</time>
      </trkpt>
      <trkpt lat="44.24853" lon="3.5459">
        <ele>1240</ele>
        <time>2014-06-21T13:48:16.000Z</time>
      </trkpt>
      <trkpt lat="44.24853" lon="3.5459">
        <ele>1240</ele>
        <time>2014-06-21T13:48:18.000Z</time>
      </trkpt>
      <trkpt lat="44.24848" lon="3.54581">
        <ele>1241</ele>
        <time>2014-06-21T13:48:22.000Z</time>
      </trkpt>
      <trkpt lat="44.24846" lon="3.54576">
        <ele>1242</ele>
        <time>2014-06-21T13:48:24.000Z</time>
      </trkpt>
      <trkpt lat="44.24846" lon="3.54576">
        <ele>1242</ele>
        <time>2014-06-21T13:48:28.000Z</time>
      </trkpt>
      <trkpt lat="44.24846" lon="3.54576">
        <ele>1242</ele>
        <time>2014-06-21T13:48:30.000Z</time>
      </trkpt>
      <trkpt lat="44.24846" lon="3.54576">
        <ele>1242</ele>
        <time>2014-06-21T13:48:32.000Z</time>
      </trkpt>
      <trkpt lat="44.24837" lon="3.54564">
        <ele>1244</ele>
        <time>2014-06-21T13:48:42.000Z</time>
      </trkpt>
      <trkpt lat="44.24833" lon="3.54557">
        <ele>1244</ele>
        <time>2014-06-21T13:48:44.000Z</time>
      </trkpt>
      <trkpt lat="44.24829" lon="3.54551">
        <ele>1244</ele>
        <time>2014-06-21T13:48:48.000Z</time>
      </trkpt>
      <trkpt lat="44.24826" lon="3.54546">
        <ele>1245</ele>
        <time>2014-06-21T13:48:52.000Z</time>
      </trkpt>
      <trkpt lat="44.24826" lon="3.54546">
        <ele>1245</ele>
        <time>2014-06-21T13:48:54.000Z</time>
      </trkpt>
      <trkpt lat="44.24826" lon="3.54546">
        <ele>1245</ele>
        <time>2014-06-21T13:48:56.000Z</time>
      </trkpt>
      <trkpt lat="44.24826" lon="3.54546">
        <ele>1245</ele>
        <time>2014-06-21T13:48:58.000Z</time>
      </trkpt>
      <trkpt lat="44.24826" lon="3.54546">
        <ele>1245</ele>
        <time>2014-06-21T13:49:00.000Z</time>
      </trkpt>
      <trkpt lat="44.24822" lon="3.54536">
        <ele>1246</ele>
        <time>2014-06-21T13:49:04.000Z</time>
      </trkpt>
      <trkpt lat="44.24819" lon="3.5453">
        <ele>1247</ele>
        <time>2014-06-21T13:49:06.000Z</time>
      </trkpt>
      <trkpt lat="44.24819" lon="3.5453">
        <ele>1247</ele>
        <time>2014-06-21T13:49:08.000Z</time>
      </trkpt>
      <trkpt lat="44.24817" lon="3.54525">
        <ele>1247</ele>
        <time>2014-06-21T13:49:10.000Z</time>
      </trkpt>
      <trkpt lat="44.24813" lon="3.5452">
        <ele>1248</ele>
        <time>2014-06-21T13:49:14.000Z</time>
      </trkpt>
      <trkpt lat="44.24813" lon="3.5452">
        <ele>1248</ele>
        <time>2014-06-21T13:49:16.000Z</time>
      </trkpt>
      <trkpt lat="44.24813" lon="3.5452">
        <ele>1248</ele>
        <time>2014-06-21T13:49:18.000Z</time>
      </trkpt>
      <trkpt lat="44.24813" lon="3.5452">
        <ele>1248</ele>
        <time>2014-06-21T13:49:20.000Z</time>
      </trkpt>
      <trkpt lat="44.24809" lon="3.54512">
        <ele>1248</ele>
        <time>2014-06-21T13:49:24.000Z</time>
      </trkpt>
      <trkpt lat="44.24809" lon="3.54512">
        <ele>1248</ele>
        <time>2014-06-21T13:49:26.000Z</time>
      </trkpt>
      <trkpt lat="44.24809" lon="3.54512">
        <ele>1248</ele>
        <time>2014-06-21T13:49:28.000Z</time>
      </trkpt>
      <trkpt lat="44.24809" lon="3.54512">
        <ele>1248</ele>
        <time>2014-06-21T13:49:30.000Z</time>
      </trkpt>
      <trkpt lat="44.24802" lon="3.54501">
        <ele>1249</ele>
        <time>2014-06-21T13:49:36.000Z</time>
      </trkpt>
      <trkpt lat="44.24798" lon="3.54495">
        <ele>1249</ele>
        <time>2014-06-21T13:49:38.000Z</time>
      </trkpt>
      <trkpt lat="44.24798" lon="3.54495">
        <ele>1249</ele>
        <time>2014-06-21T13:49:40.000Z</time>
      </trkpt>
      <trkpt lat="44.24798" lon="3.54495">
        <ele>1249</ele>
        <time>2014-06-21T13:49:42.000Z</time>
      </trkpt>
      <trkpt lat="44.24798" lon="3.54495">
        <ele>1249</ele>
        <time>2014-06-21T13:49:44.000Z</time>
      </trkpt>
      <trkpt lat="44.24791" lon="3.54485">
        <ele>1250</ele>
        <time>2014-06-21T13:49:52.000Z</time>
      </trkpt>
      <trkpt lat="44.24787" lon="3.5448">
        <ele>1251</ele>
        <time>2014-06-21T13:49:54.000Z</time>
      </trkpt>
      <trkpt lat="44.24783" lon="3.54475">
        <ele>1252</ele>
        <time>2014-06-21T13:49:58.000Z</time>
      </trkpt>
      <trkpt lat="44.24783" lon="3.54475">
        <ele>1252</ele>
        <time>2014-06-21T13:50:02.000Z</time>
      </trkpt>
      <trkpt lat="44.24783" lon="3.54475">
        <ele>1252</ele>
        <time>2014-06-21T13:50:04.000Z</time>
      </trkpt>
      <trkpt lat="44.24783" lon="3.54475">
        <ele>1252</ele>
        <time>2014-06-21T13:50:06.000Z</time>
      </trkpt>
      <trkpt lat="44.24777" lon="3.54467">
        <ele>1252</ele>
        <time>2014-06-21T13:50:10.000Z</time>
      </trkpt>
      <trkpt lat="44.24773" lon="3.54462">
        <ele>1252</ele>
        <time>2014-06-21T13:50:12.000Z</time>
      </trkpt>
      <trkpt lat="44.24773" lon="3.54462">
        <ele>1252</ele>
        <time>2014-06-21T13:50:14.000Z</time>
      </trkpt>
      <trkpt lat="44.24773" lon="3.54462">
        <ele>1252</ele>
        <time>2014-06-21T13:50:16.000Z</time>
      </trkpt>
      <trkpt lat="44.24768" lon="3.54455">
        <ele>1255</ele>
        <time>2014-06-21T13:50:22.000Z</time>
      </trkpt>
      <trkpt lat="44.24765" lon="3.5445">
        <ele>1255</ele>
        <time>2014-06-21T13:50:24.000Z</time>
      </trkpt>
      <trkpt lat="44.24765" lon="3.5445">
        <ele>1255</ele>
        <time>2014-06-21T13:50:26.000Z</time>
      </trkpt>
      <trkpt lat="44.24761" lon="3.54444">
        <ele>1256</ele>
        <time>2014-06-21T13:50:30.000Z</time>
      </trkpt>
      <trkpt lat="44.24761" lon="3.54444">
        <ele>1256</ele>
        <time>2014-06-21T13:50:34.000Z</time>
      </trkpt>
      <trkpt lat="44.24761" lon="3.54444">
        <ele>1256</ele>
        <time>2014-06-21T13:50:36.000Z</time>
      </trkpt>
      <trkpt lat="44.24761" lon="3.54444">
        <ele>1256</ele>
        <time>2014-06-21T13:50:40.000Z</time>
      </trkpt>
      <trkpt lat="44.24761" lon="3.54444">
        <ele>1256</ele>
        <time>2014-06-21T13:50:42.000Z</time>
      </trkpt>
      <trkpt lat="44.24761" lon="3.54444">
        <ele>1256</ele>
        <time>2014-06-21T13:50:44.000Z</time>
      </trkpt>
      <trkpt lat="44.24761" lon="3.54444">
        <ele>1256</ele>
        <time>2014-06-21T13:50:46.000Z</time>
      </trkpt>
      <trkpt lat="44.24753" lon="3.5443">
        <ele>1255</ele>
        <time>2014-06-21T13:50:50.000Z</time>
      </trkpt>
      <trkpt lat="44.24749" lon="3.54422">
        <ele>1256</ele>
        <time>2014-06-21T13:50:52.000Z</time>
      </trkpt>
      <trkpt lat="44.24746" lon="3.54417">
        <ele>1256</ele>
        <time>2014-06-21T13:50:54.000Z</time>
      </trkpt>
      <trkpt lat="44.24746" lon="3.54417">
        <ele>1256</ele>
        <time>2014-06-21T13:50:56.000Z</time>
      </trkpt>
      <trkpt lat="44.24746" lon="3.54417">
        <ele>1256</ele>
        <time>2014-06-21T13:50:58.000Z</time>
      </trkpt>
      <trkpt lat="44.24746" lon="3.54417">
        <ele>1256</ele>
        <time>2014-06-21T13:51:00.000Z</time>
      </trkpt>
      <trkpt lat="44.24746" lon="3.54417">
        <ele>1256</ele>
        <time>2014-06-21T13:51:04.000Z</time>
      </trkpt>
      <trkpt lat="44.24746" lon="3.54417">
        <ele>1256</ele>
        <time>2014-06-21T13:51:06.000Z</time>
      </trkpt>
      <trkpt lat="44.24746" lon="3.54417">
        <ele>1256</ele>
        <time>2014-06-21T13:51:08.000Z</time>
      </trkpt>
      <trkpt lat="44.24746" lon="3.54417">
        <ele>1256</ele>
        <time>2014-06-21T13:51:12.000Z</time>
      </trkpt>
      <trkpt lat="44.2474" lon="3.54402">
        <ele>1261</ele>
        <time>2014-06-21T13:51:16.000Z</time>
      </trkpt>
      <trkpt lat="44.24736" lon="3.54393">
        <ele>1261</ele>
        <time>2014-06-21T13:51:18.000Z</time>
      </trkpt>
      <trkpt lat="44.24734" lon="3.54387">
        <ele>1261</ele>
        <time>2014-06-21T13:51:20.000Z</time>
      </trkpt>
      <trkpt lat="44.24731" lon="3.54382">
        <ele>1262</ele>
        <time>2014-06-21T13:51:26.000Z</time>
      </trkpt>
      <trkpt lat="44.24731" lon="3.54382">
        <ele>1262</ele>
        <time>2014-06-21T13:51:28.000Z</time>
      </trkpt>
      <trkpt lat="44.24731" lon="3.54382">
        <ele>1262</ele>
        <time>2014-06-21T13:51:34.000Z</time>
      </trkpt>
      <trkpt lat="44.24731" lon="3.54382">
        <ele>1262</ele>
        <time>2014-06-21T13:51:36.000Z</time>
      </trkpt>
      <trkpt lat="44.24731" lon="3.54382">
        <ele>1262</ele>
        <time>2014-06-21T13:51:38.000Z</time>
      </trkpt>
      <trkpt lat="44.24725" lon="3.54375">
        <ele>1263</ele>
        <time>2014-06-21T13:51:42.000Z</time>
      </trkpt>
      <trkpt lat="44.24721" lon="3.54371">
        <ele>1262</ele>
        <time>2014-06-21T13:51:44.000Z</time>
      </trkpt>
      <trkpt lat="44.24716" lon="3.5437">
        <ele>1261</ele>
        <time>2014-06-21T13:51:48.000Z</time>
      </trkpt>
      <trkpt lat="44.24716" lon="3.5437">
        <ele>1261</ele>
        <time>2014-06-21T13:51:52.000Z</time>
      </trkpt>
      <trkpt lat="44.24711" lon="3.5437">
        <ele>1262</ele>
        <time>2014-06-21T13:51:54.000Z</time>
      </trkpt>
      <trkpt lat="44.24711" lon="3.5437">
        <ele>1262</ele>
        <time>2014-06-21T13:51:56.000Z</time>
      </trkpt>
      <trkpt lat="44.24711" lon="3.5437">
        <ele>1262</ele>
        <time>2014-06-21T13:51:58.000Z</time>
      </trkpt>
      <trkpt lat="44.24711" lon="3.5437">
        <ele>1262</ele>
        <time>2014-06-21T13:52:00.000Z</time>
      </trkpt>
      <trkpt lat="44.24703" lon="3.54371">
        <ele>1262</ele>
        <time>2014-06-21T13:52:02.000Z</time>
      </trkpt>
      <trkpt lat="44.24699" lon="3.54372">
        <ele>1261</ele>
        <time>2014-06-21T13:52:04.000Z</time>
      </trkpt>
      <trkpt lat="44.24694" lon="3.54373">
        <ele>1261</ele>
        <time>2014-06-21T13:52:08.000Z</time>
      </trkpt>
      <trkpt lat="44.24694" lon="3.54373">
        <ele>1261</ele>
        <time>2014-06-21T13:52:10.000Z</time>
      </trkpt>
      <trkpt lat="44.24694" lon="3.54373">
        <ele>1261</ele>
        <time>2014-06-21T13:52:12.000Z</time>
      </trkpt>
      <trkpt lat="44.24687" lon="3.54375">
        <ele>1263</ele>
        <time>2014-06-21T13:52:18.000Z</time>
      </trkpt>
      <trkpt lat="44.24682" lon="3.54376">
        <ele>1262</ele>
        <time>2014-06-21T13:52:20.000Z</time>
      </trkpt>
      <trkpt lat="44.24682" lon="3.54376">
        <ele>1262</ele>
        <time>2014-06-21T13:52:22.000Z</time>
      </trkpt>
      <trkpt lat="44.24677" lon="3.54377">
        <ele>1262</ele>
        <time>2014-06-21T13:52:24.000Z</time>
      </trkpt>
      <trkpt lat="44.24677" lon="3.54377">
        <ele>1262</ele>
        <time>2014-06-21T13:52:26.000Z</time>
      </trkpt>
      <trkpt lat="44.24677" lon="3.54377">
        <ele>1262</ele>
        <time>2014-06-21T13:52:28.000Z</time>
      </trkpt>
      <trkpt lat="44.24677" lon="3.54377">
        <ele>1262</ele>
        <time>2014-06-21T13:52:30.000Z</time>
      </trkpt>
      <trkpt lat="44.24669" lon="3.54378">
        <ele>1262</ele>
        <time>2014-06-21T13:52:34.000Z</time>
      </trkpt>
      <trkpt lat="44.24664" lon="3.54379">
        <ele>1261</ele>
        <time>2014-06-21T13:52:36.000Z</time>
      </trkpt>
      <trkpt lat="44.24659" lon="3.54379">
        <ele>1262</ele>
        <time>2014-06-21T13:52:40.000Z</time>
      </trkpt>
      <trkpt lat="44.24654" lon="3.5438">
        <ele>1262</ele>
        <time>2014-06-21T13:52:44.000Z</time>
      </trkpt>
      <trkpt lat="44.24654" lon="3.5438">
        <ele>1262</ele>
        <time>2014-06-21T13:52:46.000Z</time>
      </trkpt>
      <trkpt lat="44.24654" lon="3.5438">
        <ele>1262</ele>
        <time>2014-06-21T13:52:48.000Z</time>
      </trkpt>
      <trkpt lat="44.24654" lon="3.5438">
        <ele>1262</ele>
        <time>2014-06-21T13:52:50.000Z</time>
      </trkpt>
      <trkpt lat="44.24654" lon="3.5438">
        <ele>1262</ele>
        <time>2014-06-21T13:52:52.000Z</time>
      </trkpt>
      <trkpt lat="44.24654" lon="3.5438">
        <ele>1262</ele>
        <time>2014-06-21T13:52:54.000Z</time>
      </trkpt>
      <trkpt lat="44.24642" lon="3.54382">
        <ele>1262</ele>
        <time>2014-06-21T13:53:55.000Z</time>
      </trkpt>
      <trkpt lat="44.24634" lon="3.54383">
        <ele>1261</ele>
        <time>2014-06-21T13:53:57.000Z</time>
      </trkpt>
      <trkpt lat="44.24628" lon="3.54384">
        <ele>1261</ele>
        <time>2014-06-21T13:53:59.000Z</time>
      </trkpt>
      <trkpt lat="44.24622" lon="3.54385">
        <ele>1260</ele>
        <time>2014-06-21T13:54:01.000Z</time>
      </trkpt>
      <trkpt lat="44.24616" lon="3.54386">
        <ele>1259</ele>
        <time>2014-06-21T13:54:03.000Z</time>
      </trkpt>
      <trkpt lat="44.24602" lon="3.5439">
        <ele>1258</ele>
        <time>2014-06-21T13:54:05.000Z</time>
      </trkpt>
      <trkpt lat="44.24591" lon="3.5439">
        <ele>1257</ele>
        <time>2014-06-21T13:54:09.000Z</time>
      </trkpt>
      <trkpt lat="44.24591" lon="3.5439">
        <ele>1257</ele>
        <time>2014-06-21T13:54:11.000Z</time>
      </trkpt>
      <trkpt lat="44.24591" lon="3.5439">
        <ele>1257</ele>
        <time>2014-06-21T13:54:13.000Z</time>
      </trkpt>
      <trkpt lat="44.24591" lon="3.5439">
        <ele>1257</ele>
        <time>2014-06-21T13:54:15.000Z</time>
      </trkpt>
      <trkpt lat="44.24591" lon="3.5439">
        <ele>1257</ele>
        <time>2014-06-21T13:54:17.000Z</time>
      </trkpt>
      <trkpt lat="44.24591" lon="3.5439">
        <ele>1257</ele>
        <time>2014-06-21T13:54:19.000Z</time>
      </trkpt>
      <trkpt lat="44.24591" lon="3.5439">
        <ele>1257</ele>
        <time>2014-06-21T13:54:21.000Z</time>
      </trkpt>
      <trkpt lat="44.24591" lon="3.5439">
        <ele>1257</ele>
        <time>2014-06-21T13:54:23.000Z</time>
      </trkpt>
      <trkpt lat="44.24591" lon="3.5439">
        <ele>1257</ele>
        <time>2014-06-21T13:54:25.000Z</time>
      </trkpt>
      <trkpt lat="44.24562" lon="3.54377">
        <ele>1254</ele>
        <time>2014-06-21T13:54:42.000Z</time>
      </trkpt>
      <trkpt lat="44.2455" lon="3.54369">
        <ele>1252</ele>
        <time>2014-06-21T13:54:48.000Z</time>
      </trkpt>
      <trkpt lat="44.24539" lon="3.54365">
        <ele>1251</ele>
        <time>2014-06-21T13:54:52.000Z</time>
      </trkpt>
      <trkpt lat="44.24527" lon="3.54358">
        <ele>1249</ele>
        <time>2014-06-21T13:54:56.000Z</time>
      </trkpt>
      <trkpt lat="44.24512" lon="3.5435">
        <ele>1248</ele>
        <time>2014-06-21T13:55:00.000Z</time>
      </trkpt>
      <trkpt lat="44.24503" lon="3.54344">
        <ele>1247</ele>
        <time>2014-06-21T13:55:02.000Z</time>
      </trkpt>
      <trkpt lat="44.24493" lon="3.54339">
        <ele>1246</ele>
        <time>2014-06-21T13:55:04.000Z</time>
      </trkpt>
      <trkpt lat="44.24483" lon="3.54334">
        <ele>1245</ele>
        <time>2014-06-21T13:55:06.000Z</time>
      </trkpt>
      <trkpt lat="44.24473" lon="3.54327">
        <ele>1244</ele>
        <time>2014-06-21T13:55:08.000Z</time>
      </trkpt>
      <trkpt lat="44.24462" lon="3.54321">
        <ele>1243</ele>
        <time>2014-06-21T13:55:10.000Z</time>
      </trkpt>
      <trkpt lat="44.24451" lon="3.54315">
        <ele>1243</ele>
        <time>2014-06-21T13:55:12.000Z</time>
      </trkpt>
      <trkpt lat="44.24442" lon="3.54309">
        <ele>1242</ele>
        <time>2014-06-21T13:55:14.000Z</time>
      </trkpt>
      <trkpt lat="44.24442" lon="3.54309">
        <ele>1242</ele>
        <time>2014-06-21T13:55:16.000Z</time>
      </trkpt>
      <trkpt lat="44.24442" lon="3.54309">
        <ele>1242</ele>
        <time>2014-06-21T13:55:18.000Z</time>
      </trkpt>
      <trkpt lat="44.24442" lon="3.54309">
        <ele>1242</ele>
        <time>2014-06-21T13:55:20.000Z</time>
      </trkpt>
      <trkpt lat="44.24442" lon="3.54309">
        <ele>1242</ele>
        <time>2014-06-21T13:55:22.000Z</time>
      </trkpt>
      <trkpt lat="44.24442" lon="3.54309">
        <ele>1242</ele>
        <time>2014-06-21T13:55:24.000Z</time>
      </trkpt>
      <trkpt lat="44.24442" lon="3.54309">
        <ele>1242</ele>
        <time>2014-06-21T13:55:26.000Z</time>
      </trkpt>
      <trkpt lat="44.24442" lon="3.54309">
        <ele>1242</ele>
        <time>2014-06-21T13:55:28.000Z</time>
      </trkpt>
      <trkpt lat="44.24442" lon="3.54309">
        <ele>1242</ele>
        <time>2014-06-21T13:55:30.000Z</time>
      </trkpt>
      <trkpt lat="44.24442" lon="3.54309">
        <ele>1242</ele>
        <time>2014-06-21T13:55:32.000Z</time>
      </trkpt>
      <trkpt lat="44.24442" lon="3.54309">
        <ele>1242</ele>
        <time>2014-06-21T13:55:34.000Z</time>
      </trkpt>
      <trkpt lat="44.24442" lon="3.54309">
        <ele>1242</ele>
        <time>2014-06-21T13:55:36.000Z</time>
      </trkpt>
      <trkpt lat="44.24442" lon="3.54309">
        <ele>1242</ele>
        <time>2014-06-21T13:55:38.000Z</time>
      </trkpt>
      <trkpt lat="44.24442" lon="3.54309">
        <ele>1242</ele>
        <time>2014-06-21T13:55:40.000Z</time>
      </trkpt>
      <trkpt lat="44.24401" lon="3.54292">
        <ele>1241</ele>
        <time>2014-06-21T13:55:48.000Z</time>
      </trkpt>
      <trkpt lat="44.24379" lon="3.54283">
        <ele>1240</ele>
        <time>2014-06-21T13:55:50.000Z</time>
      </trkpt>
      <trkpt lat="44.24366" lon="3.54278">
        <ele>1241</ele>
        <time>2014-06-21T13:55:52.000Z</time>
      </trkpt>
      <trkpt lat="44.24357" lon="3.54275">
        <ele>1241</ele>
        <time>2014-06-21T13:55:54.000Z</time>
      </trkpt>
      <trkpt lat="44.2435" lon="3.54273">
        <ele>1241</ele>
        <time>2014-06-21T13:55:56.000Z</time>
      </trkpt>
      <trkpt lat="44.2434" lon="3.54272">
        <ele>1241</ele>
        <time>2014-06-21T13:55:58.000Z</time>
      </trkpt>
      <trkpt lat="44.24328" lon="3.5427">
        <ele>1242</ele>
        <time>2014-06-21T13:56:04.000Z</time>
      </trkpt>
      <trkpt lat="44.24328" lon="3.5427">
        <ele>1242</ele>
        <time>2014-06-21T13:56:06.000Z</time>
      </trkpt>
      <trkpt lat="44.24328" lon="3.5427">
        <ele>1242</ele>
        <time>2014-06-21T13:56:08.000Z</time>
      </trkpt>
      <trkpt lat="44.24328" lon="3.5427">
        <ele>1242</ele>
        <time>2014-06-21T13:56:10.000Z</time>
      </trkpt>
      <trkpt lat="44.24328" lon="3.5427">
        <ele>1242</ele>
        <time>2014-06-21T13:56:12.000Z</time>
      </trkpt>
      <trkpt lat="44.24328" lon="3.5427">
        <ele>1242</ele>
        <time>2014-06-21T13:56:14.000Z</time>
      </trkpt>
      <trkpt lat="44.24328" lon="3.5427">
        <ele>1242</ele>
        <time>2014-06-21T13:56:16.000Z</time>
      </trkpt>
      <trkpt lat="44.24328" lon="3.5427">
        <ele>1242</ele>
        <time>2014-06-21T13:56:18.000Z</time>
      </trkpt>
      <trkpt lat="44.24328" lon="3.5427">
        <ele>1242</ele>
        <time>2014-06-21T13:56:24.000Z</time>
      </trkpt>
      <trkpt lat="44.24291" lon="3.54268">
        <ele>1243</ele>
        <time>2014-06-21T13:56:28.000Z</time>
      </trkpt>
      <trkpt lat="44.24281" lon="3.54266">
        <ele>1244</ele>
        <time>2014-06-21T13:56:36.000Z</time>
      </trkpt>
      <trkpt lat="44.24281" lon="3.54266">
        <ele>1244</ele>
        <time>2014-06-21T13:56:38.000Z</time>
      </trkpt>
      <trkpt lat="44.24281" lon="3.54266">
        <ele>1244</ele>
        <time>2014-06-21T13:56:40.000Z</time>
      </trkpt>
      <trkpt lat="44.24281" lon="3.54266">
        <ele>1244</ele>
        <time>2014-06-21T13:56:42.000Z</time>
      </trkpt>
      <trkpt lat="44.24281" lon="3.54266">
        <ele>1244</ele>
        <time>2014-06-21T13:56:56.000Z</time>
      </trkpt>
      <trkpt lat="44.24281" lon="3.54266">
        <ele>1244</ele>
        <time>2014-06-21T13:56:58.000Z</time>
      </trkpt>
      <trkpt lat="44.24246" lon="3.54266">
        <ele>1247</ele>
        <time>2014-06-21T13:57:02.000Z</time>
      </trkpt>
      <trkpt lat="44.24242" lon="3.54264">
        <ele>1248</ele>
        <time>2014-06-21T13:57:08.000Z</time>
      </trkpt>
      <trkpt lat="44.24236" lon="3.54263">
        <ele>1248</ele>
        <time>2014-06-21T13:57:12.000Z</time>
      </trkpt>
      <trkpt lat="44.24231" lon="3.54262">
        <ele>1248</ele>
        <time>2014-06-21T13:57:14.000Z</time>
      </trkpt>
      <trkpt lat="44.24226" lon="3.54262">
        <ele>1248</ele>
        <time>2014-06-21T13:57:18.000Z</time>
      </trkpt>
      <trkpt lat="44.2422" lon="3.54261">
        <ele>1248</ele>
        <time>2014-06-21T13:57:22.000Z</time>
      </trkpt>
      <trkpt lat="44.24215" lon="3.5426">
        <ele>1248</ele>
        <time>2014-06-21T13:57:24.000Z</time>
      </trkpt>
      <trkpt lat="44.24209" lon="3.54259">
        <ele>1247</ele>
        <time>2014-06-21T13:57:28.000Z</time>
      </trkpt>
      <trkpt lat="44.24204" lon="3.54259">
        <ele>1247</ele>
        <time>2014-06-21T13:57:30.000Z</time>
      </trkpt>
      <trkpt lat="44.24197" lon="3.54259">
        <ele>1246</ele>
        <time>2014-06-21T13:57:34.000Z</time>
      </trkpt>
      <trkpt lat="44.24193" lon="3.54258">
        <ele>1247</ele>
        <time>2014-06-21T13:57:36.000Z</time>
      </trkpt>
      <trkpt lat="44.24193" lon="3.54258">
        <ele>1247</ele>
        <time>2014-06-21T13:57:38.000Z</time>
      </trkpt>
      <trkpt lat="44.24181" lon="3.54256">
        <ele>1246</ele>
        <time>2014-06-21T13:57:44.000Z</time>
      </trkpt>
      <trkpt lat="44.24165" lon="3.54251">
        <ele>1248</ele>
        <time>2014-06-21T13:57:54.000Z</time>
      </trkpt>
      <trkpt lat="44.24154" lon="3.54246">
        <ele>1247</ele>
        <time>2014-06-21T13:57:56.000Z</time>
      </trkpt>
      <trkpt lat="44.24147" lon="3.54242">
        <ele>1248</ele>
        <time>2014-06-21T13:57:58.000Z</time>
      </trkpt>
      <trkpt lat="44.24141" lon="3.54238">
        <ele>1248</ele>
        <time>2014-06-21T13:58:00.000Z</time>
      </trkpt>
      <trkpt lat="44.2413" lon="3.5423">
        <ele>1248</ele>
        <time>2014-06-21T13:58:02.000Z</time>
      </trkpt>
      <trkpt lat="44.2413" lon="3.5423">
        <ele>1248</ele>
        <time>2014-06-21T13:58:04.000Z</time>
      </trkpt>
      <trkpt lat="44.24123" lon="3.54221">
        <ele>1246</ele>
        <time>2014-06-21T13:58:06.000Z</time>
      </trkpt>
      <trkpt lat="44.2411" lon="3.54215">
        <ele>1245</ele>
        <time>2014-06-21T13:58:10.000Z</time>
      </trkpt>
      <trkpt lat="44.24099" lon="3.54208">
        <ele>1244</ele>
        <time>2014-06-21T13:58:14.000Z</time>
      </trkpt>
      <trkpt lat="44.24086" lon="3.54201">
        <ele>1243</ele>
        <time>2014-06-21T13:58:18.000Z</time>
      </trkpt>
      <trkpt lat="44.24073" lon="3.54193">
        <ele>1243</ele>
        <time>2014-06-21T13:58:22.000Z</time>
      </trkpt>
      <trkpt lat="44.24073" lon="3.54193">
        <ele>1243</ele>
        <time>2014-06-21T13:58:24.000Z</time>
      </trkpt>
      <trkpt lat="44.24073" lon="3.54193">
        <ele>1243</ele>
        <time>2014-06-21T13:58:26.000Z</time>
      </trkpt>
      <trkpt lat="44.24073" lon="3.54193">
        <ele>1243</ele>
        <time>2014-06-21T13:58:28.000Z</time>
      </trkpt>
      <trkpt lat="44.24073" lon="3.54193">
        <ele>1243</ele>
        <time>2014-06-21T13:58:30.000Z</time>
      </trkpt>
      <trkpt lat="44.24073" lon="3.54193">
        <ele>1243</ele>
        <time>2014-06-21T13:58:32.000Z</time>
      </trkpt>
      <trkpt lat="44.24038" lon="3.54179">
        <ele>1241</ele>
        <time>2014-06-21T13:58:36.000Z</time>
      </trkpt>
      <trkpt lat="44.24026" lon="3.54174">
        <ele>1241</ele>
        <time>2014-06-21T13:58:40.000Z</time>
      </trkpt>
      <trkpt lat="44.24026" lon="3.54174">
        <ele>1241</ele>
        <time>2014-06-21T13:58:42.000Z</time>
      </trkpt>
      <trkpt lat="44.24026" lon="3.54174">
        <ele>1241</ele>
        <time>2014-06-21T13:58:44.000Z</time>
      </trkpt>
      <trkpt lat="44.24026" lon="3.54174">
        <ele>1241</ele>
        <time>2014-06-21T13:58:46.000Z</time>
      </trkpt>
      <trkpt lat="44.24026" lon="3.54174">
        <ele>1241</ele>
        <time>2014-06-21T13:58:48.000Z</time>
      </trkpt>
      <trkpt lat="44.24026" lon="3.54174">
        <ele>1241</ele>
        <time>2014-06-21T13:58:50.000Z</time>
      </trkpt>
      <trkpt lat="44.24026" lon="3.54174">
        <ele>1241</ele>
        <time>2014-06-21T13:58:52.000Z</time>
      </trkpt>
      <trkpt lat="44.24026" lon="3.54174">
        <ele>1241</ele>
        <time>2014-06-21T13:58:53.000Z</time>
      </trkpt>
      <trkpt lat="44.24026" lon="3.54174">
        <ele>1241</ele>
        <time>2014-06-21T13:58:55.000Z</time>
      </trkpt>
      <trkpt lat="44.24012" lon="3.5417">
        <ele>1234</ele>
        <time>2014-06-21T13:59:47.000Z</time>
      </trkpt>
      <trkpt lat="44.24002" lon="3.54167">
        <ele>1232</ele>
        <time>2014-06-21T13:59:49.000Z</time>
      </trkpt>
      <trkpt lat="44.23994" lon="3.54166">
        <ele>1232</ele>
        <time>2014-06-21T13:59:51.000Z</time>
      </trkpt>
      <trkpt lat="44.23987" lon="3.54165">
        <ele>1231</ele>
        <time>2014-06-21T13:59:53.000Z</time>
      </trkpt>
      <trkpt lat="44.2398" lon="3.54164">
        <ele>1230</ele>
        <time>2014-06-21T13:59:55.000Z</time>
      </trkpt>
      <trkpt lat="44.23967" lon="3.54159">
        <ele>1230</ele>
        <time>2014-06-21T13:59:57.000Z</time>
      </trkpt>
      <trkpt lat="44.23967" lon="3.54159">
        <ele>1230</ele>
        <time>2014-06-21T13:59:59.000Z</time>
      </trkpt>
      <trkpt lat="44.23967" lon="3.54159">
        <ele>1230</ele>
        <time>2014-06-21T14:00:01.000Z</time>
      </trkpt>
      <trkpt lat="44.23967" lon="3.54159">
        <ele>1230</ele>
        <time>2014-06-21T14:00:03.000Z</time>
      </trkpt>
      <trkpt lat="44.23967" lon="3.54159">
        <ele>1230</ele>
        <time>2014-06-21T14:00:05.000Z</time>
      </trkpt>
      <trkpt lat="44.23967" lon="3.54159">
        <ele>1230</ele>
        <time>2014-06-21T14:00:07.000Z</time>
      </trkpt>
      <trkpt lat="44.23967" lon="3.54159">
        <ele>1230</ele>
        <time>2014-06-21T14:00:13.000Z</time>
      </trkpt>
      <trkpt lat="44.23967" lon="3.54159">
        <ele>1230</ele>
        <time>2014-06-21T14:00:15.000Z</time>
      </trkpt>
      <trkpt lat="44.23967" lon="3.54159">
        <ele>1230</ele>
        <time>2014-06-21T14:00:17.000Z</time>
      </trkpt>
      <trkpt lat="44.2391" lon="3.54147">
        <ele>1222</ele>
        <time>2014-06-21T14:00:19.000Z</time>
      </trkpt>
      <trkpt lat="44.23898" lon="3.54146">
        <ele>1220</ele>
        <time>2014-06-21T14:00:23.000Z</time>
      </trkpt>
      <trkpt lat="44.23898" lon="3.54146">
        <ele>1220</ele>
        <time>2014-06-21T14:00:25.000Z</time>
      </trkpt>
      <trkpt lat="44.23886" lon="3.54146">
        <ele>1217</ele>
        <time>2014-06-21T14:00:27.000Z</time>
      </trkpt>
      <trkpt lat="44.23874" lon="3.54145">
        <ele>1214</ele>
        <time>2014-06-21T14:00:31.000Z</time>
      </trkpt>
      <trkpt lat="44.23862" lon="3.54146">
        <ele>1212</ele>
        <time>2014-06-21T14:00:35.000Z</time>
      </trkpt>
      <trkpt lat="44.23862" lon="3.54146">
        <ele>1212</ele>
        <time>2014-06-21T14:00:37.000Z</time>
      </trkpt>
      <trkpt lat="44.23862" lon="3.54146">
        <ele>1212</ele>
        <time>2014-06-21T14:00:39.000Z</time>
      </trkpt>
      <trkpt lat="44.23838" lon="3.54146">
        <ele>1206</ele>
        <time>2014-06-21T14:00:43.000Z</time>
      </trkpt>
      <trkpt lat="44.23825" lon="3.54145">
        <ele>1204</ele>
        <time>2014-06-21T14:00:47.000Z</time>
      </trkpt>
      <trkpt lat="44.23825" lon="3.54145">
        <ele>1204</ele>
        <time>2014-06-21T14:00:49.000Z</time>
      </trkpt>
      <trkpt lat="44.23813" lon="3.54148">
        <ele>1203</ele>
        <time>2014-06-21T14:00:51.000Z</time>
      </trkpt>
      <trkpt lat="44.23813" lon="3.54148">
        <ele>1203</ele>
        <time>2014-06-21T14:00:53.000Z</time>
      </trkpt>
      <trkpt lat="44.23813" lon="3.54148">
        <ele>1203</ele>
        <time>2014-06-21T14:00:55.000Z</time>
      </trkpt>
      <trkpt lat="44.23813" lon="3.54148">
        <ele>1203</ele>
        <time>2014-06-21T14:00:57.000Z</time>
      </trkpt>
      <trkpt lat="44.23788" lon="3.54174">
        <ele>1197</ele>
        <time>2014-06-21T14:01:03.000Z</time>
      </trkpt>
      <trkpt lat="44.23781" lon="3.54188">
        <ele>1195</ele>
        <time>2014-06-21T14:01:07.000Z</time>
      </trkpt>
      <trkpt lat="44.23781" lon="3.54188">
        <ele>1195</ele>
        <time>2014-06-21T14:01:08.000Z</time>
      </trkpt>
      <trkpt lat="44.23781" lon="3.54188">
        <ele>1195</ele>
        <time>2014-06-21T14:01:10.000Z</time>
      </trkpt>
      <trkpt lat="44.23781" lon="3.54188">
        <ele>1195</ele>
        <time>2014-06-21T14:01:12.000Z</time>
      </trkpt>
      <trkpt lat="44.23781" lon="3.54188">
        <ele>1195</ele>
        <time>2014-06-21T14:01:14.000Z</time>
      </trkpt>
      <trkpt lat="44.23781" lon="3.54188">
        <ele>1195</ele>
        <time>2014-06-21T14:01:16.000Z</time>
      </trkpt>
      <trkpt lat="44.23781" lon="3.54188">
        <ele>1195</ele>
        <time>2014-06-21T14:01:24.000Z</time>
      </trkpt>
      <trkpt lat="44.23781" lon="3.54188">
        <ele>1195</ele>
        <time>2014-06-21T14:01:26.000Z</time>
      </trkpt>
      <trkpt lat="44.23777" lon="3.54199">
        <ele>1191</ele>
        <time>2014-06-21T14:02:56.000Z</time>
      </trkpt>
      <trkpt lat="44.23774" lon="3.54206">
        <ele>1189</ele>
        <time>2014-06-21T14:02:58.000Z</time>
      </trkpt>
      <trkpt lat="44.2377" lon="3.54211">
        <ele>1187</ele>
        <time>2014-06-21T14:03:00.000Z</time>
      </trkpt>
      <trkpt lat="44.23767" lon="3.54216">
        <ele>1185</ele>
        <time>2014-06-21T14:03:02.000Z</time>
      </trkpt>
      <trkpt lat="44.23764" lon="3.5422">
        <ele>1185</ele>
        <time>2014-06-21T14:03:04.000Z</time>
      </trkpt>
      <trkpt lat="44.23755" lon="3.54226">
        <ele>1185</ele>
        <time>2014-06-21T14:03:06.000Z</time>
      </trkpt>
      <trkpt lat="44.23755" lon="3.54226">
        <ele>1185</ele>
        <time>2014-06-21T14:03:08.000Z</time>
      </trkpt>
      <trkpt lat="44.23755" lon="3.54226">
        <ele>1185</ele>
        <time>2014-06-21T14:03:10.000Z</time>
      </trkpt>
      <trkpt lat="44.23749" lon="3.54238">
        <ele>1183</ele>
        <time>2014-06-21T14:03:12.000Z</time>
      </trkpt>
      <trkpt lat="44.23757" lon="3.54253">
        <ele>1180</ele>
        <time>2014-06-21T14:03:18.000Z</time>
      </trkpt>
      <trkpt lat="44.23766" lon="3.54262">
        <ele>1179</ele>
        <time>2014-06-21T14:03:22.000Z</time>
      </trkpt>
      <trkpt lat="44.23776" lon="3.54268">
        <ele>1178</ele>
        <time>2014-06-21T14:03:26.000Z</time>
      </trkpt>
      <trkpt lat="44.23789" lon="3.54275">
        <ele>1176</ele>
        <time>2014-06-21T14:03:30.000Z</time>
      </trkpt>
      <trkpt lat="44.23802" lon="3.54285">
        <ele>1174</ele>
        <time>2014-06-21T14:03:34.000Z</time>
      </trkpt>
      <trkpt lat="44.23811" lon="3.54297">
        <ele>1172</ele>
        <time>2014-06-21T14:03:38.000Z</time>
      </trkpt>
      <trkpt lat="44.23811" lon="3.54297">
        <ele>1172</ele>
        <time>2014-06-21T14:03:40.000Z</time>
      </trkpt>
      <trkpt lat="44.23811" lon="3.54327">
        <ele>1170</ele>
        <time>2014-06-21T14:03:44.000Z</time>
      </trkpt>
      <trkpt lat="44.23804" lon="3.54347">
        <ele>1168</ele>
        <time>2014-06-21T14:03:48.000Z</time>
      </trkpt>
      <trkpt lat="44.23804" lon="3.54347">
        <ele>1168</ele>
        <time>2014-06-21T14:03:50.000Z</time>
      </trkpt>
      <trkpt lat="44.23797" lon="3.54366">
        <ele>1167</ele>
        <time>2014-06-21T14:03:52.000Z</time>
      </trkpt>
      <trkpt lat="44.23788" lon="3.54385">
        <ele>1164</ele>
        <time>2014-06-21T14:03:56.000Z</time>
      </trkpt>
      <trkpt lat="44.23785" lon="3.54397">
        <ele>1162</ele>
        <time>2014-06-21T14:03:58.000Z</time>
      </trkpt>
      <trkpt lat="44.23782" lon="3.54411">
        <ele>1162</ele>
        <time>2014-06-21T14:04:00.000Z</time>
      </trkpt>
      <trkpt lat="44.23785" lon="3.54436">
        <ele>1162</ele>
        <time>2014-06-21T14:04:04.000Z</time>
      </trkpt>
      <trkpt lat="44.23786" lon="3.54449">
        <ele>1161</ele>
        <time>2014-06-21T14:04:06.000Z</time>
      </trkpt>
      <trkpt lat="44.23786" lon="3.54449">
        <ele>1161</ele>
        <time>2014-06-21T14:04:08.000Z</time>
      </trkpt>
      <trkpt lat="44.23786" lon="3.54449">
        <ele>1161</ele>
        <time>2014-06-21T14:04:10.000Z</time>
      </trkpt>
      <trkpt lat="44.23786" lon="3.54449">
        <ele>1161</ele>
        <time>2014-06-21T14:04:12.000Z</time>
      </trkpt>
      <trkpt lat="44.2378" lon="3.54497">
        <ele>1156</ele>
        <time>2014-06-21T14:04:14.000Z</time>
      </trkpt>
      <trkpt lat="44.2378" lon="3.54497">
        <ele>1156</ele>
        <time>2014-06-21T14:04:18.000Z</time>
      </trkpt>
      <trkpt lat="44.2378" lon="3.54497">
        <ele>1156</ele>
        <time>2014-06-21T14:04:20.000Z</time>
      </trkpt>
      <trkpt lat="44.2378" lon="3.54497">
        <ele>1156</ele>
        <time>2014-06-21T14:04:22.000Z</time>
      </trkpt>
      <trkpt lat="44.2378" lon="3.54497">
        <ele>1156</ele>
        <time>2014-06-21T14:04:24.000Z</time>
      </trkpt>
      <trkpt lat="44.2378" lon="3.54497">
        <ele>1156</ele>
        <time>2014-06-21T14:04:26.000Z</time>
      </trkpt>
      <trkpt lat="44.23768" lon="3.5449">
        <ele>1154</ele>
        <time>2014-06-21T14:04:32.000Z</time>
      </trkpt>
      <trkpt lat="44.23768" lon="3.5449">
        <ele>1154</ele>
        <time>2014-06-21T14:04:36.000Z</time>
      </trkpt>
      <trkpt lat="44.23768" lon="3.5449">
        <ele>1154</ele>
        <time>2014-06-21T14:04:38.000Z</time>
      </trkpt>
      <trkpt lat="44.23768" lon="3.5449">
        <ele>1154</ele>
        <time>2014-06-21T14:04:40.000Z</time>
      </trkpt>
      <trkpt lat="44.23759" lon="3.54499">
        <ele>1153</ele>
        <time>2014-06-21T14:04:44.000Z</time>
      </trkpt>
      <trkpt lat="44.23751" lon="3.54507">
        <ele>1153</ele>
        <time>2014-06-21T14:04:46.000Z</time>
      </trkpt>
      <trkpt lat="44.23746" lon="3.54515">
        <ele>1152</ele>
        <time>2014-06-21T14:04:48.000Z</time>
      </trkpt>
      <trkpt lat="44.23743" lon="3.54523">
        <ele>1150</ele>
        <time>2014-06-21T14:04:50.000Z</time>
      </trkpt>
      <trkpt lat="44.23743" lon="3.54523">
        <ele>1150</ele>
        <time>2014-06-21T14:04:52.000Z</time>
      </trkpt>
      <trkpt lat="44.23743" lon="3.54523">
        <ele>1150</ele>
        <time>2014-06-21T14:04:54.000Z</time>
      </trkpt>
      <trkpt lat="44.23737" lon="3.54546">
        <ele>1146</ele>
        <time>2014-06-21T14:05:00.000Z</time>
      </trkpt>
      <trkpt lat="44.23737" lon="3.54546">
        <ele>1146</ele>
        <time>2014-06-21T14:05:02.000Z</time>
      </trkpt>
      <trkpt lat="44.23737" lon="3.54546">
        <ele>1146</ele>
        <time>2014-06-21T14:05:04.000Z</time>
      </trkpt>
      <trkpt lat="44.23737" lon="3.54546">
        <ele>1146</ele>
        <time>2014-06-21T14:05:06.000Z</time>
      </trkpt>
      <trkpt lat="44.23737" lon="3.54546">
        <ele>1146</ele>
        <time>2014-06-21T14:05:07.000Z</time>
      </trkpt>
      <trkpt lat="44.23737" lon="3.54546">
        <ele>1146</ele>
        <time>2014-06-21T14:05:09.000Z</time>
      </trkpt>
      <trkpt lat="44.23737" lon="3.54546">
        <ele>1146</ele>
        <time>2014-06-21T14:05:11.000Z</time>
      </trkpt>
      <trkpt lat="44.23737" lon="3.54546">
        <ele>1146</ele>
        <time>2014-06-21T14:05:13.000Z</time>
      </trkpt>
      <trkpt lat="44.23737" lon="3.54546">
        <ele>1146</ele>
        <time>2014-06-21T14:05:15.000Z</time>
      </trkpt>
      <trkpt lat="44.23737" lon="3.54546">
        <ele>1146</ele>
        <time>2014-06-21T14:05:17.000Z</time>
      </trkpt>
      <trkpt lat="44.23737" lon="3.54546">
        <ele>1146</ele>
        <time>2014-06-21T14:05:19.000Z</time>
      </trkpt>
      <trkpt lat="44.23715" lon="3.54568">
        <ele>1149</ele>
        <time>2014-06-21T14:05:49.000Z</time>
      </trkpt>
      <trkpt lat="44.23701" lon="3.54577">
        <ele>1149</ele>
        <time>2014-06-21T14:05:51.000Z</time>
      </trkpt>
      <trkpt lat="44.23692" lon="3.54581">
        <ele>1149</ele>
        <time>2014-06-21T14:05:53.000Z</time>
      </trkpt>
      <trkpt lat="44.23685" lon="3.54583">
        <ele>1149</ele>
        <time>2014-06-21T14:05:54.000Z</time>
      </trkpt>
      <trkpt lat="44.23681" lon="3.54583">
        <ele>1148</ele>
        <time>2014-06-21T14:05:56.000Z</time>
      </trkpt>
      <trkpt lat="44.23681" lon="3.54583">
        <ele>1148</ele>
        <time>2014-06-21T14:05:58.000Z</time>
      </trkpt>
      <trkpt lat="44.23681" lon="3.54583">
        <ele>1148</ele>
        <time>2014-06-21T14:05:59.000Z</time>
      </trkpt>
      <trkpt lat="44.23681" lon="3.54583">
        <ele>1148</ele>
        <time>2014-06-21T14:06:01.000Z</time>
      </trkpt>
      <trkpt lat="44.23681" lon="3.54583">
        <ele>1148</ele>
        <time>2014-06-21T14:06:03.000Z</time>
      </trkpt>
      <trkpt lat="44.23681" lon="3.54583">
        <ele>1148</ele>
        <time>2014-06-21T14:06:09.000Z</time>
      </trkpt>
      <trkpt lat="44.23681" lon="3.54583">
        <ele>1148</ele>
        <time>2014-06-21T14:06:11.000Z</time>
      </trkpt>
      <trkpt lat="44.23681" lon="3.54583">
        <ele>1148</ele>
        <time>2014-06-21T14:06:13.000Z</time>
      </trkpt>
      <trkpt lat="44.23681" lon="3.54583">
        <ele>1148</ele>
        <time>2014-06-21T14:06:15.000Z</time>
      </trkpt>
      <trkpt lat="44.23671" lon="3.5457">
        <ele>1147</ele>
        <time>2014-06-21T14:12:44.000Z</time>
      </trkpt>
      <trkpt lat="44.23664" lon="3.5456">
        <ele>1147</ele>
        <time>2014-06-21T14:12:46.000Z</time>
      </trkpt>
      <trkpt lat="44.2365" lon="3.54535">
        <ele>1147</ele>
        <time>2014-06-21T14:12:56.000Z</time>
      </trkpt>
      <trkpt lat="44.23641" lon="3.5452">
        <ele>1147</ele>
        <time>2014-06-21T14:12:57.000Z</time>
      </trkpt>
      <trkpt lat="44.23634" lon="3.54508">
        <ele>1145</ele>
        <time>2014-06-21T14:12:59.000Z</time>
      </trkpt>
      <trkpt lat="44.2362" lon="3.54487">
        <ele>1145</ele>
        <time>2014-06-21T14:13:01.000Z</time>
      </trkpt>
      <trkpt lat="44.23609" lon="3.54467">
        <ele>1147</ele>
        <time>2014-06-21T14:13:05.000Z</time>
      </trkpt>
      <trkpt lat="44.23597" lon="3.54454">
        <ele>1151</ele>
        <time>2014-06-21T14:13:09.000Z</time>
      </trkpt>
      <trkpt lat="44.23597" lon="3.54454">
        <ele>1151</ele>
        <time>2014-06-21T14:13:11.000Z</time>
      </trkpt>
      <trkpt lat="44.23597" lon="3.54454">
        <ele>1151</ele>
        <time>2014-06-21T14:13:13.000Z</time>
      </trkpt>
      <trkpt lat="44.23597" lon="3.54454">
        <ele>1151</ele>
        <time>2014-06-21T14:13:15.000Z</time>
      </trkpt>
      <trkpt lat="44.23597" lon="3.54454">
        <ele>1151</ele>
        <time>2014-06-21T14:13:19.000Z</time>
      </trkpt>
      <trkpt lat="44.23597" lon="3.54454">
        <ele>1151</ele>
        <time>2014-06-21T14:13:21.000Z</time>
      </trkpt>
      <trkpt lat="44.23597" lon="3.54454">
        <ele>1151</ele>
        <time>2014-06-21T14:13:23.000Z</time>
      </trkpt>
      <trkpt lat="44.23597" lon="3.54454">
        <ele>1151</ele>
        <time>2014-06-21T14:13:25.000Z</time>
      </trkpt>
      <trkpt lat="44.23597" lon="3.54454">
        <ele>1151</ele>
        <time>2014-06-21T14:13:27.000Z</time>
      </trkpt>
      <trkpt lat="44.23597" lon="3.54454">
        <ele>1151</ele>
        <time>2014-06-21T14:13:29.000Z</time>
      </trkpt>
      <trkpt lat="44.23597" lon="3.54454">
        <ele>1151</ele>
        <time>2014-06-21T14:13:31.000Z</time>
      </trkpt>
      <trkpt lat="44.23597" lon="3.54454">
        <ele>1151</ele>
        <time>2014-06-21T14:13:33.000Z</time>
      </trkpt>
      <trkpt lat="44.23597" lon="3.54454">
        <ele>1151</ele>
        <time>2014-06-21T14:13:35.000Z</time>
      </trkpt>
      <trkpt lat="44.23597" lon="3.54454">
        <ele>1151</ele>
        <time>2014-06-21T14:13:37.000Z</time>
      </trkpt>
      <trkpt lat="44.2352" lon="3.54399">
        <ele>1155</ele>
        <time>2014-06-21T14:13:39.000Z</time>
      </trkpt>
      <trkpt lat="44.23509" lon="3.54393">
        <ele>1153</ele>
        <time>2014-06-21T14:13:43.000Z</time>
      </trkpt>
      <trkpt lat="44.23495" lon="3.54383">
        <ele>1152</ele>
        <time>2014-06-21T14:13:47.000Z</time>
      </trkpt>
      <trkpt lat="44.23487" lon="3.54377">
        <ele>1152</ele>
        <time>2014-06-21T14:13:49.000Z</time>
      </trkpt>
      <trkpt lat="44.23474" lon="3.54363">
        <ele>1151</ele>
        <time>2014-06-21T14:13:53.000Z</time>
      </trkpt>
      <trkpt lat="44.23466" lon="3.54354">
        <ele>1150</ele>
        <time>2014-06-21T14:13:55.000Z</time>
      </trkpt>
      <trkpt lat="44.23454" lon="3.54336">
        <ele>1150</ele>
        <time>2014-06-21T14:13:59.000Z</time>
      </trkpt>
      <trkpt lat="44.23454" lon="3.54336">
        <ele>1150</ele>
        <time>2014-06-21T14:14:01.000Z</time>
      </trkpt>
      <trkpt lat="44.23454" lon="3.54336">
        <ele>1150</ele>
        <time>2014-06-21T14:14:03.000Z</time>
      </trkpt>
      <trkpt lat="44.23454" lon="3.54336">
        <ele>1150</ele>
        <time>2014-06-21T14:14:05.000Z</time>
      </trkpt>
      <trkpt lat="44.23454" lon="3.54336">
        <ele>1150</ele>
        <time>2014-06-21T14:14:07.000Z</time>
      </trkpt>
      <trkpt lat="44.23454" lon="3.54336">
        <ele>1150</ele>
        <time>2014-06-21T14:14:09.000Z</time>
      </trkpt>
      <trkpt lat="44.23454" lon="3.54336">
        <ele>1150</ele>
        <time>2014-06-21T14:14:11.000Z</time>
      </trkpt>
      <trkpt lat="44.2341" lon="3.54272">
        <ele>1150</ele>
        <time>2014-06-21T14:14:15.000Z</time>
      </trkpt>
      <trkpt lat="44.23393" lon="3.54264">
        <ele>1149</ele>
        <time>2014-06-21T14:14:19.000Z</time>
      </trkpt>
      <trkpt lat="44.23384" lon="3.54261">
        <ele>1149</ele>
        <time>2014-06-21T14:14:21.000Z</time>
      </trkpt>
      <trkpt lat="44.23384" lon="3.54261">
        <ele>1149</ele>
        <time>2014-06-21T14:14:23.000Z</time>
      </trkpt>
      <trkpt lat="44.23367" lon="3.54257">
        <ele>1149</ele>
        <time>2014-06-21T14:14:25.000Z</time>
      </trkpt>
      <trkpt lat="44.23367" lon="3.54257">
        <ele>1149</ele>
        <time>2014-06-21T14:14:27.000Z</time>
      </trkpt>
      <trkpt lat="44.23367" lon="3.54257">
        <ele>1149</ele>
        <time>2014-06-21T14:14:29.000Z</time>
      </trkpt>
      <trkpt lat="44.23347" lon="3.54251">
        <ele>1151</ele>
        <time>2014-06-21T14:14:35.000Z</time>
      </trkpt>
      <trkpt lat="44.23347" lon="3.54251">
        <ele>1151</ele>
        <time>2014-06-21T14:14:37.000Z</time>
      </trkpt>
      <trkpt lat="44.23347" lon="3.54251">
        <ele>1151</ele>
        <time>2014-06-21T14:14:39.000Z</time>
      </trkpt>
      <trkpt lat="44.23347" lon="3.54251">
        <ele>1151</ele>
        <time>2014-06-21T14:14:41.000Z</time>
      </trkpt>
      <trkpt lat="44.23322" lon="3.54228">
        <ele>1149</ele>
        <time>2014-06-21T14:14:45.000Z</time>
      </trkpt>
      <trkpt lat="44.23308" lon="3.54211">
        <ele>1149</ele>
        <time>2014-06-21T14:14:47.000Z</time>
      </trkpt>
      <trkpt lat="44.23302" lon="3.54196">
        <ele>1149</ele>
        <time>2014-06-21T14:14:49.000Z</time>
      </trkpt>
      <trkpt lat="44.23299" lon="3.54181">
        <ele>1148</ele>
        <time>2014-06-21T14:14:51.000Z</time>
      </trkpt>
      <trkpt lat="44.23296" lon="3.54166">
        <ele>1147</ele>
        <time>2014-06-21T14:14:53.000Z</time>
      </trkpt>
      <trkpt lat="44.23293" lon="3.54132">
        <ele>1147</ele>
        <time>2014-06-21T14:14:55.000Z</time>
      </trkpt>
      <trkpt lat="44.23289" lon="3.54114">
        <ele>1146</ele>
        <time>2014-06-21T14:14:57.000Z</time>
      </trkpt>
      <trkpt lat="44.23284" lon="3.54096">
        <ele>1144</ele>
        <time>2014-06-21T14:14:59.000Z</time>
      </trkpt>
      <trkpt lat="44.23278" lon="3.54078">
        <ele>1144</ele>
        <time>2014-06-21T14:15:01.000Z</time>
      </trkpt>
      <trkpt lat="44.23269" lon="3.54062">
        <ele>1143</ele>
        <time>2014-06-21T14:15:04.000Z</time>
      </trkpt>
      <trkpt lat="44.23261" lon="3.54048">
        <ele>1143</ele>
        <time>2014-06-21T14:15:05.000Z</time>
      </trkpt>
      <trkpt lat="44.23253" lon="3.54035">
        <ele>1143</ele>
        <time>2014-06-21T14:15:07.000Z</time>
      </trkpt>
      <trkpt lat="44.23246" lon="3.54022">
        <ele>1142</ele>
        <time>2014-06-21T14:15:09.000Z</time>
      </trkpt>
      <trkpt lat="44.2324" lon="3.54006">
        <ele>1141</ele>
        <time>2014-06-21T14:15:11.000Z</time>
      </trkpt>
      <trkpt lat="44.23235" lon="3.53988">
        <ele>1141</ele>
        <time>2014-06-21T14:15:13.000Z</time>
      </trkpt>
      <trkpt lat="44.23229" lon="3.53972">
        <ele>1141</ele>
        <time>2014-06-21T14:15:15.000Z</time>
      </trkpt>
      <trkpt lat="44.23224" lon="3.53957">
        <ele>1141</ele>
        <time>2014-06-21T14:15:17.000Z</time>
      </trkpt>
      <trkpt lat="44.2322" lon="3.53943">
        <ele>1140</ele>
        <time>2014-06-21T14:15:19.000Z</time>
      </trkpt>
      <trkpt lat="44.23217" lon="3.53928">
        <ele>1140</ele>
        <time>2014-06-21T14:15:21.000Z</time>
      </trkpt>
      <trkpt lat="44.23215" lon="3.53913">
        <ele>1139</ele>
        <time>2014-06-21T14:15:23.000Z</time>
      </trkpt>
      <trkpt lat="44.23213" lon="3.539">
        <ele>1139</ele>
        <time>2014-06-21T14:15:25.000Z</time>
      </trkpt>
      <trkpt lat="44.23213" lon="3.539">
        <ele>1139</ele>
        <time>2014-06-21T14:15:27.000Z</time>
      </trkpt>
      <trkpt lat="44.23213" lon="3.539">
        <ele>1139</ele>
        <time>2014-06-21T14:15:29.000Z</time>
      </trkpt>
      <trkpt lat="44.23204" lon="3.53837">
        <ele>1137</ele>
        <time>2014-06-21T14:15:33.000Z</time>
      </trkpt>
      <trkpt lat="44.23199" lon="3.53819">
        <ele>1137</ele>
        <time>2014-06-21T14:15:35.000Z</time>
      </trkpt>
      <trkpt lat="44.23194" lon="3.53801">
        <ele>1137</ele>
        <time>2014-06-21T14:15:37.000Z</time>
      </trkpt>
      <trkpt lat="44.23188" lon="3.53784">
        <ele>1137</ele>
        <time>2014-06-21T14:15:39.000Z</time>
      </trkpt>
      <trkpt lat="44.23181" lon="3.53769">
        <ele>1138</ele>
        <time>2014-06-21T14:15:41.000Z</time>
      </trkpt>
      <trkpt lat="44.23173" lon="3.53757">
        <ele>1138</ele>
        <time>2014-06-21T14:15:43.000Z</time>
      </trkpt>
      <trkpt lat="44.23173" lon="3.53757">
        <ele>1138</ele>
        <time>2014-06-21T14:15:45.000Z</time>
      </trkpt>
      <trkpt lat="44.23173" lon="3.53757">
        <ele>1138</ele>
        <time>2014-06-21T14:15:47.000Z</time>
      </trkpt>
      <trkpt lat="44.23173" lon="3.53757">
        <ele>1138</ele>
        <time>2014-06-21T14:15:49.000Z</time>
      </trkpt>
      <trkpt lat="44.23173" lon="3.53757">
        <ele>1138</ele>
        <time>2014-06-21T14:15:51.000Z</time>
      </trkpt>
      <trkpt lat="44.23173" lon="3.53757">
        <ele>1138</ele>
        <time>2014-06-21T14:15:53.000Z</time>
      </trkpt>
      <trkpt lat="44.23173" lon="3.53757">
        <ele>1138</ele>
        <time>2014-06-21T14:15:55.000Z</time>
      </trkpt>
      <trkpt lat="44.23137" lon="3.53679">
        <ele>1140</ele>
        <time>2014-06-21T14:16:01.000Z</time>
      </trkpt>
      <trkpt lat="44.23134" lon="3.53666">
        <ele>1139</ele>
        <time>2014-06-21T14:16:03.000Z</time>
      </trkpt>
      <trkpt lat="44.23133" lon="3.53653">
        <ele>1139</ele>
        <time>2014-06-21T14:16:05.000Z</time>
      </trkpt>
      <trkpt lat="44.23133" lon="3.53639">
        <ele>1138</ele>
        <time>2014-06-21T14:16:07.000Z</time>
      </trkpt>
      <trkpt lat="44.23135" lon="3.53625">
        <ele>1138</ele>
        <time>2014-06-21T14:16:09.000Z</time>
      </trkpt>
      <trkpt lat="44.23131" lon="3.53611">
        <ele>1137</ele>
        <time>2014-06-21T14:16:11.000Z</time>
      </trkpt>
      <trkpt lat="44.23131" lon="3.53611">
        <ele>1137</ele>
        <time>2014-06-21T14:16:13.000Z</time>
      </trkpt>
      <trkpt lat="44.23131" lon="3.53611">
        <ele>1137</ele>
        <time>2014-06-21T14:16:15.000Z</time>
      </trkpt>
      <trkpt lat="44.23131" lon="3.53611">
        <ele>1137</ele>
        <time>2014-06-21T14:16:17.000Z</time>
      </trkpt>
      <trkpt lat="44.23131" lon="3.53611">
        <ele>1137</ele>
        <time>2014-06-21T14:16:19.000Z</time>
      </trkpt>
      <trkpt lat="44.23131" lon="3.53611">
        <ele>1137</ele>
        <time>2014-06-21T14:16:21.000Z</time>
      </trkpt>
      <trkpt lat="44.23131" lon="3.53611">
        <ele>1137</ele>
        <time>2014-06-21T14:16:23.000Z</time>
      </trkpt>
      <trkpt lat="44.23131" lon="3.53611">
        <ele>1137</ele>
        <time>2014-06-21T14:16:25.000Z</time>
      </trkpt>
      <trkpt lat="44.23131" lon="3.53611">
        <ele>1137</ele>
        <time>2014-06-21T14:16:27.000Z</time>
      </trkpt>
      <trkpt lat="44.23131" lon="3.53611">
        <ele>1137</ele>
        <time>2014-06-21T14:16:29.000Z</time>
      </trkpt>
      <trkpt lat="44.23131" lon="3.53611">
        <ele>1137</ele>
        <time>2014-06-21T14:16:31.000Z</time>
      </trkpt>
      <trkpt lat="44.23078" lon="3.53535">
        <ele>1139</ele>
        <time>2014-06-21T14:16:35.000Z</time>
      </trkpt>
      <trkpt lat="44.23074" lon="3.53515">
        <ele>1139</ele>
        <time>2014-06-21T14:16:39.000Z</time>
      </trkpt>
      <trkpt lat="44.23068" lon="3.53494">
        <ele>1140</ele>
        <time>2014-06-21T14:16:43.000Z</time>
      </trkpt>
      <trkpt lat="44.2306" lon="3.53474">
        <ele>1141</ele>
        <time>2014-06-21T14:16:47.000Z</time>
      </trkpt>
      <trkpt lat="44.23053" lon="3.53453">
        <ele>1141</ele>
        <time>2014-06-21T14:16:51.000Z</time>
      </trkpt>
      <trkpt lat="44.23053" lon="3.53453">
        <ele>1141</ele>
        <time>2014-06-21T14:16:53.000Z</time>
      </trkpt>
      <trkpt lat="44.23053" lon="3.53453">
        <ele>1141</ele>
        <time>2014-06-21T14:16:55.000Z</time>
      </trkpt>
      <trkpt lat="44.23053" lon="3.53453">
        <ele>1141</ele>
        <time>2014-06-21T14:16:57.000Z</time>
      </trkpt>
      <trkpt lat="44.23053" lon="3.53453">
        <ele>1141</ele>
        <time>2014-06-21T14:16:59.000Z</time>
      </trkpt>
      <trkpt lat="44.23048" lon="3.53416">
        <ele>1142</ele>
        <time>2014-06-21T14:17:05.000Z</time>
      </trkpt>
      <trkpt lat="44.23045" lon="3.53392">
        <ele>1142</ele>
        <time>2014-06-21T14:17:07.000Z</time>
      </trkpt>
      <trkpt lat="44.23043" lon="3.53374">
        <ele>1141</ele>
        <time>2014-06-21T14:17:09.000Z</time>
      </trkpt>
      <trkpt lat="44.23043" lon="3.53374">
        <ele>1141</ele>
        <time>2014-06-21T14:17:11.000Z</time>
      </trkpt>
      <trkpt lat="44.23043" lon="3.53374">
        <ele>1141</ele>
        <time>2014-06-21T14:17:13.000Z</time>
      </trkpt>
      <trkpt lat="44.23043" lon="3.53374">
        <ele>1141</ele>
        <time>2014-06-21T14:17:15.000Z</time>
      </trkpt>
      <trkpt lat="44.23043" lon="3.53374">
        <ele>1141</ele>
        <time>2014-06-21T14:17:17.000Z</time>
      </trkpt>
      <trkpt lat="44.23043" lon="3.53374">
        <ele>1141</ele>
        <time>2014-06-21T14:17:19.000Z</time>
      </trkpt>
      <trkpt lat="44.23043" lon="3.53374">
        <ele>1141</ele>
        <time>2014-06-21T14:17:21.000Z</time>
      </trkpt>
      <trkpt lat="44.23043" lon="3.53374">
        <ele>1141</ele>
        <time>2014-06-21T14:17:23.000Z</time>
      </trkpt>
      <trkpt lat="44.23043" lon="3.53374">
        <ele>1141</ele>
        <time>2014-06-21T14:17:25.000Z</time>
      </trkpt>
      <trkpt lat="44.23043" lon="3.53374">
        <ele>1141</ele>
        <time>2014-06-21T14:17:27.000Z</time>
      </trkpt>
      <trkpt lat="44.23043" lon="3.53374">
        <ele>1141</ele>
        <time>2014-06-21T14:17:29.000Z</time>
      </trkpt>
      <trkpt lat="44.23043" lon="3.53374">
        <ele>1141</ele>
        <time>2014-06-21T14:17:31.000Z</time>
      </trkpt>
      <trkpt lat="44.23043" lon="3.53374">
        <ele>1141</ele>
        <time>2014-06-21T14:17:35.000Z</time>
      </trkpt>
      <trkpt lat="44.2303" lon="3.53313">
        <ele>1149</ele>
        <time>2014-06-21T14:17:39.000Z</time>
      </trkpt>
      <trkpt lat="44.23022" lon="3.5328">
        <ele>1148</ele>
        <time>2014-06-21T14:17:41.000Z</time>
      </trkpt>
      <trkpt lat="44.23018" lon="3.53263">
        <ele>1149</ele>
        <time>2014-06-21T14:17:42.000Z</time>
      </trkpt>
      <trkpt lat="44.23015" lon="3.53251">
        <ele>1148</ele>
        <time>2014-06-21T14:17:44.000Z</time>
      </trkpt>
      <trkpt lat="44.23015" lon="3.53251">
        <ele>1148</ele>
        <time>2014-06-21T14:17:46.000Z</time>
      </trkpt>
      <trkpt lat="44.23006" lon="3.53227">
        <ele>1148</ele>
        <time>2014-06-21T14:17:57.000Z</time>
      </trkpt>
      <trkpt lat="44.23001" lon="3.53212">
        <ele>1148</ele>
        <time>2014-06-21T14:17:59.000Z</time>
      </trkpt>
      <trkpt lat="44.22998" lon="3.532">
        <ele>1148</ele>
        <time>2014-06-21T14:18:01.000Z</time>
      </trkpt>
      <trkpt lat="44.22997" lon="3.53189">
        <ele>1148</ele>
        <time>2014-06-21T14:18:03.000Z</time>
      </trkpt>
      <trkpt lat="44.22997" lon="3.53177">
        <ele>1149</ele>
        <time>2014-06-21T14:18:05.000Z</time>
      </trkpt>
      <trkpt lat="44.22997" lon="3.53154">
        <ele>1149</ele>
        <time>2014-06-21T14:18:07.000Z</time>
      </trkpt>
      <trkpt lat="44.22993" lon="3.5314">
        <ele>1150</ele>
        <time>2014-06-21T14:18:10.000Z</time>
      </trkpt>
      <trkpt lat="44.22993" lon="3.5314">
        <ele>1150</ele>
        <time>2014-06-21T14:18:12.000Z</time>
      </trkpt>
      <trkpt lat="44.22993" lon="3.5314">
        <ele>1150</ele>
        <time>2014-06-21T14:18:14.000Z</time>
      </trkpt>
      <trkpt lat="44.22993" lon="3.5314">
        <ele>1150</ele>
        <time>2014-06-21T14:18:16.000Z</time>
      </trkpt>
      <trkpt lat="44.22993" lon="3.5314">
        <ele>1150</ele>
        <time>2014-06-21T14:18:18.000Z</time>
      </trkpt>
      <trkpt lat="44.22993" lon="3.5314">
        <ele>1150</ele>
        <time>2014-06-21T14:18:26.000Z</time>
      </trkpt>
      <trkpt lat="44.22993" lon="3.5314">
        <ele>1150</ele>
        <time>2014-06-21T14:18:28.000Z</time>
      </trkpt>
      <trkpt lat="44.22961" lon="3.53067">
        <ele>1152</ele>
        <time>2014-06-21T14:18:30.000Z</time>
      </trkpt>
      <trkpt lat="44.22951" lon="3.53054">
        <ele>1153</ele>
        <time>2014-06-21T14:18:34.000Z</time>
      </trkpt>
      <trkpt lat="44.22951" lon="3.53054">
        <ele>1153</ele>
        <time>2014-06-21T14:18:38.000Z</time>
      </trkpt>
      <trkpt lat="44.22951" lon="3.53054">
        <ele>1153</ele>
        <time>2014-06-21T14:18:40.000Z</time>
      </trkpt>
      <trkpt lat="44.22934" lon="3.53019">
        <ele>1154</ele>
        <time>2014-06-21T14:18:44.000Z</time>
      </trkpt>
      <trkpt lat="44.22931" lon="3.52997">
        <ele>1153</ele>
        <time>2014-06-21T14:18:48.000Z</time>
      </trkpt>
      <trkpt lat="44.22931" lon="3.52983">
        <ele>1153</ele>
        <time>2014-06-21T14:18:50.000Z</time>
      </trkpt>
      <trkpt lat="44.22933" lon="3.52968">
        <ele>1153</ele>
        <time>2014-06-21T14:18:52.000Z</time>
      </trkpt>
      <trkpt lat="44.22934" lon="3.5295">
        <ele>1153</ele>
        <time>2014-06-21T14:18:54.000Z</time>
      </trkpt>
      <trkpt lat="44.22934" lon="3.52932">
        <ele>1152</ele>
        <time>2014-06-21T14:18:56.000Z</time>
      </trkpt>
      <trkpt lat="44.22934" lon="3.52913">
        <ele>1153</ele>
        <time>2014-06-21T14:18:58.000Z</time>
      </trkpt>
      <trkpt lat="44.22928" lon="3.52897">
        <ele>1154</ele>
        <time>2014-06-21T14:19:00.000Z</time>
      </trkpt>
      <trkpt lat="44.2292" lon="3.52885">
        <ele>1155</ele>
        <time>2014-06-21T14:19:02.000Z</time>
      </trkpt>
      <trkpt lat="44.22911" lon="3.52878">
        <ele>1155</ele>
        <time>2014-06-21T14:19:04.000Z</time>
      </trkpt>
      <trkpt lat="44.22911" lon="3.52878">
        <ele>1155</ele>
        <time>2014-06-21T14:19:06.000Z</time>
      </trkpt>
      <trkpt lat="44.22911" lon="3.52878">
        <ele>1155</ele>
        <time>2014-06-21T14:19:08.000Z</time>
      </trkpt>
      <trkpt lat="44.22911" lon="3.52878">
        <ele>1155</ele>
        <time>2014-06-21T14:19:10.000Z</time>
      </trkpt>
      <trkpt lat="44.22911" lon="3.52878">
        <ele>1155</ele>
        <time>2014-06-21T14:19:12.000Z</time>
      </trkpt>
      <trkpt lat="44.22911" lon="3.52878">
        <ele>1155</ele>
        <time>2014-06-21T14:19:14.000Z</time>
      </trkpt>
      <trkpt lat="44.22911" lon="3.52878">
        <ele>1155</ele>
        <time>2014-06-21T14:19:16.000Z</time>
      </trkpt>
      <trkpt lat="44.22911" lon="3.52878">
        <ele>1155</ele>
        <time>2014-06-21T14:19:18.000Z</time>
      </trkpt>
      <trkpt lat="44.22911" lon="3.52878">
        <ele>1155</ele>
        <time>2014-06-21T14:19:20.000Z</time>
      </trkpt>
      <trkpt lat="44.22911" lon="3.52878">
        <ele>1155</ele>
        <time>2014-06-21T14:19:22.000Z</time>
      </trkpt>
      <trkpt lat="44.22836" lon="3.52858">
        <ele>1158</ele>
        <time>2014-06-21T14:19:26.000Z</time>
      </trkpt>
      <trkpt lat="44.22821" lon="3.52858">
        <ele>1159</ele>
        <time>2014-06-21T14:19:30.000Z</time>
      </trkpt>
      <trkpt lat="44.22806" lon="3.52862">
        <ele>1158</ele>
        <time>2014-06-21T14:19:34.000Z</time>
      </trkpt>
      <trkpt lat="44.22806" lon="3.52862">
        <ele>1158</ele>
        <time>2014-06-21T14:19:36.000Z</time>
      </trkpt>
      <trkpt lat="44.22806" lon="3.52862">
        <ele>1158</ele>
        <time>2014-06-21T14:19:38.000Z</time>
      </trkpt>
      <trkpt lat="44.22806" lon="3.52862">
        <ele>1158</ele>
        <time>2014-06-21T14:19:40.000Z</time>
      </trkpt>
      <trkpt lat="44.22806" lon="3.52862">
        <ele>1158</ele>
        <time>2014-06-21T14:19:42.000Z</time>
      </trkpt>
      <trkpt lat="44.22806" lon="3.52862">
        <ele>1158</ele>
        <time>2014-06-21T14:19:44.000Z</time>
      </trkpt>
      <trkpt lat="44.22806" lon="3.52862">
        <ele>1158</ele>
        <time>2014-06-21T14:19:46.000Z</time>
      </trkpt>
      <trkpt lat="44.22784" lon="3.52873">
        <ele>1160</ele>
        <time>2014-06-21T14:19:50.000Z</time>
      </trkpt>
      <trkpt lat="44.22771" lon="3.52879">
        <ele>1160</ele>
        <time>2014-06-21T14:19:52.000Z</time>
      </trkpt>
      <trkpt lat="44.22761" lon="3.52882">
        <ele>1160</ele>
        <time>2014-06-21T14:19:54.000Z</time>
      </trkpt>
      <trkpt lat="44.22752" lon="3.52885">
        <ele>1160</ele>
        <time>2014-06-21T14:19:56.000Z</time>
      </trkpt>
      <trkpt lat="44.22746" lon="3.52886">
        <ele>1160</ele>
        <time>2014-06-21T14:19:58.000Z</time>
      </trkpt>
      <trkpt lat="44.22746" lon="3.52886">
        <ele>1160</ele>
        <time>2014-06-21T14:20:00.000Z</time>
      </trkpt>
      <trkpt lat="44.22746" lon="3.52886">
        <ele>1160</ele>
        <time>2014-06-21T14:20:02.000Z</time>
      </trkpt>
      <trkpt lat="44.22746" lon="3.52886">
        <ele>1160</ele>
        <time>2014-06-21T14:20:04.000Z</time>
      </trkpt>
      <trkpt lat="44.22709" lon="3.52891">
        <ele>1159</ele>
        <time>2014-06-21T14:20:08.000Z</time>
      </trkpt>
      <trkpt lat="44.22696" lon="3.52892">
        <ele>1159</ele>
        <time>2014-06-21T14:20:12.000Z</time>
      </trkpt>
      <trkpt lat="44.22683" lon="3.5289">
        <ele>1160</ele>
        <time>2014-06-21T14:20:16.000Z</time>
      </trkpt>
      <trkpt lat="44.2267" lon="3.52888">
        <ele>1160</ele>
        <time>2014-06-21T14:20:20.000Z</time>
      </trkpt>
      <trkpt lat="44.2267" lon="3.52888">
        <ele>1160</ele>
        <time>2014-06-21T14:20:22.000Z</time>
      </trkpt>
      <trkpt lat="44.2267" lon="3.52888">
        <ele>1160</ele>
        <time>2014-06-21T14:20:24.000Z</time>
      </trkpt>
      <trkpt lat="44.2267" lon="3.52888">
        <ele>1160</ele>
        <time>2014-06-21T14:20:26.000Z</time>
      </trkpt>
      <trkpt lat="44.2267" lon="3.52888">
        <ele>1160</ele>
        <time>2014-06-21T14:20:34.000Z</time>
      </trkpt>
      <trkpt lat="44.2267" lon="3.52888">
        <ele>1160</ele>
        <time>2014-06-21T14:20:37.000Z</time>
      </trkpt>
      <trkpt lat="44.22617" lon="3.52865">
        <ele>1162</ele>
        <time>2014-06-21T14:20:39.000Z</time>
      </trkpt>
      <trkpt lat="44.22606" lon="3.52854">
        <ele>1162</ele>
        <time>2014-06-21T14:20:43.000Z</time>
      </trkpt>
      <trkpt lat="44.22594" lon="3.5284">
        <ele>1163</ele>
        <time>2014-06-21T14:20:47.000Z</time>
      </trkpt>
      <trkpt lat="44.22579" lon="3.52828">
        <ele>1163</ele>
        <time>2014-06-21T14:20:51.000Z</time>
      </trkpt>
      <trkpt lat="44.22564" lon="3.52817">
        <ele>1162</ele>
        <time>2014-06-21T14:20:55.000Z</time>
      </trkpt>
      <trkpt lat="44.22549" lon="3.52804">
        <ele>1163</ele>
        <time>2014-06-21T14:20:59.000Z</time>
      </trkpt>
      <trkpt lat="44.22543" lon="3.52793">
        <ele>1163</ele>
        <time>2014-06-21T14:21:01.000Z</time>
      </trkpt>
      <trkpt lat="44.22534" lon="3.52774">
        <ele>1162</ele>
        <time>2014-06-21T14:21:05.000Z</time>
      </trkpt>
      <trkpt lat="44.22529" lon="3.52762">
        <ele>1162</ele>
        <time>2014-06-21T14:21:07.000Z</time>
      </trkpt>
      <trkpt lat="44.22525" lon="3.52749">
        <ele>1162</ele>
        <time>2014-06-21T14:21:09.000Z</time>
      </trkpt>
      <trkpt lat="44.22525" lon="3.52734">
        <ele>1162</ele>
        <time>2014-06-21T14:21:11.000Z</time>
      </trkpt>
      <trkpt lat="44.22528" lon="3.5272">
        <ele>1163</ele>
        <time>2014-06-21T14:21:13.000Z</time>
      </trkpt>
      <trkpt lat="44.22537" lon="3.52707">
        <ele>1163</ele>
        <time>2014-06-21T14:21:15.000Z</time>
      </trkpt>
      <trkpt lat="44.2255" lon="3.527">
        <ele>1161</ele>
        <time>2014-06-21T14:21:17.000Z</time>
      </trkpt>
      <trkpt lat="44.22565" lon="3.52696">
        <ele>1160</ele>
        <time>2014-06-21T14:21:19.000Z</time>
      </trkpt>
      <trkpt lat="44.2258" lon="3.52693">
        <ele>1160</ele>
        <time>2014-06-21T14:21:21.000Z</time>
      </trkpt>
      <trkpt lat="44.22597" lon="3.52691">
        <ele>1158</ele>
        <time>2014-06-21T14:21:23.000Z</time>
      </trkpt>
      <trkpt lat="44.22615" lon="3.52688">
        <ele>1158</ele>
        <time>2014-06-21T14:21:25.000Z</time>
      </trkpt>
      <trkpt lat="44.22634" lon="3.52681">
        <ele>1156</ele>
        <time>2014-06-21T14:21:27.000Z</time>
      </trkpt>
      <trkpt lat="44.2265" lon="3.52672">
        <ele>1155</ele>
        <time>2014-06-21T14:21:29.000Z</time>
      </trkpt>
      <trkpt lat="44.22667" lon="3.52662">
        <ele>1154</ele>
        <time>2014-06-21T14:21:31.000Z</time>
      </trkpt>
      <trkpt lat="44.22683" lon="3.5265">
        <ele>1152</ele>
        <time>2014-06-21T14:21:33.000Z</time>
      </trkpt>
      <trkpt lat="44.22698" lon="3.52635">
        <ele>1151</ele>
        <time>2014-06-21T14:21:35.000Z</time>
      </trkpt>
      <trkpt lat="44.22712" lon="3.52619">
        <ele>1150</ele>
        <time>2014-06-21T14:21:37.000Z</time>
      </trkpt>
      <trkpt lat="44.22721" lon="3.52604">
        <ele>1148</ele>
        <time>2014-06-21T14:21:39.000Z</time>
      </trkpt>
      <trkpt lat="44.2273" lon="3.52588">
        <ele>1148</ele>
        <time>2014-06-21T14:21:41.000Z</time>
      </trkpt>
      <trkpt lat="44.22738" lon="3.52574">
        <ele>1147</ele>
        <time>2014-06-21T14:21:43.000Z</time>
      </trkpt>
      <trkpt lat="44.22746" lon="3.52559">
        <ele>1145</ele>
        <time>2014-06-21T14:21:45.000Z</time>
      </trkpt>
      <trkpt lat="44.22753" lon="3.52543">
        <ele>1144</ele>
        <time>2014-06-21T14:21:47.000Z</time>
      </trkpt>
      <trkpt lat="44.22759" lon="3.52527">
        <ele>1144</ele>
        <time>2014-06-21T14:21:49.000Z</time>
      </trkpt>
      <trkpt lat="44.22769" lon="3.52505">
        <ele>1142</ele>
        <time>2014-06-21T14:21:52.000Z</time>
      </trkpt>
      <trkpt lat="44.22775" lon="3.52493">
        <ele>1142</ele>
        <time>2014-06-21T14:21:54.000Z</time>
      </trkpt>
      <trkpt lat="44.22775" lon="3.52493">
        <ele>1142</ele>
        <time>2014-06-21T14:21:56.000Z</time>
      </trkpt>
      <trkpt lat="44.22775" lon="3.52493">
        <ele>1142</ele>
        <time>2014-06-21T14:21:58.000Z</time>
      </trkpt>
      <trkpt lat="44.22775" lon="3.52493">
        <ele>1142</ele>
        <time>2014-06-21T14:22:00.000Z</time>
      </trkpt>
      <trkpt lat="44.22775" lon="3.52493">
        <ele>1142</ele>
        <time>2014-06-21T14:22:02.000Z</time>
      </trkpt>
      <trkpt lat="44.22775" lon="3.52493">
        <ele>1142</ele>
        <time>2014-06-21T14:22:03.000Z</time>
      </trkpt>
      <trkpt lat="44.22775" lon="3.52493">
        <ele>1142</ele>
        <time>2014-06-21T14:22:05.000Z</time>
      </trkpt>
      <trkpt lat="44.22775" lon="3.52493">
        <ele>1142</ele>
        <time>2014-06-21T14:22:07.000Z</time>
      </trkpt>
      <trkpt lat="44.22775" lon="3.52493">
        <ele>1142</ele>
        <time>2014-06-21T14:22:09.000Z</time>
      </trkpt>
      <trkpt lat="44.22775" lon="3.52493">
        <ele>1142</ele>
        <time>2014-06-21T14:22:11.000Z</time>
      </trkpt>
      <trkpt lat="44.22775" lon="3.52493">
        <ele>1142</ele>
        <time>2014-06-21T14:22:13.000Z</time>
      </trkpt>
      <trkpt lat="44.22775" lon="3.52493">
        <ele>1142</ele>
        <time>2014-06-21T14:22:15.000Z</time>
      </trkpt>
      <trkpt lat="44.22776" lon="3.52467">
        <ele>1138</ele>
        <time>2014-06-21T14:23:33.000Z</time>
      </trkpt>
      <trkpt lat="44.22772" lon="3.5245">
        <ele>1137</ele>
        <time>2014-06-21T14:23:35.000Z</time>
      </trkpt>
      <trkpt lat="44.22766" lon="3.52437">
        <ele>1135</ele>
        <time>2014-06-21T14:23:37.000Z</time>
      </trkpt>
      <trkpt lat="44.22758" lon="3.52425">
        <ele>1134</ele>
        <time>2014-06-21T14:23:39.000Z</time>
      </trkpt>
      <trkpt lat="44.22749" lon="3.52411">
        <ele>1135</ele>
        <time>2014-06-21T14:23:41.000Z</time>
      </trkpt>
      <trkpt lat="44.2273" lon="3.5238">
        <ele>1134</ele>
        <time>2014-06-21T14:23:43.000Z</time>
      </trkpt>
      <trkpt lat="44.22721" lon="3.52362">
        <ele>1133</ele>
        <time>2014-06-21T14:23:45.000Z</time>
      </trkpt>
      <trkpt lat="44.2271" lon="3.52343">
        <ele>1131</ele>
        <time>2014-06-21T14:23:47.000Z</time>
      </trkpt>
      <trkpt lat="44.22698" lon="3.52324">
        <ele>1131</ele>
        <time>2014-06-21T14:23:49.000Z</time>
      </trkpt>
      <trkpt lat="44.22687" lon="3.52305">
        <ele>1130</ele>
        <time>2014-06-21T14:23:51.000Z</time>
      </trkpt>
      <trkpt lat="44.22675" lon="3.52285">
        <ele>1129</ele>
        <time>2014-06-21T14:23:53.000Z</time>
      </trkpt>
      <trkpt lat="44.22663" lon="3.52266">
        <ele>1128</ele>
        <time>2014-06-21T14:23:55.000Z</time>
      </trkpt>
      <trkpt lat="44.22652" lon="3.52248">
        <ele>1128</ele>
        <time>2014-06-21T14:23:57.000Z</time>
      </trkpt>
      <trkpt lat="44.22643" lon="3.5223">
        <ele>1128</ele>
        <time>2014-06-21T14:23:59.000Z</time>
      </trkpt>
      <trkpt lat="44.22632" lon="3.52212">
        <ele>1127</ele>
        <time>2014-06-21T14:24:01.000Z</time>
      </trkpt>
      <trkpt lat="44.22623" lon="3.52197">
        <ele>1128</ele>
        <time>2014-06-21T14:24:03.000Z</time>
      </trkpt>
      <trkpt lat="44.22614" lon="3.52182">
        <ele>1129</ele>
        <time>2014-06-21T14:24:05.000Z</time>
      </trkpt>
      <trkpt lat="44.22604" lon="3.52167">
        <ele>1128</ele>
        <time>2014-06-21T14:24:07.000Z</time>
      </trkpt>
      <trkpt lat="44.22594" lon="3.52154">
        <ele>1128</ele>
        <time>2014-06-21T14:24:09.000Z</time>
      </trkpt>
      <trkpt lat="44.22594" lon="3.52154">
        <ele>1128</ele>
        <time>2014-06-21T14:24:10.000Z</time>
      </trkpt>
      <trkpt lat="44.22583" lon="3.52136">
        <ele>1129</ele>
        <time>2014-06-21T14:24:12.000Z</time>
      </trkpt>
      <trkpt lat="44.22576" lon="3.52125">
        <ele>1129</ele>
        <time>2014-06-21T14:24:14.000Z</time>
      </trkpt>
      <trkpt lat="44.22569" lon="3.52114">
        <ele>1130</ele>
        <time>2014-06-21T14:24:16.000Z</time>
      </trkpt>
      <trkpt lat="44.22562" lon="3.52104">
        <ele>1130</ele>
        <time>2014-06-21T14:24:18.000Z</time>
      </trkpt>
      <trkpt lat="44.22555" lon="3.52094">
        <ele>1130</ele>
        <time>2014-06-21T14:24:20.000Z</time>
      </trkpt>
      <trkpt lat="44.22548" lon="3.52083">
        <ele>1130</ele>
        <time>2014-06-21T14:24:22.000Z</time>
      </trkpt>
      <trkpt lat="44.22539" lon="3.52072">
        <ele>1130</ele>
        <time>2014-06-21T14:24:24.000Z</time>
      </trkpt>
      <trkpt lat="44.22532" lon="3.52061">
        <ele>1130</ele>
        <time>2014-06-21T14:24:26.000Z</time>
      </trkpt>
      <trkpt lat="44.22523" lon="3.52048">
        <ele>1130</ele>
        <time>2014-06-21T14:24:28.000Z</time>
      </trkpt>
      <trkpt lat="44.22516" lon="3.52035">
        <ele>1130</ele>
        <time>2014-06-21T14:24:30.000Z</time>
      </trkpt>
      <trkpt lat="44.22509" lon="3.52023">
        <ele>1130</ele>
        <time>2014-06-21T14:24:32.000Z</time>
      </trkpt>
      <trkpt lat="44.22502" lon="3.52011">
        <ele>1131</ele>
        <time>2014-06-21T14:24:34.000Z</time>
      </trkpt>
      <trkpt lat="44.22502" lon="3.52011">
        <ele>1131</ele>
        <time>2014-06-21T14:24:35.000Z</time>
      </trkpt>
      <trkpt lat="44.2249" lon="3.51996">
        <ele>1130</ele>
        <time>2014-06-21T14:24:37.000Z</time>
      </trkpt>
      <trkpt lat="44.22482" lon="3.51985">
        <ele>1131</ele>
        <time>2014-06-21T14:24:39.000Z</time>
      </trkpt>
      <trkpt lat="44.22475" lon="3.51976">
        <ele>1129</ele>
        <time>2014-06-21T14:24:41.000Z</time>
      </trkpt>
      <trkpt lat="44.22475" lon="3.51976">
        <ele>1129</ele>
        <time>2014-06-21T14:24:43.000Z</time>
      </trkpt>
      <trkpt lat="44.2245" lon="3.51944">
        <ele>1131</ele>
        <time>2014-06-21T14:24:47.000Z</time>
      </trkpt>
      <trkpt lat="44.22442" lon="3.51934">
        <ele>1131</ele>
        <time>2014-06-21T14:24:49.000Z</time>
      </trkpt>
      <trkpt lat="44.22442" lon="3.51934">
        <ele>1131</ele>
        <time>2014-06-21T14:24:51.000Z</time>
      </trkpt>
      <trkpt lat="44.22442" lon="3.51934">
        <ele>1131</ele>
        <time>2014-06-21T14:24:53.000Z</time>
      </trkpt>
      <trkpt lat="44.22442" lon="3.51934">
        <ele>1131</ele>
        <time>2014-06-21T14:24:55.000Z</time>
      </trkpt>
      <trkpt lat="44.22442" lon="3.51934">
        <ele>1131</ele>
        <time>2014-06-21T14:24:57.000Z</time>
      </trkpt>
      <trkpt lat="44.22442" lon="3.51934">
        <ele>1131</ele>
        <time>2014-06-21T14:24:59.000Z</time>
      </trkpt>
      <trkpt lat="44.22442" lon="3.51934">
        <ele>1131</ele>
        <time>2014-06-21T14:25:00.000Z</time>
      </trkpt>
      <trkpt lat="44.22442" lon="3.51934">
        <ele>1131</ele>
        <time>2014-06-21T14:25:02.000Z</time>
      </trkpt>
      <trkpt lat="44.22371" lon="3.51828">
        <ele>1131</ele>
        <time>2014-06-21T14:25:10.000Z</time>
      </trkpt>
      <trkpt lat="44.22366" lon="3.51817">
        <ele>1131</ele>
        <time>2014-06-21T14:25:12.000Z</time>
      </trkpt>
      <trkpt lat="44.2236" lon="3.51806">
        <ele>1131</ele>
        <time>2014-06-21T14:25:14.000Z</time>
      </trkpt>
      <trkpt lat="44.22351" lon="3.51789">
        <ele>1133</ele>
        <time>2014-06-21T14:25:17.000Z</time>
      </trkpt>
      <trkpt lat="44.22346" lon="3.51777">
        <ele>1133</ele>
        <time>2014-06-21T14:25:19.000Z</time>
      </trkpt>
      <trkpt lat="44.2234" lon="3.51765">
        <ele>1133</ele>
        <time>2014-06-21T14:25:21.000Z</time>
      </trkpt>
      <trkpt lat="44.22334" lon="3.51752">
        <ele>1132</ele>
        <time>2014-06-21T14:25:23.000Z</time>
      </trkpt>
      <trkpt lat="44.22329" lon="3.5174">
        <ele>1132</ele>
        <time>2014-06-21T14:25:25.000Z</time>
      </trkpt>
      <trkpt lat="44.22323" lon="3.51729">
        <ele>1133</ele>
        <time>2014-06-21T14:25:27.000Z</time>
      </trkpt>
      <trkpt lat="44.22323" lon="3.51729">
        <ele>1133</ele>
        <time>2014-06-21T14:25:29.000Z</time>
      </trkpt>
      <trkpt lat="44.22323" lon="3.51729">
        <ele>1133</ele>
        <time>2014-06-21T14:25:31.000Z</time>
      </trkpt>
      <trkpt lat="44.22304" lon="3.51694">
        <ele>1133</ele>
        <time>2014-06-21T14:25:33.000Z</time>
      </trkpt>
      <trkpt lat="44.22296" lon="3.51684">
        <ele>1133</ele>
        <time>2014-06-21T14:25:35.000Z</time>
      </trkpt>
      <trkpt lat="44.22289" lon="3.51674">
        <ele>1133</ele>
        <time>2014-06-21T14:25:37.000Z</time>
      </trkpt>
      <trkpt lat="44.22281" lon="3.51665">
        <ele>1133</ele>
        <time>2014-06-21T14:25:39.000Z</time>
      </trkpt>
      <trkpt lat="44.22273" lon="3.51655">
        <ele>1132</ele>
        <time>2014-06-21T14:25:41.000Z</time>
      </trkpt>
      <trkpt lat="44.22265" lon="3.51645">
        <ele>1132</ele>
        <time>2014-06-21T14:25:43.000Z</time>
      </trkpt>
      <trkpt lat="44.22258" lon="3.51636">
        <ele>1132</ele>
        <time>2014-06-21T14:25:45.000Z</time>
      </trkpt>
      <trkpt lat="44.22258" lon="3.51636">
        <ele>1132</ele>
        <time>2014-06-21T14:25:47.000Z</time>
      </trkpt>
      <trkpt lat="44.22258" lon="3.51636">
        <ele>1132</ele>
        <time>2014-06-21T14:25:49.000Z</time>
      </trkpt>
      <trkpt lat="44.22258" lon="3.51636">
        <ele>1132</ele>
        <time>2014-06-21T14:25:51.000Z</time>
      </trkpt>
      <trkpt lat="44.22258" lon="3.51636">
        <ele>1132</ele>
        <time>2014-06-21T14:25:53.000Z</time>
      </trkpt>
      <trkpt lat="44.22258" lon="3.51636">
        <ele>1132</ele>
        <time>2014-06-21T14:25:55.000Z</time>
      </trkpt>
      <trkpt lat="44.22258" lon="3.51636">
        <ele>1132</ele>
        <time>2014-06-21T14:25:57.000Z</time>
      </trkpt>
      <trkpt lat="44.22196" lon="3.51565">
        <ele>1132</ele>
        <time>2014-06-21T14:26:01.000Z</time>
      </trkpt>
      <trkpt lat="44.22188" lon="3.51557">
        <ele>1133</ele>
        <time>2014-06-21T14:26:03.000Z</time>
      </trkpt>
      <trkpt lat="44.22188" lon="3.51557">
        <ele>1133</ele>
        <time>2014-06-21T14:26:05.000Z</time>
      </trkpt>
      <trkpt lat="44.22188" lon="3.51557">
        <ele>1133</ele>
        <time>2014-06-21T14:26:07.000Z</time>
      </trkpt>
      <trkpt lat="44.22188" lon="3.51557">
        <ele>1133</ele>
        <time>2014-06-21T14:26:09.000Z</time>
      </trkpt>
      <trkpt lat="44.22188" lon="3.51557">
        <ele>1133</ele>
        <time>2014-06-21T14:26:11.000Z</time>
      </trkpt>
      <trkpt lat="44.22188" lon="3.51557">
        <ele>1133</ele>
        <time>2014-06-21T14:26:13.000Z</time>
      </trkpt>
      <trkpt lat="44.22188" lon="3.51557">
        <ele>1133</ele>
        <time>2014-06-21T14:26:15.000Z</time>
      </trkpt>
      <trkpt lat="44.22155" lon="3.51531">
        <ele>1134</ele>
        <time>2014-06-21T14:26:19.000Z</time>
      </trkpt>
      <trkpt lat="44.22134" lon="3.51517">
        <ele>1134</ele>
        <time>2014-06-21T14:26:21.000Z</time>
      </trkpt>
      <trkpt lat="44.22118" lon="3.51507">
        <ele>1133</ele>
        <time>2014-06-21T14:26:23.000Z</time>
      </trkpt>
      <trkpt lat="44.22106" lon="3.515">
        <ele>1134</ele>
        <time>2014-06-21T14:26:25.000Z</time>
      </trkpt>
      <trkpt lat="44.22096" lon="3.51493">
        <ele>1134</ele>
        <time>2014-06-21T14:26:27.000Z</time>
      </trkpt>
      <trkpt lat="44.22096" lon="3.51493">
        <ele>1134</ele>
        <time>2014-06-21T14:26:29.000Z</time>
      </trkpt>
      <trkpt lat="44.22096" lon="3.51493">
        <ele>1134</ele>
        <time>2014-06-21T14:26:31.000Z</time>
      </trkpt>
      <trkpt lat="44.2206" lon="3.5147">
        <ele>1134</ele>
        <time>2014-06-21T14:26:33.000Z</time>
      </trkpt>
      <trkpt lat="44.2205" lon="3.51468">
        <ele>1134</ele>
        <time>2014-06-21T14:26:35.000Z</time>
      </trkpt>
      <trkpt lat="44.22041" lon="3.51467">
        <ele>1134</ele>
        <time>2014-06-21T14:26:37.000Z</time>
      </trkpt>
      <trkpt lat="44.22032" lon="3.51466">
        <ele>1134</ele>
        <time>2014-06-21T14:26:39.000Z</time>
      </trkpt>
      <trkpt lat="44.22032" lon="3.51466">
        <ele>1134</ele>
        <time>2014-06-21T14:26:41.000Z</time>
      </trkpt>
      <trkpt lat="44.22032" lon="3.51466">
        <ele>1134</ele>
        <time>2014-06-21T14:26:43.000Z</time>
      </trkpt>
      <trkpt lat="44.22032" lon="3.51466">
        <ele>1134</ele>
        <time>2014-06-21T14:26:45.000Z</time>
      </trkpt>
      <trkpt lat="44.22032" lon="3.51466">
        <ele>1134</ele>
        <time>2014-06-21T14:26:47.000Z</time>
      </trkpt>
      <trkpt lat="44.22032" lon="3.51466">
        <ele>1134</ele>
        <time>2014-06-21T14:26:49.000Z</time>
      </trkpt>
      <trkpt lat="44.22032" lon="3.51466">
        <ele>1134</ele>
        <time>2014-06-21T14:26:51.000Z</time>
      </trkpt>
      <trkpt lat="44.22032" lon="3.51466">
        <ele>1134</ele>
        <time>2014-06-21T14:26:53.000Z</time>
      </trkpt>
      <trkpt lat="44.22032" lon="3.51466">
        <ele>1134</ele>
        <time>2014-06-21T14:26:55.000Z</time>
      </trkpt>
      <trkpt lat="44.22032" lon="3.51466">
        <ele>1134</ele>
        <time>2014-06-21T14:26:57.000Z</time>
      </trkpt>
      <trkpt lat="44.22032" lon="3.51466">
        <ele>1134</ele>
        <time>2014-06-21T14:26:59.000Z</time>
      </trkpt>
      <trkpt lat="44.22032" lon="3.51466">
        <ele>1134</ele>
        <time>2014-06-21T14:27:01.000Z</time>
      </trkpt>
      <trkpt lat="44.22032" lon="3.51466">
        <ele>1134</ele>
        <time>2014-06-21T14:27:03.000Z</time>
      </trkpt>
      <trkpt lat="44.22032" lon="3.51466">
        <ele>1134</ele>
        <time>2014-06-21T14:27:05.000Z</time>
      </trkpt>
      <trkpt lat="44.21901" lon="3.51439">
        <ele>1134</ele>
        <time>2014-06-21T14:27:09.000Z</time>
      </trkpt>
      <trkpt lat="44.21888" lon="3.51438">
        <ele>1134</ele>
        <time>2014-06-21T14:27:12.000Z</time>
      </trkpt>
      <trkpt lat="44.21871" lon="3.51436">
        <ele>1134</ele>
        <time>2014-06-21T14:27:16.000Z</time>
      </trkpt>
      <trkpt lat="44.21871" lon="3.51436">
        <ele>1134</ele>
        <time>2014-06-21T14:27:18.000Z</time>
      </trkpt>
      <trkpt lat="44.21871" lon="3.51436">
        <ele>1134</ele>
        <time>2014-06-21T14:27:20.000Z</time>
      </trkpt>
      <trkpt lat="44.21871" lon="3.51436">
        <ele>1134</ele>
        <time>2014-06-21T14:27:22.000Z</time>
      </trkpt>
      <trkpt lat="44.21832" lon="3.51412">
        <ele>1139</ele>
        <time>2014-06-21T14:27:26.000Z</time>
      </trkpt>
      <trkpt lat="44.21819" lon="3.51397">
        <ele>1138</ele>
        <time>2014-06-21T14:27:30.000Z</time>
      </trkpt>
      <trkpt lat="44.21811" lon="3.51389">
        <ele>1139</ele>
        <time>2014-06-21T14:27:32.000Z</time>
      </trkpt>
      <trkpt lat="44.21796" lon="3.51375">
        <ele>1139</ele>
        <time>2014-06-21T14:27:36.000Z</time>
      </trkpt>
      <trkpt lat="44.21796" lon="3.51375">
        <ele>1139</ele>
        <time>2014-06-21T14:27:38.000Z</time>
      </trkpt>
      <trkpt lat="44.21796" lon="3.51375">
        <ele>1139</ele>
        <time>2014-06-21T14:27:40.000Z</time>
      </trkpt>
      <trkpt lat="44.21796" lon="3.51375">
        <ele>1139</ele>
        <time>2014-06-21T14:27:42.000Z</time>
      </trkpt>
      <trkpt lat="44.21796" lon="3.51375">
        <ele>1139</ele>
        <time>2014-06-21T14:27:44.000Z</time>
      </trkpt>
      <trkpt lat="44.21753" lon="3.51332">
        <ele>1138</ele>
        <time>2014-06-21T14:27:48.000Z</time>
      </trkpt>
      <trkpt lat="44.21745" lon="3.51326">
        <ele>1138</ele>
        <time>2014-06-21T14:27:50.000Z</time>
      </trkpt>
      <trkpt lat="44.21734" lon="3.5132">
        <ele>1137</ele>
        <time>2014-06-21T14:27:52.000Z</time>
      </trkpt>
      <trkpt lat="44.21726" lon="3.51313">
        <ele>1137</ele>
        <time>2014-06-21T14:27:54.000Z</time>
      </trkpt>
      <trkpt lat="44.21712" lon="3.51301">
        <ele>1136</ele>
        <time>2014-06-21T14:27:57.000Z</time>
      </trkpt>
      <trkpt lat="44.21703" lon="3.51293">
        <ele>1136</ele>
        <time>2014-06-21T14:27:59.000Z</time>
      </trkpt>
      <trkpt lat="44.21692" lon="3.51285">
        <ele>1136</ele>
        <time>2014-06-21T14:28:01.000Z</time>
      </trkpt>
      <trkpt lat="44.21682" lon="3.51276">
        <ele>1135</ele>
        <time>2014-06-21T14:28:03.000Z</time>
      </trkpt>
      <trkpt lat="44.21672" lon="3.51269">
        <ele>1135</ele>
        <time>2014-06-21T14:28:05.000Z</time>
      </trkpt>
      <trkpt lat="44.21663" lon="3.51263">
        <ele>1136</ele>
        <time>2014-06-21T14:28:07.000Z</time>
      </trkpt>
      <trkpt lat="44.21663" lon="3.51263">
        <ele>1136</ele>
        <time>2014-06-21T14:28:09.000Z</time>
      </trkpt>
      <trkpt lat="44.21663" lon="3.51263">
        <ele>1136</ele>
        <time>2014-06-21T14:28:11.000Z</time>
      </trkpt>
      <trkpt lat="44.21663" lon="3.51263">
        <ele>1136</ele>
        <time>2014-06-21T14:28:13.000Z</time>
      </trkpt>
      <trkpt lat="44.21639" lon="3.51238">
        <ele>1136</ele>
        <time>2014-06-21T14:28:19.000Z</time>
      </trkpt>
      <trkpt lat="44.21624" lon="3.51221">
        <ele>1135</ele>
        <time>2014-06-21T14:28:21.000Z</time>
      </trkpt>
      <trkpt lat="44.21614" lon="3.51205">
        <ele>1136</ele>
        <time>2014-06-21T14:28:23.000Z</time>
      </trkpt>
      <trkpt lat="44.21605" lon="3.5119">
        <ele>1136</ele>
        <time>2014-06-21T14:28:25.000Z</time>
      </trkpt>
      <trkpt lat="44.21597" lon="3.51176">
        <ele>1137</ele>
        <time>2014-06-21T14:28:27.000Z</time>
      </trkpt>
      <trkpt lat="44.21582" lon="3.51148">
        <ele>1136</ele>
        <time>2014-06-21T14:28:29.000Z</time>
      </trkpt>
      <trkpt lat="44.21577" lon="3.51135">
        <ele>1135</ele>
        <time>2014-06-21T14:28:31.000Z</time>
      </trkpt>
      <trkpt lat="44.2157" lon="3.5112">
        <ele>1135</ele>
        <time>2014-06-21T14:28:33.000Z</time>
      </trkpt>
      <trkpt lat="44.21563" lon="3.51107">
        <ele>1135</ele>
        <time>2014-06-21T14:28:35.000Z</time>
      </trkpt>
      <trkpt lat="44.21556" lon="3.51093">
        <ele>1135</ele>
        <time>2014-06-21T14:28:37.000Z</time>
      </trkpt>
      <trkpt lat="44.2155" lon="3.5108">
        <ele>1135</ele>
        <time>2014-06-21T14:28:39.000Z</time>
      </trkpt>
      <trkpt lat="44.21542" lon="3.51067">
        <ele>1136</ele>
        <time>2014-06-21T14:28:41.000Z</time>
      </trkpt>
      <trkpt lat="44.21534" lon="3.51054">
        <ele>1136</ele>
        <time>2014-06-21T14:28:43.000Z</time>
      </trkpt>
      <trkpt lat="44.21526" lon="3.5104">
        <ele>1136</ele>
        <time>2014-06-21T14:28:45.000Z</time>
      </trkpt>
      <trkpt lat="44.21519" lon="3.51026">
        <ele>1136</ele>
        <time>2014-06-21T14:28:47.000Z</time>
      </trkpt>
      <trkpt lat="44.2151" lon="3.51012">
        <ele>1136</ele>
        <time>2014-06-21T14:28:50.000Z</time>
      </trkpt>
      <trkpt lat="44.21502" lon="3.50997">
        <ele>1135</ele>
        <time>2014-06-21T14:28:51.000Z</time>
      </trkpt>
      <trkpt lat="44.21494" lon="3.50982">
        <ele>1135</ele>
        <time>2014-06-21T14:28:53.000Z</time>
      </trkpt>
      <trkpt lat="44.21485" lon="3.50965">
        <ele>1135</ele>
        <time>2014-06-21T14:28:55.000Z</time>
      </trkpt>
      <trkpt lat="44.21473" lon="3.50952">
        <ele>1134</ele>
        <time>2014-06-21T14:28:57.000Z</time>
      </trkpt>
      <trkpt lat="44.21461" lon="3.50942">
        <ele>1134</ele>
        <time>2014-06-21T14:28:59.000Z</time>
      </trkpt>
      <trkpt lat="44.21448" lon="3.50932">
        <ele>1133</ele>
        <time>2014-06-21T14:29:01.000Z</time>
      </trkpt>
      <trkpt lat="44.21436" lon="3.50921">
        <ele>1133</ele>
        <time>2014-06-21T14:29:03.000Z</time>
      </trkpt>
      <trkpt lat="44.21424" lon="3.50912">
        <ele>1133</ele>
        <time>2014-06-21T14:29:06.000Z</time>
      </trkpt>
      <trkpt lat="44.2141" lon="3.50902">
        <ele>1133</ele>
        <time>2014-06-21T14:29:07.000Z</time>
      </trkpt>
      <trkpt lat="44.21394" lon="3.50902">
        <ele>1133</ele>
        <time>2014-06-21T14:29:09.000Z</time>
      </trkpt>
      <trkpt lat="44.21379" lon="3.50898">
        <ele>1133</ele>
        <time>2014-06-21T14:29:11.000Z</time>
      </trkpt>
      <trkpt lat="44.21366" lon="3.50892">
        <ele>1132</ele>
        <time>2014-06-21T14:29:13.000Z</time>
      </trkpt>
      <trkpt lat="44.21352" lon="3.50883">
        <ele>1131</ele>
        <time>2014-06-21T14:29:15.000Z</time>
      </trkpt>
      <trkpt lat="44.21341" lon="3.50869">
        <ele>1131</ele>
        <time>2014-06-21T14:29:17.000Z</time>
      </trkpt>
      <trkpt lat="44.21329" lon="3.50856">
        <ele>1130</ele>
        <time>2014-06-21T14:29:19.000Z</time>
      </trkpt>
      <trkpt lat="44.2132" lon="3.50839">
        <ele>1130</ele>
        <time>2014-06-21T14:29:21.000Z</time>
      </trkpt>
      <trkpt lat="44.21312" lon="3.50822">
        <ele>1130</ele>
        <time>2014-06-21T14:29:23.000Z</time>
      </trkpt>
      <trkpt lat="44.21301" lon="3.50807">
        <ele>1130</ele>
        <time>2014-06-21T14:29:25.000Z</time>
      </trkpt>
      <trkpt lat="44.21288" lon="3.50794">
        <ele>1130</ele>
        <time>2014-06-21T14:29:27.000Z</time>
      </trkpt>
      <trkpt lat="44.21273" lon="3.50785">
        <ele>1128</ele>
        <time>2014-06-21T14:29:29.000Z</time>
      </trkpt>
      <trkpt lat="44.21257" lon="3.50777">
        <ele>1127</ele>
        <time>2014-06-21T14:29:31.000Z</time>
      </trkpt>
      <trkpt lat="44.21244" lon="3.50771">
        <ele>1126</ele>
        <time>2014-06-21T14:29:33.000Z</time>
      </trkpt>
      <trkpt lat="44.2123" lon="3.50763">
        <ele>1126</ele>
        <time>2014-06-21T14:29:35.000Z</time>
      </trkpt>
      <trkpt lat="44.21215" lon="3.50755">
        <ele>1126</ele>
        <time>2014-06-21T14:29:37.000Z</time>
      </trkpt>
      <trkpt lat="44.212" lon="3.50747">
        <ele>1127</ele>
        <time>2014-06-21T14:29:39.000Z</time>
      </trkpt>
      <trkpt lat="44.21186" lon="3.5074">
        <ele>1127</ele>
        <time>2014-06-21T14:29:41.000Z</time>
      </trkpt>
      <trkpt lat="44.21172" lon="3.50726">
        <ele>1126</ele>
        <time>2014-06-21T14:29:43.000Z</time>
      </trkpt>
      <trkpt lat="44.21158" lon="3.50712">
        <ele>1125</ele>
        <time>2014-06-21T14:29:45.000Z</time>
      </trkpt>
      <trkpt lat="44.21145" lon="3.50706">
        <ele>1125</ele>
        <time>2014-06-21T14:29:47.000Z</time>
      </trkpt>
      <trkpt lat="44.21131" lon="3.50708">
        <ele>1125</ele>
        <time>2014-06-21T14:29:49.000Z</time>
      </trkpt>
      <trkpt lat="44.21117" lon="3.50713">
        <ele>1125</ele>
        <time>2014-06-21T14:29:51.000Z</time>
      </trkpt>
      <trkpt lat="44.21104" lon="3.50721">
        <ele>1125</ele>
        <time>2014-06-21T14:29:53.000Z</time>
      </trkpt>
      <trkpt lat="44.21091" lon="3.50729">
        <ele>1124</ele>
        <time>2014-06-21T14:29:55.000Z</time>
      </trkpt>
      <trkpt lat="44.21082" lon="3.50736">
        <ele>1123</ele>
        <time>2014-06-21T14:29:57.000Z</time>
      </trkpt>
      <trkpt lat="44.21071" lon="3.50743">
        <ele>1122</ele>
        <time>2014-06-21T14:29:59.000Z</time>
      </trkpt>
      <trkpt lat="44.21059" lon="3.5075">
        <ele>1122</ele>
        <time>2014-06-21T14:30:01.000Z</time>
      </trkpt>
      <trkpt lat="44.21048" lon="3.50757">
        <ele>1123</ele>
        <time>2014-06-21T14:30:03.000Z</time>
      </trkpt>
      <trkpt lat="44.21037" lon="3.50761">
        <ele>1124</ele>
        <time>2014-06-21T14:30:05.000Z</time>
      </trkpt>
      <trkpt lat="44.2103" lon="3.50768">
        <ele>1124</ele>
        <time>2014-06-21T14:30:07.000Z</time>
      </trkpt>
      <trkpt lat="44.2103" lon="3.50768">
        <ele>1124</ele>
        <time>2014-06-21T14:30:09.000Z</time>
      </trkpt>
      <trkpt lat="44.2103" lon="3.50768">
        <ele>1124</ele>
        <time>2014-06-21T14:30:11.000Z</time>
      </trkpt>
      <trkpt lat="44.2103" lon="3.50768">
        <ele>1124</ele>
        <time>2014-06-21T14:30:13.000Z</time>
      </trkpt>
      <trkpt lat="44.2103" lon="3.50768">
        <ele>1124</ele>
        <time>2014-06-21T14:30:15.000Z</time>
      </trkpt>
      <trkpt lat="44.2103" lon="3.50768">
        <ele>1124</ele>
        <time>2014-06-21T14:30:17.000Z</time>
      </trkpt>
      <trkpt lat="44.2103" lon="3.50768">
        <ele>1124</ele>
        <time>2014-06-21T14:30:19.000Z</time>
      </trkpt>
      <trkpt lat="44.2103" lon="3.50768">
        <ele>1124</ele>
        <time>2014-06-21T14:30:25.000Z</time>
      </trkpt>
      <trkpt lat="44.2103" lon="3.50768">
        <ele>1124</ele>
        <time>2014-06-21T14:30:27.000Z</time>
      </trkpt>
      <trkpt lat="44.2103" lon="3.50768">
        <ele>1124</ele>
        <time>2014-06-21T14:30:29.000Z</time>
      </trkpt>
      <trkpt lat="44.2103" lon="3.50768">
        <ele>1124</ele>
        <time>2014-06-21T14:30:30.000Z</time>
      </trkpt>
      <trkpt lat="44.2103" lon="3.50768">
        <ele>1124</ele>
        <time>2014-06-21T14:30:32.000Z</time>
      </trkpt>
      <trkpt lat="44.2103" lon="3.50768">
        <ele>1124</ele>
        <time>2014-06-21T14:30:34.000Z</time>
      </trkpt>
      <trkpt lat="44.2103" lon="3.50768">
        <ele>1124</ele>
        <time>2014-06-21T14:30:36.000Z</time>
      </trkpt>
      <trkpt lat="44.2103" lon="3.50768">
        <ele>1124</ele>
        <time>2014-06-21T14:30:38.000Z</time>
      </trkpt>
      <trkpt lat="44.2103" lon="3.50768">
        <ele>1124</ele>
        <time>2014-06-21T14:30:40.000Z</time>
      </trkpt>
      <trkpt lat="44.2103" lon="3.50768">
        <ele>1124</ele>
        <time>2014-06-21T14:30:42.000Z</time>
      </trkpt>
      <trkpt lat="44.2089" lon="3.50916">
        <ele>1127</ele>
        <time>2014-06-21T14:30:48.000Z</time>
      </trkpt>
      <trkpt lat="44.20881" lon="3.50921">
        <ele>1128</ele>
        <time>2014-06-21T14:30:51.000Z</time>
      </trkpt>
      <trkpt lat="44.20881" lon="3.50921">
        <ele>1128</ele>
        <time>2014-06-21T14:30:53.000Z</time>
      </trkpt>
      <trkpt lat="44.20881" lon="3.50921">
        <ele>1128</ele>
        <time>2014-06-21T14:30:55.000Z</time>
      </trkpt>
      <trkpt lat="44.20881" lon="3.50921">
        <ele>1128</ele>
        <time>2014-06-21T14:30:57.000Z</time>
      </trkpt>
      <trkpt lat="44.20881" lon="3.50921">
        <ele>1128</ele>
        <time>2014-06-21T14:30:58.000Z</time>
      </trkpt>
      <trkpt lat="44.20881" lon="3.50921">
        <ele>1128</ele>
        <time>2014-06-21T14:31:00.000Z</time>
      </trkpt>
      <trkpt lat="44.20881" lon="3.50921">
        <ele>1128</ele>
        <time>2014-06-21T14:31:03.000Z</time>
      </trkpt>
      <trkpt lat="44.20881" lon="3.50921">
        <ele>1128</ele>
        <time>2014-06-21T14:31:05.000Z</time>
      </trkpt>
      <trkpt lat="44.20881" lon="3.50921">
        <ele>1128</ele>
        <time>2014-06-21T14:31:13.000Z</time>
      </trkpt>
      <trkpt lat="44.20881" lon="3.50921">
        <ele>1128</ele>
        <time>2014-06-21T14:31:15.000Z</time>
      </trkpt>
      <trkpt lat="44.20881" lon="3.50921">
        <ele>1128</ele>
        <time>2014-06-21T14:31:17.000Z</time>
      </trkpt>
      <trkpt lat="44.20881" lon="3.50921">
        <ele>1128</ele>
        <time>2014-06-21T14:31:19.000Z</time>
      </trkpt>
      <trkpt lat="44.20858" lon="3.5092">
        <ele>1126</ele>
        <time>2014-06-21T14:31:25.000Z</time>
      </trkpt>
      <trkpt lat="44.20848" lon="3.50915">
        <ele>1127</ele>
        <time>2014-06-21T14:31:27.000Z</time>
      </trkpt>
      <trkpt lat="44.20844" lon="3.50908">
        <ele>1126</ele>
        <time>2014-06-21T14:31:29.000Z</time>
      </trkpt>
      <trkpt lat="44.20843" lon="3.50901">
        <ele>1126</ele>
        <time>2014-06-21T14:31:31.000Z</time>
      </trkpt>
      <trkpt lat="44.20843" lon="3.50893">
        <ele>1126</ele>
        <time>2014-06-21T14:31:33.000Z</time>
      </trkpt>
      <trkpt lat="44.20845" lon="3.50876">
        <ele>1126</ele>
        <time>2014-06-21T14:31:35.000Z</time>
      </trkpt>
      <trkpt lat="44.20848" lon="3.50858">
        <ele>1125</ele>
        <time>2014-06-21T14:31:39.000Z</time>
      </trkpt>
      <trkpt lat="44.20851" lon="3.5084">
        <ele>1125</ele>
        <time>2014-06-21T14:31:43.000Z</time>
      </trkpt>
      <trkpt lat="44.20853" lon="3.50823">
        <ele>1124</ele>
        <time>2014-06-21T14:31:47.000Z</time>
      </trkpt>
      <trkpt lat="44.20853" lon="3.50823">
        <ele>1124</ele>
        <time>2014-06-21T14:31:49.000Z</time>
      </trkpt>
      <trkpt lat="44.20853" lon="3.50823">
        <ele>1124</ele>
        <time>2014-06-21T14:31:51.000Z</time>
      </trkpt>
      <trkpt lat="44.20853" lon="3.50823">
        <ele>1124</ele>
        <time>2014-06-21T14:31:53.000Z</time>
      </trkpt>
      <trkpt lat="44.20855" lon="3.50779">
        <ele>1124</ele>
        <time>2014-06-21T14:31:57.000Z</time>
      </trkpt>
      <trkpt lat="44.20855" lon="3.50761">
        <ele>1124</ele>
        <time>2014-06-21T14:32:01.000Z</time>
      </trkpt>
      <trkpt lat="44.20856" lon="3.50743">
        <ele>1124</ele>
        <time>2014-06-21T14:32:05.000Z</time>
      </trkpt>
      <trkpt lat="44.20857" lon="3.50725">
        <ele>1124</ele>
        <time>2014-06-21T14:32:09.000Z</time>
      </trkpt>
      <trkpt lat="44.20858" lon="3.50707">
        <ele>1124</ele>
        <time>2014-06-21T14:32:13.000Z</time>
      </trkpt>
      <trkpt lat="44.20859" lon="3.50687">
        <ele>1125</ele>
        <time>2014-06-21T14:32:17.000Z</time>
      </trkpt>
      <trkpt lat="44.20859" lon="3.50669">
        <ele>1126</ele>
        <time>2014-06-21T14:32:21.000Z</time>
      </trkpt>
      <trkpt lat="44.2086" lon="3.50648">
        <ele>1127</ele>
        <time>2014-06-21T14:32:25.000Z</time>
      </trkpt>
      <trkpt lat="44.2086" lon="3.50624">
        <ele>1127</ele>
        <time>2014-06-21T14:32:29.000Z</time>
      </trkpt>
      <trkpt lat="44.20859" lon="3.5061">
        <ele>1127</ele>
        <time>2014-06-21T14:32:31.000Z</time>
      </trkpt>
      <trkpt lat="44.20858" lon="3.50597">
        <ele>1127</ele>
        <time>2014-06-21T14:32:33.000Z</time>
      </trkpt>
      <trkpt lat="44.20858" lon="3.50583">
        <ele>1127</ele>
        <time>2014-06-21T14:32:35.000Z</time>
      </trkpt>
      <trkpt lat="44.20857" lon="3.50567">
        <ele>1127</ele>
        <time>2014-06-21T14:32:37.000Z</time>
      </trkpt>
      <trkpt lat="44.20855" lon="3.50548">
        <ele>1127</ele>
        <time>2014-06-21T14:32:39.000Z</time>
      </trkpt>
      <trkpt lat="44.20853" lon="3.50529">
        <ele>1126</ele>
        <time>2014-06-21T14:32:41.000Z</time>
      </trkpt>
      <trkpt lat="44.2085" lon="3.50509">
        <ele>1126</ele>
        <time>2014-06-21T14:32:43.000Z</time>
      </trkpt>
      <trkpt lat="44.20849" lon="3.50487">
        <ele>1126</ele>
        <time>2014-06-21T14:32:45.000Z</time>
      </trkpt>
      <trkpt lat="44.20847" lon="3.50453">
        <ele>1126</ele>
        <time>2014-06-21T14:32:48.000Z</time>
      </trkpt>
      <trkpt lat="44.20845" lon="3.5043">
        <ele>1126</ele>
        <time>2014-06-21T14:32:50.000Z</time>
      </trkpt>
      <trkpt lat="44.2084" lon="3.50408">
        <ele>1125</ele>
        <time>2014-06-21T14:32:52.000Z</time>
      </trkpt>
      <trkpt lat="44.20837" lon="3.50381">
        <ele>1125</ele>
        <time>2014-06-21T14:32:54.000Z</time>
      </trkpt>
      <trkpt lat="44.20833" lon="3.50354">
        <ele>1126</ele>
        <time>2014-06-21T14:32:56.000Z</time>
      </trkpt>
      <trkpt lat="44.20826" lon="3.50342">
        <ele>1126</ele>
        <time>2014-06-21T14:32:57.000Z</time>
      </trkpt>
      <trkpt lat="44.2082" lon="3.50316">
        <ele>1124</ele>
        <time>2014-06-21T14:32:59.000Z</time>
      </trkpt>
      <trkpt lat="44.20817" lon="3.50303">
        <ele>1123</ele>
        <time>2014-06-21T14:33:00.000Z</time>
      </trkpt>
      <trkpt lat="44.20812" lon="3.50278">
        <ele>1123</ele>
        <time>2014-06-21T14:33:02.000Z</time>
      </trkpt>
      <trkpt lat="44.2081" lon="3.5025">
        <ele>1123</ele>
        <time>2014-06-21T14:33:04.000Z</time>
      </trkpt>
      <trkpt lat="44.20804" lon="3.50226">
        <ele>1121</ele>
        <time>2014-06-21T14:33:06.000Z</time>
      </trkpt>
      <trkpt lat="44.20803" lon="3.502">
        <ele>1117</ele>
        <time>2014-06-21T14:33:08.000Z</time>
      </trkpt>
      <trkpt lat="44.20799" lon="3.50175">
        <ele>1117</ele>
        <time>2014-06-21T14:33:10.000Z</time>
      </trkpt>
      <trkpt lat="44.20797" lon="3.50151">
        <ele>1116</ele>
        <time>2014-06-21T14:33:12.000Z</time>
      </trkpt>
      <trkpt lat="44.20793" lon="3.50129">
        <ele>1116</ele>
        <time>2014-06-21T14:33:14.000Z</time>
      </trkpt>
      <trkpt lat="44.20793" lon="3.50106">
        <ele>1115</ele>
        <time>2014-06-21T14:33:16.000Z</time>
      </trkpt>
      <trkpt lat="44.20792" lon="3.50084">
        <ele>1115</ele>
        <time>2014-06-21T14:33:18.000Z</time>
      </trkpt>
      <trkpt lat="44.20793" lon="3.50062">
        <ele>1115</ele>
        <time>2014-06-21T14:33:20.000Z</time>
      </trkpt>
      <trkpt lat="44.20793" lon="3.50041">
        <ele>1116</ele>
        <time>2014-06-21T14:33:22.000Z</time>
      </trkpt>
      <trkpt lat="44.2079" lon="3.50023">
        <ele>1118</ele>
        <time>2014-06-21T14:33:24.000Z</time>
      </trkpt>
      <trkpt lat="44.20788" lon="3.50004">
        <ele>1119</ele>
        <time>2014-06-21T14:33:26.000Z</time>
      </trkpt>
      <trkpt lat="44.20785" lon="3.49987">
        <ele>1119</ele>
        <time>2014-06-21T14:33:28.000Z</time>
      </trkpt>
      <trkpt lat="44.20783" lon="3.49971">
        <ele>1120</ele>
        <time>2014-06-21T14:33:30.000Z</time>
      </trkpt>
      <trkpt lat="44.20781" lon="3.49955">
        <ele>1120</ele>
        <time>2014-06-21T14:33:32.000Z</time>
      </trkpt>
      <trkpt lat="44.20778" lon="3.49941">
        <ele>1121</ele>
        <time>2014-06-21T14:33:34.000Z</time>
      </trkpt>
      <trkpt lat="44.20777" lon="3.49925">
        <ele>1120</ele>
        <time>2014-06-21T14:33:36.000Z</time>
      </trkpt>
      <trkpt lat="44.20775" lon="3.49908">
        <ele>1119</ele>
        <time>2014-06-21T14:33:38.000Z</time>
      </trkpt>
      <trkpt lat="44.20774" lon="3.49891">
        <ele>1118</ele>
        <time>2014-06-21T14:33:40.000Z</time>
      </trkpt>
      <trkpt lat="44.20774" lon="3.49861">
        <ele>1119</ele>
        <time>2014-06-21T14:33:43.000Z</time>
      </trkpt>
      <trkpt lat="44.20772" lon="3.49841">
        <ele>1118</ele>
        <time>2014-06-21T14:33:45.000Z</time>
      </trkpt>
      <trkpt lat="44.2077" lon="3.49819">
        <ele>1119</ele>
        <time>2014-06-21T14:33:47.000Z</time>
      </trkpt>
      <trkpt lat="44.20766" lon="3.49801">
        <ele>1119</ele>
        <time>2014-06-21T14:33:49.000Z</time>
      </trkpt>
      <trkpt lat="44.20761" lon="3.49783">
        <ele>1122</ele>
        <time>2014-06-21T14:33:51.000Z</time>
      </trkpt>
      <trkpt lat="44.2076" lon="3.49764">
        <ele>1120</ele>
        <time>2014-06-21T14:33:53.000Z</time>
      </trkpt>
      <trkpt lat="44.20763" lon="3.49746">
        <ele>1121</ele>
        <time>2014-06-21T14:33:55.000Z</time>
      </trkpt>
      <trkpt lat="44.20766" lon="3.49728">
        <ele>1119</ele>
        <time>2014-06-21T14:33:57.000Z</time>
      </trkpt>
      <trkpt lat="44.20768" lon="3.4971">
        <ele>1120</ele>
        <time>2014-06-21T14:33:59.000Z</time>
      </trkpt>
      <trkpt lat="44.2077" lon="3.49695">
        <ele>1120</ele>
        <time>2014-06-21T14:34:01.000Z</time>
      </trkpt>
      <trkpt lat="44.20771" lon="3.4968">
        <ele>1120</ele>
        <time>2014-06-21T14:34:03.000Z</time>
      </trkpt>
      <trkpt lat="44.20772" lon="3.49666">
        <ele>1121</ele>
        <time>2014-06-21T14:34:05.000Z</time>
      </trkpt>
      <trkpt lat="44.20772" lon="3.49666">
        <ele>1121</ele>
        <time>2014-06-21T14:34:07.000Z</time>
      </trkpt>
      <trkpt lat="44.20772" lon="3.49666">
        <ele>1121</ele>
        <time>2014-06-21T14:34:09.000Z</time>
      </trkpt>
      <trkpt lat="44.20772" lon="3.49666">
        <ele>1121</ele>
        <time>2014-06-21T14:34:11.000Z</time>
      </trkpt>
      <trkpt lat="44.20772" lon="3.49666">
        <ele>1121</ele>
        <time>2014-06-21T14:34:13.000Z</time>
      </trkpt>
      <trkpt lat="44.20772" lon="3.49666">
        <ele>1121</ele>
        <time>2014-06-21T14:34:15.000Z</time>
      </trkpt>
      <trkpt lat="44.20772" lon="3.49666">
        <ele>1121</ele>
        <time>2014-06-21T14:34:18.000Z</time>
      </trkpt>
      <trkpt lat="44.20772" lon="3.49666">
        <ele>1121</ele>
        <time>2014-06-21T14:34:20.000Z</time>
      </trkpt>
      <trkpt lat="44.20772" lon="3.49666">
        <ele>1121</ele>
        <time>2014-06-21T14:34:22.000Z</time>
      </trkpt>
      <trkpt lat="44.20772" lon="3.49666">
        <ele>1121</ele>
        <time>2014-06-21T14:34:24.000Z</time>
      </trkpt>
      <trkpt lat="44.20773" lon="3.49623">
        <ele>1121</ele>
        <time>2014-06-21T14:34:36.000Z</time>
      </trkpt>
      <trkpt lat="44.20773" lon="3.49597">
        <ele>1120</ele>
        <time>2014-06-21T14:34:38.000Z</time>
      </trkpt>
      <trkpt lat="44.20773" lon="3.49579">
        <ele>1120</ele>
        <time>2014-06-21T14:34:40.000Z</time>
      </trkpt>
      <trkpt lat="44.20772" lon="3.49564">
        <ele>1119</ele>
        <time>2014-06-21T14:34:42.000Z</time>
      </trkpt>
      <trkpt lat="44.20771" lon="3.4955">
        <ele>1119</ele>
        <time>2014-06-21T14:34:44.000Z</time>
      </trkpt>
      <trkpt lat="44.20769" lon="3.49524">
        <ele>1118</ele>
        <time>2014-06-21T14:34:46.000Z</time>
      </trkpt>
      <trkpt lat="44.20766" lon="3.495">
        <ele>1117</ele>
        <time>2014-06-21T14:34:50.000Z</time>
      </trkpt>
      <trkpt lat="44.20765" lon="3.49486">
        <ele>1117</ele>
        <time>2014-06-21T14:34:52.000Z</time>
      </trkpt>
      <trkpt lat="44.20763" lon="3.49473">
        <ele>1118</ele>
        <time>2014-06-21T14:34:54.000Z</time>
      </trkpt>
      <trkpt lat="44.20762" lon="3.4946">
        <ele>1118</ele>
        <time>2014-06-21T14:34:56.000Z</time>
      </trkpt>
      <trkpt lat="44.20761" lon="3.49447">
        <ele>1118</ele>
        <time>2014-06-21T14:34:58.000Z</time>
      </trkpt>
      <trkpt lat="44.2076" lon="3.49434">
        <ele>1117</ele>
        <time>2014-06-21T14:35:00.000Z</time>
      </trkpt>
      <trkpt lat="44.2076" lon="3.49434">
        <ele>1117</ele>
        <time>2014-06-21T14:35:02.000Z</time>
      </trkpt>
      <trkpt lat="44.2076" lon="3.49434">
        <ele>1117</ele>
        <time>2014-06-21T14:35:04.000Z</time>
      </trkpt>
      <trkpt lat="44.2076" lon="3.49434">
        <ele>1117</ele>
        <time>2014-06-21T14:35:06.000Z</time>
      </trkpt>
      <trkpt lat="44.2076" lon="3.49434">
        <ele>1117</ele>
        <time>2014-06-21T14:35:08.000Z</time>
      </trkpt>
      <trkpt lat="44.2076" lon="3.49434">
        <ele>1117</ele>
        <time>2014-06-21T14:35:10.000Z</time>
      </trkpt>
      <trkpt lat="44.2076" lon="3.49356">
        <ele>1117</ele>
        <time>2014-06-21T14:35:14.000Z</time>
      </trkpt>
      <trkpt lat="44.20758" lon="3.49343">
        <ele>1116</ele>
        <time>2014-06-21T14:35:16.000Z</time>
      </trkpt>
      <trkpt lat="44.20755" lon="3.49328">
        <ele>1116</ele>
        <time>2014-06-21T14:35:18.000Z</time>
      </trkpt>
      <trkpt lat="44.20753" lon="3.49311">
        <ele>1115</ele>
        <time>2014-06-21T14:35:20.000Z</time>
      </trkpt>
      <trkpt lat="44.20749" lon="3.49294">
        <ele>1114</ele>
        <time>2014-06-21T14:35:22.000Z</time>
      </trkpt>
      <trkpt lat="44.20744" lon="3.49276">
        <ele>1114</ele>
        <time>2014-06-21T14:35:24.000Z</time>
      </trkpt>
      <trkpt lat="44.20737" lon="3.49244">
        <ele>1112</ele>
        <time>2014-06-21T14:35:27.000Z</time>
      </trkpt>
      <trkpt lat="44.20733" lon="3.49222">
        <ele>1111</ele>
        <time>2014-06-21T14:35:29.000Z</time>
      </trkpt>
      <trkpt lat="44.2073" lon="3.49198">
        <ele>1110</ele>
        <time>2014-06-21T14:35:31.000Z</time>
      </trkpt>
      <trkpt lat="44.20726" lon="3.49172">
        <ele>1108</ele>
        <time>2014-06-21T14:35:33.000Z</time>
      </trkpt>
      <trkpt lat="44.20724" lon="3.49146">
        <ele>1106</ele>
        <time>2014-06-21T14:35:35.000Z</time>
      </trkpt>
      <trkpt lat="44.20724" lon="3.49118">
        <ele>1105</ele>
        <time>2014-06-21T14:35:37.000Z</time>
      </trkpt>
      <trkpt lat="44.20726" lon="3.49091">
        <ele>1104</ele>
        <time>2014-06-21T14:35:39.000Z</time>
      </trkpt>
      <trkpt lat="44.20729" lon="3.49063">
        <ele>1103</ele>
        <time>2014-06-21T14:35:41.000Z</time>
      </trkpt>
      <trkpt lat="44.20733" lon="3.49036">
        <ele>1102</ele>
        <time>2014-06-21T14:35:43.000Z</time>
      </trkpt>
      <trkpt lat="44.20737" lon="3.49009">
        <ele>1102</ele>
        <time>2014-06-21T14:35:45.000Z</time>
      </trkpt>
      <trkpt lat="44.20743" lon="3.48984">
        <ele>1102</ele>
        <time>2014-06-21T14:35:47.000Z</time>
      </trkpt>
      <trkpt lat="44.2075" lon="3.4896">
        <ele>1102</ele>
        <time>2014-06-21T14:35:49.000Z</time>
      </trkpt>
      <trkpt lat="44.20756" lon="3.48937">
        <ele>1101</ele>
        <time>2014-06-21T14:35:51.000Z</time>
      </trkpt>
      <trkpt lat="44.20762" lon="3.48916">
        <ele>1101</ele>
        <time>2014-06-21T14:35:53.000Z</time>
      </trkpt>
      <trkpt lat="44.20767" lon="3.48896">
        <ele>1102</ele>
        <time>2014-06-21T14:35:55.000Z</time>
      </trkpt>
      <trkpt lat="44.20771" lon="3.48874">
        <ele>1103</ele>
        <time>2014-06-21T14:35:57.000Z</time>
      </trkpt>
      <trkpt lat="44.20776" lon="3.48854">
        <ele>1103</ele>
        <time>2014-06-21T14:35:59.000Z</time>
      </trkpt>
      <trkpt lat="44.20781" lon="3.48835">
        <ele>1103</ele>
        <time>2014-06-21T14:36:01.000Z</time>
      </trkpt>
      <trkpt lat="44.20787" lon="3.48816">
        <ele>1102</ele>
        <time>2014-06-21T14:36:03.000Z</time>
      </trkpt>
      <trkpt lat="44.20794" lon="3.48797">
        <ele>1102</ele>
        <time>2014-06-21T14:36:05.000Z</time>
      </trkpt>
      <trkpt lat="44.20799" lon="3.48778">
        <ele>1102</ele>
        <time>2014-06-21T14:36:07.000Z</time>
      </trkpt>
      <trkpt lat="44.20805" lon="3.48759">
        <ele>1102</ele>
        <time>2014-06-21T14:36:09.000Z</time>
      </trkpt>
      <trkpt lat="44.2081" lon="3.48739">
        <ele>1102</ele>
        <time>2014-06-21T14:36:11.000Z</time>
      </trkpt>
      <trkpt lat="44.20815" lon="3.48719">
        <ele>1101</ele>
        <time>2014-06-21T14:36:13.000Z</time>
      </trkpt>
      <trkpt lat="44.20821" lon="3.48701">
        <ele>1101</ele>
        <time>2014-06-21T14:36:15.000Z</time>
      </trkpt>
      <trkpt lat="44.20826" lon="3.48683">
        <ele>1101</ele>
        <time>2014-06-21T14:36:17.000Z</time>
      </trkpt>
      <trkpt lat="44.20828" lon="3.48664">
        <ele>1101</ele>
        <time>2014-06-21T14:36:19.000Z</time>
      </trkpt>
      <trkpt lat="44.20827" lon="3.48648">
        <ele>1102</ele>
        <time>2014-06-21T14:36:21.000Z</time>
      </trkpt>
      <trkpt lat="44.20827" lon="3.48633">
        <ele>1102</ele>
        <time>2014-06-21T14:36:23.000Z</time>
      </trkpt>
      <trkpt lat="44.20828" lon="3.4862">
        <ele>1102</ele>
        <time>2014-06-21T14:36:25.000Z</time>
      </trkpt>
      <trkpt lat="44.20828" lon="3.4862">
        <ele>1102</ele>
        <time>2014-06-21T14:36:27.000Z</time>
      </trkpt>
      <trkpt lat="44.20828" lon="3.4862">
        <ele>1102</ele>
        <time>2014-06-21T14:36:29.000Z</time>
      </trkpt>
      <trkpt lat="44.20853" lon="3.48556">
        <ele>1103</ele>
        <time>2014-06-21T14:36:35.000Z</time>
      </trkpt>
      <trkpt lat="44.20858" lon="3.48542">
        <ele>1102</ele>
        <time>2014-06-21T14:36:37.000Z</time>
      </trkpt>
      <trkpt lat="44.2086" lon="3.48526">
        <ele>1101</ele>
        <time>2014-06-21T14:36:39.000Z</time>
      </trkpt>
      <trkpt lat="44.20861" lon="3.48507">
        <ele>1101</ele>
        <time>2014-06-21T14:36:41.000Z</time>
      </trkpt>
      <trkpt lat="44.20861" lon="3.4849">
        <ele>1100</ele>
        <time>2014-06-21T14:36:43.000Z</time>
      </trkpt>
      <trkpt lat="44.2086" lon="3.48474">
        <ele>1101</ele>
        <time>2014-06-21T14:36:45.000Z</time>
      </trkpt>
      <trkpt lat="44.20859" lon="3.4846">
        <ele>1102</ele>
        <time>2014-06-21T14:36:47.000Z</time>
      </trkpt>
      <trkpt lat="44.20856" lon="3.48446">
        <ele>1102</ele>
        <time>2014-06-21T14:36:49.000Z</time>
      </trkpt>
      <trkpt lat="44.20856" lon="3.48428">
        <ele>1100</ele>
        <time>2014-06-21T14:36:51.000Z</time>
      </trkpt>
      <trkpt lat="44.20855" lon="3.48411">
        <ele>1099</ele>
        <time>2014-06-21T14:36:53.000Z</time>
      </trkpt>
      <trkpt lat="44.20856" lon="3.48393">
        <ele>1099</ele>
        <time>2014-06-21T14:36:55.000Z</time>
      </trkpt>
      <trkpt lat="44.20855" lon="3.48375">
        <ele>1099</ele>
        <time>2014-06-21T14:36:57.000Z</time>
      </trkpt>
      <trkpt lat="44.20855" lon="3.48357">
        <ele>1099</ele>
        <time>2014-06-21T14:36:59.000Z</time>
      </trkpt>
      <trkpt lat="44.20855" lon="3.48341">
        <ele>1099</ele>
        <time>2014-06-21T14:37:01.000Z</time>
      </trkpt>
      <trkpt lat="44.20855" lon="3.48326">
        <ele>1099</ele>
        <time>2014-06-21T14:37:03.000Z</time>
      </trkpt>
      <trkpt lat="44.20855" lon="3.48312">
        <ele>1099</ele>
        <time>2014-06-21T14:37:05.000Z</time>
      </trkpt>
      <trkpt lat="44.20851" lon="3.48298">
        <ele>1100</ele>
        <time>2014-06-21T14:37:07.000Z</time>
      </trkpt>
      <trkpt lat="44.20851" lon="3.48298">
        <ele>1100</ele>
        <time>2014-06-21T14:37:09.000Z</time>
      </trkpt>
      <trkpt lat="44.20851" lon="3.48298">
        <ele>1100</ele>
        <time>2014-06-21T14:37:11.000Z</time>
      </trkpt>
      <trkpt lat="44.20851" lon="3.48298">
        <ele>1100</ele>
        <time>2014-06-21T14:37:13.000Z</time>
      </trkpt>
      <trkpt lat="44.20851" lon="3.48298">
        <ele>1100</ele>
        <time>2014-06-21T14:37:15.000Z</time>
      </trkpt>
      <trkpt lat="44.20851" lon="3.48298">
        <ele>1100</ele>
        <time>2014-06-21T14:37:17.000Z</time>
      </trkpt>
      <trkpt lat="44.20851" lon="3.48298">
        <ele>1100</ele>
        <time>2014-06-21T14:37:19.000Z</time>
      </trkpt>
      <trkpt lat="44.20851" lon="3.48298">
        <ele>1100</ele>
        <time>2014-06-21T14:37:21.000Z</time>
      </trkpt>
      <trkpt lat="44.20851" lon="3.48298">
        <ele>1100</ele>
        <time>2014-06-21T14:37:23.000Z</time>
      </trkpt>
      <trkpt lat="44.20851" lon="3.48298">
        <ele>1100</ele>
        <time>2014-06-21T14:37:25.000Z</time>
      </trkpt>
      <trkpt lat="44.20851" lon="3.48298">
        <ele>1100</ele>
        <time>2014-06-21T14:37:27.000Z</time>
      </trkpt>
      <trkpt lat="44.20913" lon="3.48205">
        <ele>1103</ele>
        <time>2014-06-21T14:37:33.000Z</time>
      </trkpt>
      <trkpt lat="44.20921" lon="3.48196">
        <ele>1102</ele>
        <time>2014-06-21T14:37:35.000Z</time>
      </trkpt>
      <trkpt lat="44.20928" lon="3.48186">
        <ele>1102</ele>
        <time>2014-06-21T14:37:37.000Z</time>
      </trkpt>
      <trkpt lat="44.20935" lon="3.48175">
        <ele>1102</ele>
        <time>2014-06-21T14:37:39.000Z</time>
      </trkpt>
      <trkpt lat="44.20942" lon="3.48164">
        <ele>1102</ele>
        <time>2014-06-21T14:37:41.000Z</time>
      </trkpt>
      <trkpt lat="44.20948" lon="3.48151">
        <ele>1101</ele>
        <time>2014-06-21T14:37:43.000Z</time>
      </trkpt>
      <trkpt lat="44.2095" lon="3.48136">
        <ele>1101</ele>
        <time>2014-06-21T14:37:45.000Z</time>
      </trkpt>
      <trkpt lat="44.20951" lon="3.48121">
        <ele>1101</ele>
        <time>2014-06-21T14:37:47.000Z</time>
      </trkpt>
      <trkpt lat="44.20951" lon="3.48121">
        <ele>1101</ele>
        <time>2014-06-21T14:37:49.000Z</time>
      </trkpt>
      <trkpt lat="44.20951" lon="3.48121">
        <ele>1101</ele>
        <time>2014-06-21T14:37:51.000Z</time>
      </trkpt>
      <trkpt lat="44.20951" lon="3.48121">
        <ele>1101</ele>
        <time>2014-06-21T14:37:53.000Z</time>
      </trkpt>
      <trkpt lat="44.20951" lon="3.48121">
        <ele>1101</ele>
        <time>2014-06-21T14:37:55.000Z</time>
      </trkpt>
      <trkpt lat="44.20951" lon="3.48121">
        <ele>1101</ele>
        <time>2014-06-21T14:37:57.000Z</time>
      </trkpt>
      <trkpt lat="44.20951" lon="3.48121">
        <ele>1101</ele>
        <time>2014-06-21T14:37:59.000Z</time>
      </trkpt>
      <trkpt lat="44.20951" lon="3.48121">
        <ele>1101</ele>
        <time>2014-06-21T14:38:01.000Z</time>
      </trkpt>
      <trkpt lat="44.20951" lon="3.48072">
        <ele>1102</ele>
        <time>2014-06-21T14:38:05.000Z</time>
      </trkpt>
      <trkpt lat="44.20951" lon="3.4804">
        <ele>1102</ele>
        <time>2014-06-21T14:38:07.000Z</time>
      </trkpt>
      <trkpt lat="44.20951" lon="3.48016">
        <ele>1101</ele>
        <time>2014-06-21T14:38:09.000Z</time>
      </trkpt>
      <trkpt lat="44.20949" lon="3.47996">
        <ele>1100</ele>
        <time>2014-06-21T14:38:11.000Z</time>
      </trkpt>
      <trkpt lat="44.20945" lon="3.47978">
        <ele>1099</ele>
        <time>2014-06-21T14:38:13.000Z</time>
      </trkpt>
      <trkpt lat="44.20936" lon="3.47944">
        <ele>1099</ele>
        <time>2014-06-21T14:38:15.000Z</time>
      </trkpt>
      <trkpt lat="44.20931" lon="3.47929">
        <ele>1099</ele>
        <time>2014-06-21T14:38:17.000Z</time>
      </trkpt>
      <trkpt lat="44.20931" lon="3.47929">
        <ele>1099</ele>
        <time>2014-06-21T14:38:18.000Z</time>
      </trkpt>
      <trkpt lat="44.20924" lon="3.47909">
        <ele>1100</ele>
        <time>2014-06-21T14:38:20.000Z</time>
      </trkpt>
      <trkpt lat="44.2092" lon="3.47895">
        <ele>1100</ele>
        <time>2014-06-21T14:38:22.000Z</time>
      </trkpt>
      <trkpt lat="44.2092" lon="3.47895">
        <ele>1100</ele>
        <time>2014-06-21T14:38:24.000Z</time>
      </trkpt>
      <trkpt lat="44.2092" lon="3.47895">
        <ele>1100</ele>
        <time>2014-06-21T14:38:26.000Z</time>
      </trkpt>
      <trkpt lat="44.2092" lon="3.47895">
        <ele>1100</ele>
        <time>2014-06-21T14:38:28.000Z</time>
      </trkpt>
      <trkpt lat="44.20914" lon="3.47825">
        <ele>1099</ele>
        <time>2014-06-21T14:38:32.000Z</time>
      </trkpt>
      <trkpt lat="44.20919" lon="3.4781">
        <ele>1099</ele>
        <time>2014-06-21T14:38:34.000Z</time>
      </trkpt>
      <trkpt lat="44.20926" lon="3.47794">
        <ele>1099</ele>
        <time>2014-06-21T14:38:36.000Z</time>
      </trkpt>
      <trkpt lat="44.20934" lon="3.47777">
        <ele>1098</ele>
        <time>2014-06-21T14:38:38.000Z</time>
      </trkpt>
      <trkpt lat="44.2094" lon="3.47758">
        <ele>1097</ele>
        <time>2014-06-21T14:38:40.000Z</time>
      </trkpt>
      <trkpt lat="44.20947" lon="3.47739">
        <ele>1096</ele>
        <time>2014-06-21T14:38:42.000Z</time>
      </trkpt>
      <trkpt lat="44.20955" lon="3.47719">
        <ele>1095</ele>
        <time>2014-06-21T14:38:44.000Z</time>
      </trkpt>
      <trkpt lat="44.20963" lon="3.47698">
        <ele>1094</ele>
        <time>2014-06-21T14:38:46.000Z</time>
      </trkpt>
      <trkpt lat="44.20972" lon="3.47676">
        <ele>1094</ele>
        <time>2014-06-21T14:38:48.000Z</time>
      </trkpt>
      <trkpt lat="44.2098" lon="3.47656">
        <ele>1093</ele>
        <time>2014-06-21T14:38:50.000Z</time>
      </trkpt>
      <trkpt lat="44.20989" lon="3.47636">
        <ele>1093</ele>
        <time>2014-06-21T14:38:52.000Z</time>
      </trkpt>
      <trkpt lat="44.20998" lon="3.47617">
        <ele>1092</ele>
        <time>2014-06-21T14:38:54.000Z</time>
      </trkpt>
      <trkpt lat="44.21008" lon="3.476">
        <ele>1093</ele>
        <time>2014-06-21T14:38:56.000Z</time>
      </trkpt>
      <trkpt lat="44.21017" lon="3.47586">
        <ele>1093</ele>
        <time>2014-06-21T14:38:58.000Z</time>
      </trkpt>
      <trkpt lat="44.21027" lon="3.47575">
        <ele>1093</ele>
        <time>2014-06-21T14:39:00.000Z</time>
      </trkpt>
      <trkpt lat="44.21037" lon="3.47566">
        <ele>1094</ele>
        <time>2014-06-21T14:39:02.000Z</time>
      </trkpt>
      <trkpt lat="44.21046" lon="3.47559">
        <ele>1094</ele>
        <time>2014-06-21T14:39:04.000Z</time>
      </trkpt>
      <trkpt lat="44.21054" lon="3.47551">
        <ele>1095</ele>
        <time>2014-06-21T14:39:06.000Z</time>
      </trkpt>
      <trkpt lat="44.21054" lon="3.47551">
        <ele>1095</ele>
        <time>2014-06-21T14:39:08.000Z</time>
      </trkpt>
      <trkpt lat="44.21054" lon="3.47551">
        <ele>1095</ele>
        <time>2014-06-21T14:39:10.000Z</time>
      </trkpt>
      <trkpt lat="44.21054" lon="3.47551">
        <ele>1095</ele>
        <time>2014-06-21T14:39:12.000Z</time>
      </trkpt>
      <trkpt lat="44.21054" lon="3.47551">
        <ele>1095</ele>
        <time>2014-06-21T14:39:14.000Z</time>
      </trkpt>
      <trkpt lat="44.21054" lon="3.47551">
        <ele>1095</ele>
        <time>2014-06-21T14:39:16.000Z</time>
      </trkpt>
      <trkpt lat="44.211" lon="3.47515">
        <ele>1100</ele>
        <time>2014-06-21T14:39:20.000Z</time>
      </trkpt>
      <trkpt lat="44.21109" lon="3.47508">
        <ele>1099</ele>
        <time>2014-06-21T14:39:22.000Z</time>
      </trkpt>
      <trkpt lat="44.21117" lon="3.47499">
        <ele>1100</ele>
        <time>2014-06-21T14:39:24.000Z</time>
      </trkpt>
      <trkpt lat="44.21127" lon="3.47492">
        <ele>1100</ele>
        <time>2014-06-21T14:39:26.000Z</time>
      </trkpt>
      <trkpt lat="44.21136" lon="3.47484">
        <ele>1100</ele>
        <time>2014-06-21T14:39:28.000Z</time>
      </trkpt>
      <trkpt lat="44.21144" lon="3.47474">
        <ele>1099</ele>
        <time>2014-06-21T14:39:30.000Z</time>
      </trkpt>
      <trkpt lat="44.21152" lon="3.47464">
        <ele>1100</ele>
        <time>2014-06-21T14:39:32.000Z</time>
      </trkpt>
      <trkpt lat="44.2116" lon="3.47454">
        <ele>1099</ele>
        <time>2014-06-21T14:39:34.000Z</time>
      </trkpt>
      <trkpt lat="44.21166" lon="3.47442">
        <ele>1099</ele>
        <time>2014-06-21T14:39:36.000Z</time>
      </trkpt>
      <trkpt lat="44.21173" lon="3.47428">
        <ele>1100</ele>
        <time>2014-06-21T14:39:38.000Z</time>
      </trkpt>
      <trkpt lat="44.21176" lon="3.47415">
        <ele>1099</ele>
        <time>2014-06-21T14:39:40.000Z</time>
      </trkpt>
      <trkpt lat="44.21177" lon="3.47401">
        <ele>1099</ele>
        <time>2014-06-21T14:39:42.000Z</time>
      </trkpt>
      <trkpt lat="44.21178" lon="3.47386">
        <ele>1100</ele>
        <time>2014-06-21T14:39:44.000Z</time>
      </trkpt>
      <trkpt lat="44.21178" lon="3.47386">
        <ele>1100</ele>
        <time>2014-06-21T14:39:46.000Z</time>
      </trkpt>
      <trkpt lat="44.21178" lon="3.47386">
        <ele>1100</ele>
        <time>2014-06-21T14:39:48.000Z</time>
      </trkpt>
      <trkpt lat="44.21178" lon="3.47386">
        <ele>1100</ele>
        <time>2014-06-21T14:39:50.000Z</time>
      </trkpt>
      <trkpt lat="44.21178" lon="3.47386">
        <ele>1100</ele>
        <time>2014-06-21T14:39:52.000Z</time>
      </trkpt>
      <trkpt lat="44.21178" lon="3.47386">
        <ele>1100</ele>
        <time>2014-06-21T14:39:58.000Z</time>
      </trkpt>
      <trkpt lat="44.21178" lon="3.47386">
        <ele>1100</ele>
        <time>2014-06-21T14:40:00.000Z</time>
      </trkpt>
      <trkpt lat="44.21178" lon="3.47386">
        <ele>1100</ele>
        <time>2014-06-21T14:40:02.000Z</time>
      </trkpt>
      <trkpt lat="44.21178" lon="3.47386">
        <ele>1100</ele>
        <time>2014-06-21T14:40:04.000Z</time>
      </trkpt>
      <trkpt lat="44.21178" lon="3.47386">
        <ele>1100</ele>
        <time>2014-06-21T14:40:06.000Z</time>
      </trkpt>
      <trkpt lat="44.21176" lon="3.47215">
        <ele>1099</ele>
        <time>2014-06-21T14:40:10.000Z</time>
      </trkpt>
      <trkpt lat="44.21175" lon="3.472">
        <ele>1098</ele>
        <time>2014-06-21T14:40:12.000Z</time>
      </trkpt>
      <trkpt lat="44.21173" lon="3.47183">
        <ele>1097</ele>
        <time>2014-06-21T14:40:14.000Z</time>
      </trkpt>
      <trkpt lat="44.21173" lon="3.47164">
        <ele>1096</ele>
        <time>2014-06-21T14:40:16.000Z</time>
      </trkpt>
      <trkpt lat="44.21173" lon="3.47144">
        <ele>1097</ele>
        <time>2014-06-21T14:40:18.000Z</time>
      </trkpt>
      <trkpt lat="44.21173" lon="3.47128">
        <ele>1098</ele>
        <time>2014-06-21T14:40:20.000Z</time>
      </trkpt>
      <trkpt lat="44.21173" lon="3.47128">
        <ele>1098</ele>
        <time>2014-06-21T14:40:22.000Z</time>
      </trkpt>
      <trkpt lat="44.21173" lon="3.47128">
        <ele>1098</ele>
        <time>2014-06-21T14:40:24.000Z</time>
      </trkpt>
      <trkpt lat="44.21173" lon="3.47128">
        <ele>1098</ele>
        <time>2014-06-21T14:40:26.000Z</time>
      </trkpt>
      <trkpt lat="44.21173" lon="3.47128">
        <ele>1098</ele>
        <time>2014-06-21T14:40:28.000Z</time>
      </trkpt>
      <trkpt lat="44.21173" lon="3.47128">
        <ele>1098</ele>
        <time>2014-06-21T14:40:30.000Z</time>
      </trkpt>
      <trkpt lat="44.21173" lon="3.47128">
        <ele>1098</ele>
        <time>2014-06-21T14:40:32.000Z</time>
      </trkpt>
      <trkpt lat="44.21173" lon="3.47128">
        <ele>1098</ele>
        <time>2014-06-21T14:40:34.000Z</time>
      </trkpt>
      <trkpt lat="44.21157" lon="3.4709">
        <ele>1099</ele>
        <time>2014-06-21T14:40:40.000Z</time>
      </trkpt>
      <trkpt lat="44.21147" lon="3.47067">
        <ele>1099</ele>
        <time>2014-06-21T14:40:42.000Z</time>
      </trkpt>
      <trkpt lat="44.2114" lon="3.47052">
        <ele>1099</ele>
        <time>2014-06-21T14:40:44.000Z</time>
      </trkpt>
      <trkpt lat="44.21134" lon="3.4704">
        <ele>1099</ele>
        <time>2014-06-21T14:40:46.000Z</time>
      </trkpt>
      <trkpt lat="44.2113" lon="3.47031">
        <ele>1099</ele>
        <time>2014-06-21T14:40:48.000Z</time>
      </trkpt>
      <trkpt lat="44.2113" lon="3.47031">
        <ele>1099</ele>
        <time>2014-06-21T14:40:50.000Z</time>
      </trkpt>
      <trkpt lat="44.2113" lon="3.47031">
        <ele>1099</ele>
        <time>2014-06-21T14:40:52.000Z</time>
      </trkpt>
      <trkpt lat="44.2113" lon="3.47031">
        <ele>1099</ele>
        <time>2014-06-21T14:40:54.000Z</time>
      </trkpt>
      <trkpt lat="44.2113" lon="3.47031">
        <ele>1099</ele>
        <time>2014-06-21T14:40:56.000Z</time>
      </trkpt>
      <trkpt lat="44.2113" lon="3.47031">
        <ele>1099</ele>
        <time>2014-06-21T14:40:58.000Z</time>
      </trkpt>
      <trkpt lat="44.2113" lon="3.47031">
        <ele>1099</ele>
        <time>2014-06-21T14:41:00.000Z</time>
      </trkpt>
      <trkpt lat="44.2113" lon="3.47031">
        <ele>1099</ele>
        <time>2014-06-21T14:41:02.000Z</time>
      </trkpt>
      <trkpt lat="44.2113" lon="3.47031">
        <ele>1099</ele>
        <time>2014-06-21T14:41:04.000Z</time>
      </trkpt>
      <trkpt lat="44.2113" lon="3.47031">
        <ele>1099</ele>
        <time>2014-06-21T14:41:06.000Z</time>
      </trkpt>
      <trkpt lat="44.2113" lon="3.47031">
        <ele>1099</ele>
        <time>2014-06-21T14:41:08.000Z</time>
      </trkpt>
      <trkpt lat="44.2113" lon="3.47031">
        <ele>1099</ele>
        <time>2014-06-21T14:41:10.000Z</time>
      </trkpt>
      <trkpt lat="44.21093" lon="3.46956">
        <ele>1102</ele>
        <time>2014-06-21T14:41:16.000Z</time>
      </trkpt>
      <trkpt lat="44.21085" lon="3.46945">
        <ele>1103</ele>
        <time>2014-06-21T14:41:22.000Z</time>
      </trkpt>
      <trkpt lat="44.21078" lon="3.46933">
        <ele>1104</ele>
        <time>2014-06-21T14:41:28.000Z</time>
      </trkpt>
      <trkpt lat="44.21078" lon="3.46933">
        <ele>1104</ele>
        <time>2014-06-21T14:41:30.000Z</time>
      </trkpt>
      <trkpt lat="44.21078" lon="3.46933">
        <ele>1104</ele>
        <time>2014-06-21T14:41:32.000Z</time>
      </trkpt>
      <trkpt lat="44.21069" lon="3.46921">
        <ele>1104</ele>
        <time>2014-06-21T14:41:34.000Z</time>
      </trkpt>
      <trkpt lat="44.21069" lon="3.46921">
        <ele>1104</ele>
        <time>2014-06-21T14:41:36.000Z</time>
      </trkpt>
      <trkpt lat="44.21064" lon="3.4691">
        <ele>1105</ele>
        <time>2014-06-21T14:41:38.000Z</time>
      </trkpt>
      <trkpt lat="44.21056" lon="3.46897">
        <ele>1105</ele>
        <time>2014-06-21T14:41:44.000Z</time>
      </trkpt>
      <trkpt lat="44.21049" lon="3.46888">
        <ele>1105</ele>
        <time>2014-06-21T14:41:48.000Z</time>
      </trkpt>
      <trkpt lat="44.21043" lon="3.46877">
        <ele>1105</ele>
        <time>2014-06-21T14:41:52.000Z</time>
      </trkpt>
      <trkpt lat="44.21034" lon="3.46864">
        <ele>1105</ele>
        <time>2014-06-21T14:41:58.000Z</time>
      </trkpt>
      <trkpt lat="44.21034" lon="3.46864">
        <ele>1105</ele>
        <time>2014-06-21T14:42:00.000Z</time>
      </trkpt>
      <trkpt lat="44.21034" lon="3.46864">
        <ele>1105</ele>
        <time>2014-06-21T14:42:02.000Z</time>
      </trkpt>
      <trkpt lat="44.21034" lon="3.46864">
        <ele>1105</ele>
        <time>2014-06-21T14:42:04.000Z</time>
      </trkpt>
      <trkpt lat="44.21034" lon="3.46864">
        <ele>1105</ele>
        <time>2014-06-21T14:42:06.000Z</time>
      </trkpt>
      <trkpt lat="44.21034" lon="3.46864">
        <ele>1105</ele>
        <time>2014-06-21T14:42:08.000Z</time>
      </trkpt>
      <trkpt lat="44.21034" lon="3.46864">
        <ele>1105</ele>
        <time>2014-06-21T14:42:10.000Z</time>
      </trkpt>
      <trkpt lat="44.21034" lon="3.46864">
        <ele>1105</ele>
        <time>2014-06-21T14:42:12.000Z</time>
      </trkpt>
      <trkpt lat="44.21034" lon="3.46864">
        <ele>1105</ele>
        <time>2014-06-21T14:42:14.000Z</time>
      </trkpt>
      <trkpt lat="44.21034" lon="3.46864">
        <ele>1105</ele>
        <time>2014-06-21T14:42:16.000Z</time>
      </trkpt>
      <trkpt lat="44.21017" lon="3.46839">
        <ele>1106</ele>
        <time>2014-06-21T14:42:20.000Z</time>
      </trkpt>
      <trkpt lat="44.21008" lon="3.46825">
        <ele>1107</ele>
        <time>2014-06-21T14:42:22.000Z</time>
      </trkpt>
      <trkpt lat="44.21001" lon="3.46814">
        <ele>1106</ele>
        <time>2014-06-21T14:42:24.000Z</time>
      </trkpt>
      <trkpt lat="44.20997" lon="3.46807">
        <ele>1107</ele>
        <time>2014-06-21T14:42:26.000Z</time>
      </trkpt>
      <trkpt lat="44.20997" lon="3.46807">
        <ele>1107</ele>
        <time>2014-06-21T14:42:28.000Z</time>
      </trkpt>
      <trkpt lat="44.20997" lon="3.46807">
        <ele>1107</ele>
        <time>2014-06-21T14:42:30.000Z</time>
      </trkpt>
      <trkpt lat="44.20997" lon="3.46807">
        <ele>1107</ele>
        <time>2014-06-21T14:42:32.000Z</time>
      </trkpt>
      <trkpt lat="44.20988" lon="3.46793">
        <ele>1109</ele>
        <time>2014-06-21T14:42:36.000Z</time>
      </trkpt>
      <trkpt lat="44.20982" lon="3.46785">
        <ele>1109</ele>
        <time>2014-06-21T14:42:38.000Z</time>
      </trkpt>
      <trkpt lat="44.20978" lon="3.46779">
        <ele>1109</ele>
        <time>2014-06-21T14:42:40.000Z</time>
      </trkpt>
      <trkpt lat="44.20978" lon="3.46779">
        <ele>1109</ele>
        <time>2014-06-21T14:42:41.000Z</time>
      </trkpt>
      <trkpt lat="44.20978" lon="3.46779">
        <ele>1109</ele>
        <time>2014-06-21T14:42:43.000Z</time>
      </trkpt>
      <trkpt lat="44.20978" lon="3.46779">
        <ele>1109</ele>
        <time>2014-06-21T14:42:45.000Z</time>
      </trkpt>
      <trkpt lat="44.20967" lon="3.46767">
        <ele>1110</ele>
        <time>2014-06-21T14:42:51.000Z</time>
      </trkpt>
      <trkpt lat="44.20959" lon="3.4676">
        <ele>1110</ele>
        <time>2014-06-21T14:42:53.000Z</time>
      </trkpt>
      <trkpt lat="44.20959" lon="3.4676">
        <ele>1110</ele>
        <time>2014-06-21T14:42:55.000Z</time>
      </trkpt>
      <trkpt lat="44.20959" lon="3.4676">
        <ele>1110</ele>
        <time>2014-06-21T14:42:57.000Z</time>
      </trkpt>
      <trkpt lat="44.20959" lon="3.4676">
        <ele>1110</ele>
        <time>2014-06-21T14:42:59.000Z</time>
      </trkpt>
      <trkpt lat="44.20959" lon="3.4676">
        <ele>1110</ele>
        <time>2014-06-21T14:43:01.000Z</time>
      </trkpt>
      <trkpt lat="44.20959" lon="3.4676">
        <ele>1110</ele>
        <time>2014-06-21T14:43:03.000Z</time>
      </trkpt>
      <trkpt lat="44.20959" lon="3.4676">
        <ele>1110</ele>
        <time>2014-06-21T14:43:05.000Z</time>
      </trkpt>
      <trkpt lat="44.20959" lon="3.4676">
        <ele>1110</ele>
        <time>2014-06-21T14:43:07.000Z</time>
      </trkpt>
      <trkpt lat="44.20959" lon="3.4676">
        <ele>1110</ele>
        <time>2014-06-21T14:43:09.000Z</time>
      </trkpt>
      <trkpt lat="44.20959" lon="3.4676">
        <ele>1110</ele>
        <time>2014-06-21T14:43:11.000Z</time>
      </trkpt>
      <trkpt lat="44.20959" lon="3.4676">
        <ele>1110</ele>
        <time>2014-06-21T14:43:13.000Z</time>
      </trkpt>
      <trkpt lat="44.20938" lon="3.46758">
        <ele>1117</ele>
        <time>2014-06-21T14:43:15.000Z</time>
      </trkpt>
      <trkpt lat="44.20927" lon="3.46757">
        <ele>1117</ele>
        <time>2014-06-21T14:43:17.000Z</time>
      </trkpt>
      <trkpt lat="44.2092" lon="3.46757">
        <ele>1117</ele>
        <time>2014-06-21T14:43:19.000Z</time>
      </trkpt>
      <trkpt lat="44.20915" lon="3.46757">
        <ele>1117</ele>
        <time>2014-06-21T14:43:21.000Z</time>
      </trkpt>
      <trkpt lat="44.20915" lon="3.46757">
        <ele>1117</ele>
        <time>2014-06-21T14:43:23.000Z</time>
      </trkpt>
      <trkpt lat="44.20909" lon="3.46757">
        <ele>1117</ele>
        <time>2014-06-21T14:43:25.000Z</time>
      </trkpt>
      <trkpt lat="44.20904" lon="3.46757">
        <ele>1117</ele>
        <time>2014-06-21T14:43:27.000Z</time>
      </trkpt>
      <trkpt lat="44.20898" lon="3.46755">
        <ele>1116</ele>
        <time>2014-06-21T14:43:31.000Z</time>
      </trkpt>
      <trkpt lat="44.20894" lon="3.46755">
        <ele>1116</ele>
        <time>2014-06-21T14:43:33.000Z</time>
      </trkpt>
      <trkpt lat="44.20889" lon="3.46753">
        <ele>1117</ele>
        <time>2014-06-21T14:43:37.000Z</time>
      </trkpt>
      <trkpt lat="44.20882" lon="3.46751">
        <ele>1117</ele>
        <time>2014-06-21T14:43:41.000Z</time>
      </trkpt>
      <trkpt lat="44.20877" lon="3.46748">
        <ele>1117</ele>
        <time>2014-06-21T14:43:43.000Z</time>
      </trkpt>
      <trkpt lat="44.20872" lon="3.46747">
        <ele>1118</ele>
        <time>2014-06-21T14:43:45.000Z</time>
      </trkpt>
      <trkpt lat="44.20868" lon="3.46744">
        <ele>1120</ele>
        <time>2014-06-21T14:43:49.000Z</time>
      </trkpt>
      <trkpt lat="44.20863" lon="3.46741">
        <ele>1120</ele>
        <time>2014-06-21T14:43:51.000Z</time>
      </trkpt>
      <trkpt lat="44.20857" lon="3.46737">
        <ele>1122</ele>
        <time>2014-06-21T14:43:55.000Z</time>
      </trkpt>
      <trkpt lat="44.20852" lon="3.46733">
        <ele>1123</ele>
        <time>2014-06-21T14:43:57.000Z</time>
      </trkpt>
      <trkpt lat="44.20847" lon="3.46731">
        <ele>1122</ele>
        <time>2014-06-21T14:43:59.000Z</time>
      </trkpt>
      <trkpt lat="44.20843" lon="3.46728">
        <ele>1123</ele>
        <time>2014-06-21T14:44:01.000Z</time>
      </trkpt>
      <trkpt lat="44.20839" lon="3.46725">
        <ele>1123</ele>
        <time>2014-06-21T14:44:03.000Z</time>
      </trkpt>
      <trkpt lat="44.20839" lon="3.46725">
        <ele>1123</ele>
        <time>2014-06-21T14:44:05.000Z</time>
      </trkpt>
      <trkpt lat="44.20833" lon="3.46722">
        <ele>1124</ele>
        <time>2014-06-21T14:44:07.000Z</time>
      </trkpt>
      <trkpt lat="44.20827" lon="3.46719">
        <ele>1125</ele>
        <time>2014-06-21T14:44:09.000Z</time>
      </trkpt>
      <trkpt lat="44.20822" lon="3.46716">
        <ele>1125</ele>
        <time>2014-06-21T14:44:11.000Z</time>
      </trkpt>
      <trkpt lat="44.20816" lon="3.46713">
        <ele>1124</ele>
        <time>2014-06-21T14:44:13.000Z</time>
      </trkpt>
      <trkpt lat="44.20811" lon="3.46711">
        <ele>1125</ele>
        <time>2014-06-21T14:44:15.000Z</time>
      </trkpt>
      <trkpt lat="44.20801" lon="3.46704">
        <ele>1125</ele>
        <time>2014-06-21T14:44:17.000Z</time>
      </trkpt>
      <trkpt lat="44.20791" lon="3.46696">
        <ele>1124</ele>
        <time>2014-06-21T14:44:21.000Z</time>
      </trkpt>
      <trkpt lat="44.20781" lon="3.46686">
        <ele>1123</ele>
        <time>2014-06-21T14:44:25.000Z</time>
      </trkpt>
      <trkpt lat="44.20772" lon="3.46673">
        <ele>1123</ele>
        <time>2014-06-21T14:44:29.000Z</time>
      </trkpt>
      <trkpt lat="44.20766" lon="3.46662">
        <ele>1123</ele>
        <time>2014-06-21T14:44:32.000Z</time>
      </trkpt>
      <trkpt lat="44.20758" lon="3.46648">
        <ele>1123</ele>
        <time>2014-06-21T14:44:36.000Z</time>
      </trkpt>
      <trkpt lat="44.20758" lon="3.46648">
        <ele>1123</ele>
        <time>2014-06-21T14:44:38.000Z</time>
      </trkpt>
      <trkpt lat="44.20751" lon="3.46632">
        <ele>1123</ele>
        <time>2014-06-21T14:44:40.000Z</time>
      </trkpt>
      <trkpt lat="44.20742" lon="3.46613">
        <ele>1123</ele>
        <time>2014-06-21T14:44:44.000Z</time>
      </trkpt>
      <trkpt lat="44.20731" lon="3.46594">
        <ele>1122</ele>
        <time>2014-06-21T14:44:48.000Z</time>
      </trkpt>
      <trkpt lat="44.20725" lon="3.46584">
        <ele>1121</ele>
        <time>2014-06-21T14:44:50.000Z</time>
      </trkpt>
      <trkpt lat="44.20717" lon="3.46573">
        <ele>1121</ele>
        <time>2014-06-21T14:44:52.000Z</time>
      </trkpt>
      <trkpt lat="44.20708" lon="3.46562">
        <ele>1121</ele>
        <time>2014-06-21T14:44:54.000Z</time>
      </trkpt>
      <trkpt lat="44.207" lon="3.46553">
        <ele>1121</ele>
        <time>2014-06-21T14:44:56.000Z</time>
      </trkpt>
      <trkpt lat="44.207" lon="3.46553">
        <ele>1121</ele>
        <time>2014-06-21T14:44:58.000Z</time>
      </trkpt>
      <trkpt lat="44.207" lon="3.46553">
        <ele>1121</ele>
        <time>2014-06-21T14:45:00.000Z</time>
      </trkpt>
      <trkpt lat="44.207" lon="3.46553">
        <ele>1121</ele>
        <time>2014-06-21T14:45:02.000Z</time>
      </trkpt>
      <trkpt lat="44.207" lon="3.46553">
        <ele>1121</ele>
        <time>2014-06-21T14:45:04.000Z</time>
      </trkpt>
      <trkpt lat="44.207" lon="3.46553">
        <ele>1121</ele>
        <time>2014-06-21T14:45:06.000Z</time>
      </trkpt>
      <trkpt lat="44.207" lon="3.46553">
        <ele>1121</ele>
        <time>2014-06-21T14:45:08.000Z</time>
      </trkpt>
      <trkpt lat="44.207" lon="3.46553">
        <ele>1121</ele>
        <time>2014-06-21T14:45:10.000Z</time>
      </trkpt>
      <trkpt lat="44.207" lon="3.46553">
        <ele>1121</ele>
        <time>2014-06-21T14:45:11.000Z</time>
      </trkpt>
      <trkpt lat="44.207" lon="3.46553">
        <ele>1121</ele>
        <time>2014-06-21T14:45:13.000Z</time>
      </trkpt>
      <trkpt lat="44.207" lon="3.46553">
        <ele>1121</ele>
        <time>2014-06-21T14:45:15.000Z</time>
      </trkpt>
      <trkpt lat="44.207" lon="3.46553">
        <ele>1121</ele>
        <time>2014-06-21T14:45:17.000Z</time>
      </trkpt>
      <trkpt lat="44.207" lon="3.46553">
        <ele>1121</ele>
        <time>2014-06-21T14:45:19.000Z</time>
      </trkpt>
      <trkpt lat="44.207" lon="3.46553">
        <ele>1121</ele>
        <time>2014-06-21T14:45:21.000Z</time>
      </trkpt>
      <trkpt lat="44.207" lon="3.46553">
        <ele>1121</ele>
        <time>2014-06-21T14:45:23.000Z</time>
      </trkpt>
      <trkpt lat="44.207" lon="3.46553">
        <ele>1121</ele>
        <time>2014-06-21T14:45:25.000Z</time>
      </trkpt>
      <trkpt lat="44.207" lon="3.46553">
        <ele>1121</ele>
        <time>2014-06-21T14:45:27.000Z</time>
      </trkpt>
      <trkpt lat="44.20659" lon="3.46471">
        <ele>1126</ele>
        <time>2014-06-21T14:45:29.000Z</time>
      </trkpt>
      <trkpt lat="44.20659" lon="3.46471">
        <ele>1126</ele>
        <time>2014-06-21T14:45:35.000Z</time>
      </trkpt>
      <trkpt lat="44.20659" lon="3.46471">
        <ele>1126</ele>
        <time>2014-06-21T14:45:37.000Z</time>
      </trkpt>
      <trkpt lat="44.20659" lon="3.46471">
        <ele>1126</ele>
        <time>2014-06-21T14:45:39.000Z</time>
      </trkpt>
      <trkpt lat="44.20649" lon="3.46451">
        <ele>1130</ele>
        <time>2014-06-21T14:45:47.000Z</time>
      </trkpt>
      <trkpt lat="44.20642" lon="3.46438">
        <ele>1130</ele>
        <time>2014-06-21T14:45:49.000Z</time>
      </trkpt>
      <trkpt lat="44.20637" lon="3.4643">
        <ele>1130</ele>
        <time>2014-06-21T14:45:51.000Z</time>
      </trkpt>
      <trkpt lat="44.20634" lon="3.46423">
        <ele>1130</ele>
        <time>2014-06-21T14:45:53.000Z</time>
      </trkpt>
      <trkpt lat="44.20631" lon="3.46418">
        <ele>1129</ele>
        <time>2014-06-21T14:45:55.000Z</time>
      </trkpt>
      <trkpt lat="44.20625" lon="3.46407">
        <ele>1130</ele>
        <time>2014-06-21T14:45:57.000Z</time>
      </trkpt>
      <trkpt lat="44.20617" lon="3.46392">
        <ele>1129</ele>
        <time>2014-06-21T14:46:03.000Z</time>
      </trkpt>
      <trkpt lat="44.20612" lon="3.46382">
        <ele>1130</ele>
        <time>2014-06-21T14:46:07.000Z</time>
      </trkpt>
      <trkpt lat="44.20612" lon="3.46382">
        <ele>1130</ele>
        <time>2014-06-21T14:46:09.000Z</time>
      </trkpt>
      <trkpt lat="44.20604" lon="3.46367">
        <ele>1131</ele>
        <time>2014-06-21T14:46:13.000Z</time>
      </trkpt>
      <trkpt lat="44.20597" lon="3.46358">
        <ele>1131</ele>
        <time>2014-06-21T14:46:17.000Z</time>
      </trkpt>
      <trkpt lat="44.20591" lon="3.46348">
        <ele>1132</ele>
        <time>2014-06-21T14:46:21.000Z</time>
      </trkpt>
      <trkpt lat="44.20584" lon="3.46339">
        <ele>1132</ele>
        <time>2014-06-21T14:46:25.000Z</time>
      </trkpt>
      <trkpt lat="44.20577" lon="3.4633">
        <ele>1133</ele>
        <time>2014-06-21T14:46:29.000Z</time>
      </trkpt>
      <trkpt lat="44.20577" lon="3.4633">
        <ele>1133</ele>
        <time>2014-06-21T14:46:31.000Z</time>
      </trkpt>
      <trkpt lat="44.20577" lon="3.4633">
        <ele>1133</ele>
        <time>2014-06-21T14:46:33.000Z</time>
      </trkpt>
      <trkpt lat="44.20555" lon="3.46297">
        <ele>1136</ele>
        <time>2014-06-21T14:46:43.000Z</time>
      </trkpt>
      <trkpt lat="44.20555" lon="3.46297">
        <ele>1136</ele>
        <time>2014-06-21T14:46:47.000Z</time>
      </trkpt>
      <trkpt lat="44.20555" lon="3.46297">
        <ele>1136</ele>
        <time>2014-06-21T14:46:49.000Z</time>
      </trkpt>
      <trkpt lat="44.20555" lon="3.46297">
        <ele>1136</ele>
        <time>2014-06-21T14:46:51.000Z</time>
      </trkpt>
      <trkpt lat="44.20555" lon="3.46297">
        <ele>1136</ele>
        <time>2014-06-21T14:46:53.000Z</time>
      </trkpt>
      <trkpt lat="44.20555" lon="3.46297">
        <ele>1136</ele>
        <time>2014-06-21T14:46:55.000Z</time>
      </trkpt>
      <trkpt lat="44.20555" lon="3.46297">
        <ele>1136</ele>
        <time>2014-06-21T14:46:57.000Z</time>
      </trkpt>
      <trkpt lat="44.20555" lon="3.46297">
        <ele>1136</ele>
        <time>2014-06-21T14:46:59.000Z</time>
      </trkpt>
      <trkpt lat="44.20555" lon="3.46297">
        <ele>1136</ele>
        <time>2014-06-21T14:47:01.000Z</time>
      </trkpt>
      <trkpt lat="44.20529" lon="3.46243">
        <ele>1138</ele>
        <time>2014-06-21T14:47:05.000Z</time>
      </trkpt>
      <trkpt lat="44.20524" lon="3.46231">
        <ele>1138</ele>
        <time>2014-06-21T14:47:09.000Z</time>
      </trkpt>
      <trkpt lat="44.20518" lon="3.46218">
        <ele>1137</ele>
        <time>2014-06-21T14:47:13.000Z</time>
      </trkpt>
      <trkpt lat="44.20514" lon="3.46205">
        <ele>1137</ele>
        <time>2014-06-21T14:47:17.000Z</time>
      </trkpt>
      <trkpt lat="44.20509" lon="3.46192">
        <ele>1137</ele>
        <time>2014-06-21T14:47:21.000Z</time>
      </trkpt>
      <trkpt lat="44.20509" lon="3.46192">
        <ele>1137</ele>
        <time>2014-06-21T14:47:23.000Z</time>
      </trkpt>
      <trkpt lat="44.20509" lon="3.46192">
        <ele>1137</ele>
        <time>2014-06-21T14:47:25.000Z</time>
      </trkpt>
      <trkpt lat="44.20509" lon="3.46192">
        <ele>1137</ele>
        <time>2014-06-21T14:47:27.000Z</time>
      </trkpt>
      <trkpt lat="44.20505" lon="3.46179">
        <ele>1136</ele>
        <time>2014-06-21T14:47:29.000Z</time>
      </trkpt>
      <trkpt lat="44.20502" lon="3.46168">
        <ele>1136</ele>
        <time>2014-06-21T14:47:31.000Z</time>
      </trkpt>
      <trkpt lat="44.205" lon="3.46159">
        <ele>1136</ele>
        <time>2014-06-21T14:47:33.000Z</time>
      </trkpt>
      <trkpt lat="44.20498" lon="3.4615">
        <ele>1136</ele>
        <time>2014-06-21T14:47:35.000Z</time>
      </trkpt>
      <trkpt lat="44.20496" lon="3.46141">
        <ele>1136</ele>
        <time>2014-06-21T14:47:37.000Z</time>
      </trkpt>
      <trkpt lat="44.20493" lon="3.46124">
        <ele>1136</ele>
        <time>2014-06-21T14:47:39.000Z</time>
      </trkpt>
      <trkpt lat="44.20493" lon="3.46124">
        <ele>1136</ele>
        <time>2014-06-21T14:47:41.000Z</time>
      </trkpt>
      <trkpt lat="44.20493" lon="3.46124">
        <ele>1136</ele>
        <time>2014-06-21T14:47:43.000Z</time>
      </trkpt>
      <trkpt lat="44.20493" lon="3.46124">
        <ele>1136</ele>
        <time>2014-06-21T14:47:45.000Z</time>
      </trkpt>
      <trkpt lat="44.20493" lon="3.46124">
        <ele>1136</ele>
        <time>2014-06-21T14:47:47.000Z</time>
      </trkpt>
      <trkpt lat="44.20493" lon="3.46124">
        <ele>1136</ele>
        <time>2014-06-21T14:47:49.000Z</time>
      </trkpt>
      <trkpt lat="44.20493" lon="3.46124">
        <ele>1136</ele>
        <time>2014-06-21T14:47:51.000Z</time>
      </trkpt>
      <trkpt lat="44.20493" lon="3.46124">
        <ele>1136</ele>
        <time>2014-06-21T14:47:57.000Z</time>
      </trkpt>
      <trkpt lat="44.20478" lon="3.46053">
        <ele>1134</ele>
        <time>2014-06-21T14:48:01.000Z</time>
      </trkpt>
      <trkpt lat="44.20473" lon="3.46033">
        <ele>1133</ele>
        <time>2014-06-21T14:48:05.000Z</time>
      </trkpt>
      <trkpt lat="44.20469" lon="3.46022">
        <ele>1133</ele>
        <time>2014-06-21T14:48:07.000Z</time>
      </trkpt>
      <trkpt lat="44.20464" lon="3.46011">
        <ele>1132</ele>
        <time>2014-06-21T14:48:09.000Z</time>
      </trkpt>
      <trkpt lat="44.20459" lon="3.45999">
        <ele>1132</ele>
        <time>2014-06-21T14:48:11.000Z</time>
      </trkpt>
      <trkpt lat="44.20455" lon="3.45986">
        <ele>1132</ele>
        <time>2014-06-21T14:48:13.000Z</time>
      </trkpt>
      <trkpt lat="44.2045" lon="3.45974">
        <ele>1132</ele>
        <time>2014-06-21T14:48:15.000Z</time>
      </trkpt>
      <trkpt lat="44.20445" lon="3.45963">
        <ele>1132</ele>
        <time>2014-06-21T14:48:17.000Z</time>
      </trkpt>
      <trkpt lat="44.20445" lon="3.45963">
        <ele>1132</ele>
        <time>2014-06-21T14:48:19.000Z</time>
      </trkpt>
      <trkpt lat="44.20445" lon="3.45963">
        <ele>1132</ele>
        <time>2014-06-21T14:48:21.000Z</time>
      </trkpt>
      <trkpt lat="44.20445" lon="3.45963">
        <ele>1132</ele>
        <time>2014-06-21T14:48:23.000Z</time>
      </trkpt>
      <trkpt lat="44.20445" lon="3.45963">
        <ele>1132</ele>
        <time>2014-06-21T14:48:25.000Z</time>
      </trkpt>
      <trkpt lat="44.20445" lon="3.45963">
        <ele>1132</ele>
        <time>2014-06-21T14:48:27.000Z</time>
      </trkpt>
      <trkpt lat="44.20445" lon="3.45963">
        <ele>1132</ele>
        <time>2014-06-21T14:48:29.000Z</time>
      </trkpt>
      <trkpt lat="44.20445" lon="3.45963">
        <ele>1132</ele>
        <time>2014-06-21T14:48:31.000Z</time>
      </trkpt>
      <trkpt lat="44.20445" lon="3.45963">
        <ele>1132</ele>
        <time>2014-06-21T14:48:33.000Z</time>
      </trkpt>
      <trkpt lat="44.20445" lon="3.45963">
        <ele>1132</ele>
        <time>2014-06-21T14:48:35.000Z</time>
      </trkpt>
      <trkpt lat="44.20445" lon="3.45963">
        <ele>1132</ele>
        <time>2014-06-21T14:48:36.000Z</time>
      </trkpt>
      <trkpt lat="44.20445" lon="3.45963">
        <ele>1132</ele>
        <time>2014-06-21T14:48:38.000Z</time>
      </trkpt>
      <trkpt lat="44.20445" lon="3.45963">
        <ele>1132</ele>
        <time>2014-06-21T14:48:40.000Z</time>
      </trkpt>
      <trkpt lat="44.20429" lon="3.45924">
        <ele>1131</ele>
        <time>2014-06-21T14:49:42.000Z</time>
      </trkpt>
      <trkpt lat="44.2042" lon="3.45903">
        <ele>1130</ele>
        <time>2014-06-21T14:49:44.000Z</time>
      </trkpt>
      <trkpt lat="44.20413" lon="3.4589">
        <ele>1131</ele>
        <time>2014-06-21T14:49:46.000Z</time>
      </trkpt>
      <trkpt lat="44.20409" lon="3.45881">
        <ele>1131</ele>
        <time>2014-06-21T14:49:48.000Z</time>
      </trkpt>
      <trkpt lat="44.20405" lon="3.45875">
        <ele>1131</ele>
        <time>2014-06-21T14:49:50.000Z</time>
      </trkpt>
      <trkpt lat="44.20405" lon="3.45875">
        <ele>1131</ele>
        <time>2014-06-21T14:49:52.000Z</time>
      </trkpt>
      <trkpt lat="44.20405" lon="3.45875">
        <ele>1131</ele>
        <time>2014-06-21T14:49:54.000Z</time>
      </trkpt>
      <trkpt lat="44.20405" lon="3.45875">
        <ele>1131</ele>
        <time>2014-06-21T14:49:56.000Z</time>
      </trkpt>
      <trkpt lat="44.20405" lon="3.45875">
        <ele>1131</ele>
        <time>2014-06-21T14:49:58.000Z</time>
      </trkpt>
      <trkpt lat="44.20405" lon="3.45875">
        <ele>1131</ele>
        <time>2014-06-21T14:50:00.000Z</time>
      </trkpt>
      <trkpt lat="44.20405" lon="3.45875">
        <ele>1131</ele>
        <time>2014-06-21T14:50:02.000Z</time>
      </trkpt>
      <trkpt lat="44.20405" lon="3.45875">
        <ele>1131</ele>
        <time>2014-06-21T14:50:04.000Z</time>
      </trkpt>
      <trkpt lat="44.20405" lon="3.45875">
        <ele>1131</ele>
        <time>2014-06-21T14:50:06.000Z</time>
      </trkpt>
      <trkpt lat="44.20407" lon="3.45854">
        <ele>1138</ele>
        <time>2014-06-21T14:50:22.000Z</time>
      </trkpt>
      <trkpt lat="44.20406" lon="3.45838">
        <ele>1138</ele>
        <time>2014-06-21T14:50:28.000Z</time>
      </trkpt>
      <trkpt lat="44.20397" lon="3.45823">
        <ele>1136</ele>
        <time>2014-06-21T14:50:34.000Z</time>
      </trkpt>
      <trkpt lat="44.2039" lon="3.45807">
        <ele>1136</ele>
        <time>2014-06-21T14:50:38.000Z</time>
      </trkpt>
      <trkpt lat="44.20385" lon="3.45787">
        <ele>1136</ele>
        <time>2014-06-21T14:50:42.000Z</time>
      </trkpt>
      <trkpt lat="44.2038" lon="3.45765">
        <ele>1134</ele>
        <time>2014-06-21T14:50:46.000Z</time>
      </trkpt>
      <trkpt lat="44.20377" lon="3.45752">
        <ele>1134</ele>
        <time>2014-06-21T14:50:48.000Z</time>
      </trkpt>
      <trkpt lat="44.20372" lon="3.45736">
        <ele>1133</ele>
        <time>2014-06-21T14:50:50.000Z</time>
      </trkpt>
      <trkpt lat="44.20371" lon="3.45719">
        <ele>1132</ele>
        <time>2014-06-21T14:50:52.000Z</time>
      </trkpt>
      <trkpt lat="44.20367" lon="3.45703">
        <ele>1131</ele>
        <time>2014-06-21T14:50:54.000Z</time>
      </trkpt>
      <trkpt lat="44.20364" lon="3.45686">
        <ele>1131</ele>
        <time>2014-06-21T14:50:56.000Z</time>
      </trkpt>
      <trkpt lat="44.2036" lon="3.45669">
        <ele>1131</ele>
        <time>2014-06-21T14:50:58.000Z</time>
      </trkpt>
      <trkpt lat="44.20358" lon="3.45651">
        <ele>1131</ele>
        <time>2014-06-21T14:51:00.000Z</time>
      </trkpt>
      <trkpt lat="44.20356" lon="3.45631">
        <ele>1130</ele>
        <time>2014-06-21T14:51:02.000Z</time>
      </trkpt>
      <trkpt lat="44.20352" lon="3.45612">
        <ele>1131</ele>
        <time>2014-06-21T14:51:04.000Z</time>
      </trkpt>
      <trkpt lat="44.20347" lon="3.45597">
        <ele>1130</ele>
        <time>2014-06-21T14:51:06.000Z</time>
      </trkpt>
      <trkpt lat="44.20343" lon="3.45581">
        <ele>1130</ele>
        <time>2014-06-21T14:51:08.000Z</time>
      </trkpt>
      <trkpt lat="44.2034" lon="3.45563">
        <ele>1131</ele>
        <time>2014-06-21T14:51:10.000Z</time>
      </trkpt>
      <trkpt lat="44.20338" lon="3.45547">
        <ele>1131</ele>
        <time>2014-06-21T14:51:12.000Z</time>
      </trkpt>
      <trkpt lat="44.20343" lon="3.45529">
        <ele>1130</ele>
        <time>2014-06-21T14:51:14.000Z</time>
      </trkpt>
      <trkpt lat="44.20348" lon="3.45512">
        <ele>1130</ele>
        <time>2014-06-21T14:51:16.000Z</time>
      </trkpt>
      <trkpt lat="44.20354" lon="3.4549">
        <ele>1129</ele>
        <time>2014-06-21T14:51:18.000Z</time>
      </trkpt>
      <trkpt lat="44.20359" lon="3.45471">
        <ele>1129</ele>
        <time>2014-06-21T14:51:20.000Z</time>
      </trkpt>
      <trkpt lat="44.20368" lon="3.45451">
        <ele>1127</ele>
        <time>2014-06-21T14:51:22.000Z</time>
      </trkpt>
      <trkpt lat="44.20376" lon="3.45433">
        <ele>1126</ele>
        <time>2014-06-21T14:51:24.000Z</time>
      </trkpt>
      <trkpt lat="44.20386" lon="3.45412">
        <ele>1125</ele>
        <time>2014-06-21T14:51:26.000Z</time>
      </trkpt>
      <trkpt lat="44.20392" lon="3.45401">
        <ele>1123</ele>
        <time>2014-06-21T14:51:27.000Z</time>
      </trkpt>
      <trkpt lat="44.20404" lon="3.45376">
        <ele>1122</ele>
        <time>2014-06-21T14:51:29.000Z</time>
      </trkpt>
      <trkpt lat="44.20415" lon="3.45353">
        <ele>1121</ele>
        <time>2014-06-21T14:51:31.000Z</time>
      </trkpt>
      <trkpt lat="44.20427" lon="3.45333">
        <ele>1119</ele>
        <time>2014-06-21T14:51:33.000Z</time>
      </trkpt>
      <trkpt lat="44.20439" lon="3.45319">
        <ele>1119</ele>
        <time>2014-06-21T14:51:35.000Z</time>
      </trkpt>
      <trkpt lat="44.20447" lon="3.45305">
        <ele>1118</ele>
        <time>2014-06-21T14:51:37.000Z</time>
      </trkpt>
      <trkpt lat="44.20454" lon="3.45294">
        <ele>1118</ele>
        <time>2014-06-21T14:51:39.000Z</time>
      </trkpt>
      <trkpt lat="44.20462" lon="3.45281">
        <ele>1118</ele>
        <time>2014-06-21T14:51:41.000Z</time>
      </trkpt>
      <trkpt lat="44.20469" lon="3.45269">
        <ele>1117</ele>
        <time>2014-06-21T14:51:43.000Z</time>
      </trkpt>
      <trkpt lat="44.20474" lon="3.45255">
        <ele>1117</ele>
        <time>2014-06-21T14:51:45.000Z</time>
      </trkpt>
      <trkpt lat="44.20477" lon="3.45242">
        <ele>1116</ele>
        <time>2014-06-21T14:51:47.000Z</time>
      </trkpt>
      <trkpt lat="44.20477" lon="3.45242">
        <ele>1116</ele>
        <time>2014-06-21T14:51:49.000Z</time>
      </trkpt>
      <trkpt lat="44.20483" lon="3.45211">
        <ele>1115</ele>
        <time>2014-06-21T14:51:51.000Z</time>
      </trkpt>
      <trkpt lat="44.20485" lon="3.45197">
        <ele>1114</ele>
        <time>2014-06-21T14:51:53.000Z</time>
      </trkpt>
      <trkpt lat="44.20485" lon="3.4518">
        <ele>1114</ele>
        <time>2014-06-21T14:51:55.000Z</time>
      </trkpt>
      <trkpt lat="44.20482" lon="3.45167">
        <ele>1115</ele>
        <time>2014-06-21T14:51:57.000Z</time>
      </trkpt>
      <trkpt lat="44.20478" lon="3.45151">
        <ele>1115</ele>
        <time>2014-06-21T14:51:59.000Z</time>
      </trkpt>
      <trkpt lat="44.20473" lon="3.45138">
        <ele>1114</ele>
        <time>2014-06-21T14:52:01.000Z</time>
      </trkpt>
      <trkpt lat="44.20469" lon="3.45121">
        <ele>1113</ele>
        <time>2014-06-21T14:52:03.000Z</time>
      </trkpt>
      <trkpt lat="44.20463" lon="3.45104">
        <ele>1112</ele>
        <time>2014-06-21T14:52:05.000Z</time>
      </trkpt>
      <trkpt lat="44.20457" lon="3.45086">
        <ele>1111</ele>
        <time>2014-06-21T14:52:07.000Z</time>
      </trkpt>
      <trkpt lat="44.20452" lon="3.45067">
        <ele>1110</ele>
        <time>2014-06-21T14:52:09.000Z</time>
      </trkpt>
      <trkpt lat="44.20447" lon="3.4505">
        <ele>1109</ele>
        <time>2014-06-21T14:52:11.000Z</time>
      </trkpt>
      <trkpt lat="44.20441" lon="3.45032">
        <ele>1108</ele>
        <time>2014-06-21T14:52:13.000Z</time>
      </trkpt>
      <trkpt lat="44.20435" lon="3.45015">
        <ele>1109</ele>
        <time>2014-06-21T14:52:15.000Z</time>
      </trkpt>
      <trkpt lat="44.20428" lon="3.44997">
        <ele>1108</ele>
        <time>2014-06-21T14:52:17.000Z</time>
      </trkpt>
      <trkpt lat="44.20422" lon="3.44977">
        <ele>1107</ele>
        <time>2014-06-21T14:52:19.000Z</time>
      </trkpt>
      <trkpt lat="44.20416" lon="3.44958">
        <ele>1105</ele>
        <time>2014-06-21T14:52:21.000Z</time>
      </trkpt>
      <trkpt lat="44.20411" lon="3.44936">
        <ele>1104</ele>
        <time>2014-06-21T14:52:23.000Z</time>
      </trkpt>
      <trkpt lat="44.20408" lon="3.44915">
        <ele>1104</ele>
        <time>2014-06-21T14:52:25.000Z</time>
      </trkpt>
      <trkpt lat="44.20406" lon="3.44895">
        <ele>1103</ele>
        <time>2014-06-21T14:52:27.000Z</time>
      </trkpt>
      <trkpt lat="44.20406" lon="3.44876">
        <ele>1103</ele>
        <time>2014-06-21T14:52:29.000Z</time>
      </trkpt>
      <trkpt lat="44.20405" lon="3.44857">
        <ele>1103</ele>
        <time>2014-06-21T14:52:31.000Z</time>
      </trkpt>
      <trkpt lat="44.20404" lon="3.44836">
        <ele>1102</ele>
        <time>2014-06-21T14:52:33.000Z</time>
      </trkpt>
      <trkpt lat="44.20404" lon="3.44815">
        <ele>1100</ele>
        <time>2014-06-21T14:52:35.000Z</time>
      </trkpt>
      <trkpt lat="44.20404" lon="3.44794">
        <ele>1100</ele>
        <time>2014-06-21T14:52:37.000Z</time>
      </trkpt>
      <trkpt lat="44.20404" lon="3.44773">
        <ele>1100</ele>
        <time>2014-06-21T14:52:39.000Z</time>
      </trkpt>
      <trkpt lat="44.20404" lon="3.44752">
        <ele>1100</ele>
        <time>2014-06-21T14:52:41.000Z</time>
      </trkpt>
      <trkpt lat="44.20402" lon="3.44729">
        <ele>1100</ele>
        <time>2014-06-21T14:52:43.000Z</time>
      </trkpt>
      <trkpt lat="44.20399" lon="3.44708">
        <ele>1100</ele>
        <time>2014-06-21T14:52:45.000Z</time>
      </trkpt>
      <trkpt lat="44.2039" lon="3.44643">
        <ele>1099</ele>
        <time>2014-06-21T14:52:52.000Z</time>
      </trkpt>
      <trkpt lat="44.20392" lon="3.4462">
        <ele>1099</ele>
        <time>2014-06-21T14:52:54.000Z</time>
      </trkpt>
      <trkpt lat="44.20393" lon="3.44599">
        <ele>1098</ele>
        <time>2014-06-21T14:52:56.000Z</time>
      </trkpt>
      <trkpt lat="44.20397" lon="3.44578">
        <ele>1096</ele>
        <time>2014-06-21T14:52:58.000Z</time>
      </trkpt>
      <trkpt lat="44.20399" lon="3.44557">
        <ele>1095</ele>
        <time>2014-06-21T14:53:00.000Z</time>
      </trkpt>
      <trkpt lat="44.20407" lon="3.44539">
        <ele>1093</ele>
        <time>2014-06-21T14:53:02.000Z</time>
      </trkpt>
      <trkpt lat="44.20417" lon="3.4452">
        <ele>1093</ele>
        <time>2014-06-21T14:53:04.000Z</time>
      </trkpt>
      <trkpt lat="44.20429" lon="3.44505">
        <ele>1092</ele>
        <time>2014-06-21T14:53:06.000Z</time>
      </trkpt>
      <trkpt lat="44.20443" lon="3.44487">
        <ele>1089</ele>
        <time>2014-06-21T14:53:08.000Z</time>
      </trkpt>
      <trkpt lat="44.20454" lon="3.44464">
        <ele>1088</ele>
        <time>2014-06-21T14:53:10.000Z</time>
      </trkpt>
      <trkpt lat="44.20462" lon="3.44435">
        <ele>1086</ele>
        <time>2014-06-21T14:53:12.000Z</time>
      </trkpt>
      <trkpt lat="44.20465" lon="3.44408">
        <ele>1086</ele>
        <time>2014-06-21T14:53:14.000Z</time>
      </trkpt>
      <trkpt lat="44.20469" lon="3.44384">
        <ele>1085</ele>
        <time>2014-06-21T14:53:16.000Z</time>
      </trkpt>
      <trkpt lat="44.20471" lon="3.44362">
        <ele>1086</ele>
        <time>2014-06-21T14:53:18.000Z</time>
      </trkpt>
      <trkpt lat="44.20474" lon="3.44344">
        <ele>1085</ele>
        <time>2014-06-21T14:53:20.000Z</time>
      </trkpt>
      <trkpt lat="44.20477" lon="3.44325">
        <ele>1084</ele>
        <time>2014-06-21T14:53:22.000Z</time>
      </trkpt>
      <trkpt lat="44.20478" lon="3.44309">
        <ele>1084</ele>
        <time>2014-06-21T14:53:24.000Z</time>
      </trkpt>
      <trkpt lat="44.20478" lon="3.44291">
        <ele>1083</ele>
        <time>2014-06-21T14:53:26.000Z</time>
      </trkpt>
      <trkpt lat="44.20477" lon="3.44275">
        <ele>1082</ele>
        <time>2014-06-21T14:53:28.000Z</time>
      </trkpt>
      <trkpt lat="44.20475" lon="3.44258">
        <ele>1082</ele>
        <time>2014-06-21T14:53:30.000Z</time>
      </trkpt>
      <trkpt lat="44.20473" lon="3.44243">
        <ele>1082</ele>
        <time>2014-06-21T14:53:32.000Z</time>
      </trkpt>
      <trkpt lat="44.20471" lon="3.44228">
        <ele>1082</ele>
        <time>2014-06-21T14:53:34.000Z</time>
      </trkpt>
      <trkpt lat="44.20469" lon="3.44213">
        <ele>1081</ele>
        <time>2014-06-21T14:53:36.000Z</time>
      </trkpt>
      <trkpt lat="44.20467" lon="3.44199">
        <ele>1081</ele>
        <time>2014-06-21T14:53:38.000Z</time>
      </trkpt>
      <trkpt lat="44.20467" lon="3.44199">
        <ele>1081</ele>
        <time>2014-06-21T14:53:40.000Z</time>
      </trkpt>
      <trkpt lat="44.20467" lon="3.44199">
        <ele>1081</ele>
        <time>2014-06-21T14:53:42.000Z</time>
      </trkpt>
      <trkpt lat="44.20467" lon="3.44199">
        <ele>1081</ele>
        <time>2014-06-21T14:53:44.000Z</time>
      </trkpt>
      <trkpt lat="44.20467" lon="3.44199">
        <ele>1081</ele>
        <time>2014-06-21T14:53:46.000Z</time>
      </trkpt>
      <trkpt lat="44.20448" lon="3.44104">
        <ele>1080</ele>
        <time>2014-06-21T14:53:52.000Z</time>
      </trkpt>
      <trkpt lat="44.20442" lon="3.44091">
        <ele>1079</ele>
        <time>2014-06-21T14:53:54.000Z</time>
      </trkpt>
      <trkpt lat="44.20435" lon="3.44079">
        <ele>1080</ele>
        <time>2014-06-21T14:53:56.000Z</time>
      </trkpt>
      <trkpt lat="44.20426" lon="3.44067">
        <ele>1079</ele>
        <time>2014-06-21T14:53:58.000Z</time>
      </trkpt>
      <trkpt lat="44.20417" lon="3.44055">
        <ele>1079</ele>
        <time>2014-06-21T14:54:00.000Z</time>
      </trkpt>
      <trkpt lat="44.20407" lon="3.44043">
        <ele>1078</ele>
        <time>2014-06-21T14:54:02.000Z</time>
      </trkpt>
      <trkpt lat="44.20396" lon="3.44029">
        <ele>1077</ele>
        <time>2014-06-21T14:54:04.000Z</time>
      </trkpt>
      <trkpt lat="44.20383" lon="3.44016">
        <ele>1077</ele>
        <time>2014-06-21T14:54:06.000Z</time>
      </trkpt>
      <trkpt lat="44.20372" lon="3.44003">
        <ele>1077</ele>
        <time>2014-06-21T14:54:08.000Z</time>
      </trkpt>
      <trkpt lat="44.20361" lon="3.43989">
        <ele>1077</ele>
        <time>2014-06-21T14:54:10.000Z</time>
      </trkpt>
      <trkpt lat="44.2035" lon="3.43979">
        <ele>1077</ele>
        <time>2014-06-21T14:54:12.000Z</time>
      </trkpt>
      <trkpt lat="44.20341" lon="3.43969">
        <ele>1077</ele>
        <time>2014-06-21T14:54:14.000Z</time>
      </trkpt>
      <trkpt lat="44.20333" lon="3.43959">
        <ele>1077</ele>
        <time>2014-06-21T14:54:16.000Z</time>
      </trkpt>
      <trkpt lat="44.20325" lon="3.4395">
        <ele>1077</ele>
        <time>2014-06-21T14:54:18.000Z</time>
      </trkpt>
      <trkpt lat="44.20315" lon="3.4394">
        <ele>1076</ele>
        <time>2014-06-21T14:54:20.000Z</time>
      </trkpt>
      <trkpt lat="44.20306" lon="3.43931">
        <ele>1075</ele>
        <time>2014-06-21T14:54:22.000Z</time>
      </trkpt>
      <trkpt lat="44.20296" lon="3.43923">
        <ele>1074</ele>
        <time>2014-06-21T14:54:24.000Z</time>
      </trkpt>
      <trkpt lat="44.20287" lon="3.43915">
        <ele>1074</ele>
        <time>2014-06-21T14:54:26.000Z</time>
      </trkpt>
      <trkpt lat="44.20277" lon="3.43906">
        <ele>1072</ele>
        <time>2014-06-21T14:54:28.000Z</time>
      </trkpt>
      <trkpt lat="44.20267" lon="3.43899">
        <ele>1072</ele>
        <time>2014-06-21T14:54:30.000Z</time>
      </trkpt>
      <trkpt lat="44.20259" lon="3.43893">
        <ele>1070</ele>
        <time>2014-06-21T14:54:33.000Z</time>
      </trkpt>
      <trkpt lat="44.20249" lon="3.43885">
        <ele>1069</ele>
        <time>2014-06-21T14:54:35.000Z</time>
      </trkpt>
      <trkpt lat="44.20238" lon="3.43877">
        <ele>1068</ele>
        <time>2014-06-21T14:54:37.000Z</time>
      </trkpt>
      <trkpt lat="44.20226" lon="3.43869">
        <ele>1068</ele>
        <time>2014-06-21T14:54:39.000Z</time>
      </trkpt>
      <trkpt lat="44.20215" lon="3.4386">
        <ele>1068</ele>
        <time>2014-06-21T14:54:41.000Z</time>
      </trkpt>
      <trkpt lat="44.20192" lon="3.43842">
        <ele>1067</ele>
        <time>2014-06-21T14:54:43.000Z</time>
      </trkpt>
      <trkpt lat="44.20179" lon="3.43836">
        <ele>1066</ele>
        <time>2014-06-21T14:54:45.000Z</time>
      </trkpt>
      <trkpt lat="44.20165" lon="3.43834">
        <ele>1064</ele>
        <time>2014-06-21T14:54:47.000Z</time>
      </trkpt>
      <trkpt lat="44.20151" lon="3.4384">
        <ele>1064</ele>
        <time>2014-06-21T14:54:49.000Z</time>
      </trkpt>
      <trkpt lat="44.20139" lon="3.4385">
        <ele>1063</ele>
        <time>2014-06-21T14:54:51.000Z</time>
      </trkpt>
      <trkpt lat="44.20131" lon="3.4386">
        <ele>1063</ele>
        <time>2014-06-21T14:54:53.000Z</time>
      </trkpt>
      <trkpt lat="44.20121" lon="3.43866">
        <ele>1062</ele>
        <time>2014-06-21T14:54:55.000Z</time>
      </trkpt>
      <trkpt lat="44.20121" lon="3.43866">
        <ele>1062</ele>
        <time>2014-06-21T14:54:57.000Z</time>
      </trkpt>
      <trkpt lat="44.20121" lon="3.43866">
        <ele>1062</ele>
        <time>2014-06-21T14:54:59.000Z</time>
      </trkpt>
      <trkpt lat="44.20121" lon="3.43866">
        <ele>1062</ele>
        <time>2014-06-21T14:55:01.000Z</time>
      </trkpt>
      <trkpt lat="44.20121" lon="3.43866">
        <ele>1062</ele>
        <time>2014-06-21T14:55:03.000Z</time>
      </trkpt>
      <trkpt lat="44.20121" lon="3.43866">
        <ele>1062</ele>
        <time>2014-06-21T14:55:05.000Z</time>
      </trkpt>
      <trkpt lat="44.20121" lon="3.43866">
        <ele>1062</ele>
        <time>2014-06-21T14:55:07.000Z</time>
      </trkpt>
      <trkpt lat="44.20121" lon="3.43866">
        <ele>1062</ele>
        <time>2014-06-21T14:55:09.000Z</time>
      </trkpt>
      <trkpt lat="44.20095" lon="3.43885">
        <ele>1058</ele>
        <time>2014-06-21T14:55:15.000Z</time>
      </trkpt>
      <trkpt lat="44.20095" lon="3.43885">
        <ele>1058</ele>
        <time>2014-06-21T14:55:17.000Z</time>
      </trkpt>
      <trkpt lat="44.20095" lon="3.43885">
        <ele>1058</ele>
        <time>2014-06-21T14:55:19.000Z</time>
      </trkpt>
      <trkpt lat="44.20095" lon="3.43885">
        <ele>1058</ele>
        <time>2014-06-21T14:55:21.000Z</time>
      </trkpt>
      <trkpt lat="44.20095" lon="3.43885">
        <ele>1058</ele>
        <time>2014-06-21T14:55:22.000Z</time>
      </trkpt>
      <trkpt lat="44.20095" lon="3.43885">
        <ele>1058</ele>
        <time>2014-06-21T14:55:24.000Z</time>
      </trkpt>
      <trkpt lat="44.20082" lon="3.43873">
        <ele>1058</ele>
        <time>2014-06-21T14:55:42.000Z</time>
      </trkpt>
      <trkpt lat="44.20082" lon="3.43873">
        <ele>1058</ele>
        <time>2014-06-21T14:55:46.000Z</time>
      </trkpt>
      <trkpt lat="44.20082" lon="3.43873">
        <ele>1058</ele>
        <time>2014-06-21T14:55:48.000Z</time>
      </trkpt>
      <trkpt lat="44.20082" lon="3.43873">
        <ele>1058</ele>
        <time>2014-06-21T14:55:50.000Z</time>
      </trkpt>
      <trkpt lat="44.20075" lon="3.43878">
        <ele>1057</ele>
        <time>2014-06-21T14:56:18.000Z</time>
      </trkpt>
      <trkpt lat="44.2007" lon="3.43884">
        <ele>1058</ele>
        <time>2014-06-21T14:56:20.000Z</time>
      </trkpt>
      <trkpt lat="44.20065" lon="3.43888">
        <ele>1059</ele>
        <time>2014-06-21T14:56:21.000Z</time>
      </trkpt>
      <trkpt lat="44.20061" lon="3.43891">
        <ele>1057</ele>
        <time>2014-06-21T14:56:23.000Z</time>
      </trkpt>
      <trkpt lat="44.20061" lon="3.43891">
        <ele>1057</ele>
        <time>2014-06-21T14:56:25.000Z</time>
      </trkpt>
      <trkpt lat="44.20061" lon="3.43891">
        <ele>1057</ele>
        <time>2014-06-21T14:56:27.000Z</time>
      </trkpt>
      <trkpt lat="44.20061" lon="3.43891">
        <ele>1057</ele>
        <time>2014-06-21T14:56:29.000Z</time>
      </trkpt>
      <trkpt lat="44.20051" lon="3.43895">
        <ele>1056</ele>
        <time>2014-06-21T14:56:31.000Z</time>
      </trkpt>
      <trkpt lat="44.20044" lon="3.43896">
        <ele>1057</ele>
        <time>2014-06-21T14:56:33.000Z</time>
      </trkpt>
      <trkpt lat="44.20037" lon="3.43897">
        <ele>1058</ele>
        <time>2014-06-21T14:56:35.000Z</time>
      </trkpt>
      <trkpt lat="44.20031" lon="3.43898">
        <ele>1058</ele>
        <time>2014-06-21T14:56:37.000Z</time>
      </trkpt>
      <trkpt lat="44.20025" lon="3.43897">
        <ele>1058</ele>
        <time>2014-06-21T14:56:39.000Z</time>
      </trkpt>
      <trkpt lat="44.20012" lon="3.43894">
        <ele>1056</ele>
        <time>2014-06-21T14:56:41.000Z</time>
      </trkpt>
      <trkpt lat="44.20012" lon="3.43894">
        <ele>1056</ele>
        <time>2014-06-21T14:56:43.000Z</time>
      </trkpt>
      <trkpt lat="44.20002" lon="3.4389">
        <ele>1056</ele>
        <time>2014-06-21T14:56:45.000Z</time>
      </trkpt>
      <trkpt lat="44.20002" lon="3.4389">
        <ele>1056</ele>
        <time>2014-06-21T14:56:47.000Z</time>
      </trkpt>
      <trkpt lat="44.19983" lon="3.43881">
        <ele>1053</ele>
        <time>2014-06-21T14:56:51.000Z</time>
      </trkpt>
      <trkpt lat="44.19971" lon="3.43875">
        <ele>1054</ele>
        <time>2014-06-21T14:56:55.000Z</time>
      </trkpt>
      <trkpt lat="44.19958" lon="3.4387">
        <ele>1054</ele>
        <time>2014-06-21T14:56:59.000Z</time>
      </trkpt>
      <trkpt lat="44.19944" lon="3.43864">
        <ele>1053</ele>
        <time>2014-06-21T14:57:03.000Z</time>
      </trkpt>
      <trkpt lat="44.19929" lon="3.43859">
        <ele>1052</ele>
        <time>2014-06-21T14:57:07.000Z</time>
      </trkpt>
      <trkpt lat="44.19915" lon="3.43855">
        <ele>1053</ele>
        <time>2014-06-21T14:57:11.000Z</time>
      </trkpt>
      <trkpt lat="44.199" lon="3.4385">
        <ele>1053</ele>
        <time>2014-06-21T14:57:15.000Z</time>
      </trkpt>
      <trkpt lat="44.19886" lon="3.43846">
        <ele>1053</ele>
        <time>2014-06-21T14:57:19.000Z</time>
      </trkpt>
      <trkpt lat="44.19886" lon="3.43846">
        <ele>1053</ele>
        <time>2014-06-21T14:57:21.000Z</time>
      </trkpt>
      <trkpt lat="44.19886" lon="3.43846">
        <ele>1053</ele>
        <time>2014-06-21T14:57:23.000Z</time>
      </trkpt>
      <trkpt lat="44.19886" lon="3.43846">
        <ele>1053</ele>
        <time>2014-06-21T14:57:25.000Z</time>
      </trkpt>
      <trkpt lat="44.19886" lon="3.43846">
        <ele>1053</ele>
        <time>2014-06-21T14:57:27.000Z</time>
      </trkpt>
      <trkpt lat="44.19854" lon="3.4382">
        <ele>1053</ele>
        <time>2014-06-21T14:57:31.000Z</time>
      </trkpt>
      <trkpt lat="44.19841" lon="3.4381">
        <ele>1053</ele>
        <time>2014-06-21T14:57:35.000Z</time>
      </trkpt>
      <trkpt lat="44.19841" lon="3.4381">
        <ele>1053</ele>
        <time>2014-06-21T14:57:37.000Z</time>
      </trkpt>
      <trkpt lat="44.19833" lon="3.43798">
        <ele>1053</ele>
        <time>2014-06-21T14:57:39.000Z</time>
      </trkpt>
      <trkpt lat="44.19833" lon="3.43798">
        <ele>1053</ele>
        <time>2014-06-21T14:57:41.000Z</time>
      </trkpt>
      <trkpt lat="44.19833" lon="3.43798">
        <ele>1053</ele>
        <time>2014-06-21T14:57:43.000Z</time>
      </trkpt>
      <trkpt lat="44.19833" lon="3.43798">
        <ele>1053</ele>
        <time>2014-06-21T14:57:46.000Z</time>
      </trkpt>
      <trkpt lat="44.19833" lon="3.43798">
        <ele>1053</ele>
        <time>2014-06-21T14:57:53.000Z</time>
      </trkpt>
      <trkpt lat="44.19804" lon="3.43727">
        <ele>1054</ele>
        <time>2014-06-21T14:57:57.000Z</time>
      </trkpt>
      <trkpt lat="44.19804" lon="3.43727">
        <ele>1054</ele>
        <time>2014-06-21T14:57:59.000Z</time>
      </trkpt>
      <trkpt lat="44.19804" lon="3.43727">
        <ele>1054</ele>
        <time>2014-06-21T14:58:01.000Z</time>
      </trkpt>
      <trkpt lat="44.19804" lon="3.43727">
        <ele>1054</ele>
        <time>2014-06-21T14:58:03.000Z</time>
      </trkpt>
      <trkpt lat="44.19804" lon="3.43727">
        <ele>1054</ele>
        <time>2014-06-21T14:58:05.000Z</time>
      </trkpt>
      <trkpt lat="44.19804" lon="3.43727">
        <ele>1054</ele>
        <time>2014-06-21T14:58:07.000Z</time>
      </trkpt>
      <trkpt lat="44.19804" lon="3.43727">
        <ele>1054</ele>
        <time>2014-06-21T14:58:09.000Z</time>
      </trkpt>
      <trkpt lat="44.19804" lon="3.43727">
        <ele>1054</ele>
        <time>2014-06-21T14:58:11.000Z</time>
      </trkpt>
      <trkpt lat="44.19804" lon="3.43727">
        <ele>1054</ele>
        <time>2014-06-21T14:58:13.000Z</time>
      </trkpt>
      <trkpt lat="44.19804" lon="3.43727">
        <ele>1054</ele>
        <time>2014-06-21T14:58:15.000Z</time>
      </trkpt>
      <trkpt lat="44.19804" lon="3.43727">
        <ele>1054</ele>
        <time>2014-06-21T14:58:17.000Z</time>
      </trkpt>
      <trkpt lat="44.19804" lon="3.43727">
        <ele>1054</ele>
        <time>2014-06-21T14:58:19.000Z</time>
      </trkpt>
      <trkpt lat="44.19804" lon="3.43727">
        <ele>1054</ele>
        <time>2014-06-21T14:58:21.000Z</time>
      </trkpt>
      <trkpt lat="44.19804" lon="3.43727">
        <ele>1054</ele>
        <time>2014-06-21T14:58:23.000Z</time>
      </trkpt>
      <trkpt lat="44.19791" lon="3.43682">
        <ele>1056</ele>
        <time>2014-06-21T14:58:29.000Z</time>
      </trkpt>
      <trkpt lat="44.19783" lon="3.43656">
        <ele>1056</ele>
        <time>2014-06-21T14:58:31.000Z</time>
      </trkpt>
      <trkpt lat="44.19777" lon="3.43642">
        <ele>1057</ele>
        <time>2014-06-21T14:58:33.000Z</time>
      </trkpt>
      <trkpt lat="44.19773" lon="3.43632">
        <ele>1057</ele>
        <time>2014-06-21T14:58:35.000Z</time>
      </trkpt>
      <trkpt lat="44.19769" lon="3.43626">
        <ele>1056</ele>
        <time>2014-06-21T14:58:37.000Z</time>
      </trkpt>
      <trkpt lat="44.19761" lon="3.43615">
        <ele>1056</ele>
        <time>2014-06-21T14:58:39.000Z</time>
      </trkpt>
      <trkpt lat="44.19761" lon="3.43615">
        <ele>1056</ele>
        <time>2014-06-21T14:58:41.000Z</time>
      </trkpt>
      <trkpt lat="44.19761" lon="3.43615">
        <ele>1056</ele>
        <time>2014-06-21T14:58:43.000Z</time>
      </trkpt>
      <trkpt lat="44.19761" lon="3.43615">
        <ele>1056</ele>
        <time>2014-06-21T14:58:44.000Z</time>
      </trkpt>
      <trkpt lat="44.19761" lon="3.43615">
        <ele>1056</ele>
        <time>2014-06-21T14:58:46.000Z</time>
      </trkpt>
      <trkpt lat="44.19761" lon="3.43615">
        <ele>1056</ele>
        <time>2014-06-21T14:58:48.000Z</time>
      </trkpt>
      <trkpt lat="44.19761" lon="3.43615">
        <ele>1056</ele>
        <time>2014-06-21T14:59:00.000Z</time>
      </trkpt>
      <trkpt lat="44.19741" lon="3.43606">
        <ele>1057</ele>
        <time>2014-06-21T14:59:10.000Z</time>
      </trkpt>
      <trkpt lat="44.19728" lon="3.43602">
        <ele>1057</ele>
        <time>2014-06-21T14:59:16.000Z</time>
      </trkpt>
      <trkpt lat="44.19715" lon="3.43599">
        <ele>1058</ele>
        <time>2014-06-21T14:59:22.000Z</time>
      </trkpt>
      <trkpt lat="44.19715" lon="3.43599">
        <ele>1058</ele>
        <time>2014-06-21T14:59:28.000Z</time>
      </trkpt>
      <trkpt lat="44.19715" lon="3.43599">
        <ele>1058</ele>
        <time>2014-06-21T14:59:30.000Z</time>
      </trkpt>
      <trkpt lat="44.19715" lon="3.43599">
        <ele>1058</ele>
        <time>2014-06-21T14:59:32.000Z</time>
      </trkpt>
      <trkpt lat="44.19715" lon="3.43599">
        <ele>1058</ele>
        <time>2014-06-21T14:59:34.000Z</time>
      </trkpt>
      <trkpt lat="44.19715" lon="3.43599">
        <ele>1058</ele>
        <time>2014-06-21T14:59:36.000Z</time>
      </trkpt>
      <trkpt lat="44.19715" lon="3.43599">
        <ele>1058</ele>
        <time>2014-06-21T14:59:38.000Z</time>
      </trkpt>
      <trkpt lat="44.19715" lon="3.43599">
        <ele>1058</ele>
        <time>2014-06-21T14:59:40.000Z</time>
      </trkpt>
      <trkpt lat="44.19676" lon="3.43592">
        <ele>1060</ele>
        <time>2014-06-21T14:59:42.000Z</time>
      </trkpt>
      <trkpt lat="44.19666" lon="3.4359">
        <ele>1059</ele>
        <time>2014-06-21T14:59:46.000Z</time>
      </trkpt>
      <trkpt lat="44.19661" lon="3.43587">
        <ele>1059</ele>
        <time>2014-06-21T14:59:50.000Z</time>
      </trkpt>
      <trkpt lat="44.19657" lon="3.43584">
        <ele>1060</ele>
        <time>2014-06-21T14:59:52.000Z</time>
      </trkpt>
      <trkpt lat="44.19653" lon="3.4358">
        <ele>1059</ele>
        <time>2014-06-21T14:59:54.000Z</time>
      </trkpt>
      <trkpt lat="44.19648" lon="3.43576">
        <ele>1059</ele>
        <time>2014-06-21T14:59:56.000Z</time>
      </trkpt>
      <trkpt lat="44.19644" lon="3.43571">
        <ele>1059</ele>
        <time>2014-06-21T14:59:58.000Z</time>
      </trkpt>
      <trkpt lat="44.19637" lon="3.43561">
        <ele>1059</ele>
        <time>2014-06-21T15:00:00.000Z</time>
      </trkpt>
      <trkpt lat="44.19627" lon="3.43547">
        <ele>1058</ele>
        <time>2014-06-21T15:00:04.000Z</time>
      </trkpt>
      <trkpt lat="44.1962" lon="3.43533">
        <ele>1057</ele>
        <time>2014-06-21T15:00:08.000Z</time>
      </trkpt>
      <trkpt lat="44.19615" lon="3.43511">
        <ele>1056</ele>
        <time>2014-06-21T15:00:12.000Z</time>
      </trkpt>
      <trkpt lat="44.19604" lon="3.43497">
        <ele>1058</ele>
        <time>2014-06-21T15:00:16.000Z</time>
      </trkpt>
      <trkpt lat="44.19604" lon="3.43497">
        <ele>1058</ele>
        <time>2014-06-21T15:00:18.000Z</time>
      </trkpt>
      <trkpt lat="44.19604" lon="3.43497">
        <ele>1058</ele>
        <time>2014-06-21T15:00:19.000Z</time>
      </trkpt>
      <trkpt lat="44.19604" lon="3.43497">
        <ele>1058</ele>
        <time>2014-06-21T15:00:21.000Z</time>
      </trkpt>
      <trkpt lat="44.19604" lon="3.43497">
        <ele>1058</ele>
        <time>2014-06-21T15:00:23.000Z</time>
      </trkpt>
      <trkpt lat="44.19604" lon="3.43497">
        <ele>1058</ele>
        <time>2014-06-21T15:00:25.000Z</time>
      </trkpt>
      <trkpt lat="44.19604" lon="3.43497">
        <ele>1058</ele>
        <time>2014-06-21T15:00:27.000Z</time>
      </trkpt>
      <trkpt lat="44.19604" lon="3.43497">
        <ele>1058</ele>
        <time>2014-06-21T15:00:29.000Z</time>
      </trkpt>
      <trkpt lat="44.19604" lon="3.43497">
        <ele>1058</ele>
        <time>2014-06-21T15:00:31.000Z</time>
      </trkpt>
      <trkpt lat="44.19604" lon="3.43497">
        <ele>1058</ele>
        <time>2014-06-21T15:00:33.000Z</time>
      </trkpt>
      <trkpt lat="44.19604" lon="3.43497">
        <ele>1058</ele>
        <time>2014-06-21T15:00:35.000Z</time>
      </trkpt>
      <trkpt lat="44.19604" lon="3.43497">
        <ele>1058</ele>
        <time>2014-06-21T15:00:37.000Z</time>
      </trkpt>
      <trkpt lat="44.19535" lon="3.4351">
        <ele>1061</ele>
        <time>2014-06-21T15:00:41.000Z</time>
      </trkpt>
      <trkpt lat="44.19523" lon="3.43501">
        <ele>1061</ele>
        <time>2014-06-21T15:00:45.000Z</time>
      </trkpt>
      <trkpt lat="44.19523" lon="3.43501">
        <ele>1061</ele>
        <time>2014-06-21T15:00:47.000Z</time>
      </trkpt>
      <trkpt lat="44.19514" lon="3.4349">
        <ele>1060</ele>
        <time>2014-06-21T15:00:49.000Z</time>
      </trkpt>
      <trkpt lat="44.19503" lon="3.43481">
        <ele>1061</ele>
        <time>2014-06-21T15:00:53.000Z</time>
      </trkpt>
      <trkpt lat="44.19503" lon="3.43481">
        <ele>1061</ele>
        <time>2014-06-21T15:00:55.000Z</time>
      </trkpt>
      <trkpt lat="44.19503" lon="3.43481">
        <ele>1061</ele>
        <time>2014-06-21T15:00:57.000Z</time>
      </trkpt>
      <trkpt lat="44.19503" lon="3.43481">
        <ele>1061</ele>
        <time>2014-06-21T15:00:59.000Z</time>
      </trkpt>
      <trkpt lat="44.19503" lon="3.43481">
        <ele>1061</ele>
        <time>2014-06-21T15:01:01.000Z</time>
      </trkpt>
      <trkpt lat="44.19503" lon="3.43481">
        <ele>1061</ele>
        <time>2014-06-21T15:01:03.000Z</time>
      </trkpt>
      <trkpt lat="44.19503" lon="3.43481">
        <ele>1061</ele>
        <time>2014-06-21T15:01:05.000Z</time>
      </trkpt>
      <trkpt lat="44.19503" lon="3.43481">
        <ele>1061</ele>
        <time>2014-06-21T15:01:07.000Z</time>
      </trkpt>
      <trkpt lat="44.19503" lon="3.43481">
        <ele>1061</ele>
        <time>2014-06-21T15:01:09.000Z</time>
      </trkpt>
      <trkpt lat="44.19503" lon="3.43481">
        <ele>1061</ele>
        <time>2014-06-21T15:01:11.000Z</time>
      </trkpt>
      <trkpt lat="44.19503" lon="3.43481">
        <ele>1061</ele>
        <time>2014-06-21T15:01:13.000Z</time>
      </trkpt>
      <trkpt lat="44.19503" lon="3.43481">
        <ele>1061</ele>
        <time>2014-06-21T15:01:15.000Z</time>
      </trkpt>
      <trkpt lat="44.19503" lon="3.43481">
        <ele>1061</ele>
        <time>2014-06-21T15:01:17.000Z</time>
      </trkpt>
      <trkpt lat="44.19503" lon="3.43481">
        <ele>1061</ele>
        <time>2014-06-21T15:01:19.000Z</time>
      </trkpt>
      <trkpt lat="44.19503" lon="3.43481">
        <ele>1061</ele>
        <time>2014-06-21T15:01:21.000Z</time>
      </trkpt>
      <trkpt lat="44.19503" lon="3.43481">
        <ele>1061</ele>
        <time>2014-06-21T15:01:26.000Z</time>
      </trkpt>
      <trkpt lat="44.19503" lon="3.43481">
        <ele>1061</ele>
        <time>2014-06-21T15:01:28.000Z</time>
      </trkpt>
      <trkpt lat="44.19503" lon="3.43481">
        <ele>1061</ele>
        <time>2014-06-21T15:01:30.000Z</time>
      </trkpt>
      <trkpt lat="44.19503" lon="3.43481">
        <ele>1061</ele>
        <time>2014-06-21T15:01:32.000Z</time>
      </trkpt>
      <trkpt lat="44.19503" lon="3.43481">
        <ele>1061</ele>
        <time>2014-06-21T15:01:34.000Z</time>
      </trkpt>
      <trkpt lat="44.19503" lon="3.43481">
        <ele>1061</ele>
        <time>2014-06-21T15:01:38.000Z</time>
      </trkpt>
      <trkpt lat="44.19503" lon="3.43481">
        <ele>1061</ele>
        <time>2014-06-21T15:01:40.000Z</time>
      </trkpt>
      <trkpt lat="44.19503" lon="3.43481">
        <ele>1061</ele>
        <time>2014-06-21T15:01:42.000Z</time>
      </trkpt>
      <trkpt lat="44.19462" lon="3.43466">
        <ele>1072</ele>
        <time>2014-06-21T15:01:48.000Z</time>
      </trkpt>
      <trkpt lat="44.1944" lon="3.43458">
        <ele>1072</ele>
        <time>2014-06-21T15:01:50.000Z</time>
      </trkpt>
      <trkpt lat="44.19427" lon="3.43453">
        <ele>1072</ele>
        <time>2014-06-21T15:01:52.000Z</time>
      </trkpt>
      <trkpt lat="44.1942" lon="3.4345">
        <ele>1072</ele>
        <time>2014-06-21T15:01:54.000Z</time>
      </trkpt>
      <trkpt lat="44.19415" lon="3.43447">
        <ele>1072</ele>
        <time>2014-06-21T15:01:56.000Z</time>
      </trkpt>
      <trkpt lat="44.19402" lon="3.43442">
        <ele>1072</ele>
        <time>2014-06-21T15:02:00.000Z</time>
      </trkpt>
      <trkpt lat="44.19392" lon="3.43438">
        <ele>1073</ele>
        <time>2014-06-21T15:02:06.000Z</time>
      </trkpt>
      <trkpt lat="44.19392" lon="3.43438">
        <ele>1073</ele>
        <time>2014-06-21T15:02:08.000Z</time>
      </trkpt>
      <trkpt lat="44.19392" lon="3.43438">
        <ele>1073</ele>
        <time>2014-06-21T15:02:10.000Z</time>
      </trkpt>
      <trkpt lat="44.19378" lon="3.43433">
        <ele>1074</ele>
        <time>2014-06-21T15:02:14.000Z</time>
      </trkpt>
      <trkpt lat="44.19368" lon="3.43426">
        <ele>1074</ele>
        <time>2014-06-21T15:02:20.000Z</time>
      </trkpt>
      <trkpt lat="44.19357" lon="3.43418">
        <ele>1074</ele>
        <time>2014-06-21T15:02:26.000Z</time>
      </trkpt>
      <trkpt lat="44.19345" lon="3.43407">
        <ele>1074</ele>
        <time>2014-06-21T15:02:32.000Z</time>
      </trkpt>
      <trkpt lat="44.19337" lon="3.434">
        <ele>1074</ele>
        <time>2014-06-21T15:02:36.000Z</time>
      </trkpt>
      <trkpt lat="44.19326" lon="3.43389">
        <ele>1074</ele>
        <time>2014-06-21T15:02:42.000Z</time>
      </trkpt>
      <trkpt lat="44.19317" lon="3.43384">
        <ele>1074</ele>
        <time>2014-06-21T15:02:46.000Z</time>
      </trkpt>
      <trkpt lat="44.19299" lon="3.43375">
        <ele>1075</ele>
        <time>2014-06-21T15:02:54.000Z</time>
      </trkpt>
      <trkpt lat="44.19299" lon="3.43375">
        <ele>1075</ele>
        <time>2014-06-21T15:02:55.000Z</time>
      </trkpt>
      <trkpt lat="44.19299" lon="3.43375">
        <ele>1075</ele>
        <time>2014-06-21T15:02:57.000Z</time>
      </trkpt>
      <trkpt lat="44.19299" lon="3.43375">
        <ele>1075</ele>
        <time>2014-06-21T15:02:59.000Z</time>
      </trkpt>
      <trkpt lat="44.19299" lon="3.43375">
        <ele>1075</ele>
        <time>2014-06-21T15:03:01.000Z</time>
      </trkpt>
      <trkpt lat="44.19299" lon="3.43375">
        <ele>1075</ele>
        <time>2014-06-21T15:03:03.000Z</time>
      </trkpt>
      <trkpt lat="44.19299" lon="3.43375">
        <ele>1075</ele>
        <time>2014-06-21T15:03:05.000Z</time>
      </trkpt>
      <trkpt lat="44.19299" lon="3.43375">
        <ele>1075</ele>
        <time>2014-06-21T15:03:07.000Z</time>
      </trkpt>
      <trkpt lat="44.19299" lon="3.43375">
        <ele>1075</ele>
        <time>2014-06-21T15:03:09.000Z</time>
      </trkpt>
      <trkpt lat="44.19299" lon="3.43375">
        <ele>1075</ele>
        <time>2014-06-21T15:03:11.000Z</time>
      </trkpt>
      <trkpt lat="44.19299" lon="3.43375">
        <ele>1075</ele>
        <time>2014-06-21T15:03:12.000Z</time>
      </trkpt>
      <trkpt lat="44.19299" lon="3.43375">
        <ele>1075</ele>
        <time>2014-06-21T15:03:14.000Z</time>
      </trkpt>
      <trkpt lat="44.19299" lon="3.43375">
        <ele>1075</ele>
        <time>2014-06-21T15:03:16.000Z</time>
      </trkpt>
      <trkpt lat="44.19299" lon="3.43375">
        <ele>1075</ele>
        <time>2014-06-21T15:03:18.000Z</time>
      </trkpt>
      <trkpt lat="44.19265" lon="3.43361">
        <ele>1078</ele>
        <time>2014-06-21T15:03:20.000Z</time>
      </trkpt>
      <trkpt lat="44.19265" lon="3.43361">
        <ele>1078</ele>
        <time>2014-06-21T15:03:22.000Z</time>
      </trkpt>
      <trkpt lat="44.19265" lon="3.43361">
        <ele>1078</ele>
        <time>2014-06-21T15:03:24.000Z</time>
      </trkpt>
      <trkpt lat="44.19265" lon="3.43361">
        <ele>1078</ele>
        <time>2014-06-21T15:03:26.000Z</time>
      </trkpt>
      <trkpt lat="44.19265" lon="3.43361">
        <ele>1078</ele>
        <time>2014-06-21T15:03:28.000Z</time>
      </trkpt>
      <trkpt lat="44.19259" lon="3.43362">
        <ele>1075</ele>
        <time>2014-06-21T15:04:23.000Z</time>
      </trkpt>
      <trkpt lat="44.19254" lon="3.43361">
        <ele>1076</ele>
        <time>2014-06-21T15:04:25.000Z</time>
      </trkpt>
      <trkpt lat="44.19248" lon="3.43359">
        <ele>1079</ele>
        <time>2014-06-21T15:04:27.000Z</time>
      </trkpt>
      <trkpt lat="44.19242" lon="3.43358">
        <ele>1080</ele>
        <time>2014-06-21T15:04:29.000Z</time>
      </trkpt>
      <trkpt lat="44.19236" lon="3.43357">
        <ele>1078</ele>
        <time>2014-06-21T15:04:31.000Z</time>
      </trkpt>
      <trkpt lat="44.19225" lon="3.43354">
        <ele>1077</ele>
        <time>2014-06-21T15:04:33.000Z</time>
      </trkpt>
      <trkpt lat="44.19225" lon="3.43354">
        <ele>1077</ele>
        <time>2014-06-21T15:04:35.000Z</time>
      </trkpt>
      <trkpt lat="44.19225" lon="3.43354">
        <ele>1077</ele>
        <time>2014-06-21T15:04:37.000Z</time>
      </trkpt>
      <trkpt lat="44.19208" lon="3.43354">
        <ele>1076</ele>
        <time>2014-06-21T15:04:39.000Z</time>
      </trkpt>
      <trkpt lat="44.19194" lon="3.43348">
        <ele>1074</ele>
        <time>2014-06-21T15:04:43.000Z</time>
      </trkpt>
      <trkpt lat="44.1918" lon="3.43338">
        <ele>1073</ele>
        <time>2014-06-21T15:04:47.000Z</time>
      </trkpt>
      <trkpt lat="44.19165" lon="3.43332">
        <ele>1071</ele>
        <time>2014-06-21T15:04:51.000Z</time>
      </trkpt>
      <trkpt lat="44.19165" lon="3.43332">
        <ele>1071</ele>
        <time>2014-06-21T15:04:55.000Z</time>
      </trkpt>
      <trkpt lat="44.19165" lon="3.43332">
        <ele>1071</ele>
        <time>2014-06-21T15:04:57.000Z</time>
      </trkpt>
      <trkpt lat="44.19165" lon="3.43332">
        <ele>1071</ele>
        <time>2014-06-21T15:04:59.000Z</time>
      </trkpt>
      <trkpt lat="44.19165" lon="3.43332">
        <ele>1071</ele>
        <time>2014-06-21T15:05:01.000Z</time>
      </trkpt>
      <trkpt lat="44.19134" lon="3.43296">
        <ele>1067</ele>
        <time>2014-06-21T15:05:07.000Z</time>
      </trkpt>
      <trkpt lat="44.19133" lon="3.43283">
        <ele>1066</ele>
        <time>2014-06-21T15:05:09.000Z</time>
      </trkpt>
      <trkpt lat="44.19131" lon="3.43268">
        <ele>1065</ele>
        <time>2014-06-21T15:05:11.000Z</time>
      </trkpt>
      <trkpt lat="44.19131" lon="3.43242">
        <ele>1063</ele>
        <time>2014-06-21T15:05:15.000Z</time>
      </trkpt>
      <trkpt lat="44.19131" lon="3.43229">
        <ele>1062</ele>
        <time>2014-06-21T15:05:17.000Z</time>
      </trkpt>
      <trkpt lat="44.19134" lon="3.43215">
        <ele>1061</ele>
        <time>2014-06-21T15:05:19.000Z</time>
      </trkpt>
      <trkpt lat="44.19138" lon="3.43202">
        <ele>1060</ele>
        <time>2014-06-21T15:05:21.000Z</time>
      </trkpt>
      <trkpt lat="44.19141" lon="3.43189">
        <ele>1060</ele>
        <time>2014-06-21T15:05:23.000Z</time>
      </trkpt>
      <trkpt lat="44.19143" lon="3.43176">
        <ele>1059</ele>
        <time>2014-06-21T15:05:25.000Z</time>
      </trkpt>
      <trkpt lat="44.19143" lon="3.43176">
        <ele>1059</ele>
        <time>2014-06-21T15:05:27.000Z</time>
      </trkpt>
      <trkpt lat="44.19136" lon="3.43135">
        <ele>1055</ele>
        <time>2014-06-21T15:05:31.000Z</time>
      </trkpt>
      <trkpt lat="44.19136" lon="3.43135">
        <ele>1055</ele>
        <time>2014-06-21T15:05:35.000Z</time>
      </trkpt>
      <trkpt lat="44.19136" lon="3.43135">
        <ele>1055</ele>
        <time>2014-06-21T15:05:37.000Z</time>
      </trkpt>
      <trkpt lat="44.19136" lon="3.43135">
        <ele>1055</ele>
        <time>2014-06-21T15:05:39.000Z</time>
      </trkpt>
      <trkpt lat="44.19136" lon="3.43135">
        <ele>1055</ele>
        <time>2014-06-21T15:05:41.000Z</time>
      </trkpt>
      <trkpt lat="44.19136" lon="3.43135">
        <ele>1055</ele>
        <time>2014-06-21T15:05:43.000Z</time>
      </trkpt>
      <trkpt lat="44.19136" lon="3.43135">
        <ele>1055</ele>
        <time>2014-06-21T15:05:45.000Z</time>
      </trkpt>
      <trkpt lat="44.19136" lon="3.43135">
        <ele>1055</ele>
        <time>2014-06-21T15:05:47.000Z</time>
      </trkpt>
      <trkpt lat="44.19136" lon="3.43135">
        <ele>1055</ele>
        <time>2014-06-21T15:05:49.000Z</time>
      </trkpt>
      <trkpt lat="44.19136" lon="3.43135">
        <ele>1055</ele>
        <time>2014-06-21T15:05:51.000Z</time>
      </trkpt>
      <trkpt lat="44.19136" lon="3.43135">
        <ele>1055</ele>
        <time>2014-06-21T15:05:53.000Z</time>
      </trkpt>
      <trkpt lat="44.19136" lon="3.43135">
        <ele>1055</ele>
        <time>2014-06-21T15:05:55.000Z</time>
      </trkpt>
      <trkpt lat="44.19057" lon="3.43053">
        <ele>1058</ele>
        <time>2014-06-21T15:05:59.000Z</time>
      </trkpt>
      <trkpt lat="44.19043" lon="3.43058">
        <ele>1056</ele>
        <time>2014-06-21T15:06:03.000Z</time>
      </trkpt>
      <trkpt lat="44.19036" lon="3.43055">
        <ele>1054</ele>
        <time>2014-06-21T15:06:07.000Z</time>
      </trkpt>
      <trkpt lat="44.19031" lon="3.43048">
        <ele>1053</ele>
        <time>2014-06-21T15:06:09.000Z</time>
      </trkpt>
      <trkpt lat="44.19028" lon="3.43038">
        <ele>1052</ele>
        <time>2014-06-21T15:06:11.000Z</time>
      </trkpt>
      <trkpt lat="44.19028" lon="3.43038">
        <ele>1052</ele>
        <time>2014-06-21T15:06:13.000Z</time>
      </trkpt>
      <trkpt lat="44.19028" lon="3.43038">
        <ele>1052</ele>
        <time>2014-06-21T15:06:15.000Z</time>
      </trkpt>
      <trkpt lat="44.19015" lon="3.4303">
        <ele>1047</ele>
        <time>2014-06-21T15:06:18.000Z</time>
      </trkpt>
      <trkpt lat="44.19004" lon="3.43028">
        <ele>1046</ele>
        <time>2014-06-21T15:06:20.000Z</time>
      </trkpt>
      <trkpt lat="44.18995" lon="3.43029">
        <ele>1045</ele>
        <time>2014-06-21T15:06:22.000Z</time>
      </trkpt>
      <trkpt lat="44.18984" lon="3.43031">
        <ele>1045</ele>
        <time>2014-06-21T15:06:24.000Z</time>
      </trkpt>
      <trkpt lat="44.18972" lon="3.43036">
        <ele>1045</ele>
        <time>2014-06-21T15:06:26.000Z</time>
      </trkpt>
      <trkpt lat="44.18951" lon="3.43049">
        <ele>1044</ele>
        <time>2014-06-21T15:06:28.000Z</time>
      </trkpt>
      <trkpt lat="44.18945" lon="3.43061">
        <ele>1042</ele>
        <time>2014-06-21T15:06:30.000Z</time>
      </trkpt>
      <trkpt lat="44.18931" lon="3.43063">
        <ele>1040</ele>
        <time>2014-06-21T15:06:32.000Z</time>
      </trkpt>
      <trkpt lat="44.18921" lon="3.43068">
        <ele>1037</ele>
        <time>2014-06-21T15:06:34.000Z</time>
      </trkpt>
      <trkpt lat="44.18909" lon="3.43072">
        <ele>1036</ele>
        <time>2014-06-21T15:06:36.000Z</time>
      </trkpt>
      <trkpt lat="44.18909" lon="3.43072">
        <ele>1036</ele>
        <time>2014-06-21T15:06:38.000Z</time>
      </trkpt>
      <trkpt lat="44.18909" lon="3.43072">
        <ele>1036</ele>
        <time>2014-06-21T15:06:40.000Z</time>
      </trkpt>
      <trkpt lat="44.18909" lon="3.43072">
        <ele>1036</ele>
        <time>2014-06-21T15:06:42.000Z</time>
      </trkpt>
      <trkpt lat="44.18909" lon="3.43072">
        <ele>1036</ele>
        <time>2014-06-21T15:06:44.000Z</time>
      </trkpt>
      <trkpt lat="44.18909" lon="3.43072">
        <ele>1036</ele>
        <time>2014-06-21T15:06:46.000Z</time>
      </trkpt>
      <trkpt lat="44.18909" lon="3.43072">
        <ele>1036</ele>
        <time>2014-06-21T15:06:48.000Z</time>
      </trkpt>
      <trkpt lat="44.18909" lon="3.43072">
        <ele>1036</ele>
        <time>2014-06-21T15:06:50.000Z</time>
      </trkpt>
      <trkpt lat="44.18909" lon="3.43072">
        <ele>1036</ele>
        <time>2014-06-21T15:06:52.000Z</time>
      </trkpt>
      <trkpt lat="44.18909" lon="3.43072">
        <ele>1036</ele>
        <time>2014-06-21T15:06:54.000Z</time>
      </trkpt>
      <trkpt lat="44.18909" lon="3.43072">
        <ele>1036</ele>
        <time>2014-06-21T15:06:56.000Z</time>
      </trkpt>
      <trkpt lat="44.18909" lon="3.43072">
        <ele>1036</ele>
        <time>2014-06-21T15:06:58.000Z</time>
      </trkpt>
      <trkpt lat="44.18909" lon="3.43072">
        <ele>1036</ele>
        <time>2014-06-21T15:07:00.000Z</time>
      </trkpt>
      <trkpt lat="44.1883" lon="3.43077">
        <ele>1025</ele>
        <time>2014-06-21T15:07:18.000Z</time>
      </trkpt>
      <trkpt lat="44.1883" lon="3.43077">
        <ele>1025</ele>
        <time>2014-06-21T15:07:20.000Z</time>
      </trkpt>
      <trkpt lat="44.1883" lon="3.43077">
        <ele>1025</ele>
        <time>2014-06-21T15:07:22.000Z</time>
      </trkpt>
      <trkpt lat="44.1883" lon="3.43077">
        <ele>1025</ele>
        <time>2014-06-21T15:07:24.000Z</time>
      </trkpt>
      <trkpt lat="44.18822" lon="3.43095">
        <ele>1027</ele>
        <time>2014-06-21T15:10:21.000Z</time>
      </trkpt>
      <trkpt lat="44.1882" lon="3.43111">
        <ele>1023</ele>
        <time>2014-06-21T15:10:23.000Z</time>
      </trkpt>
      <trkpt lat="44.18816" lon="3.43119">
        <ele>1021</ele>
        <time>2014-06-21T15:10:25.000Z</time>
      </trkpt>
      <trkpt lat="44.18813" lon="3.43126">
        <ele>1015</ele>
        <time>2014-06-21T15:10:28.000Z</time>
      </trkpt>
      <trkpt lat="44.18808" lon="3.43131">
        <ele>1013</ele>
        <time>2014-06-21T15:10:29.000Z</time>
      </trkpt>
      <trkpt lat="44.18795" lon="3.43145">
        <ele>1014</ele>
        <time>2014-06-21T15:10:31.000Z</time>
      </trkpt>
      <trkpt lat="44.18787" lon="3.43151">
        <ele>1011</ele>
        <time>2014-06-21T15:10:34.000Z</time>
      </trkpt>
      <trkpt lat="44.18774" lon="3.43154">
        <ele>1007</ele>
        <time>2014-06-21T15:10:38.000Z</time>
      </trkpt>
      <trkpt lat="44.18761" lon="3.43152">
        <ele>1004</ele>
        <time>2014-06-21T15:10:42.000Z</time>
      </trkpt>
      <trkpt lat="44.18749" lon="3.43152">
        <ele>1002</ele>
        <time>2014-06-21T15:10:46.000Z</time>
      </trkpt>
      <trkpt lat="44.18749" lon="3.43152">
        <ele>1002</ele>
        <time>2014-06-21T15:10:48.000Z</time>
      </trkpt>
      <trkpt lat="44.18749" lon="3.43152">
        <ele>1002</ele>
        <time>2014-06-21T15:10:50.000Z</time>
      </trkpt>
      <trkpt lat="44.18749" lon="3.43152">
        <ele>1002</ele>
        <time>2014-06-21T15:10:52.000Z</time>
      </trkpt>
      <trkpt lat="44.18749" lon="3.43152">
        <ele>1002</ele>
        <time>2014-06-21T15:10:54.000Z</time>
      </trkpt>
      <trkpt lat="44.18749" lon="3.43152">
        <ele>1002</ele>
        <time>2014-06-21T15:10:56.000Z</time>
      </trkpt>
      <trkpt lat="44.18749" lon="3.43152">
        <ele>1002</ele>
        <time>2014-06-21T15:10:58.000Z</time>
      </trkpt>
      <trkpt lat="44.18749" lon="3.43152">
        <ele>1002</ele>
        <time>2014-06-21T15:11:00.000Z</time>
      </trkpt>
      <trkpt lat="44.18749" lon="3.43152">
        <ele>1002</ele>
        <time>2014-06-21T15:11:02.000Z</time>
      </trkpt>
      <trkpt lat="44.18732" lon="3.43146">
        <ele>1000</ele>
        <time>2014-06-21T15:11:53.000Z</time>
      </trkpt>
      <trkpt lat="44.18723" lon="3.43137">
        <ele>999</ele>
        <time>2014-06-21T15:11:55.000Z</time>
      </trkpt>
      <trkpt lat="44.18718" lon="3.43126">
        <ele>997</ele>
        <time>2014-06-21T15:11:57.000Z</time>
      </trkpt>
      <trkpt lat="44.18712" lon="3.43117">
        <ele>994</ele>
        <time>2014-06-21T15:11:59.000Z</time>
      </trkpt>
      <trkpt lat="44.18705" lon="3.4311">
        <ele>993</ele>
        <time>2014-06-21T15:12:01.000Z</time>
      </trkpt>
      <trkpt lat="44.18694" lon="3.43106">
        <ele>992</ele>
        <time>2014-06-21T15:12:03.000Z</time>
      </trkpt>
      <trkpt lat="44.18694" lon="3.43106">
        <ele>992</ele>
        <time>2014-06-21T15:12:05.000Z</time>
      </trkpt>
      <trkpt lat="44.18686" lon="3.43089">
        <ele>988</ele>
        <time>2014-06-21T15:12:07.000Z</time>
      </trkpt>
      <trkpt lat="44.18687" lon="3.43075">
        <ele>987</ele>
        <time>2014-06-21T15:12:09.000Z</time>
      </trkpt>
      <trkpt lat="44.18686" lon="3.43057">
        <ele>985</ele>
        <time>2014-06-21T15:12:13.000Z</time>
      </trkpt>
      <trkpt lat="44.18686" lon="3.43057">
        <ele>985</ele>
        <time>2014-06-21T15:12:15.000Z</time>
      </trkpt>
      <trkpt lat="44.18686" lon="3.43057">
        <ele>985</ele>
        <time>2014-06-21T15:12:17.000Z</time>
      </trkpt>
      <trkpt lat="44.18686" lon="3.43057">
        <ele>985</ele>
        <time>2014-06-21T15:12:19.000Z</time>
      </trkpt>
      <trkpt lat="44.18686" lon="3.43057">
        <ele>985</ele>
        <time>2014-06-21T15:12:21.000Z</time>
      </trkpt>
      <trkpt lat="44.18686" lon="3.43057">
        <ele>985</ele>
        <time>2014-06-21T15:12:23.000Z</time>
      </trkpt>
      <trkpt lat="44.18596" lon="3.43088">
        <ele>985</ele>
        <time>2014-06-21T15:12:30.000Z</time>
      </trkpt>
      <trkpt lat="44.18596" lon="3.43088">
        <ele>985</ele>
        <time>2014-06-21T15:12:37.000Z</time>
      </trkpt>
      <trkpt lat="44.18562" lon="3.43054">
        <ele>971</ele>
        <time>2014-06-21T15:12:39.000Z</time>
      </trkpt>
      <trkpt lat="44.18557" lon="3.43038">
        <ele>968</ele>
        <time>2014-06-21T15:12:41.000Z</time>
      </trkpt>
      <trkpt lat="44.18553" lon="3.43022">
        <ele>967</ele>
        <time>2014-06-21T15:12:43.000Z</time>
      </trkpt>
      <trkpt lat="44.18549" lon="3.43006">
        <ele>964</ele>
        <time>2014-06-21T15:12:45.000Z</time>
      </trkpt>
      <trkpt lat="44.18551" lon="3.42988">
        <ele>963</ele>
        <time>2014-06-21T15:12:47.000Z</time>
      </trkpt>
      <trkpt lat="44.18545" lon="3.4293">
        <ele>962</ele>
        <time>2014-06-21T15:12:53.000Z</time>
      </trkpt>
      <trkpt lat="44.18539" lon="3.42913">
        <ele>961</ele>
        <time>2014-06-21T15:12:55.000Z</time>
      </trkpt>
      <trkpt lat="44.18532" lon="3.42899">
        <ele>961</ele>
        <time>2014-06-21T15:12:57.000Z</time>
      </trkpt>
      <trkpt lat="44.18523" lon="3.42885">
        <ele>961</ele>
        <time>2014-06-21T15:12:59.000Z</time>
      </trkpt>
      <trkpt lat="44.18516" lon="3.42872">
        <ele>960</ele>
        <time>2014-06-21T15:13:01.000Z</time>
      </trkpt>
      <trkpt lat="44.1851" lon="3.42859">
        <ele>960</ele>
        <time>2014-06-21T15:13:03.000Z</time>
      </trkpt>
      <trkpt lat="44.18505" lon="3.42844">
        <ele>959</ele>
        <time>2014-06-21T15:13:05.000Z</time>
      </trkpt>
      <trkpt lat="44.18501" lon="3.42827">
        <ele>957</ele>
        <time>2014-06-21T15:13:07.000Z</time>
      </trkpt>
      <trkpt lat="44.18499" lon="3.42814">
        <ele>955</ele>
        <time>2014-06-21T15:13:09.000Z</time>
      </trkpt>
      <trkpt lat="44.18499" lon="3.42814">
        <ele>955</ele>
        <time>2014-06-21T15:13:11.000Z</time>
      </trkpt>
      <trkpt lat="44.18499" lon="3.42814">
        <ele>955</ele>
        <time>2014-06-21T15:13:12.000Z</time>
      </trkpt>
      <trkpt lat="44.18499" lon="3.42814">
        <ele>955</ele>
        <time>2014-06-21T15:13:14.000Z</time>
      </trkpt>
      <trkpt lat="44.18499" lon="3.42814">
        <ele>955</ele>
        <time>2014-06-21T15:13:16.000Z</time>
      </trkpt>
      <trkpt lat="44.18499" lon="3.42814">
        <ele>955</ele>
        <time>2014-06-21T15:13:18.000Z</time>
      </trkpt>
      <trkpt lat="44.18499" lon="3.42814">
        <ele>955</ele>
        <time>2014-06-21T15:13:20.000Z</time>
      </trkpt>
      <trkpt lat="44.18538" lon="3.42726">
        <ele>952</ele>
        <time>2014-06-21T15:13:23.000Z</time>
      </trkpt>
      <trkpt lat="44.1855" lon="3.42712">
        <ele>952</ele>
        <time>2014-06-21T15:13:26.000Z</time>
      </trkpt>
      <trkpt lat="44.1855" lon="3.42712">
        <ele>952</ele>
        <time>2014-06-21T15:13:28.000Z</time>
      </trkpt>
      <trkpt lat="44.18576" lon="3.42668">
        <ele>953</ele>
        <time>2014-06-21T15:13:32.000Z</time>
      </trkpt>
      <trkpt lat="44.18584" lon="3.42652">
        <ele>953</ele>
        <time>2014-06-21T15:13:34.000Z</time>
      </trkpt>
      <trkpt lat="44.18596" lon="3.42638">
        <ele>953</ele>
        <time>2014-06-21T15:13:36.000Z</time>
      </trkpt>
      <trkpt lat="44.18608" lon="3.4261">
        <ele>953</ele>
        <time>2014-06-21T15:13:39.000Z</time>
      </trkpt>
      <trkpt lat="44.18614" lon="3.42594">
        <ele>953</ele>
        <time>2014-06-21T15:13:41.000Z</time>
      </trkpt>
      <trkpt lat="44.1864" lon="3.42559">
        <ele>953</ele>
        <time>2014-06-21T15:13:46.000Z</time>
      </trkpt>
      <trkpt lat="44.1865" lon="3.42537">
        <ele>952</ele>
        <time>2014-06-21T15:13:48.000Z</time>
      </trkpt>
      <trkpt lat="44.18661" lon="3.42512">
        <ele>952</ele>
        <time>2014-06-21T15:13:51.000Z</time>
      </trkpt>
      <trkpt lat="44.1867" lon="3.42491">
        <ele>952</ele>
        <time>2014-06-21T15:13:53.000Z</time>
      </trkpt>
      <trkpt lat="44.1868" lon="3.42471">
        <ele>952</ele>
        <time>2014-06-21T15:13:55.000Z</time>
      </trkpt>
      <trkpt lat="44.1869" lon="3.42456">
        <ele>953</ele>
        <time>2014-06-21T15:13:57.000Z</time>
      </trkpt>
      <trkpt lat="44.18697" lon="3.42432">
        <ele>953</ele>
        <time>2014-06-21T15:13:59.000Z</time>
      </trkpt>
      <trkpt lat="44.18702" lon="3.42409">
        <ele>954</ele>
        <time>2014-06-21T15:14:01.000Z</time>
      </trkpt>
      <trkpt lat="44.18723" lon="3.4235">
        <ele>954</ele>
        <time>2014-06-21T15:14:06.000Z</time>
      </trkpt>
      <trkpt lat="44.18743" lon="3.42307">
        <ele>954</ele>
        <time>2014-06-21T15:14:10.000Z</time>
      </trkpt>
      <trkpt lat="44.18753" lon="3.42293">
        <ele>954</ele>
        <time>2014-06-21T15:14:12.000Z</time>
      </trkpt>
      <trkpt lat="44.18753" lon="3.42293">
        <ele>954</ele>
        <time>2014-06-21T15:14:14.000Z</time>
      </trkpt>
      <trkpt lat="44.18772" lon="3.42269">
        <ele>953</ele>
        <time>2014-06-21T15:14:16.000Z</time>
      </trkpt>
      <trkpt lat="44.18772" lon="3.42269">
        <ele>953</ele>
        <time>2014-06-21T15:14:21.000Z</time>
      </trkpt>
      <trkpt lat="44.18772" lon="3.42269">
        <ele>953</ele>
        <time>2014-06-21T15:14:23.000Z</time>
      </trkpt>
      <trkpt lat="44.18772" lon="3.42269">
        <ele>953</ele>
        <time>2014-06-21T15:14:25.000Z</time>
      </trkpt>
      <trkpt lat="44.18772" lon="3.42269">
        <ele>953</ele>
        <time>2014-06-21T15:14:28.000Z</time>
      </trkpt>
      <trkpt lat="44.18772" lon="3.42269">
        <ele>953</ele>
        <time>2014-06-21T15:14:30.000Z</time>
      </trkpt>
      <trkpt lat="44.18772" lon="3.42269">
        <ele>953</ele>
        <time>2014-06-21T15:14:32.000Z</time>
      </trkpt>
      <trkpt lat="44.18841" lon="3.42222">
        <ele>936</ele>
        <time>2014-06-21T15:14:39.000Z</time>
      </trkpt>
      <trkpt lat="44.18839" lon="3.42202">
        <ele>936</ele>
        <time>2014-06-21T15:14:43.000Z</time>
      </trkpt>
      <trkpt lat="44.18835" lon="3.42184">
        <ele>937</ele>
        <time>2014-06-21T15:14:45.000Z</time>
      </trkpt>
      <trkpt lat="44.18827" lon="3.42167">
        <ele>937</ele>
        <time>2014-06-21T15:14:47.000Z</time>
      </trkpt>
      <trkpt lat="44.18818" lon="3.42152">
        <ele>937</ele>
        <time>2014-06-21T15:14:49.000Z</time>
      </trkpt>
      <trkpt lat="44.18811" lon="3.42131">
        <ele>938</ele>
        <time>2014-06-21T15:14:51.000Z</time>
      </trkpt>
      <trkpt lat="44.18805" lon="3.42114">
        <ele>938</ele>
        <time>2014-06-21T15:14:53.000Z</time>
      </trkpt>
      <trkpt lat="44.188" lon="3.42096">
        <ele>939</ele>
        <time>2014-06-21T15:14:55.000Z</time>
      </trkpt>
      <trkpt lat="44.18799" lon="3.42074">
        <ele>939</ele>
        <time>2014-06-21T15:14:57.000Z</time>
      </trkpt>
      <trkpt lat="44.18806" lon="3.42053">
        <ele>940</ele>
        <time>2014-06-21T15:14:59.000Z</time>
      </trkpt>
      <trkpt lat="44.18814" lon="3.4203">
        <ele>940</ele>
        <time>2014-06-21T15:15:01.000Z</time>
      </trkpt>
      <trkpt lat="44.18818" lon="3.42007">
        <ele>940</ele>
        <time>2014-06-21T15:15:03.000Z</time>
      </trkpt>
      <trkpt lat="44.18827" lon="3.41975">
        <ele>939</ele>
        <time>2014-06-21T15:15:07.000Z</time>
      </trkpt>
      <trkpt lat="44.18852" lon="3.41956">
        <ele>925</ele>
        <time>2014-06-21T15:15:10.000Z</time>
      </trkpt>
      <trkpt lat="44.18871" lon="3.41954">
        <ele>916</ele>
        <time>2014-06-21T15:15:12.000Z</time>
      </trkpt>
      <trkpt lat="44.18885" lon="3.41953">
        <ele>910</ele>
        <time>2014-06-21T15:15:14.000Z</time>
      </trkpt>
      <trkpt lat="44.18885" lon="3.41953">
        <ele>910</ele>
        <time>2014-06-21T15:15:15.000Z</time>
      </trkpt>
      <trkpt lat="44.18893" lon="3.41955">
        <ele>902</ele>
        <time>2014-06-21T15:15:18.000Z</time>
      </trkpt>
      <trkpt lat="44.18893" lon="3.41955">
        <ele>902</ele>
        <time>2014-06-21T15:15:20.000Z</time>
      </trkpt>
      <trkpt lat="44.18893" lon="3.41955">
        <ele>902</ele>
        <time>2014-06-21T15:15:24.000Z</time>
      </trkpt>
      <trkpt lat="44.18869" lon="3.4195">
        <ele>888</ele>
        <time>2014-06-21T15:15:59.000Z</time>
      </trkpt>
      <trkpt lat="44.18849" lon="3.41955">
        <ele>888</ele>
        <time>2014-06-21T15:16:01.000Z</time>
      </trkpt>
      <trkpt lat="44.18831" lon="3.41966">
        <ele>886</ele>
        <time>2014-06-21T15:16:03.000Z</time>
      </trkpt>
      <trkpt lat="44.18814" lon="3.4198">
        <ele>885</ele>
        <time>2014-06-21T15:16:05.000Z</time>
      </trkpt>
      <trkpt lat="44.18803" lon="3.41994">
        <ele>884</ele>
        <time>2014-06-21T15:16:06.000Z</time>
      </trkpt>
      <trkpt lat="44.18781" lon="3.42033">
        <ele>883</ele>
        <time>2014-06-21T15:16:08.000Z</time>
      </trkpt>
      <trkpt lat="44.18767" lon="3.42059">
        <ele>881</ele>
        <time>2014-06-21T15:16:10.000Z</time>
      </trkpt>
      <trkpt lat="44.18758" lon="3.42085">
        <ele>880</ele>
        <time>2014-06-21T15:16:12.000Z</time>
      </trkpt>
      <trkpt lat="44.18759" lon="3.42125">
        <ele>879</ele>
        <time>2014-06-21T15:16:15.000Z</time>
      </trkpt>
      <trkpt lat="44.1876" lon="3.42157">
        <ele>876</ele>
        <time>2014-06-21T15:16:17.000Z</time>
      </trkpt>
      <trkpt lat="44.18752" lon="3.42182">
        <ele>876</ele>
        <time>2014-06-21T15:16:19.000Z</time>
      </trkpt>
      <trkpt lat="44.18744" lon="3.42199">
        <ele>874</ele>
        <time>2014-06-21T15:16:21.000Z</time>
      </trkpt>
      <trkpt lat="44.18729" lon="3.42203">
        <ele>874</ele>
        <time>2014-06-21T15:16:23.000Z</time>
      </trkpt>
      <trkpt lat="44.18703" lon="3.42217">
        <ele>869</ele>
        <time>2014-06-21T15:16:26.000Z</time>
      </trkpt>
      <trkpt lat="44.18689" lon="3.42232">
        <ele>867</ele>
        <time>2014-06-21T15:16:28.000Z</time>
      </trkpt>
      <trkpt lat="44.18659" lon="3.42259">
        <ele>865</ele>
        <time>2014-06-21T15:16:31.000Z</time>
      </trkpt>
      <trkpt lat="44.18646" lon="3.42282">
        <ele>862</ele>
        <time>2014-06-21T15:16:33.000Z</time>
      </trkpt>
      <trkpt lat="44.18638" lon="3.42311">
        <ele>862</ele>
        <time>2014-06-21T15:16:35.000Z</time>
      </trkpt>
      <trkpt lat="44.18628" lon="3.42336">
        <ele>862</ele>
        <time>2014-06-21T15:16:37.000Z</time>
      </trkpt>
      <trkpt lat="44.18618" lon="3.42357">
        <ele>860</ele>
        <time>2014-06-21T15:16:39.000Z</time>
      </trkpt>
      <trkpt lat="44.18602" lon="3.42377">
        <ele>859</ele>
        <time>2014-06-21T15:16:41.000Z</time>
      </trkpt>
      <trkpt lat="44.18588" lon="3.42397">
        <ele>857</ele>
        <time>2014-06-21T15:16:43.000Z</time>
      </trkpt>
      <trkpt lat="44.18571" lon="3.42411">
        <ele>857</ele>
        <time>2014-06-21T15:16:45.000Z</time>
      </trkpt>
      <trkpt lat="44.18571" lon="3.42411">
        <ele>857</ele>
        <time>2014-06-21T15:16:46.000Z</time>
      </trkpt>
      <trkpt lat="44.18545" lon="3.42438">
        <ele>855</ele>
        <time>2014-06-21T15:16:48.000Z</time>
      </trkpt>
      <trkpt lat="44.18525" lon="3.42461">
        <ele>853</ele>
        <time>2014-06-21T15:16:50.000Z</time>
      </trkpt>
      <trkpt lat="44.1851" lon="3.42483">
        <ele>851</ele>
        <time>2014-06-21T15:16:52.000Z</time>
      </trkpt>
      <trkpt lat="44.18491" lon="3.42496">
        <ele>850</ele>
        <time>2014-06-21T15:16:54.000Z</time>
      </trkpt>
      <trkpt lat="44.18471" lon="3.42507">
        <ele>847</ele>
        <time>2014-06-21T15:16:56.000Z</time>
      </trkpt>
      <trkpt lat="44.18452" lon="3.42525">
        <ele>847</ele>
        <time>2014-06-21T15:16:58.000Z</time>
      </trkpt>
      <trkpt lat="44.18435" lon="3.42544">
        <ele>847</ele>
        <time>2014-06-21T15:17:00.000Z</time>
      </trkpt>
      <trkpt lat="44.18417" lon="3.42563">
        <ele>846</ele>
        <time>2014-06-21T15:17:02.000Z</time>
      </trkpt>
      <trkpt lat="44.18395" lon="3.42583">
        <ele>844</ele>
        <time>2014-06-21T15:17:04.000Z</time>
      </trkpt>
      <trkpt lat="44.18377" lon="3.42598">
        <ele>843</ele>
        <time>2014-06-21T15:17:06.000Z</time>
      </trkpt>
      <trkpt lat="44.18358" lon="3.42615">
        <ele>841</ele>
        <time>2014-06-21T15:17:08.000Z</time>
      </trkpt>
      <trkpt lat="44.18337" lon="3.42635">
        <ele>839</ele>
        <time>2014-06-21T15:17:10.000Z</time>
      </trkpt>
      <trkpt lat="44.18325" lon="3.4266">
        <ele>838</ele>
        <time>2014-06-21T15:17:12.000Z</time>
      </trkpt>
      <trkpt lat="44.18313" lon="3.42677">
        <ele>838</ele>
        <time>2014-06-21T15:17:14.000Z</time>
      </trkpt>
      <trkpt lat="44.18296" lon="3.42692">
        <ele>837</ele>
        <time>2014-06-21T15:17:16.000Z</time>
      </trkpt>
      <trkpt lat="44.18279" lon="3.42708">
        <ele>835</ele>
        <time>2014-06-21T15:17:18.000Z</time>
      </trkpt>
      <trkpt lat="44.18265" lon="3.42729">
        <ele>832</ele>
        <time>2014-06-21T15:17:20.000Z</time>
      </trkpt>
      <trkpt lat="44.18244" lon="3.42747">
        <ele>833</ele>
        <time>2014-06-21T15:17:22.000Z</time>
      </trkpt>
      <trkpt lat="44.18234" lon="3.42775">
        <ele>831</ele>
        <time>2014-06-21T15:17:24.000Z</time>
      </trkpt>
      <trkpt lat="44.1822" lon="3.428">
        <ele>828</ele>
        <time>2014-06-21T15:17:26.000Z</time>
      </trkpt>
      <trkpt lat="44.18208" lon="3.42828">
        <ele>826</ele>
        <time>2014-06-21T15:17:28.000Z</time>
      </trkpt>
      <trkpt lat="44.18201" lon="3.42854">
        <ele>824</ele>
        <time>2014-06-21T15:17:30.000Z</time>
      </trkpt>
      <trkpt lat="44.18203" lon="3.42876">
        <ele>825</ele>
        <time>2014-06-21T15:17:32.000Z</time>
      </trkpt>
      <trkpt lat="44.18213" lon="3.42899">
        <ele>824</ele>
        <time>2014-06-21T15:17:34.000Z</time>
      </trkpt>
      <trkpt lat="44.18222" lon="3.42921">
        <ele>822</ele>
        <time>2014-06-21T15:17:36.000Z</time>
      </trkpt>
      <trkpt lat="44.18222" lon="3.42921">
        <ele>822</ele>
        <time>2014-06-21T15:17:37.000Z</time>
      </trkpt>
      <trkpt lat="44.18232" lon="3.42957">
        <ele>822</ele>
        <time>2014-06-21T15:17:39.000Z</time>
      </trkpt>
      <trkpt lat="44.18232" lon="3.42957">
        <ele>822</ele>
        <time>2014-06-21T15:17:40.000Z</time>
      </trkpt>
      <trkpt lat="44.18215" lon="3.42996">
        <ele>822</ele>
        <time>2014-06-21T15:17:42.000Z</time>
      </trkpt>
      <trkpt lat="44.18208" lon="3.43021">
        <ele>822</ele>
        <time>2014-06-21T15:17:44.000Z</time>
      </trkpt>
      <trkpt lat="44.18204" lon="3.43053">
        <ele>822</ele>
        <time>2014-06-21T15:17:46.000Z</time>
      </trkpt>
      <trkpt lat="44.18206" lon="3.43087">
        <ele>822</ele>
        <time>2014-06-21T15:17:48.000Z</time>
      </trkpt>
      <trkpt lat="44.18277" lon="3.43265">
        <ele>823</ele>
        <time>2014-06-21T15:18:00.000Z</time>
      </trkpt>
      <trkpt lat="44.18291" lon="3.43295">
        <ele>823</ele>
        <time>2014-06-21T15:18:03.000Z</time>
      </trkpt>
      <trkpt lat="44.18314" lon="3.43359">
        <ele>824</ele>
        <time>2014-06-21T15:18:07.000Z</time>
      </trkpt>
      <trkpt lat="44.1833" lon="3.43388">
        <ele>825</ele>
        <time>2014-06-21T15:18:09.000Z</time>
      </trkpt>
      <trkpt lat="44.18342" lon="3.43421">
        <ele>825</ele>
        <time>2014-06-21T15:18:11.000Z</time>
      </trkpt>
      <trkpt lat="44.18355" lon="3.43446">
        <ele>826</ele>
        <time>2014-06-21T15:18:13.000Z</time>
      </trkpt>
      <trkpt lat="44.1837" lon="3.43474">
        <ele>827</ele>
        <time>2014-06-21T15:18:15.000Z</time>
      </trkpt>
      <trkpt lat="44.18376" lon="3.4352">
        <ele>823</ele>
        <time>2014-06-21T15:18:20.000Z</time>
      </trkpt>
      <trkpt lat="44.18376" lon="3.4352">
        <ele>823</ele>
        <time>2014-06-21T15:18:23.000Z</time>
      </trkpt>
      <trkpt lat="44.18343" lon="3.43491">
        <ele>802</ele>
        <time>2014-06-21T15:18:27.000Z</time>
      </trkpt>
      <trkpt lat="44.18326" lon="3.4348">
        <ele>800</ele>
        <time>2014-06-21T15:18:29.000Z</time>
      </trkpt>
      <trkpt lat="44.18312" lon="3.43464">
        <ele>799</ele>
        <time>2014-06-21T15:18:31.000Z</time>
      </trkpt>
      <trkpt lat="44.18276" lon="3.43447">
        <ele>796</ele>
        <time>2014-06-21T15:18:34.000Z</time>
      </trkpt>
      <trkpt lat="44.18251" lon="3.43428">
        <ele>796</ele>
        <time>2014-06-21T15:18:37.000Z</time>
      </trkpt>
      <trkpt lat="44.1823" lon="3.43409">
        <ele>790</ele>
        <time>2014-06-21T15:18:40.000Z</time>
      </trkpt>
      <trkpt lat="44.18214" lon="3.43389">
        <ele>787</ele>
        <time>2014-06-21T15:18:42.000Z</time>
      </trkpt>
      <trkpt lat="44.18199" lon="3.43371">
        <ele>786</ele>
        <time>2014-06-21T15:18:44.000Z</time>
      </trkpt>
      <trkpt lat="44.18184" lon="3.43349">
        <ele>783</ele>
        <time>2014-06-21T15:18:46.000Z</time>
      </trkpt>
      <trkpt lat="44.18168" lon="3.43328">
        <ele>780</ele>
        <time>2014-06-21T15:18:48.000Z</time>
      </trkpt>
      <trkpt lat="44.18159" lon="3.43316">
        <ele>775</ele>
        <time>2014-06-21T15:18:49.000Z</time>
      </trkpt>
      <trkpt lat="44.18143" lon="3.43292">
        <ele>772</ele>
        <time>2014-06-21T15:18:51.000Z</time>
      </trkpt>
      <trkpt lat="44.18134" lon="3.43266">
        <ele>770</ele>
        <time>2014-06-21T15:18:53.000Z</time>
      </trkpt>
      <trkpt lat="44.18128" lon="3.43235">
        <ele>768</ele>
        <time>2014-06-21T15:18:55.000Z</time>
      </trkpt>
      <trkpt lat="44.18124" lon="3.43206">
        <ele>766</ele>
        <time>2014-06-21T15:18:57.000Z</time>
      </trkpt>
      <trkpt lat="44.18119" lon="3.43179">
        <ele>764</ele>
        <time>2014-06-21T15:18:59.000Z</time>
      </trkpt>
      <trkpt lat="44.18113" lon="3.43155">
        <ele>763</ele>
        <time>2014-06-21T15:19:01.000Z</time>
      </trkpt>
      <trkpt lat="44.18102" lon="3.43136">
        <ele>760</ele>
        <time>2014-06-21T15:19:03.000Z</time>
      </trkpt>
      <trkpt lat="44.18089" lon="3.43121">
        <ele>759</ele>
        <time>2014-06-21T15:19:05.000Z</time>
      </trkpt>
      <trkpt lat="44.18076" lon="3.43107">
        <ele>759</ele>
        <time>2014-06-21T15:19:07.000Z</time>
      </trkpt>
      <trkpt lat="44.1806" lon="3.43096">
        <ele>759</ele>
        <time>2014-06-21T15:19:09.000Z</time>
      </trkpt>
      <trkpt lat="44.18034" lon="3.43082">
        <ele>759</ele>
        <time>2014-06-21T15:19:12.000Z</time>
      </trkpt>
      <trkpt lat="44.18016" lon="3.43074">
        <ele>759</ele>
        <time>2014-06-21T15:19:14.000Z</time>
      </trkpt>
      <trkpt lat="44.18003" lon="3.43066">
        <ele>759</ele>
        <time>2014-06-21T15:19:16.000Z</time>
      </trkpt>
      <trkpt lat="44.17986" lon="3.43057">
        <ele>759</ele>
        <time>2014-06-21T15:19:18.000Z</time>
      </trkpt>
      <trkpt lat="44.17972" lon="3.43049">
        <ele>759</ele>
        <time>2014-06-21T15:19:20.000Z</time>
      </trkpt>
      <trkpt lat="44.17958" lon="3.43043">
        <ele>759</ele>
        <time>2014-06-21T15:19:23.000Z</time>
      </trkpt>
      <trkpt lat="44.17958" lon="3.43043">
        <ele>759</ele>
        <time>2014-06-21T15:19:25.000Z</time>
      </trkpt>
      <trkpt lat="44.17942" lon="3.43035">
        <ele>759</ele>
        <time>2014-06-21T15:19:27.000Z</time>
      </trkpt>
      <trkpt lat="44.17942" lon="3.43035">
        <ele>759</ele>
        <time>2014-06-21T15:19:30.000Z</time>
      </trkpt>
      <trkpt lat="44.17942" lon="3.43035">
        <ele>759</ele>
        <time>2014-06-21T15:19:32.000Z</time>
      </trkpt>
      <trkpt lat="44.17942" lon="3.43035">
        <ele>759</ele>
        <time>2014-06-21T15:19:34.000Z</time>
      </trkpt>
      <trkpt lat="44.17942" lon="3.43035">
        <ele>759</ele>
        <time>2014-06-21T15:19:38.000Z</time>
      </trkpt>
      <trkpt lat="44.17942" lon="3.43035">
        <ele>759</ele>
        <time>2014-06-21T15:19:40.000Z</time>
      </trkpt>
      <trkpt lat="44.17942" lon="3.43035">
        <ele>759</ele>
        <time>2014-06-21T15:19:42.000Z</time>
      </trkpt>
      <trkpt lat="44.1793" lon="3.43063">
        <ele>758</ele>
        <time>2014-06-21T15:19:46.000Z</time>
      </trkpt>
      <trkpt lat="44.1793" lon="3.43063">
        <ele>758</ele>
        <time>2014-06-21T15:19:51.000Z</time>
      </trkpt>
      <trkpt lat="44.1793" lon="3.43063">
        <ele>758</ele>
        <time>2014-06-21T15:19:53.000Z</time>
      </trkpt>
      <trkpt lat="44.17918" lon="3.43097">
        <ele>758</ele>
        <time>2014-06-21T15:19:55.000Z</time>
      </trkpt>
      <trkpt lat="44.17908" lon="3.43118">
        <ele>760</ele>
        <time>2014-06-21T15:20:00.000Z</time>
      </trkpt>
      <trkpt lat="44.17908" lon="3.43118">
        <ele>760</ele>
        <time>2014-06-21T15:20:02.000Z</time>
      </trkpt>
      <trkpt lat="44.17902" lon="3.43137">
        <ele>761</ele>
        <time>2014-06-21T15:20:04.000Z</time>
      </trkpt>
      <trkpt lat="44.17908" lon="3.4316">
        <ele>760</ele>
        <time>2014-06-21T15:20:09.000Z</time>
      </trkpt>
      <trkpt lat="44.1791" lon="3.43179">
        <ele>758</ele>
        <time>2014-06-21T15:20:12.000Z</time>
      </trkpt>
      <trkpt lat="44.17916" lon="3.43201">
        <ele>757</ele>
        <time>2014-06-21T15:20:16.000Z</time>
      </trkpt>
      <trkpt lat="44.17919" lon="3.4322">
        <ele>759</ele>
        <time>2014-06-21T15:20:21.000Z</time>
      </trkpt>
      <trkpt lat="44.17919" lon="3.4322">
        <ele>759</ele>
        <time>2014-06-21T15:20:23.000Z</time>
      </trkpt>
      <trkpt lat="44.17919" lon="3.4322">
        <ele>759</ele>
        <time>2014-06-21T15:20:25.000Z</time>
      </trkpt>
      <trkpt lat="44.17919" lon="3.4322">
        <ele>759</ele>
        <time>2014-06-21T15:20:27.000Z</time>
      </trkpt>
      <trkpt lat="44.17919" lon="3.4322">
        <ele>759</ele>
        <time>2014-06-21T15:20:29.000Z</time>
      </trkpt>
      <trkpt lat="44.17931" lon="3.43247">
        <ele>759</ele>
        <time>2014-06-21T15:20:33.000Z</time>
      </trkpt>
      <trkpt lat="44.17939" lon="3.43265">
        <ele>760</ele>
        <time>2014-06-21T15:20:35.000Z</time>
      </trkpt>
      <trkpt lat="44.17943" lon="3.43276">
        <ele>760</ele>
        <time>2014-06-21T15:20:36.000Z</time>
      </trkpt>
      <trkpt lat="44.17947" lon="3.43285">
        <ele>763</ele>
        <time>2014-06-21T15:20:38.000Z</time>
      </trkpt>
      <trkpt lat="44.17952" lon="3.43294">
        <ele>764</ele>
        <time>2014-06-21T15:20:40.000Z</time>
      </trkpt>
      <trkpt lat="44.17957" lon="3.43313">
        <ele>762</ele>
        <time>2014-06-21T15:20:42.000Z</time>
      </trkpt>
      <trkpt lat="44.17957" lon="3.43313">
        <ele>762</ele>
        <time>2014-06-21T15:20:44.000Z</time>
      </trkpt>
      <trkpt lat="44.17957" lon="3.43313">
        <ele>762</ele>
        <time>2014-06-21T15:20:46.000Z</time>
      </trkpt>
      <trkpt lat="44.17957" lon="3.43313">
        <ele>762</ele>
        <time>2014-06-21T15:20:48.000Z</time>
      </trkpt>
      <trkpt lat="44.17967" lon="3.43344">
        <ele>762</ele>
        <time>2014-06-21T15:20:51.000Z</time>
      </trkpt>
      <trkpt lat="44.17976" lon="3.43356">
        <ele>763</ele>
        <time>2014-06-21T15:20:54.000Z</time>
      </trkpt>
      <trkpt lat="44.17987" lon="3.43372">
        <ele>765</ele>
        <time>2014-06-21T15:20:58.000Z</time>
      </trkpt>
      <trkpt lat="44.17987" lon="3.43372">
        <ele>765</ele>
        <time>2014-06-21T15:21:01.000Z</time>
      </trkpt>
      <trkpt lat="44.17987" lon="3.43372">
        <ele>765</ele>
        <time>2014-06-21T15:21:05.000Z</time>
      </trkpt>
      <trkpt lat="44.18013" lon="3.43397">
        <ele>767</ele>
        <time>2014-06-21T15:21:07.000Z</time>
      </trkpt>
      <trkpt lat="44.18013" lon="3.43397">
        <ele>767</ele>
        <time>2014-06-21T15:21:09.000Z</time>
      </trkpt>
      <trkpt lat="44.18022" lon="3.43419">
        <ele>764</ele>
        <time>2014-06-21T15:21:11.000Z</time>
      </trkpt>
      <trkpt lat="44.18037" lon="3.43438">
        <ele>760</ele>
        <time>2014-06-21T15:21:16.000Z</time>
      </trkpt>
      <trkpt lat="44.18044" lon="3.43449">
        <ele>760</ele>
        <time>2014-06-21T15:21:18.000Z</time>
      </trkpt>
      <trkpt lat="44.18052" lon="3.43462">
        <ele>761</ele>
        <time>2014-06-21T15:21:20.000Z</time>
      </trkpt>
      <trkpt lat="44.18069" lon="3.43489">
        <ele>759</ele>
        <time>2014-06-21T15:21:25.000Z</time>
      </trkpt>
      <trkpt lat="44.18078" lon="3.43507">
        <ele>759</ele>
        <time>2014-06-21T15:21:29.000Z</time>
      </trkpt>
      <trkpt lat="44.18078" lon="3.43507">
        <ele>759</ele>
        <time>2014-06-21T15:21:30.000Z</time>
      </trkpt>
      <trkpt lat="44.18078" lon="3.43507">
        <ele>759</ele>
        <time>2014-06-21T15:21:32.000Z</time>
      </trkpt>
      <trkpt lat="44.18078" lon="3.43507">
        <ele>759</ele>
        <time>2014-06-21T15:21:34.000Z</time>
      </trkpt>
      <trkpt lat="44.18078" lon="3.43507">
        <ele>759</ele>
        <time>2014-06-21T15:21:36.000Z</time>
      </trkpt>
      <trkpt lat="44.18078" lon="3.43507">
        <ele>759</ele>
        <time>2014-06-21T15:21:38.000Z</time>
      </trkpt>
      <trkpt lat="44.18078" lon="3.43507">
        <ele>759</ele>
        <time>2014-06-21T15:21:39.000Z</time>
      </trkpt>
      <trkpt lat="44.18078" lon="3.43507">
        <ele>759</ele>
        <time>2014-06-21T15:21:41.000Z</time>
      </trkpt>
      <trkpt lat="44.18078" lon="3.43507">
        <ele>759</ele>
        <time>2014-06-21T15:21:43.000Z</time>
      </trkpt>
      <trkpt lat="44.18078" lon="3.43507">
        <ele>759</ele>
        <time>2014-06-21T15:21:45.000Z</time>
      </trkpt>
      <trkpt lat="44.18078" lon="3.43507">
        <ele>759</ele>
        <time>2014-06-21T15:21:47.000Z</time>
      </trkpt>
      <trkpt lat="44.18078" lon="3.43507">
        <ele>759</ele>
        <time>2014-06-21T15:21:49.000Z</time>
      </trkpt>
      <trkpt lat="44.18078" lon="3.43507">
        <ele>759</ele>
        <time>2014-06-21T15:21:51.000Z</time>
      </trkpt>
      <trkpt lat="44.18078" lon="3.43507">
        <ele>759</ele>
        <time>2014-06-21T15:21:53.000Z</time>
      </trkpt>
      <trkpt lat="44.18078" lon="3.43507">
        <ele>759</ele>
        <time>2014-06-21T15:21:55.000Z</time>
      </trkpt>
      <trkpt lat="44.18078" lon="3.43507">
        <ele>759</ele>
        <time>2014-06-21T15:21:57.000Z</time>
      </trkpt>
      <trkpt lat="44.18078" lon="3.43507">
        <ele>759</ele>
        <time>2014-06-21T15:21:59.000Z</time>
      </trkpt>
      <trkpt lat="44.18078" lon="3.43507">
        <ele>759</ele>
        <time>2014-06-21T15:22:01.000Z</time>
      </trkpt>
      <trkpt lat="44.18078" lon="3.43507">
        <ele>759</ele>
        <time>2014-06-21T15:22:03.000Z</time>
      </trkpt>
      <trkpt lat="44.18092" lon="3.43553">
        <ele>759</ele>
        <time>2014-06-21T15:22:05.000Z</time>
      </trkpt>
      <trkpt lat="44.18097" lon="3.43579">
        <ele>759</ele>
        <time>2014-06-21T15:22:07.000Z</time>
      </trkpt>
      <trkpt lat="44.18099" lon="3.43592">
        <ele>759</ele>
        <time>2014-06-21T15:22:08.000Z</time>
      </trkpt>
      <trkpt lat="44.18098" lon="3.43601">
        <ele>760</ele>
        <time>2014-06-21T15:22:10.000Z</time>
      </trkpt>
      <trkpt lat="44.18098" lon="3.43601">
        <ele>760</ele>
        <time>2014-06-21T15:22:12.000Z</time>
      </trkpt>
      <trkpt lat="44.18098" lon="3.43601">
        <ele>760</ele>
        <time>2014-06-21T15:22:14.000Z</time>
      </trkpt>
      <trkpt lat="44.18098" lon="3.43601">
        <ele>760</ele>
        <time>2014-06-21T15:22:16.000Z</time>
      </trkpt>
      <trkpt lat="44.18098" lon="3.43601">
        <ele>760</ele>
        <time>2014-06-21T15:22:18.000Z</time>
      </trkpt>
      <trkpt lat="44.18098" lon="3.43601">
        <ele>760</ele>
        <time>2014-06-21T15:22:20.000Z</time>
      </trkpt>
      <trkpt lat="44.18095" lon="3.43622">
        <ele>766</ele>
        <time>2014-06-21T15:22:26.000Z</time>
      </trkpt>
      <trkpt lat="44.18095" lon="3.43622">
        <ele>766</ele>
        <time>2014-06-21T15:22:28.000Z</time>
      </trkpt>
      <trkpt lat="44.18095" lon="3.43622">
        <ele>766</ele>
        <time>2014-06-21T15:22:30.000Z</time>
      </trkpt>
      <trkpt lat="44.18095" lon="3.43622">
        <ele>766</ele>
        <time>2014-06-21T15:22:31.000Z</time>
      </trkpt>
      <trkpt lat="44.18093" lon="3.4364">
        <ele>764</ele>
        <time>2014-06-21T15:22:35.000Z</time>
      </trkpt>
      <trkpt lat="44.18093" lon="3.4364">
        <ele>764</ele>
        <time>2014-06-21T15:22:37.000Z</time>
      </trkpt>
      <trkpt lat="44.18093" lon="3.4364">
        <ele>764</ele>
        <time>2014-06-21T15:22:39.000Z</time>
      </trkpt>
      <trkpt lat="44.18093" lon="3.4364">
        <ele>764</ele>
        <time>2014-06-21T15:22:41.000Z</time>
      </trkpt>
      <trkpt lat="44.18093" lon="3.4364">
        <ele>764</ele>
        <time>2014-06-21T15:22:42.000Z</time>
      </trkpt>
      <trkpt lat="44.18093" lon="3.4364">
        <ele>764</ele>
        <time>2014-06-21T15:23:22.000Z</time>
      </trkpt>
    </trkseg>
  </trk>
</gpx>